<?xml version="1.0" encoding="UTF-8"?>
<gpx version="1.1" creator="2bulu-scraper" xmlns="http://www.topografix.com/GPX/1/1">
  <metadata><name>2026-05-31 09:11:33</name><desc>source: 2bulu.com trackId=85119628; exported 2026-09-01T19:09:31.081Z</desc>
    <bounds minlat="28.230012" minlon="105.202461" maxlat="28.258934" maxlon="105.224821"/>
    <link href="https://www.2bulu.com/track/t-N6jroXnWyjnp%252FR2KBg5Tzw%253D%253D.htm"><text>2bulu 源页面</text></link>
  </metadata>
  <wpt lat="28.258515" lon="105.218466"><ele>354</ele><name>出发</name></wpt>
  <wpt lat="28.253469" lon="105.215163"><ele>362</ele><name>从右边走</name></wpt>
  <wpt lat="28.253783" lon="105.212342"><ele>358</ele><name>这里有个桥</name></wpt>
  <wpt lat="28.252259" lon="105.207846"><ele>373</ele><name></name></wpt>
  <wpt lat="28.25038" lon="105.211272"><ele>405</ele><name>从这个坡上去</name></wpt>
  <wpt lat="28.250045" lon="105.211452"><ele>417</ele><name>从左边上去</name></wpt>
  <wpt lat="28.236329" lon="105.202905"><ele>621</ele><name></name></wpt>
  <wpt lat="28.234496" lon="105.203389"><ele>616</ele><name></name></wpt>
  <wpt lat="28.232443" lon="105.205019"><ele>674</ele><name>从这里上去</name></wpt>
  <wpt lat="28.231438" lon="105.206706"><ele>750</ele><name>红领巾上去</name></wpt>
  <wpt lat="28.231127" lon="105.211369"><ele>950</ele><name></name></wpt>
  <wpt lat="28.233155" lon="105.211505"><ele>962</ele><name></name></wpt>
  <wpt lat="28.234207" lon="105.210144"><ele>955</ele><name></name></wpt>
  <wpt lat="28.234417" lon="105.209784"><ele>970</ele><name>这里拍照打卡</name></wpt>
  <wpt lat="28.249752" lon="105.223788"><ele>721</ele><name></name></wpt>
  <wpt lat="28.250803" lon="105.223878"><ele>674</ele><name>往前走</name></wpt>
  <wpt lat="28.253112" lon="105.222516"><ele>610</ele><name></name></wpt>
  <wpt lat="28.257017" lon="105.22339"><ele>486</ele><name></name></wpt>
  <wpt lat="28.258609" lon="105.22248"><ele>434</ele><name>到马路</name></wpt>
  <wpt lat="28.258501" lon="105.218358"><ele>359</ele><name>结束</name></wpt>
  <trk><name>2026-05-31 09:11:33</name>
      <trkseg>
        <trkpt lat="28.258514" lon="105.21841"><ele>353.29398</ele><time>2026-05-30T17:11:43.000Z</time></trkpt>
        <trkpt lat="28.258515" lon="105.218466"><ele>354.24374</ele><time>2026-05-30T17:11:47.000Z</time></trkpt>
        <trkpt lat="28.25851" lon="105.218526"><ele>356.124</ele><time>2026-05-30T17:11:52.000Z</time></trkpt>
        <trkpt lat="28.258478" lon="105.218609"><ele>357.41403</ele><time>2026-05-30T17:11:55.000Z</time></trkpt>
        <trkpt lat="28.258436" lon="105.218648"><ele>358.1279</ele><time>2026-05-30T17:11:58.000Z</time></trkpt>
        <trkpt lat="28.258386" lon="105.218636"><ele>358.7369</ele><time>2026-05-30T17:12:00.000Z</time></trkpt>
        <trkpt lat="28.258342" lon="105.218604"><ele>359.45026</ele><time>2026-05-30T17:12:03.000Z</time></trkpt>
        <trkpt lat="28.258292" lon="105.21859"><ele>359.49252</ele><time>2026-05-30T17:12:07.000Z</time></trkpt>
        <trkpt lat="28.258246" lon="105.21857"><ele>359.5506</ele><time>2026-05-30T17:12:10.000Z</time></trkpt>
        <trkpt lat="28.258214" lon="105.218533"><ele>359.58646</ele><time>2026-05-30T17:12:13.000Z</time></trkpt>
        <trkpt lat="28.258182" lon="105.218491"><ele>359.6732</ele><time>2026-05-30T17:12:16.000Z</time></trkpt>
        <trkpt lat="28.258152" lon="105.21845"><ele>360.31897</ele><time>2026-05-30T17:12:19.000Z</time></trkpt>
        <trkpt lat="28.258114" lon="105.218419"><ele>361.038</ele><time>2026-05-30T17:12:22.000Z</time></trkpt>
        <trkpt lat="28.258062" lon="105.218392"><ele>361.9755</ele><time>2026-05-30T17:12:26.000Z</time></trkpt>
        <trkpt lat="28.258012" lon="105.218371"><ele>364.02237</ele><time>2026-05-30T17:12:29.000Z</time></trkpt>
        <trkpt lat="28.257968" lon="105.218353"><ele>363.53278</ele><time>2026-05-30T17:12:32.000Z</time></trkpt>
        <trkpt lat="28.258027" lon="105.218363"><ele>361.435</ele><time>2026-05-30T17:12:37.000Z</time></trkpt>
        <trkpt lat="28.258047" lon="105.218415"><ele>364.12912</ele><time>2026-05-30T17:12:40.000Z</time></trkpt>
        <trkpt lat="28.258002" lon="105.218395"><ele>366.78912</ele><time>2026-05-30T17:12:47.000Z</time></trkpt>
        <trkpt lat="28.257943" lon="105.218381"><ele>364.4275</ele><time>2026-05-30T17:12:51.000Z</time></trkpt>
        <trkpt lat="28.257893" lon="105.218364"><ele>364.58597</ele><time>2026-05-30T17:12:55.000Z</time></trkpt>
        <trkpt lat="28.257825" lon="105.218347"><ele>364.45776</ele><time>2026-05-30T17:12:59.000Z</time></trkpt>
        <trkpt lat="28.257773" lon="105.218338"><ele>364.2463</ele><time>2026-05-30T17:13:02.000Z</time></trkpt>
        <trkpt lat="28.257714" lon="105.218321"><ele>364.0878</ele><time>2026-05-30T17:13:06.000Z</time></trkpt>
        <trkpt lat="28.257667" lon="105.2183"><ele>363.38788</ele><time>2026-05-30T17:13:10.000Z</time></trkpt>
        <trkpt lat="28.257635" lon="105.218251"><ele>363.69876</ele><time>2026-05-30T17:13:14.000Z</time></trkpt>
        <trkpt lat="28.257591" lon="105.218243"><ele>362.67148</ele><time>2026-05-30T17:13:18.000Z</time></trkpt>
        <trkpt lat="28.257544" lon="105.218218"><ele>364.2558</ele><time>2026-05-30T17:13:25.000Z</time></trkpt>
        <trkpt lat="28.257499" lon="105.218206"><ele>364.4305</ele><time>2026-05-30T17:13:40.000Z</time></trkpt>
        <trkpt lat="28.257484" lon="105.218256"><ele>363.9463</ele><time>2026-05-30T17:14:03.000Z</time></trkpt>
        <trkpt lat="28.257439" lon="105.218258"><ele>362.79883</ele><time>2026-05-30T17:14:24.000Z</time></trkpt>
        <trkpt lat="28.257393" lon="105.218247"><ele>362.59604</ele><time>2026-05-30T17:14:28.000Z</time></trkpt>
        <trkpt lat="28.25736" lon="105.218205"><ele>362.21487</ele><time>2026-05-30T17:14:33.000Z</time></trkpt>
        <trkpt lat="28.257319" lon="105.218161"><ele>362.47864</ele><time>2026-05-30T17:14:39.000Z</time></trkpt>
        <trkpt lat="28.257282" lon="105.218126"><ele>363.5179</ele><time>2026-05-30T17:14:43.000Z</time></trkpt>
        <trkpt lat="28.25725" lon="105.218087"><ele>363.66858</ele><time>2026-05-30T17:14:48.000Z</time></trkpt>
        <trkpt lat="28.25721" lon="105.218045"><ele>364.10635</ele><time>2026-05-30T17:14:53.000Z</time></trkpt>
        <trkpt lat="28.257174" lon="105.218011"><ele>363.65247</ele><time>2026-05-30T17:14:57.000Z</time></trkpt>
        <trkpt lat="28.25712" lon="105.218014"><ele>364.17963</ele><time>2026-05-30T17:15:01.000Z</time></trkpt>
        <trkpt lat="28.257071" lon="105.218003"><ele>363.28647</ele><time>2026-05-30T17:15:06.000Z</time></trkpt>
        <trkpt lat="28.257036" lon="105.217968"><ele>362.48203</ele><time>2026-05-30T17:15:11.000Z</time></trkpt>
        <trkpt lat="28.257011" lon="105.21792"><ele>363.41995</ele><time>2026-05-30T17:15:15.000Z</time></trkpt>
        <trkpt lat="28.257006" lon="105.217865"><ele>363.2886</ele><time>2026-05-30T17:15:19.000Z</time></trkpt>
        <trkpt lat="28.257021" lon="105.217808"><ele>363.40027</ele><time>2026-05-30T17:15:24.000Z</time></trkpt>
        <trkpt lat="28.257032" lon="105.217748"><ele>364.01303</ele><time>2026-05-30T17:15:30.000Z</time></trkpt>
        <trkpt lat="28.257022" lon="105.217691"><ele>363.93692</ele><time>2026-05-30T17:15:35.000Z</time></trkpt>
        <trkpt lat="28.257003" lon="105.217641"><ele>362.7754</ele><time>2026-05-30T17:15:41.000Z</time></trkpt>
        <trkpt lat="28.25699" lon="105.217582"><ele>363.6653</ele><time>2026-05-30T17:15:47.000Z</time></trkpt>
        <trkpt lat="28.257028" lon="105.217552"><ele>361.7243</ele><time>2026-05-30T17:15:56.000Z</time></trkpt>
        <trkpt lat="28.257072" lon="105.217577"><ele>362.68338</ele><time>2026-05-30T17:16:00.000Z</time></trkpt>
        <trkpt lat="28.257132" lon="105.217569"><ele>361.3084</ele><time>2026-05-30T17:16:04.000Z</time></trkpt>
        <trkpt lat="28.257126" lon="105.217515"><ele>360.31305</ele><time>2026-05-30T17:16:59.000Z</time></trkpt>
        <trkpt lat="28.257109" lon="105.217463"><ele>358.58484</ele><time>2026-05-30T17:17:04.000Z</time></trkpt>
        <trkpt lat="28.25705" lon="105.217452"><ele>358.78244</ele><time>2026-05-30T17:17:07.000Z</time></trkpt>
        <trkpt lat="28.257008" lon="105.217419"><ele>358.9182</ele><time>2026-05-30T17:17:10.000Z</time></trkpt>
        <trkpt lat="28.256997" lon="105.21737"><ele>359.08582</ele><time>2026-05-30T17:17:20.000Z</time></trkpt>
        <trkpt lat="28.257004" lon="105.217308"><ele>358.1853</ele><time>2026-05-30T17:17:28.000Z</time></trkpt>
        <trkpt lat="28.256955" lon="105.217303"><ele>357.8852</ele><time>2026-05-30T17:17:31.000Z</time></trkpt>
        <trkpt lat="28.256909" lon="105.21731"><ele>358.95224</ele><time>2026-05-30T17:17:36.000Z</time></trkpt>
        <trkpt lat="28.25686" lon="105.217294"><ele>358.83533</ele><time>2026-05-30T17:17:42.000Z</time></trkpt>
        <trkpt lat="28.256815" lon="105.217275"><ele>358.68268</ele><time>2026-05-30T17:17:49.000Z</time></trkpt>
        <trkpt lat="28.256773" lon="105.217255"><ele>358.31927</ele><time>2026-05-30T17:17:52.000Z</time></trkpt>
        <trkpt lat="28.25672" lon="105.217245"><ele>359.2214</ele><time>2026-05-30T17:17:56.000Z</time></trkpt>
        <trkpt lat="28.256668" lon="105.217235"><ele>359.25696</ele><time>2026-05-30T17:18:00.000Z</time></trkpt>
        <trkpt lat="28.256622" lon="105.217218"><ele>359.22104</ele><time>2026-05-30T17:18:05.000Z</time></trkpt>
        <trkpt lat="28.256572" lon="105.217214"><ele>359.48245</ele><time>2026-05-30T17:18:10.000Z</time></trkpt>
        <trkpt lat="28.256519" lon="105.217212"><ele>359.17453</ele><time>2026-05-30T17:18:15.000Z</time></trkpt>
        <trkpt lat="28.25647" lon="105.217205"><ele>359.15533</ele><time>2026-05-30T17:18:20.000Z</time></trkpt>
        <trkpt lat="28.256423" lon="105.217188"><ele>358.72702</ele><time>2026-05-30T17:18:25.000Z</time></trkpt>
        <trkpt lat="28.256371" lon="105.217191"><ele>358.96368</ele><time>2026-05-30T17:18:32.000Z</time></trkpt>
        <trkpt lat="28.25632" lon="105.217189"><ele>359.41418</ele><time>2026-05-30T17:18:37.000Z</time></trkpt>
        <trkpt lat="28.256271" lon="105.217177"><ele>359.40082</ele><time>2026-05-30T17:18:41.000Z</time></trkpt>
        <trkpt lat="28.256222" lon="105.217155"><ele>359.20782</ele><time>2026-05-30T17:18:44.000Z</time></trkpt>
        <trkpt lat="28.256171" lon="105.217155"><ele>358.86044</ele><time>2026-05-30T17:18:48.000Z</time></trkpt>
        <trkpt lat="28.256122" lon="105.217171"><ele>359.35275</ele><time>2026-05-30T17:18:51.000Z</time></trkpt>
        <trkpt lat="28.25607" lon="105.217205"><ele>359.0868</ele><time>2026-05-30T17:18:54.000Z</time></trkpt>
        <trkpt lat="28.256043" lon="105.217263"><ele>358.43475</ele><time>2026-05-30T17:18:57.000Z</time></trkpt>
        <trkpt lat="28.256012" lon="105.217325"><ele>357.96805</ele><time>2026-05-30T17:19:00.000Z</time></trkpt>
        <trkpt lat="28.255989" lon="105.217387"><ele>359.11417</ele><time>2026-05-30T17:19:03.000Z</time></trkpt>
        <trkpt lat="28.255953" lon="105.217428"><ele>359.52582</ele><time>2026-05-30T17:19:05.000Z</time></trkpt>
        <trkpt lat="28.255912" lon="105.217453"><ele>360.1774</ele><time>2026-05-30T17:19:07.000Z</time></trkpt>
        <trkpt lat="28.255876" lon="105.217489"><ele>359.6524</ele><time>2026-05-30T17:19:09.000Z</time></trkpt>
        <trkpt lat="28.255829" lon="105.217524"><ele>358.5818</ele><time>2026-05-30T17:19:12.000Z</time></trkpt>
        <trkpt lat="28.255786" lon="105.217539"><ele>359.82858</ele><time>2026-05-30T17:19:15.000Z</time></trkpt>
        <trkpt lat="28.255736" lon="105.21757"><ele>360.59024</ele><time>2026-05-30T17:19:18.000Z</time></trkpt>
        <trkpt lat="28.255693" lon="105.217605"><ele>359.58676</ele><time>2026-05-30T17:19:20.000Z</time></trkpt>
        <trkpt lat="28.255648" lon="105.217621"><ele>359.80505</ele><time>2026-05-30T17:19:22.000Z</time></trkpt>
        <trkpt lat="28.255582" lon="105.217628"><ele>359.87164</ele><time>2026-05-30T17:19:24.000Z</time></trkpt>
        <trkpt lat="28.255536" lon="105.217644"><ele>360.1344</ele><time>2026-05-30T17:19:26.000Z</time></trkpt>
        <trkpt lat="28.255488" lon="105.217637"><ele>360.48163</ele><time>2026-05-30T17:19:28.000Z</time></trkpt>
        <trkpt lat="28.255443" lon="105.217629"><ele>361.25302</ele><time>2026-05-30T17:19:30.000Z</time></trkpt>
        <trkpt lat="28.255385" lon="105.217619"><ele>359.82755</ele><time>2026-05-30T17:19:35.000Z</time></trkpt>
        <trkpt lat="28.25534" lon="105.217608"><ele>359.69513</ele><time>2026-05-30T17:19:39.000Z</time></trkpt>
        <trkpt lat="28.255295" lon="105.217606"><ele>359.4664</ele><time>2026-05-30T17:19:43.000Z</time></trkpt>
        <trkpt lat="28.255242" lon="105.217595"><ele>360.49454</ele><time>2026-05-30T17:19:48.000Z</time></trkpt>
        <trkpt lat="28.255194" lon="105.217588"><ele>361.6851</ele><time>2026-05-30T17:19:53.000Z</time></trkpt>
        <trkpt lat="28.255146" lon="105.217573"><ele>362.7634</ele><time>2026-05-30T17:19:58.000Z</time></trkpt>
        <trkpt lat="28.255086" lon="105.217557"><ele>361.2804</ele><time>2026-05-30T17:20:02.000Z</time></trkpt>
        <trkpt lat="28.255038" lon="105.217529"><ele>361.78696</ele><time>2026-05-30T17:20:06.000Z</time></trkpt>
        <trkpt lat="28.254985" lon="105.217501"><ele>362.50272</ele><time>2026-05-30T17:20:11.000Z</time></trkpt>
        <trkpt lat="28.254944" lon="105.217479"><ele>362.4777</ele><time>2026-05-30T17:20:16.000Z</time></trkpt>
        <trkpt lat="28.254897" lon="105.217461"><ele>361.86542</ele><time>2026-05-30T17:20:20.000Z</time></trkpt>
        <trkpt lat="28.25486" lon="105.217427"><ele>361.39856</ele><time>2026-05-30T17:20:26.000Z</time></trkpt>
        <trkpt lat="28.25482" lon="105.217398"><ele>360.4359</ele><time>2026-05-30T17:20:31.000Z</time></trkpt>
        <trkpt lat="28.25477" lon="105.217376"><ele>359.63885</ele><time>2026-05-30T17:20:36.000Z</time></trkpt>
        <trkpt lat="28.254724" lon="105.217361"><ele>359.43512</ele><time>2026-05-30T17:20:41.000Z</time></trkpt>
        <trkpt lat="28.254686" lon="105.217331"><ele>359.36362</ele><time>2026-05-30T17:20:49.000Z</time></trkpt>
        <trkpt lat="28.254639" lon="105.217326"><ele>358.97742</ele><time>2026-05-30T17:20:53.000Z</time></trkpt>
        <trkpt lat="28.254597" lon="105.217306"><ele>357.6988</ele><time>2026-05-30T17:20:57.000Z</time></trkpt>
        <trkpt lat="28.254544" lon="105.217279"><ele>357.76968</ele><time>2026-05-30T17:21:03.000Z</time></trkpt>
        <trkpt lat="28.25449" lon="105.217285"><ele>358.21426</ele><time>2026-05-30T17:21:07.000Z</time></trkpt>
        <trkpt lat="28.254451" lon="105.217253"><ele>357.59967</ele><time>2026-05-30T17:21:12.000Z</time></trkpt>
        <trkpt lat="28.254408" lon="105.217224"><ele>357.27942</ele><time>2026-05-30T17:21:15.000Z</time></trkpt>
        <trkpt lat="28.254361" lon="105.21722"><ele>358.1678</ele><time>2026-05-30T17:21:18.000Z</time></trkpt>
        <trkpt lat="28.254312" lon="105.217186"><ele>358.19046</ele><time>2026-05-30T17:21:23.000Z</time></trkpt>
        <trkpt lat="28.254276" lon="105.217149"><ele>358.55258</ele><time>2026-05-30T17:21:27.000Z</time></trkpt>
        <trkpt lat="28.254235" lon="105.217109"><ele>358.57034</ele><time>2026-05-30T17:21:32.000Z</time></trkpt>
        <trkpt lat="28.254202" lon="105.217061"><ele>357.80228</ele><time>2026-05-30T17:21:35.000Z</time></trkpt>
        <trkpt lat="28.254156" lon="105.217039"><ele>358.77377</ele><time>2026-05-30T17:21:38.000Z</time></trkpt>
        <trkpt lat="28.254119" lon="105.217002"><ele>357.6814</ele><time>2026-05-30T17:21:42.000Z</time></trkpt>
        <trkpt lat="28.254072" lon="105.216972"><ele>358.18192</ele><time>2026-05-30T17:21:45.000Z</time></trkpt>
        <trkpt lat="28.254041" lon="105.216931"><ele>358.9291</ele><time>2026-05-30T17:21:48.000Z</time></trkpt>
        <trkpt lat="28.254014" lon="105.216884"><ele>358.8698</ele><time>2026-05-30T17:21:51.000Z</time></trkpt>
        <trkpt lat="28.253971" lon="105.216849"><ele>359.71106</ele><time>2026-05-30T17:21:55.000Z</time></trkpt>
        <trkpt lat="28.253938" lon="105.216795"><ele>359.0084</ele><time>2026-05-30T17:21:59.000Z</time></trkpt>
        <trkpt lat="28.253892" lon="105.216753"><ele>360.01828</ele><time>2026-05-30T17:22:03.000Z</time></trkpt>
        <trkpt lat="28.253859" lon="105.21671"><ele>358.88696</ele><time>2026-05-30T17:22:06.000Z</time></trkpt>
        <trkpt lat="28.253824" lon="105.216664"><ele>359.20767</ele><time>2026-05-30T17:22:09.000Z</time></trkpt>
        <trkpt lat="28.253795" lon="105.216604"><ele>359.03732</ele><time>2026-05-30T17:22:12.000Z</time></trkpt>
        <trkpt lat="28.253776" lon="105.216541"><ele>358.59753</ele><time>2026-05-30T17:22:15.000Z</time></trkpt>
        <trkpt lat="28.253738" lon="105.216485"><ele>357.5216</ele><time>2026-05-30T17:22:18.000Z</time></trkpt>
        <trkpt lat="28.25371" lon="105.216421"><ele>359.09985</ele><time>2026-05-30T17:22:21.000Z</time></trkpt>
        <trkpt lat="28.253696" lon="105.216356"><ele>358.29068</ele><time>2026-05-30T17:22:24.000Z</time></trkpt>
        <trkpt lat="28.253677" lon="105.216298"><ele>358.73743</ele><time>2026-05-30T17:22:27.000Z</time></trkpt>
        <trkpt lat="28.253649" lon="105.216246"><ele>359.66153</ele><time>2026-05-30T17:22:30.000Z</time></trkpt>
        <trkpt lat="28.253636" lon="105.216195"><ele>360.15427</ele><time>2026-05-30T17:22:33.000Z</time></trkpt>
        <trkpt lat="28.253621" lon="105.216138"><ele>360.72235</ele><time>2026-05-30T17:22:36.000Z</time></trkpt>
        <trkpt lat="28.253607" lon="105.21608"><ele>360.57254</ele><time>2026-05-30T17:22:39.000Z</time></trkpt>
        <trkpt lat="28.253594" lon="105.216025"><ele>360.5621</ele><time>2026-05-30T17:22:42.000Z</time></trkpt>
        <trkpt lat="28.253569" lon="105.215979"><ele>361.77664</ele><time>2026-05-30T17:22:45.000Z</time></trkpt>
        <trkpt lat="28.253545" lon="105.215935"><ele>362.76584</ele><time>2026-05-30T17:22:48.000Z</time></trkpt>
        <trkpt lat="28.253537" lon="105.21587"><ele>362.7243</ele><time>2026-05-30T17:22:52.000Z</time></trkpt>
        <trkpt lat="28.253524" lon="105.215818"><ele>362.8388</ele><time>2026-05-30T17:22:55.000Z</time></trkpt>
        <trkpt lat="28.253514" lon="105.215758"><ele>363.38232</ele><time>2026-05-30T17:22:59.000Z</time></trkpt>
        <trkpt lat="28.253518" lon="105.215705"><ele>364.18466</ele><time>2026-05-30T17:23:03.000Z</time></trkpt>
        <trkpt lat="28.25349" lon="105.21565"><ele>363.689</ele><time>2026-05-30T17:23:07.000Z</time></trkpt>
        <trkpt lat="28.253484" lon="105.215591"><ele>363.34796</ele><time>2026-05-30T17:23:11.000Z</time></trkpt>
        <trkpt lat="28.253488" lon="105.215536"><ele>364.2897</ele><time>2026-05-30T17:23:15.000Z</time></trkpt>
        <trkpt lat="28.253497" lon="105.215484"><ele>363.74136</ele><time>2026-05-30T17:23:19.000Z</time></trkpt>
        <trkpt lat="28.253505" lon="105.215431"><ele>362.79083</ele><time>2026-05-30T17:23:23.000Z</time></trkpt>
        <trkpt lat="28.253496" lon="105.21538"><ele>362.47205</ele><time>2026-05-30T17:23:28.000Z</time></trkpt>
        <trkpt lat="28.253469" lon="105.215338"><ele>361.46515</ele><time>2026-05-30T17:23:33.000Z</time></trkpt>
        <trkpt lat="28.253458" lon="105.215274"><ele>359.96774</ele><time>2026-05-30T17:23:38.000Z</time></trkpt>
        <trkpt lat="28.253446" lon="105.215208"><ele>361.3163</ele><time>2026-05-30T17:23:43.000Z</time></trkpt>
        <trkpt lat="28.253469" lon="105.215163"><ele>361.51752</ele><time>2026-05-30T17:23:55.000Z</time></trkpt>
        <trkpt lat="28.253485" lon="105.215114"><ele>360.23932</ele><time>2026-05-30T17:24:01.000Z</time></trkpt>
        <trkpt lat="28.253501" lon="105.215051"><ele>359.46045</ele><time>2026-05-30T17:24:06.000Z</time></trkpt>
        <trkpt lat="28.253506" lon="105.214997"><ele>359.64365</ele><time>2026-05-30T17:24:12.000Z</time></trkpt>
        <trkpt lat="28.253519" lon="105.214938"><ele>359.41843</ele><time>2026-05-30T17:24:17.000Z</time></trkpt>
        <trkpt lat="28.253525" lon="105.214886"><ele>359.48877</ele><time>2026-05-30T17:24:22.000Z</time></trkpt>
        <trkpt lat="28.25353" lon="105.214828"><ele>359.00305</ele><time>2026-05-30T17:24:28.000Z</time></trkpt>
        <trkpt lat="28.25355" lon="105.214772"><ele>359.97296</ele><time>2026-05-30T17:24:33.000Z</time></trkpt>
        <trkpt lat="28.253539" lon="105.214713"><ele>360.90424</ele><time>2026-05-30T17:24:38.000Z</time></trkpt>
        <trkpt lat="28.253551" lon="105.214655"><ele>360.66397</ele><time>2026-05-30T17:24:42.000Z</time></trkpt>
        <trkpt lat="28.253535" lon="105.214596"><ele>360.52985</ele><time>2026-05-30T17:24:46.000Z</time></trkpt>
        <trkpt lat="28.253515" lon="105.214542"><ele>361.07928</ele><time>2026-05-30T17:24:50.000Z</time></trkpt>
        <trkpt lat="28.2535" lon="105.214485"><ele>360.47162</ele><time>2026-05-30T17:24:54.000Z</time></trkpt>
        <trkpt lat="28.253491" lon="105.214428"><ele>360.87512</ele><time>2026-05-30T17:24:59.000Z</time></trkpt>
        <trkpt lat="28.253489" lon="105.214371"><ele>360.39767</ele><time>2026-05-30T17:25:04.000Z</time></trkpt>
        <trkpt lat="28.253485" lon="105.21432"><ele>359.75522</ele><time>2026-05-30T17:25:09.000Z</time></trkpt>
        <trkpt lat="28.253468" lon="105.214256"><ele>360.7568</ele><time>2026-05-30T17:25:13.000Z</time></trkpt>
        <trkpt lat="28.253459" lon="105.214202"><ele>360.6119</ele><time>2026-05-30T17:25:21.000Z</time></trkpt>
        <trkpt lat="28.253464" lon="105.214148"><ele>359.18488</ele><time>2026-05-30T17:25:45.000Z</time></trkpt>
        <trkpt lat="28.253467" lon="105.214092"><ele>360.03876</ele><time>2026-05-30T17:26:05.000Z</time></trkpt>
        <trkpt lat="28.253473" lon="105.214034"><ele>358.82352</ele><time>2026-05-30T17:26:10.000Z</time></trkpt>
        <trkpt lat="28.253481" lon="105.213973"><ele>358.5094</ele><time>2026-05-30T17:26:14.000Z</time></trkpt>
        <trkpt lat="28.253473" lon="105.213913"><ele>358.10822</ele><time>2026-05-30T17:26:21.000Z</time></trkpt>
        <trkpt lat="28.253481" lon="105.213861"><ele>356.64352</ele><time>2026-05-30T17:26:25.000Z</time></trkpt>
        <trkpt lat="28.253473" lon="105.213802"><ele>356.98856</ele><time>2026-05-30T17:26:30.000Z</time></trkpt>
        <trkpt lat="28.253479" lon="105.213743"><ele>356.5522</ele><time>2026-05-30T17:26:35.000Z</time></trkpt>
        <trkpt lat="28.253474" lon="105.213683"><ele>357.83856</ele><time>2026-05-30T17:26:39.000Z</time></trkpt>
        <trkpt lat="28.253481" lon="105.213622"><ele>356.75345</ele><time>2026-05-30T17:26:48.000Z</time></trkpt>
        <trkpt lat="28.253492" lon="105.21356"><ele>358.62787</ele><time>2026-05-30T17:26:52.000Z</time></trkpt>
        <trkpt lat="28.253478" lon="105.213507"><ele>358.39325</ele><time>2026-05-30T17:26:57.000Z</time></trkpt>
        <trkpt lat="28.253465" lon="105.213444"><ele>356.53256</ele><time>2026-05-30T17:27:04.000Z</time></trkpt>
        <trkpt lat="28.253457" lon="105.213392"><ele>356.08255</ele><time>2026-05-30T17:27:08.000Z</time></trkpt>
        <trkpt lat="28.253455" lon="105.213327"><ele>357.22012</ele><time>2026-05-30T17:27:13.000Z</time></trkpt>
        <trkpt lat="28.253471" lon="105.213278"><ele>357.8292</ele><time>2026-05-30T17:27:17.000Z</time></trkpt>
        <trkpt lat="28.253477" lon="105.213225"><ele>356.53094</ele><time>2026-05-30T17:27:30.000Z</time></trkpt>
        <trkpt lat="28.253496" lon="105.213164"><ele>356.85886</ele><time>2026-05-30T17:27:33.000Z</time></trkpt>
        <trkpt lat="28.253513" lon="105.213087"><ele>358.00153</ele><time>2026-05-30T17:27:37.000Z</time></trkpt>
        <trkpt lat="28.25354" lon="105.213041"><ele>357.85306</ele><time>2026-05-30T17:27:40.000Z</time></trkpt>
        <trkpt lat="28.253546" lon="105.212982"><ele>357.73184</ele><time>2026-05-30T17:27:46.000Z</time></trkpt>
        <trkpt lat="28.253563" lon="105.212931"><ele>357.54745</ele><time>2026-05-30T17:27:54.000Z</time></trkpt>
        <trkpt lat="28.253576" lon="105.212879"><ele>359.6336</ele><time>2026-05-30T17:28:01.000Z</time></trkpt>
        <trkpt lat="28.253596" lon="105.21281"><ele>359.21686</ele><time>2026-05-30T17:28:05.000Z</time></trkpt>
        <trkpt lat="28.253631" lon="105.212773"><ele>359.50653</ele><time>2026-05-30T17:28:10.000Z</time></trkpt>
        <trkpt lat="28.253648" lon="105.212722"><ele>358.50946</ele><time>2026-05-30T17:28:17.000Z</time></trkpt>
        <trkpt lat="28.253683" lon="105.212688"><ele>358.59958</ele><time>2026-05-30T17:28:21.000Z</time></trkpt>
        <trkpt lat="28.253717" lon="105.21264"><ele>358.67822</ele><time>2026-05-30T17:28:26.000Z</time></trkpt>
        <trkpt lat="28.253745" lon="105.21259"><ele>360.9689</ele><time>2026-05-30T17:28:35.000Z</time></trkpt>
        <trkpt lat="28.253749" lon="105.212539"><ele>359.4015</ele><time>2026-05-30T17:28:43.000Z</time></trkpt>
        <trkpt lat="28.253795" lon="105.212552"><ele>358.9055</ele><time>2026-05-30T17:28:58.000Z</time></trkpt>
        <trkpt lat="28.253817" lon="105.212499"><ele>360.00583</ele><time>2026-05-30T17:29:04.000Z</time></trkpt>
        <trkpt lat="28.253825" lon="105.212435"><ele>358.99695</ele><time>2026-05-30T17:29:08.000Z</time></trkpt>
        <trkpt lat="28.253797" lon="105.212392"><ele>359.00824</ele><time>2026-05-30T17:29:15.000Z</time></trkpt>
        <trkpt lat="28.253783" lon="105.212342"><ele>358.06903</ele><time>2026-05-30T17:29:24.000Z</time></trkpt>
        <trkpt lat="28.253779" lon="105.212291"><ele>357.58334</ele><time>2026-05-30T17:29:36.000Z</time></trkpt>
        <trkpt lat="28.253737" lon="105.21225"><ele>356.77036</ele><time>2026-05-30T17:29:41.000Z</time></trkpt>
        <trkpt lat="28.253709" lon="105.212192"><ele>356.24744</ele><time>2026-05-30T17:29:46.000Z</time></trkpt>
        <trkpt lat="28.253676" lon="105.212141"><ele>356.18887</ele><time>2026-05-30T17:29:49.000Z</time></trkpt>
        <trkpt lat="28.25366" lon="105.212093"><ele>356.502</ele><time>2026-05-30T17:29:57.000Z</time></trkpt>
        <trkpt lat="28.253624" lon="105.212048"><ele>357.2101</ele><time>2026-05-30T17:30:05.000Z</time></trkpt>
        <trkpt lat="28.25359" lon="105.212007"><ele>357.49313</ele><time>2026-05-30T17:30:12.000Z</time></trkpt>
        <trkpt lat="28.253573" lon="105.211959"><ele>356.79697</ele><time>2026-05-30T17:30:16.000Z</time></trkpt>
        <trkpt lat="28.253542" lon="105.211919"><ele>359.589</ele><time>2026-05-30T17:30:20.000Z</time></trkpt>
        <trkpt lat="28.253497" lon="105.211883"><ele>359.92578</ele><time>2026-05-30T17:30:38.000Z</time></trkpt>
        <trkpt lat="28.253453" lon="105.211861"><ele>361.05298</ele><time>2026-05-30T17:30:48.000Z</time></trkpt>
        <trkpt lat="28.253438" lon="105.211806"><ele>361.68994</ele><time>2026-05-30T17:30:53.000Z</time></trkpt>
        <trkpt lat="28.25342" lon="105.211758"><ele>360.32248</ele><time>2026-05-30T17:31:04.000Z</time></trkpt>
        <trkpt lat="28.253387" lon="105.211716"><ele>360.73843</ele><time>2026-05-30T17:31:09.000Z</time></trkpt>
        <trkpt lat="28.253344" lon="105.211702"><ele>360.4052</ele><time>2026-05-30T17:31:18.000Z</time></trkpt>
        <trkpt lat="28.253297" lon="105.211684"><ele>360.92215</ele><time>2026-05-30T17:31:31.000Z</time></trkpt>
        <trkpt lat="28.25332" lon="105.211623"><ele>361.20776</ele><time>2026-05-30T17:31:38.000Z</time></trkpt>
        <trkpt lat="28.2533" lon="105.211577"><ele>359.49246</ele><time>2026-05-30T17:31:53.000Z</time></trkpt>
        <trkpt lat="28.253274" lon="105.211533"><ele>361.95596</ele><time>2026-05-30T17:32:00.000Z</time></trkpt>
        <trkpt lat="28.253223" lon="105.211536"><ele>361.6036</ele><time>2026-05-30T17:32:07.000Z</time></trkpt>
        <trkpt lat="28.253177" lon="105.211515"><ele>361.7362</ele><time>2026-05-30T17:32:14.000Z</time></trkpt>
        <trkpt lat="28.253142" lon="105.211475"><ele>363.1524</ele><time>2026-05-30T17:32:25.000Z</time></trkpt>
        <trkpt lat="28.253099" lon="105.211443"><ele>363.92548</ele><time>2026-05-30T17:32:35.000Z</time></trkpt>
        <trkpt lat="28.253056" lon="105.211411"><ele>365.58377</ele><time>2026-05-30T17:32:45.000Z</time></trkpt>
        <trkpt lat="28.253034" lon="105.211358"><ele>366.40598</ele><time>2026-05-30T17:32:49.000Z</time></trkpt>
        <trkpt lat="28.252999" lon="105.211323"><ele>367.5567</ele><time>2026-05-30T17:32:55.000Z</time></trkpt>
        <trkpt lat="28.252963" lon="105.211291"><ele>367.80728</ele><time>2026-05-30T17:33:02.000Z</time></trkpt>
        <trkpt lat="28.252963" lon="105.211224"><ele>367.62067</ele><time>2026-05-30T17:33:08.000Z</time></trkpt>
        <trkpt lat="28.252917" lon="105.211193"><ele>368.66702</ele><time>2026-05-30T17:33:10.000Z</time></trkpt>
        <trkpt lat="28.252904" lon="105.211119"><ele>369.10382</ele><time>2026-05-30T17:33:13.000Z</time></trkpt>
        <trkpt lat="28.252883" lon="105.211073"><ele>367.42896</ele><time>2026-05-30T17:33:18.000Z</time></trkpt>
        <trkpt lat="28.252868" lon="105.211024"><ele>369.19623</ele><time>2026-05-30T17:33:21.000Z</time></trkpt>
        <trkpt lat="28.252867" lon="105.21097"><ele>367.55362</ele><time>2026-05-30T17:33:25.000Z</time></trkpt>
        <trkpt lat="28.252866" lon="105.210907"><ele>367.63232</ele><time>2026-05-30T17:33:29.000Z</time></trkpt>
        <trkpt lat="28.252873" lon="105.210848"><ele>368.31604</ele><time>2026-05-30T17:33:32.000Z</time></trkpt>
        <trkpt lat="28.252873" lon="105.210795"><ele>366.71878</ele><time>2026-05-30T17:33:37.000Z</time></trkpt>
        <trkpt lat="28.252872" lon="105.21073"><ele>366.82706</ele><time>2026-05-30T17:33:41.000Z</time></trkpt>
        <trkpt lat="28.252861" lon="105.210674"><ele>366.9143</ele><time>2026-05-30T17:33:47.000Z</time></trkpt>
        <trkpt lat="28.252862" lon="105.210619"><ele>366.3237</ele><time>2026-05-30T17:33:50.000Z</time></trkpt>
        <trkpt lat="28.252854" lon="105.210561"><ele>366.93915</ele><time>2026-05-30T17:33:54.000Z</time></trkpt>
        <trkpt lat="28.252816" lon="105.210514"><ele>366.48434</ele><time>2026-05-30T17:33:57.000Z</time></trkpt>
        <trkpt lat="28.25282" lon="105.210459"><ele>366.065</ele><time>2026-05-30T17:34:01.000Z</time></trkpt>
        <trkpt lat="28.252814" lon="105.210397"><ele>366.25388</ele><time>2026-05-30T17:34:07.000Z</time></trkpt>
        <trkpt lat="28.252801" lon="105.210345"><ele>364.8949</ele><time>2026-05-30T17:34:10.000Z</time></trkpt>
        <trkpt lat="28.252806" lon="105.210289"><ele>364.21747</ele><time>2026-05-30T17:34:14.000Z</time></trkpt>
        <trkpt lat="28.252811" lon="105.210231"><ele>363.86545</ele><time>2026-05-30T17:34:17.000Z</time></trkpt>
        <trkpt lat="28.252829" lon="105.210169"><ele>363.24847</ele><time>2026-05-30T17:34:20.000Z</time></trkpt>
        <trkpt lat="28.252856" lon="105.210112"><ele>362.22437</ele><time>2026-05-30T17:34:23.000Z</time></trkpt>
        <trkpt lat="28.252863" lon="105.210053"><ele>363.7742</ele><time>2026-05-30T17:34:26.000Z</time></trkpt>
        <trkpt lat="28.252863" lon="105.209995"><ele>363.7822</ele><time>2026-05-30T17:34:29.000Z</time></trkpt>
        <trkpt lat="28.252866" lon="105.209935"><ele>363.4791</ele><time>2026-05-30T17:34:32.000Z</time></trkpt>
        <trkpt lat="28.252875" lon="105.20988"><ele>363.8459</ele><time>2026-05-30T17:34:35.000Z</time></trkpt>
        <trkpt lat="28.252868" lon="105.209826"><ele>364.48743</ele><time>2026-05-30T17:34:38.000Z</time></trkpt>
        <trkpt lat="28.252874" lon="105.209772"><ele>365.61615</ele><time>2026-05-30T17:34:41.000Z</time></trkpt>
        <trkpt lat="28.25289" lon="105.209723"><ele>364.83252</ele><time>2026-05-30T17:34:44.000Z</time></trkpt>
        <trkpt lat="28.252911" lon="105.209668"><ele>364.49072</ele><time>2026-05-30T17:34:47.000Z</time></trkpt>
        <trkpt lat="28.252933" lon="105.209622"><ele>364.67816</ele><time>2026-05-30T17:34:50.000Z</time></trkpt>
        <trkpt lat="28.252946" lon="105.209572"><ele>363.50565</ele><time>2026-05-30T17:34:53.000Z</time></trkpt>
        <trkpt lat="28.25297" lon="105.209528"><ele>362.27612</ele><time>2026-05-30T17:34:56.000Z</time></trkpt>
        <trkpt lat="28.252961" lon="105.209472"><ele>362.62</ele><time>2026-05-30T17:34:59.000Z</time></trkpt>
        <trkpt lat="28.252931" lon="105.209429"><ele>363.17014</ele><time>2026-05-30T17:35:02.000Z</time></trkpt>
        <trkpt lat="28.252972" lon="105.209385"><ele>363.74814</ele><time>2026-05-30T17:35:06.000Z</time></trkpt>
        <trkpt lat="28.252999" lon="105.209333"><ele>363.09528</ele><time>2026-05-30T17:35:10.000Z</time></trkpt>
        <trkpt lat="28.253029" lon="105.209283"><ele>363.73962</ele><time>2026-05-30T17:35:14.000Z</time></trkpt>
        <trkpt lat="28.253054" lon="105.209239"><ele>362.45425</ele><time>2026-05-30T17:35:18.000Z</time></trkpt>
        <trkpt lat="28.253092" lon="105.209199"><ele>362.34317</ele><time>2026-05-30T17:35:22.000Z</time></trkpt>
        <trkpt lat="28.253138" lon="105.209165"><ele>363.0312</ele><time>2026-05-30T17:35:26.000Z</time></trkpt>
        <trkpt lat="28.253175" lon="105.209124"><ele>363.00696</ele><time>2026-05-30T17:35:30.000Z</time></trkpt>
        <trkpt lat="28.253219" lon="105.209091"><ele>362.67004</ele><time>2026-05-30T17:35:34.000Z</time></trkpt>
        <trkpt lat="28.253247" lon="105.209048"><ele>359.78006</ele><time>2026-05-30T17:35:38.000Z</time></trkpt>
        <trkpt lat="28.253259" lon="105.208989"><ele>362.10242</ele><time>2026-05-30T17:35:45.000Z</time></trkpt>
        <trkpt lat="28.253291" lon="105.208944"><ele>362.5122</ele><time>2026-05-30T17:35:49.000Z</time></trkpt>
        <trkpt lat="28.253333" lon="105.20891"><ele>362.6409</ele><time>2026-05-30T17:35:54.000Z</time></trkpt>
        <trkpt lat="28.253355" lon="105.208852"><ele>361.40192</ele><time>2026-05-30T17:36:01.000Z</time></trkpt>
        <trkpt lat="28.253394" lon="105.208809"><ele>363.06592</ele><time>2026-05-30T17:36:06.000Z</time></trkpt>
        <trkpt lat="28.253431" lon="105.208771"><ele>363.22397</ele><time>2026-05-30T17:36:10.000Z</time></trkpt>
        <trkpt lat="28.253463" lon="105.208726"><ele>363.03183</ele><time>2026-05-30T17:36:15.000Z</time></trkpt>
        <trkpt lat="28.253495" lon="105.208676"><ele>362.1362</ele><time>2026-05-30T17:36:19.000Z</time></trkpt>
        <trkpt lat="28.253522" lon="105.208615"><ele>363.5265</ele><time>2026-05-30T17:36:23.000Z</time></trkpt>
        <trkpt lat="28.253558" lon="105.208576"><ele>363.37054</ele><time>2026-05-30T17:36:27.000Z</time></trkpt>
        <trkpt lat="28.25357" lon="105.208527"><ele>363.46158</ele><time>2026-05-30T17:36:31.000Z</time></trkpt>
        <trkpt lat="28.253613" lon="105.208482"><ele>363.11465</ele><time>2026-05-30T17:36:36.000Z</time></trkpt>
        <trkpt lat="28.253641" lon="105.208424"><ele>363.1929</ele><time>2026-05-30T17:36:41.000Z</time></trkpt>
        <trkpt lat="28.253679" lon="105.208384"><ele>364.21082</ele><time>2026-05-30T17:36:44.000Z</time></trkpt>
        <trkpt lat="28.253727" lon="105.208338"><ele>363.23434</ele><time>2026-05-30T17:36:48.000Z</time></trkpt>
        <trkpt lat="28.253764" lon="105.208304"><ele>361.67462</ele><time>2026-05-30T17:36:52.000Z</time></trkpt>
        <trkpt lat="28.25379" lon="105.208262"><ele>362.34653</ele><time>2026-05-30T17:36:56.000Z</time></trkpt>
        <trkpt lat="28.253814" lon="105.208215"><ele>362.09012</ele><time>2026-05-30T17:37:01.000Z</time></trkpt>
        <trkpt lat="28.253859" lon="105.20819"><ele>361.64853</ele><time>2026-05-30T17:37:04.000Z</time></trkpt>
        <trkpt lat="28.253892" lon="105.208144"><ele>360.38547</ele><time>2026-05-30T17:37:09.000Z</time></trkpt>
        <trkpt lat="28.253914" lon="105.208092"><ele>360.52823</ele><time>2026-05-30T17:37:13.000Z</time></trkpt>
        <trkpt lat="28.253938" lon="105.20804"><ele>359.9522</ele><time>2026-05-30T17:37:18.000Z</time></trkpt>
        <trkpt lat="28.253959" lon="105.207985"><ele>359.03497</ele><time>2026-05-30T17:37:22.000Z</time></trkpt>
        <trkpt lat="28.253977" lon="105.207929"><ele>358.30435</ele><time>2026-05-30T17:37:26.000Z</time></trkpt>
        <trkpt lat="28.253978" lon="105.207873"><ele>359.73572</ele><time>2026-05-30T17:37:30.000Z</time></trkpt>
        <trkpt lat="28.253957" lon="105.207815"><ele>359.27393</ele><time>2026-05-30T17:37:34.000Z</time></trkpt>
        <trkpt lat="28.253953" lon="105.20775"><ele>359.3473</ele><time>2026-05-30T17:37:38.000Z</time></trkpt>
        <trkpt lat="28.253915" lon="105.207708"><ele>360.93604</ele><time>2026-05-30T17:37:43.000Z</time></trkpt>
        <trkpt lat="28.25388" lon="105.207659"><ele>360.97864</ele><time>2026-05-30T17:37:48.000Z</time></trkpt>
        <trkpt lat="28.253847" lon="105.207606"><ele>360.9672</ele><time>2026-05-30T17:37:53.000Z</time></trkpt>
        <trkpt lat="28.253818" lon="105.207564"><ele>361.75574</ele><time>2026-05-30T17:37:58.000Z</time></trkpt>
        <trkpt lat="28.253805" lon="105.20751"><ele>360.03622</ele><time>2026-05-30T17:38:04.000Z</time></trkpt>
        <trkpt lat="28.253782" lon="105.207458"><ele>360.65356</ele><time>2026-05-30T17:38:10.000Z</time></trkpt>
        <trkpt lat="28.253751" lon="105.207412"><ele>359.1322</ele><time>2026-05-30T17:38:15.000Z</time></trkpt>
        <trkpt lat="28.253704" lon="105.207396"><ele>358.35825</ele><time>2026-05-30T17:38:20.000Z</time></trkpt>
        <trkpt lat="28.253654" lon="105.207383"><ele>361.22723</ele><time>2026-05-30T17:38:25.000Z</time></trkpt>
        <trkpt lat="28.253604" lon="105.207374"><ele>361.01083</ele><time>2026-05-30T17:38:31.000Z</time></trkpt>
        <trkpt lat="28.253564" lon="105.207344"><ele>360.98105</ele><time>2026-05-30T17:38:36.000Z</time></trkpt>
        <trkpt lat="28.253518" lon="105.207325"><ele>361.94434</ele><time>2026-05-30T17:38:44.000Z</time></trkpt>
        <trkpt lat="28.253471" lon="105.207297"><ele>362.54202</ele><time>2026-05-30T17:38:50.000Z</time></trkpt>
        <trkpt lat="28.253429" lon="105.207276"><ele>361.63522</ele><time>2026-05-30T17:38:55.000Z</time></trkpt>
        <trkpt lat="28.253386" lon="105.207246"><ele>362.6052</ele><time>2026-05-30T17:39:00.000Z</time></trkpt>
        <trkpt lat="28.253346" lon="105.207221"><ele>362.40353</ele><time>2026-05-30T17:39:04.000Z</time></trkpt>
        <trkpt lat="28.253299" lon="105.207209"><ele>363.0264</ele><time>2026-05-30T17:39:09.000Z</time></trkpt>
        <trkpt lat="28.253246" lon="105.207205"><ele>362.90393</ele><time>2026-05-30T17:39:14.000Z</time></trkpt>
        <trkpt lat="28.253193" lon="105.207199"><ele>363.61682</ele><time>2026-05-30T17:39:19.000Z</time></trkpt>
        <trkpt lat="28.253142" lon="105.207206"><ele>364.73236</ele><time>2026-05-30T17:39:24.000Z</time></trkpt>
        <trkpt lat="28.253092" lon="105.207209"><ele>365.4471</ele><time>2026-05-30T17:39:29.000Z</time></trkpt>
        <trkpt lat="28.253043" lon="105.207225"><ele>365.77277</ele><time>2026-05-30T17:39:34.000Z</time></trkpt>
        <trkpt lat="28.252996" lon="105.207242"><ele>367.0107</ele><time>2026-05-30T17:39:38.000Z</time></trkpt>
        <trkpt lat="28.25295" lon="105.207271"><ele>367.2335</ele><time>2026-05-30T17:39:45.000Z</time></trkpt>
        <trkpt lat="28.252908" lon="105.207294"><ele>368.02435</ele><time>2026-05-30T17:39:49.000Z</time></trkpt>
        <trkpt lat="28.252859" lon="105.207314"><ele>368.76706</ele><time>2026-05-30T17:39:53.000Z</time></trkpt>
        <trkpt lat="28.252811" lon="105.207342"><ele>369.08832</ele><time>2026-05-30T17:39:57.000Z</time></trkpt>
        <trkpt lat="28.25276" lon="105.207367"><ele>369.41684</ele><time>2026-05-30T17:40:01.000Z</time></trkpt>
        <trkpt lat="28.252713" lon="105.20738"><ele>369.11502</ele><time>2026-05-30T17:40:05.000Z</time></trkpt>
        <trkpt lat="28.25266" lon="105.207395"><ele>369.5705</ele><time>2026-05-30T17:40:09.000Z</time></trkpt>
        <trkpt lat="28.252617" lon="105.207411"><ele>368.88455</ele><time>2026-05-30T17:40:13.000Z</time></trkpt>
        <trkpt lat="28.252568" lon="105.207433"><ele>368.94107</ele><time>2026-05-30T17:40:17.000Z</time></trkpt>
        <trkpt lat="28.252518" lon="105.20746"><ele>368.83484</ele><time>2026-05-30T17:40:22.000Z</time></trkpt>
        <trkpt lat="28.252474" lon="105.207487"><ele>368.51605</ele><time>2026-05-30T17:40:27.000Z</time></trkpt>
        <trkpt lat="28.252427" lon="105.207512"><ele>368.0552</ele><time>2026-05-30T17:40:31.000Z</time></trkpt>
        <trkpt lat="28.252387" lon="105.207541"><ele>368.48572</ele><time>2026-05-30T17:40:35.000Z</time></trkpt>
        <trkpt lat="28.252342" lon="105.207582"><ele>368.64258</ele><time>2026-05-30T17:40:40.000Z</time></trkpt>
        <trkpt lat="28.252308" lon="105.207623"><ele>369.61508</ele><time>2026-05-30T17:40:45.000Z</time></trkpt>
        <trkpt lat="28.252287" lon="105.207669"><ele>369.7742</ele><time>2026-05-30T17:40:50.000Z</time></trkpt>
        <trkpt lat="28.252269" lon="105.20773"><ele>370.01996</ele><time>2026-05-30T17:40:55.000Z</time></trkpt>
        <trkpt lat="28.252257" lon="105.207783"><ele>371.2661</ele><time>2026-05-30T17:41:01.000Z</time></trkpt>
        <trkpt lat="28.252259" lon="105.207846"><ele>373.39478</ele><time>2026-05-30T17:41:08.000Z</time></trkpt>
        <trkpt lat="28.25226" lon="105.207905"><ele>374.61438</ele><time>2026-05-30T17:41:12.000Z</time></trkpt>
        <trkpt lat="28.25222" lon="105.207935"><ele>374.35284</ele><time>2026-05-30T17:41:16.000Z</time></trkpt>
        <trkpt lat="28.252182" lon="105.207984"><ele>374.84872</ele><time>2026-05-30T17:41:20.000Z</time></trkpt>
        <trkpt lat="28.252144" lon="105.208022"><ele>374.37296</ele><time>2026-05-30T17:41:24.000Z</time></trkpt>
        <trkpt lat="28.252112" lon="105.208071"><ele>374.84442</ele><time>2026-05-30T17:41:28.000Z</time></trkpt>
        <trkpt lat="28.252087" lon="105.208124"><ele>376.3331</ele><time>2026-05-30T17:41:32.000Z</time></trkpt>
        <trkpt lat="28.252045" lon="105.208164"><ele>376.41928</ele><time>2026-05-30T17:41:36.000Z</time></trkpt>
        <trkpt lat="28.252007" lon="105.208212"><ele>376.64267</ele><time>2026-05-30T17:41:40.000Z</time></trkpt>
        <trkpt lat="28.251979" lon="105.208262"><ele>377.96967</ele><time>2026-05-30T17:41:44.000Z</time></trkpt>
        <trkpt lat="28.251945" lon="105.208307"><ele>378.54587</ele><time>2026-05-30T17:41:48.000Z</time></trkpt>
        <trkpt lat="28.25191" lon="105.20835"><ele>378.47385</ele><time>2026-05-30T17:41:52.000Z</time></trkpt>
        <trkpt lat="28.251869" lon="105.208394"><ele>378.51315</ele><time>2026-05-30T17:41:57.000Z</time></trkpt>
        <trkpt lat="28.251831" lon="105.208429"><ele>379.27347</ele><time>2026-05-30T17:42:01.000Z</time></trkpt>
        <trkpt lat="28.251792" lon="105.208455"><ele>378.82098</ele><time>2026-05-30T17:42:05.000Z</time></trkpt>
        <trkpt lat="28.251751" lon="105.208488"><ele>379.33362</ele><time>2026-05-30T17:42:10.000Z</time></trkpt>
        <trkpt lat="28.251716" lon="105.208523"><ele>379.9364</ele><time>2026-05-30T17:42:14.000Z</time></trkpt>
        <trkpt lat="28.251675" lon="105.208557"><ele>381.77722</ele><time>2026-05-30T17:42:19.000Z</time></trkpt>
        <trkpt lat="28.251637" lon="105.208589"><ele>382.1681</ele><time>2026-05-30T17:42:23.000Z</time></trkpt>
        <trkpt lat="28.251591" lon="105.208618"><ele>383.2795</ele><time>2026-05-30T17:42:27.000Z</time></trkpt>
        <trkpt lat="28.251546" lon="105.208656"><ele>385.1383</ele><time>2026-05-30T17:42:32.000Z</time></trkpt>
        <trkpt lat="28.251505" lon="105.20869"><ele>383.66577</ele><time>2026-05-30T17:42:37.000Z</time></trkpt>
        <trkpt lat="28.251462" lon="105.208717"><ele>383.40906</ele><time>2026-05-30T17:42:42.000Z</time></trkpt>
        <trkpt lat="28.251422" lon="105.208752"><ele>381.685</ele><time>2026-05-30T17:42:48.000Z</time></trkpt>
        <trkpt lat="28.251383" lon="105.208782"><ele>386.6011</ele><time>2026-05-30T17:42:53.000Z</time></trkpt>
        <trkpt lat="28.251329" lon="105.208803"><ele>389.77393</ele><time>2026-05-30T17:42:58.000Z</time></trkpt>
        <trkpt lat="28.251282" lon="105.208825"><ele>391.56693</ele><time>2026-05-30T17:43:03.000Z</time></trkpt>
        <trkpt lat="28.251234" lon="105.208838"><ele>391.84445</ele><time>2026-05-30T17:43:07.000Z</time></trkpt>
        <trkpt lat="28.251191" lon="105.208872"><ele>390.38162</ele><time>2026-05-30T17:43:11.000Z</time></trkpt>
        <trkpt lat="28.251161" lon="105.20891"><ele>391.96725</ele><time>2026-05-30T17:43:15.000Z</time></trkpt>
        <trkpt lat="28.251124" lon="105.208941"><ele>393.13867</ele><time>2026-05-30T17:43:19.000Z</time></trkpt>
        <trkpt lat="28.251092" lon="105.208985"><ele>392.5402</ele><time>2026-05-30T17:43:24.000Z</time></trkpt>
        <trkpt lat="28.251044" lon="105.209012"><ele>393.27292</ele><time>2026-05-30T17:43:28.000Z</time></trkpt>
        <trkpt lat="28.251003" lon="105.209042"><ele>393.02142</ele><time>2026-05-30T17:43:32.000Z</time></trkpt>
        <trkpt lat="28.250972" lon="105.20908"><ele>391.4575</ele><time>2026-05-30T17:43:37.000Z</time></trkpt>
        <trkpt lat="28.250937" lon="105.209111"><ele>392.14224</ele><time>2026-05-30T17:43:41.000Z</time></trkpt>
        <trkpt lat="28.250902" lon="105.20915"><ele>391.77347</ele><time>2026-05-30T17:43:45.000Z</time></trkpt>
        <trkpt lat="28.250878" lon="105.209197"><ele>391.42563</ele><time>2026-05-30T17:43:50.000Z</time></trkpt>
        <trkpt lat="28.25086" lon="105.209258"><ele>392.0155</ele><time>2026-05-30T17:43:55.000Z</time></trkpt>
        <trkpt lat="28.250834" lon="105.209306"><ele>391.2309</ele><time>2026-05-30T17:43:59.000Z</time></trkpt>
        <trkpt lat="28.250814" lon="105.209368"><ele>391.8492</ele><time>2026-05-30T17:44:04.000Z</time></trkpt>
        <trkpt lat="28.250818" lon="105.20943"><ele>392.27258</ele><time>2026-05-30T17:44:09.000Z</time></trkpt>
        <trkpt lat="28.250827" lon="105.209486"><ele>393.03412</ele><time>2026-05-30T17:44:14.000Z</time></trkpt>
        <trkpt lat="28.250844" lon="105.209537"><ele>392.85483</ele><time>2026-05-30T17:44:19.000Z</time></trkpt>
        <trkpt lat="28.250868" lon="105.209594"><ele>393.08527</ele><time>2026-05-30T17:44:24.000Z</time></trkpt>
        <trkpt lat="28.250893" lon="105.20964"><ele>394.37988</ele><time>2026-05-30T17:44:30.000Z</time></trkpt>
        <trkpt lat="28.250921" lon="105.209698"><ele>395.52588</ele><time>2026-05-30T17:44:34.000Z</time></trkpt>
        <trkpt lat="28.250926" lon="105.20976"><ele>396.53912</ele><time>2026-05-30T17:44:38.000Z</time></trkpt>
        <trkpt lat="28.250902" lon="105.209819"><ele>396.52127</ele><time>2026-05-30T17:44:42.000Z</time></trkpt>
        <trkpt lat="28.250876" lon="105.20987"><ele>397.29004</ele><time>2026-05-30T17:44:45.000Z</time></trkpt>
        <trkpt lat="28.250842" lon="105.209916"><ele>396.84116</ele><time>2026-05-30T17:44:49.000Z</time></trkpt>
        <trkpt lat="28.250794" lon="105.209915"><ele>397.17822</ele><time>2026-05-30T17:44:52.000Z</time></trkpt>
        <trkpt lat="28.250749" lon="105.209941"><ele>395.6428</ele><time>2026-05-30T17:44:57.000Z</time></trkpt>
        <trkpt lat="28.2507" lon="105.209949"><ele>395.438</ele><time>2026-05-30T17:45:02.000Z</time></trkpt>
        <trkpt lat="28.250641" lon="105.209946"><ele>394.51514</ele><time>2026-05-30T17:45:06.000Z</time></trkpt>
        <trkpt lat="28.250588" lon="105.209973"><ele>394.54135</ele><time>2026-05-30T17:45:10.000Z</time></trkpt>
        <trkpt lat="28.25054" lon="105.209984"><ele>394.66028</ele><time>2026-05-30T17:45:14.000Z</time></trkpt>
        <trkpt lat="28.25049" lon="105.210008"><ele>394.43518</ele><time>2026-05-30T17:45:19.000Z</time></trkpt>
        <trkpt lat="28.250446" lon="105.210035"><ele>395.05466</ele><time>2026-05-30T17:45:23.000Z</time></trkpt>
        <trkpt lat="28.250416" lon="105.210075"><ele>395.47894</ele><time>2026-05-30T17:45:27.000Z</time></trkpt>
        <trkpt lat="28.250381" lon="105.210107"><ele>394.76505</ele><time>2026-05-30T17:45:32.000Z</time></trkpt>
        <trkpt lat="28.250341" lon="105.210138"><ele>394.24457</ele><time>2026-05-30T17:45:40.000Z</time></trkpt>
        <trkpt lat="28.250318" lon="105.210203"><ele>394.52982</ele><time>2026-05-30T17:45:43.000Z</time></trkpt>
        <trkpt lat="28.250272" lon="105.210207"><ele>395.1506</ele><time>2026-05-30T17:45:47.000Z</time></trkpt>
        <trkpt lat="28.250225" lon="105.210186"><ele>394.157</ele><time>2026-05-30T17:45:59.000Z</time></trkpt>
        <trkpt lat="28.25019" lon="105.210229"><ele>394.93384</ele><time>2026-05-30T17:46:03.000Z</time></trkpt>
        <trkpt lat="28.250155" lon="105.210266"><ele>395.22208</ele><time>2026-05-30T17:46:08.000Z</time></trkpt>
        <trkpt lat="28.250127" lon="105.210311"><ele>395.6843</ele><time>2026-05-30T17:46:12.000Z</time></trkpt>
        <trkpt lat="28.2501" lon="105.210355"><ele>395.93515</ele><time>2026-05-30T17:46:16.000Z</time></trkpt>
        <trkpt lat="28.250081" lon="105.210406"><ele>396.96204</ele><time>2026-05-30T17:46:20.000Z</time></trkpt>
        <trkpt lat="28.250057" lon="105.21045"><ele>396.5303</ele><time>2026-05-30T17:46:25.000Z</time></trkpt>
        <trkpt lat="28.250052" lon="105.210502"><ele>396.47025</ele><time>2026-05-30T17:46:29.000Z</time></trkpt>
        <trkpt lat="28.250052" lon="105.210554"><ele>396.43494</ele><time>2026-05-30T17:46:34.000Z</time></trkpt>
        <trkpt lat="28.250053" lon="105.210613"><ele>397.3954</ele><time>2026-05-30T17:46:40.000Z</time></trkpt>
        <trkpt lat="28.250057" lon="105.210668"><ele>398.11487</ele><time>2026-05-30T17:46:45.000Z</time></trkpt>
        <trkpt lat="28.250063" lon="105.210719"><ele>398.82654</ele><time>2026-05-30T17:46:49.000Z</time></trkpt>
        <trkpt lat="28.250059" lon="105.210782"><ele>399.65128</ele><time>2026-05-30T17:46:54.000Z</time></trkpt>
        <trkpt lat="28.250067" lon="105.210838"><ele>399.7122</ele><time>2026-05-30T17:46:58.000Z</time></trkpt>
        <trkpt lat="28.250067" lon="105.210892"><ele>400.7927</ele><time>2026-05-30T17:47:02.000Z</time></trkpt>
        <trkpt lat="28.250077" lon="105.210954"><ele>402.1068</ele><time>2026-05-30T17:47:06.000Z</time></trkpt>
        <trkpt lat="28.250079" lon="105.21102"><ele>402.7853</ele><time>2026-05-30T17:47:10.000Z</time></trkpt>
        <trkpt lat="28.250103" lon="105.211068"><ele>402.81955</ele><time>2026-05-30T17:47:14.000Z</time></trkpt>
        <trkpt lat="28.250138" lon="105.211115"><ele>402.163</ele><time>2026-05-30T17:47:18.000Z</time></trkpt>
        <trkpt lat="28.250189" lon="105.211161"><ele>403.66965</ele><time>2026-05-30T17:47:22.000Z</time></trkpt>
        <trkpt lat="28.250237" lon="105.2112"><ele>405.1968</ele><time>2026-05-30T17:47:26.000Z</time></trkpt>
        <trkpt lat="28.250288" lon="105.211226"><ele>406.16635</ele><time>2026-05-30T17:47:30.000Z</time></trkpt>
        <trkpt lat="28.250336" lon="105.211243"><ele>405.7145</ele><time>2026-05-30T17:47:34.000Z</time></trkpt>
        <trkpt lat="28.25038" lon="105.211272"><ele>405.36023</ele><time>2026-05-30T17:47:38.000Z</time></trkpt>
        <trkpt lat="28.250359" lon="105.21132"><ele>405.86398</ele><time>2026-05-30T17:48:16.000Z</time></trkpt>
        <trkpt lat="28.250312" lon="105.211312"><ele>406.72284</ele><time>2026-05-30T17:48:20.000Z</time></trkpt>
        <trkpt lat="28.25026" lon="105.211313"><ele>407.53314</ele><time>2026-05-30T17:48:26.000Z</time></trkpt>
        <trkpt lat="28.250208" lon="105.211315"><ele>410.06433</ele><time>2026-05-30T17:48:34.000Z</time></trkpt>
        <trkpt lat="28.250158" lon="105.21133"><ele>412.0271</ele><time>2026-05-30T17:48:43.000Z</time></trkpt>
        <trkpt lat="28.250121" lon="105.211378"><ele>412.4679</ele><time>2026-05-30T17:48:50.000Z</time></trkpt>
        <trkpt lat="28.250095" lon="105.211427"><ele>414.33188</ele><time>2026-05-30T17:48:58.000Z</time></trkpt>
        <trkpt lat="28.25005" lon="105.211465"><ele>416.73605</ele><time>2026-05-30T17:49:06.000Z</time></trkpt>
        <trkpt lat="28.250017" lon="105.211503"><ele>419.6259</ele><time>2026-05-30T17:49:12.000Z</time></trkpt>
        <trkpt lat="28.249972" lon="105.211516"><ele>419.87683</ele><time>2026-05-30T17:49:20.000Z</time></trkpt>
        <trkpt lat="28.249939" lon="105.21155"><ele>421.85385</ele><time>2026-05-30T17:49:25.000Z</time></trkpt>
        <trkpt lat="28.249905" lon="105.211585"><ele>421.4473</ele><time>2026-05-30T17:49:31.000Z</time></trkpt>
        <trkpt lat="28.249861" lon="105.211622"><ele>421.04114</ele><time>2026-05-30T17:49:39.000Z</time></trkpt>
        <trkpt lat="28.249819" lon="105.211652"><ele>422.89938</ele><time>2026-05-30T17:49:47.000Z</time></trkpt>
        <trkpt lat="28.24977" lon="105.211686"><ele>422.92963</ele><time>2026-05-30T17:49:53.000Z</time></trkpt>
        <trkpt lat="28.249768" lon="105.211634"><ele>422.29868</ele><time>2026-05-30T17:50:12.000Z</time></trkpt>
        <trkpt lat="28.249808" lon="105.211607"><ele>421.17</ele><time>2026-05-30T17:50:15.000Z</time></trkpt>
        <trkpt lat="28.249842" lon="105.211569"><ele>420.36597</ele><time>2026-05-30T17:50:21.000Z</time></trkpt>
        <trkpt lat="28.249887" lon="105.21155"><ele>419.65567</ele><time>2026-05-30T17:50:26.000Z</time></trkpt>
        <trkpt lat="28.249911" lon="105.211508"><ele>419.8585</ele><time>2026-05-30T17:50:32.000Z</time></trkpt>
        <trkpt lat="28.249956" lon="105.21149"><ele>417.99716</ele><time>2026-05-30T17:50:38.000Z</time></trkpt>
        <trkpt lat="28.249999" lon="105.211466"><ele>416.76352</ele><time>2026-05-30T17:50:50.000Z</time></trkpt>
        <trkpt lat="28.250045" lon="105.211452"><ele>416.6417</ele><time>2026-05-30T17:51:01.000Z</time></trkpt>
        <trkpt lat="28.250043" lon="105.211504"><ele>418.08102</ele><time>2026-05-30T17:51:23.000Z</time></trkpt>
        <trkpt lat="28.250014" lon="105.211558"><ele>420.26578</ele><time>2026-05-30T17:51:33.000Z</time></trkpt>
        <trkpt lat="28.250002" lon="105.211612"><ele>421.2581</ele><time>2026-05-30T17:53:01.000Z</time></trkpt>
        <trkpt lat="28.249969" lon="105.211655"><ele>425.29303</ele><time>2026-05-30T17:53:07.000Z</time></trkpt>
        <trkpt lat="28.249955" lon="105.211714"><ele>425.6323</ele><time>2026-05-30T17:53:10.000Z</time></trkpt>
        <trkpt lat="28.249933" lon="105.211776"><ele>425.922</ele><time>2026-05-30T17:53:14.000Z</time></trkpt>
        <trkpt lat="28.24989" lon="105.211817"><ele>423.35132</ele><time>2026-05-30T17:53:19.000Z</time></trkpt>
        <trkpt lat="28.249835" lon="105.211849"><ele>423.9331</ele><time>2026-05-30T17:53:23.000Z</time></trkpt>
        <trkpt lat="28.249807" lon="105.211894"><ele>423.64877</ele><time>2026-05-30T17:53:28.000Z</time></trkpt>
        <trkpt lat="28.249757" lon="105.211927"><ele>423.3643</ele><time>2026-05-30T17:53:33.000Z</time></trkpt>
        <trkpt lat="28.249717" lon="105.211961"><ele>423.21872</ele><time>2026-05-30T17:53:36.000Z</time></trkpt>
        <trkpt lat="28.249678" lon="105.211987"><ele>422.65475</ele><time>2026-05-30T17:53:42.000Z</time></trkpt>
        <trkpt lat="28.249669" lon="105.212042"><ele>422.08487</ele><time>2026-05-30T17:53:45.000Z</time></trkpt>
        <trkpt lat="28.249668" lon="105.211988"><ele>422.79233</ele><time>2026-05-30T17:54:19.000Z</time></trkpt>
        <trkpt lat="28.24963" lon="105.212021"><ele>423.75354</ele><time>2026-05-30T17:57:42.000Z</time></trkpt>
        <trkpt lat="28.249586" lon="105.212037"><ele>424.2433</ele><time>2026-05-30T17:57:53.000Z</time></trkpt>
        <trkpt lat="28.249544" lon="105.212054"><ele>425.86246</ele><time>2026-05-30T17:58:01.000Z</time></trkpt>
        <trkpt lat="28.249505" lon="105.212086"><ele>426.55652</ele><time>2026-05-30T17:58:06.000Z</time></trkpt>
        <trkpt lat="28.249473" lon="105.212128"><ele>427.22076</ele><time>2026-05-30T17:58:12.000Z</time></trkpt>
        <trkpt lat="28.249438" lon="105.21216"><ele>427.8975</ele><time>2026-05-30T17:58:18.000Z</time></trkpt>
        <trkpt lat="28.24941" lon="105.212205"><ele>428.59366</ele><time>2026-05-30T17:58:25.000Z</time></trkpt>
        <trkpt lat="28.249381" lon="105.212247"><ele>429.6331</ele><time>2026-05-30T17:58:31.000Z</time></trkpt>
        <trkpt lat="28.249347" lon="105.212284"><ele>430.49457</ele><time>2026-05-30T17:58:39.000Z</time></trkpt>
        <trkpt lat="28.249307" lon="105.21232"><ele>432.18848</ele><time>2026-05-30T17:58:45.000Z</time></trkpt>
        <trkpt lat="28.249278" lon="105.212365"><ele>434.25598</ele><time>2026-05-30T17:58:51.000Z</time></trkpt>
        <trkpt lat="28.249229" lon="105.212384"><ele>435.25177</ele><time>2026-05-30T17:59:03.000Z</time></trkpt>
        <trkpt lat="28.249181" lon="105.212421"><ele>437.13596</ele><time>2026-05-30T17:59:06.000Z</time></trkpt>
        <trkpt lat="28.249143" lon="105.212451"><ele>439.56638</ele><time>2026-05-30T17:59:10.000Z</time></trkpt>
        <trkpt lat="28.249087" lon="105.212475"><ele>441.0219</ele><time>2026-05-30T17:59:15.000Z</time></trkpt>
        <trkpt lat="28.249044" lon="105.212494"><ele>442.03006</ele><time>2026-05-30T17:59:20.000Z</time></trkpt>
        <trkpt lat="28.249007" lon="105.212531"><ele>442.54156</ele><time>2026-05-30T17:59:25.000Z</time></trkpt>
        <trkpt lat="28.248959" lon="105.212555"><ele>443.34317</ele><time>2026-05-30T17:59:31.000Z</time></trkpt>
        <trkpt lat="28.248907" lon="105.212558"><ele>444.39038</ele><time>2026-05-30T17:59:36.000Z</time></trkpt>
        <trkpt lat="28.248878" lon="105.212605"><ele>445.55215</ele><time>2026-05-30T17:59:42.000Z</time></trkpt>
        <trkpt lat="28.248832" lon="105.212621"><ele>446.37027</ele><time>2026-05-30T17:59:47.000Z</time></trkpt>
        <trkpt lat="28.248783" lon="105.212611"><ele>447.36902</ele><time>2026-05-30T17:59:52.000Z</time></trkpt>
        <trkpt lat="28.248734" lon="105.212607"><ele>449.39175</ele><time>2026-05-30T17:59:57.000Z</time></trkpt>
        <trkpt lat="28.248683" lon="105.212598"><ele>449.8639</ele><time>2026-05-30T18:00:02.000Z</time></trkpt>
        <trkpt lat="28.248637" lon="105.212591"><ele>451.12723</ele><time>2026-05-30T18:00:08.000Z</time></trkpt>
        <trkpt lat="28.248588" lon="105.21259"><ele>452.50287</ele><time>2026-05-30T18:00:13.000Z</time></trkpt>
        <trkpt lat="28.248541" lon="105.212595"><ele>454.09723</ele><time>2026-05-30T18:00:19.000Z</time></trkpt>
        <trkpt lat="28.248495" lon="105.212588"><ele>455.97458</ele><time>2026-05-30T18:00:24.000Z</time></trkpt>
        <trkpt lat="28.248444" lon="105.212575"><ele>457.39902</ele><time>2026-05-30T18:00:29.000Z</time></trkpt>
        <trkpt lat="28.248395" lon="105.212552"><ele>459.37933</ele><time>2026-05-30T18:00:34.000Z</time></trkpt>
        <trkpt lat="28.248351" lon="105.21253"><ele>460.94473</ele><time>2026-05-30T18:00:42.000Z</time></trkpt>
        <trkpt lat="28.248299" lon="105.212565"><ele>466.634</ele><time>2026-05-30T18:01:06.000Z</time></trkpt>
        <trkpt lat="28.248263" lon="105.212509"><ele>467.73972</ele><time>2026-05-30T18:01:09.000Z</time></trkpt>
        <trkpt lat="28.248229" lon="105.212469"><ele>468.80252</ele><time>2026-05-30T18:01:21.000Z</time></trkpt>
        <trkpt lat="28.248244" lon="105.212414"><ele>467.21106</ele><time>2026-05-30T18:01:29.000Z</time></trkpt>
        <trkpt lat="28.248212" lon="105.212372"><ele>467.34576</ele><time>2026-05-30T18:01:37.000Z</time></trkpt>
        <trkpt lat="28.2482" lon="105.212322"><ele>466.92856</ele><time>2026-05-30T18:01:43.000Z</time></trkpt>
        <trkpt lat="28.24819" lon="105.212269"><ele>467.0633</ele><time>2026-05-30T18:01:51.000Z</time></trkpt>
        <trkpt lat="28.248154" lon="105.212233"><ele>465.81372</ele><time>2026-05-30T18:01:58.000Z</time></trkpt>
        <trkpt lat="28.248116" lon="105.212261"><ele>467.35977</ele><time>2026-05-30T18:02:07.000Z</time></trkpt>
        <trkpt lat="28.248078" lon="105.212289"><ele>468.9376</ele><time>2026-05-30T18:02:16.000Z</time></trkpt>
        <trkpt lat="28.248046" lon="105.212335"><ele>470.88852</ele><time>2026-05-30T18:02:27.000Z</time></trkpt>
        <trkpt lat="28.248014" lon="105.212372"><ele>473.2932</ele><time>2026-05-30T18:02:37.000Z</time></trkpt>
        <trkpt lat="28.247981" lon="105.212415"><ele>476.03516</ele><time>2026-05-30T18:02:48.000Z</time></trkpt>
        <trkpt lat="28.247934" lon="105.212422"><ele>477.9835</ele><time>2026-05-30T18:02:55.000Z</time></trkpt>
        <trkpt lat="28.247886" lon="105.212431"><ele>479.04062</ele><time>2026-05-30T18:03:03.000Z</time></trkpt>
        <trkpt lat="28.247835" lon="105.212444"><ele>480.11575</ele><time>2026-05-30T18:03:11.000Z</time></trkpt>
        <trkpt lat="28.247788" lon="105.212455"><ele>482.52075</ele><time>2026-05-30T18:03:21.000Z</time></trkpt>
        <trkpt lat="28.247746" lon="105.212474"><ele>484.5578</ele><time>2026-05-30T18:03:28.000Z</time></trkpt>
        <trkpt lat="28.247696" lon="105.212456"><ele>486.73206</ele><time>2026-05-30T18:03:40.000Z</time></trkpt>
        <trkpt lat="28.247653" lon="105.212436"><ele>487.01624</ele><time>2026-05-30T18:03:46.000Z</time></trkpt>
        <trkpt lat="28.247607" lon="105.212453"><ele>487.83948</ele><time>2026-05-30T18:03:54.000Z</time></trkpt>
        <trkpt lat="28.247555" lon="105.212428"><ele>490.35254</ele><time>2026-05-30T18:04:01.000Z</time></trkpt>
        <trkpt lat="28.247508" lon="105.212425"><ele>491.5748</ele><time>2026-05-30T18:04:11.000Z</time></trkpt>
        <trkpt lat="28.247466" lon="105.212403"><ele>492.82675</ele><time>2026-05-30T18:04:22.000Z</time></trkpt>
        <trkpt lat="28.247423" lon="105.212372"><ele>494.33353</ele><time>2026-05-30T18:04:31.000Z</time></trkpt>
        <trkpt lat="28.247389" lon="105.212337"><ele>492.63876</ele><time>2026-05-30T18:04:36.000Z</time></trkpt>
        <trkpt lat="28.24735" lon="105.212306"><ele>493.97775</ele><time>2026-05-30T18:04:43.000Z</time></trkpt>
        <trkpt lat="28.247315" lon="105.212263"><ele>495.27026</ele><time>2026-05-30T18:04:50.000Z</time></trkpt>
        <trkpt lat="28.247274" lon="105.212226"><ele>495.4376</ele><time>2026-05-30T18:04:58.000Z</time></trkpt>
        <trkpt lat="28.247247" lon="105.212179"><ele>496.51358</ele><time>2026-05-30T18:05:05.000Z</time></trkpt>
        <trkpt lat="28.247221" lon="105.212136"><ele>498.06213</ele><time>2026-05-30T18:05:14.000Z</time></trkpt>
        <trkpt lat="28.247187" lon="105.212171"><ele>498.28574</ele><time>2026-05-30T18:05:19.000Z</time></trkpt>
        <trkpt lat="28.247149" lon="105.212143"><ele>501.64972</ele><time>2026-05-30T18:05:28.000Z</time></trkpt>
        <trkpt lat="28.247104" lon="105.212142"><ele>502.41235</ele><time>2026-05-30T18:05:35.000Z</time></trkpt>
        <trkpt lat="28.247058" lon="105.212151"><ele>503.44183</ele><time>2026-05-30T18:05:48.000Z</time></trkpt>
        <trkpt lat="28.247011" lon="105.212138"><ele>505.5711</ele><time>2026-05-30T18:05:55.000Z</time></trkpt>
        <trkpt lat="28.246986" lon="105.212184"><ele>506.8012</ele><time>2026-05-30T18:06:03.000Z</time></trkpt>
        <trkpt lat="28.246941" lon="105.212191"><ele>509.61017</ele><time>2026-05-30T18:06:11.000Z</time></trkpt>
        <trkpt lat="28.246896" lon="105.212184"><ele>513.0818</ele><time>2026-05-30T18:06:21.000Z</time></trkpt>
        <trkpt lat="28.246846" lon="105.212183"><ele>513.89355</ele><time>2026-05-30T18:06:27.000Z</time></trkpt>
        <trkpt lat="28.2468" lon="105.212203"><ele>514.4382</ele><time>2026-05-30T18:06:38.000Z</time></trkpt>
        <trkpt lat="28.246754" lon="105.2122"><ele>517.8415</ele><time>2026-05-30T18:06:47.000Z</time></trkpt>
        <trkpt lat="28.246707" lon="105.212216"><ele>519.6913</ele><time>2026-05-30T18:07:00.000Z</time></trkpt>
        <trkpt lat="28.246675" lon="105.212257"><ele>521.51776</ele><time>2026-05-30T18:07:15.000Z</time></trkpt>
        <trkpt lat="28.246625" lon="105.212255"><ele>520.58856</ele><time>2026-05-30T18:07:36.000Z</time></trkpt>
        <trkpt lat="28.246587" lon="105.212283"><ele>525.5837</ele><time>2026-05-30T18:07:55.000Z</time></trkpt>
        <trkpt lat="28.246545" lon="105.212319"><ele>529.85675</ele><time>2026-05-30T18:08:04.000Z</time></trkpt>
        <trkpt lat="28.246525" lon="105.21237"><ele>530.64136</ele><time>2026-05-30T18:08:17.000Z</time></trkpt>
        <trkpt lat="28.246475" lon="105.212342"><ele>536.6196</ele><time>2026-05-30T18:08:32.000Z</time></trkpt>
        <trkpt lat="28.246456" lon="105.212398"><ele>536.4027</ele><time>2026-05-30T18:08:49.000Z</time></trkpt>
        <trkpt lat="28.246479" lon="105.212457"><ele>536.1703</ele><time>2026-05-30T18:08:54.000Z</time></trkpt>
        <trkpt lat="28.246526" lon="105.212449"><ele>539.89435</ele><time>2026-05-30T18:09:04.000Z</time></trkpt>
        <trkpt lat="28.24657" lon="105.212475"><ele>542.7103</ele><time>2026-05-30T18:09:21.000Z</time></trkpt>
        <trkpt lat="28.246618" lon="105.21248"><ele>543.6448</ele><time>2026-05-30T18:09:30.000Z</time></trkpt>
        <trkpt lat="28.246665" lon="105.21251"><ele>543.9359</ele><time>2026-05-30T18:09:39.000Z</time></trkpt>
        <trkpt lat="28.246705" lon="105.212543"><ele>542.04047</ele><time>2026-05-30T18:09:48.000Z</time></trkpt>
        <trkpt lat="28.246741" lon="105.212578"><ele>545.2197</ele><time>2026-05-30T18:10:02.000Z</time></trkpt>
        <trkpt lat="28.246704" lon="105.212612"><ele>548.44696</ele><time>2026-05-30T18:10:30.000Z</time></trkpt>
        <trkpt lat="28.246691" lon="105.212668"><ele>551.11237</ele><time>2026-05-30T18:10:44.000Z</time></trkpt>
        <trkpt lat="28.246734" lon="105.212698"><ele>549.4441</ele><time>2026-05-30T18:11:05.000Z</time></trkpt>
        <trkpt lat="28.246757" lon="105.212744"><ele>554.96436</ele><time>2026-05-30T18:11:25.000Z</time></trkpt>
        <trkpt lat="28.246791" lon="105.212778"><ele>560.8834</ele><time>2026-05-30T18:12:04.000Z</time></trkpt>
        <trkpt lat="28.246807" lon="105.212834"><ele>563.5273</ele><time>2026-05-30T18:12:14.000Z</time></trkpt>
        <trkpt lat="28.246831" lon="105.212895"><ele>559.5024</ele><time>2026-05-30T18:12:23.000Z</time></trkpt>
        <trkpt lat="28.246865" lon="105.212931"><ele>566.58325</ele><time>2026-05-30T18:12:39.000Z</time></trkpt>
        <trkpt lat="28.246881" lon="105.212982"><ele>569.1774</ele><time>2026-05-30T18:12:54.000Z</time></trkpt>
        <trkpt lat="28.24691" lon="105.213031"><ele>569.7207</ele><time>2026-05-30T18:13:02.000Z</time></trkpt>
        <trkpt lat="28.24694" lon="105.213085"><ele>570.3916</ele><time>2026-05-30T18:13:09.000Z</time></trkpt>
        <trkpt lat="28.246952" lon="105.213138"><ele>572.12585</ele><time>2026-05-30T18:13:21.000Z</time></trkpt>
        <trkpt lat="28.246944" lon="105.21319"><ele>570.9521</ele><time>2026-05-30T18:13:39.000Z</time></trkpt>
        <trkpt lat="28.246981" lon="105.213236"><ele>572.83636</ele><time>2026-05-30T18:13:43.000Z</time></trkpt>
        <trkpt lat="28.247017" lon="105.213271"><ele>576.7413</ele><time>2026-05-30T18:13:53.000Z</time></trkpt>
        <trkpt lat="28.247022" lon="105.213326"><ele>580.30133</ele><time>2026-05-30T18:14:04.000Z</time></trkpt>
        <trkpt lat="28.247046" lon="105.213373"><ele>580.3031</ele><time>2026-05-30T18:14:12.000Z</time></trkpt>
        <trkpt lat="28.247078" lon="105.21342"><ele>585.0749</ele><time>2026-05-30T18:14:23.000Z</time></trkpt>
        <trkpt lat="28.247105" lon="105.213461"><ele>581.61676</ele><time>2026-05-30T18:14:29.000Z</time></trkpt>
        <trkpt lat="28.2471" lon="105.213514"><ele>582.9362</ele><time>2026-05-30T18:14:53.000Z</time></trkpt>
        <trkpt lat="28.247122" lon="105.213562"><ele>585.1726</ele><time>2026-05-30T18:15:00.000Z</time></trkpt>
        <trkpt lat="28.247142" lon="105.213608"><ele>581.61487</ele><time>2026-05-30T18:15:10.000Z</time></trkpt>
        <trkpt lat="28.247139" lon="105.213662"><ele>584.19226</ele><time>2026-05-30T18:15:30.000Z</time></trkpt>
        <trkpt lat="28.24714" lon="105.213721"><ele>586.9646</ele><time>2026-05-30T18:15:42.000Z</time></trkpt>
        <trkpt lat="28.247095" lon="105.213734"><ele>589.18933</ele><time>2026-05-30T18:16:25.000Z</time></trkpt>
        <trkpt lat="28.247071" lon="105.213782"><ele>591.3615</ele><time>2026-05-30T18:16:37.000Z</time></trkpt>
        <trkpt lat="28.247033" lon="105.213827"><ele>595.41095</ele><time>2026-05-30T18:16:44.000Z</time></trkpt>
        <trkpt lat="28.246998" lon="105.213786"><ele>592.1423</ele><time>2026-05-30T18:16:48.000Z</time></trkpt>
        <trkpt lat="28.247008" lon="105.213846"><ele>594.47015</ele><time>2026-05-30T18:16:51.000Z</time></trkpt>
        <trkpt lat="28.247026" lon="105.213799"><ele>606.1705</ele><time>2026-05-30T18:17:17.000Z</time></trkpt>
        <trkpt lat="28.246983" lon="105.213776"><ele>605.75903</ele><time>2026-05-30T18:17:30.000Z</time></trkpt>
        <trkpt lat="28.247025" lon="105.213749"><ele>603.8158</ele><time>2026-05-30T18:17:44.000Z</time></trkpt>
        <trkpt lat="28.247054" lon="105.213704"><ele>611.57654</ele><time>2026-05-30T18:18:21.000Z</time></trkpt>
        <trkpt lat="28.247006" lon="105.21371"><ele>612.8438</ele><time>2026-05-30T18:18:38.000Z</time></trkpt>
        <trkpt lat="28.246966" lon="105.213683"><ele>614.40735</ele><time>2026-05-30T18:19:18.000Z</time></trkpt>
        <trkpt lat="28.246996" lon="105.213733"><ele>616.9919</ele><time>2026-05-30T18:19:44.000Z</time></trkpt>
        <trkpt lat="28.246945" lon="105.213732"><ele>619.62445</ele><time>2026-05-30T18:19:50.000Z</time></trkpt>
        <trkpt lat="28.246899" lon="105.213752"><ele>617.316</ele><time>2026-05-30T18:19:59.000Z</time></trkpt>
        <trkpt lat="28.246866" lon="105.213714"><ele>625.1958</ele><time>2026-05-30T18:20:25.000Z</time></trkpt>
        <trkpt lat="28.24682" lon="105.213733"><ele>627.0069</ele><time>2026-05-30T18:20:36.000Z</time></trkpt>
        <trkpt lat="28.246777" lon="105.213713"><ele>630.5684</ele><time>2026-05-30T18:20:53.000Z</time></trkpt>
        <trkpt lat="28.246736" lon="105.213739"><ele>633.3655</ele><time>2026-05-30T18:21:05.000Z</time></trkpt>
        <trkpt lat="28.246693" lon="105.213759"><ele>635.121</ele><time>2026-05-30T18:21:18.000Z</time></trkpt>
        <trkpt lat="28.246653" lon="105.213733"><ele>638.37805</ele><time>2026-05-30T18:21:41.000Z</time></trkpt>
        <trkpt lat="28.246616" lon="105.213694"><ele>639.5859</ele><time>2026-05-30T18:21:48.000Z</time></trkpt>
        <trkpt lat="28.246565" lon="105.213691"><ele>639.5972</ele><time>2026-05-30T18:22:00.000Z</time></trkpt>
        <trkpt lat="28.246584" lon="105.213741"><ele>641.27313</ele><time>2026-05-30T18:22:07.000Z</time></trkpt>
        <trkpt lat="28.246597" lon="105.213794"><ele>638.90454</ele><time>2026-05-30T18:22:15.000Z</time></trkpt>
        <trkpt lat="28.246558" lon="105.213834"><ele>638.84393</ele><time>2026-05-30T18:22:26.000Z</time></trkpt>
        <trkpt lat="28.246531" lon="105.213875"><ele>639.6146</ele><time>2026-05-30T18:22:34.000Z</time></trkpt>
        <trkpt lat="28.246488" lon="105.213898"><ele>645.9456</ele><time>2026-05-30T18:22:44.000Z</time></trkpt>
        <trkpt lat="28.24648" lon="105.21395"><ele>655.26624</ele><time>2026-05-30T18:23:02.000Z</time></trkpt>
        <trkpt lat="28.24645" lon="105.21399"><ele>657.4778</ele><time>2026-05-30T18:23:16.000Z</time></trkpt>
        <trkpt lat="28.24643" lon="105.214037"><ele>659.98975</ele><time>2026-05-30T18:23:28.000Z</time></trkpt>
        <trkpt lat="28.246411" lon="105.214084"><ele>661.59796</ele><time>2026-05-30T18:23:39.000Z</time></trkpt>
        <trkpt lat="28.246376" lon="105.214042"><ele>661.326</ele><time>2026-05-30T18:23:44.000Z</time></trkpt>
        <trkpt lat="28.246349" lon="105.214"><ele>662.3068</ele><time>2026-05-30T18:23:51.000Z</time></trkpt>
        <trkpt lat="28.24633" lon="105.213951"><ele>661.99133</ele><time>2026-05-30T18:24:02.000Z</time></trkpt>
        <trkpt lat="28.246281" lon="105.213921"><ele>662.74243</ele><time>2026-05-30T18:24:08.000Z</time></trkpt>
        <trkpt lat="28.246236" lon="105.213894"><ele>661.45044</ele><time>2026-05-30T18:24:19.000Z</time></trkpt>
        <trkpt lat="28.246182" lon="105.213884"><ele>661.567</ele><time>2026-05-30T18:24:24.000Z</time></trkpt>
        <trkpt lat="28.246135" lon="105.213871"><ele>665.9006</ele><time>2026-05-30T18:24:32.000Z</time></trkpt>
        <trkpt lat="28.246089" lon="105.213842"><ele>665.39325</ele><time>2026-05-30T18:24:39.000Z</time></trkpt>
        <trkpt lat="28.246065" lon="105.213795"><ele>666.3142</ele><time>2026-05-30T18:24:45.000Z</time></trkpt>
        <trkpt lat="28.246023" lon="105.213769"><ele>669.0482</ele><time>2026-05-30T18:24:55.000Z</time></trkpt>
        <trkpt lat="28.24598" lon="105.213732"><ele>670.4635</ele><time>2026-05-30T18:25:00.000Z</time></trkpt>
        <trkpt lat="28.245949" lon="105.213694"><ele>671.56805</ele><time>2026-05-30T18:25:11.000Z</time></trkpt>
        <trkpt lat="28.245939" lon="105.213639"><ele>672.4679</ele><time>2026-05-30T18:25:16.000Z</time></trkpt>
        <trkpt lat="28.245907" lon="105.213602"><ele>673.39294</ele><time>2026-05-30T18:25:24.000Z</time></trkpt>
        <trkpt lat="28.245891" lon="105.21355"><ele>673.14404</ele><time>2026-05-30T18:25:32.000Z</time></trkpt>
        <trkpt lat="28.245879" lon="105.213499"><ele>672.42053</ele><time>2026-05-30T18:25:38.000Z</time></trkpt>
        <trkpt lat="28.245856" lon="105.213451"><ele>679.0616</ele><time>2026-05-30T18:25:47.000Z</time></trkpt>
        <trkpt lat="28.245821" lon="105.213414"><ele>681.39276</ele><time>2026-05-30T18:25:56.000Z</time></trkpt>
        <trkpt lat="28.245787" lon="105.213375"><ele>685.54706</ele><time>2026-05-30T18:26:06.000Z</time></trkpt>
        <trkpt lat="28.245746" lon="105.213353"><ele>686.4751</ele><time>2026-05-30T18:26:19.000Z</time></trkpt>
        <trkpt lat="28.245699" lon="105.213366"><ele>687.4396</ele><time>2026-05-30T18:26:27.000Z</time></trkpt>
        <trkpt lat="28.245664" lon="105.213404"><ele>688.5788</ele><time>2026-05-30T18:26:40.000Z</time></trkpt>
        <trkpt lat="28.245664" lon="105.213353"><ele>692.5031</ele><time>2026-05-30T18:29:51.000Z</time></trkpt>
        <trkpt lat="28.245665" lon="105.213408"><ele>676.1517</ele><time>2026-05-30T18:32:52.000Z</time></trkpt>
        <trkpt lat="28.245659" lon="105.213465"><ele>677.8404</ele><time>2026-05-30T18:33:25.000Z</time></trkpt>
        <trkpt lat="28.245616" lon="105.213502"><ele>681.37354</ele><time>2026-05-30T18:33:31.000Z</time></trkpt>
        <trkpt lat="28.245618" lon="105.21356"><ele>687.18286</ele><time>2026-05-30T18:33:40.000Z</time></trkpt>
        <trkpt lat="28.24558" lon="105.21353"><ele>690.12714</ele><time>2026-05-30T18:34:45.000Z</time></trkpt>
        <trkpt lat="28.245529" lon="105.213536"><ele>690.186</ele><time>2026-05-30T18:34:50.000Z</time></trkpt>
        <trkpt lat="28.245497" lon="105.213573"><ele>684.4604</ele><time>2026-05-30T18:34:55.000Z</time></trkpt>
        <trkpt lat="28.245447" lon="105.213595"><ele>684.07965</ele><time>2026-05-30T18:35:01.000Z</time></trkpt>
        <trkpt lat="28.245405" lon="105.213632"><ele>684.92816</ele><time>2026-05-30T18:35:07.000Z</time></trkpt>
        <trkpt lat="28.245361" lon="105.213659"><ele>686.7656</ele><time>2026-05-30T18:35:12.000Z</time></trkpt>
        <trkpt lat="28.245316" lon="105.213683"><ele>687.9242</ele><time>2026-05-30T18:35:17.000Z</time></trkpt>
        <trkpt lat="28.245274" lon="105.213713"><ele>688.71027</ele><time>2026-05-30T18:35:22.000Z</time></trkpt>
        <trkpt lat="28.245232" lon="105.21374"><ele>689.728</ele><time>2026-05-30T18:35:26.000Z</time></trkpt>
        <trkpt lat="28.245183" lon="105.213765"><ele>690.0784</ele><time>2026-05-30T18:35:31.000Z</time></trkpt>
        <trkpt lat="28.245132" lon="105.213782"><ele>690.7976</ele><time>2026-05-30T18:35:35.000Z</time></trkpt>
        <trkpt lat="28.245089" lon="105.213799"><ele>691.1029</ele><time>2026-05-30T18:35:39.000Z</time></trkpt>
        <trkpt lat="28.245043" lon="105.213819"><ele>691.1322</ele><time>2026-05-30T18:35:44.000Z</time></trkpt>
        <trkpt lat="28.244991" lon="105.213831"><ele>692.3899</ele><time>2026-05-30T18:35:49.000Z</time></trkpt>
        <trkpt lat="28.244948" lon="105.213876"><ele>690.3304</ele><time>2026-05-30T18:36:05.000Z</time></trkpt>
        <trkpt lat="28.244911" lon="105.213915"><ele>690.9394</ele><time>2026-05-30T18:36:10.000Z</time></trkpt>
        <trkpt lat="28.244871" lon="105.213953"><ele>689.15826</ele><time>2026-05-30T18:36:26.000Z</time></trkpt>
        <trkpt lat="28.244846" lon="105.214007"><ele>687.8942</ele><time>2026-05-30T18:36:30.000Z</time></trkpt>
        <trkpt lat="28.244832" lon="105.214057"><ele>687.2624</ele><time>2026-05-30T18:36:34.000Z</time></trkpt>
        <trkpt lat="28.244806" lon="105.214106"><ele>686.213</ele><time>2026-05-30T18:36:38.000Z</time></trkpt>
        <trkpt lat="28.244787" lon="105.214155"><ele>686.0459</ele><time>2026-05-30T18:36:42.000Z</time></trkpt>
        <trkpt lat="28.244775" lon="105.214208"><ele>686.1559</ele><time>2026-05-30T18:36:47.000Z</time></trkpt>
        <trkpt lat="28.244764" lon="105.214265"><ele>686.45575</ele><time>2026-05-30T18:36:53.000Z</time></trkpt>
        <trkpt lat="28.244764" lon="105.214319"><ele>687.72394</ele><time>2026-05-30T18:36:57.000Z</time></trkpt>
        <trkpt lat="28.244757" lon="105.21437"><ele>688.72864</ele><time>2026-05-30T18:37:03.000Z</time></trkpt>
        <trkpt lat="28.24473" lon="105.214424"><ele>690.06647</ele><time>2026-05-30T18:37:12.000Z</time></trkpt>
        <trkpt lat="28.244713" lon="105.214484"><ele>691.82965</ele><time>2026-05-30T18:37:16.000Z</time></trkpt>
        <trkpt lat="28.244669" lon="105.214526"><ele>693.9478</ele><time>2026-05-30T18:37:20.000Z</time></trkpt>
        <trkpt lat="28.244608" lon="105.214536"><ele>695.2597</ele><time>2026-05-30T18:37:24.000Z</time></trkpt>
        <trkpt lat="28.244554" lon="105.214537"><ele>695.8043</ele><time>2026-05-30T18:37:28.000Z</time></trkpt>
        <trkpt lat="28.244502" lon="105.214514"><ele>696.3877</ele><time>2026-05-30T18:37:32.000Z</time></trkpt>
        <trkpt lat="28.244454" lon="105.214487"><ele>697.1752</ele><time>2026-05-30T18:37:39.000Z</time></trkpt>
        <trkpt lat="28.244409" lon="105.214469"><ele>696.5825</ele><time>2026-05-30T18:37:41.000Z</time></trkpt>
        <trkpt lat="28.244362" lon="105.214452"><ele>695.5815</ele><time>2026-05-30T18:37:45.000Z</time></trkpt>
        <trkpt lat="28.244314" lon="105.214434"><ele>694.6585</ele><time>2026-05-30T18:37:49.000Z</time></trkpt>
        <trkpt lat="28.244267" lon="105.214414"><ele>693.7347</ele><time>2026-05-30T18:37:54.000Z</time></trkpt>
        <trkpt lat="28.244222" lon="105.214393"><ele>692.9123</ele><time>2026-05-30T18:37:58.000Z</time></trkpt>
        <trkpt lat="28.244171" lon="105.214362"><ele>692.4238</ele><time>2026-05-30T18:38:02.000Z</time></trkpt>
        <trkpt lat="28.244125" lon="105.214345"><ele>691.5432</ele><time>2026-05-30T18:38:07.000Z</time></trkpt>
        <trkpt lat="28.244075" lon="105.214324"><ele>690.28503</ele><time>2026-05-30T18:38:12.000Z</time></trkpt>
        <trkpt lat="28.244036" lon="105.214295"><ele>688.7685</ele><time>2026-05-30T18:38:16.000Z</time></trkpt>
        <trkpt lat="28.24399" lon="105.21427"><ele>687.074</ele><time>2026-05-30T18:38:21.000Z</time></trkpt>
        <trkpt lat="28.243947" lon="105.214253"><ele>684.85547</ele><time>2026-05-30T18:38:35.000Z</time></trkpt>
        <trkpt lat="28.243901" lon="105.214234"><ele>684.2265</ele><time>2026-05-30T18:38:41.000Z</time></trkpt>
        <trkpt lat="28.243862" lon="105.2142"><ele>682.6063</ele><time>2026-05-30T18:38:49.000Z</time></trkpt>
        <trkpt lat="28.243812" lon="105.214175"><ele>680.6337</ele><time>2026-05-30T18:38:57.000Z</time></trkpt>
        <trkpt lat="28.243755" lon="105.214172"><ele>679.77673</ele><time>2026-05-30T18:39:02.000Z</time></trkpt>
        <trkpt lat="28.243701" lon="105.21419"><ele>678.64435</ele><time>2026-05-30T18:39:14.000Z</time></trkpt>
        <trkpt lat="28.243655" lon="105.214206"><ele>679.2254</ele><time>2026-05-30T18:39:17.000Z</time></trkpt>
        <trkpt lat="28.243605" lon="105.214206"><ele>680.1994</ele><time>2026-05-30T18:39:22.000Z</time></trkpt>
        <trkpt lat="28.24355" lon="105.214199"><ele>681.48364</ele><time>2026-05-30T18:39:27.000Z</time></trkpt>
        <trkpt lat="28.243502" lon="105.214183"><ele>682.8482</ele><time>2026-05-30T18:39:31.000Z</time></trkpt>
        <trkpt lat="28.243457" lon="105.214138"><ele>684.5898</ele><time>2026-05-30T18:39:35.000Z</time></trkpt>
        <trkpt lat="28.243431" lon="105.214087"><ele>685.1906</ele><time>2026-05-30T18:39:38.000Z</time></trkpt>
        <trkpt lat="28.243414" lon="105.214032"><ele>685.5668</ele><time>2026-05-30T18:39:41.000Z</time></trkpt>
        <trkpt lat="28.243409" lon="105.213966"><ele>684.9891</ele><time>2026-05-30T18:39:45.000Z</time></trkpt>
        <trkpt lat="28.243409" lon="105.213915"><ele>684.3275</ele><time>2026-05-30T18:39:47.000Z</time></trkpt>
        <trkpt lat="28.243405" lon="105.213861"><ele>682.6687</ele><time>2026-05-30T18:39:51.000Z</time></trkpt>
        <trkpt lat="28.243363" lon="105.213806"><ele>682.33545</ele><time>2026-05-30T18:39:54.000Z</time></trkpt>
        <trkpt lat="28.243318" lon="105.21378"><ele>680.9284</ele><time>2026-05-30T18:40:00.000Z</time></trkpt>
        <trkpt lat="28.243273" lon="105.213769"><ele>681.14795</ele><time>2026-05-30T18:40:05.000Z</time></trkpt>
        <trkpt lat="28.243222" lon="105.213773"><ele>681.3288</ele><time>2026-05-30T18:40:09.000Z</time></trkpt>
        <trkpt lat="28.243174" lon="105.213788"><ele>681.2524</ele><time>2026-05-30T18:40:13.000Z</time></trkpt>
        <trkpt lat="28.24313" lon="105.213813"><ele>681.8606</ele><time>2026-05-30T18:40:17.000Z</time></trkpt>
        <trkpt lat="28.243089" lon="105.213843"><ele>683.2674</ele><time>2026-05-30T18:40:21.000Z</time></trkpt>
        <trkpt lat="28.243039" lon="105.213866"><ele>684.2079</ele><time>2026-05-30T18:40:25.000Z</time></trkpt>
        <trkpt lat="28.242992" lon="105.213874"><ele>685.1335</ele><time>2026-05-30T18:40:30.000Z</time></trkpt>
        <trkpt lat="28.242938" lon="105.213875"><ele>684.9607</ele><time>2026-05-30T18:40:34.000Z</time></trkpt>
        <trkpt lat="28.24288" lon="105.213873"><ele>685.6684</ele><time>2026-05-30T18:40:38.000Z</time></trkpt>
        <trkpt lat="28.242836" lon="105.21386"><ele>686.01245</ele><time>2026-05-30T18:40:41.000Z</time></trkpt>
        <trkpt lat="28.242787" lon="105.213839"><ele>686.2072</ele><time>2026-05-30T18:40:45.000Z</time></trkpt>
        <trkpt lat="28.242736" lon="105.213823"><ele>685.68445</ele><time>2026-05-30T18:40:49.000Z</time></trkpt>
        <trkpt lat="28.242692" lon="105.213791"><ele>685.1083</ele><time>2026-05-30T18:40:54.000Z</time></trkpt>
        <trkpt lat="28.242644" lon="105.213766"><ele>685.6831</ele><time>2026-05-30T18:40:59.000Z</time></trkpt>
        <trkpt lat="28.242605" lon="105.213736"><ele>684.64667</ele><time>2026-05-30T18:41:04.000Z</time></trkpt>
        <trkpt lat="28.242562" lon="105.213719"><ele>684.2757</ele><time>2026-05-30T18:41:10.000Z</time></trkpt>
        <trkpt lat="28.242518" lon="105.213693"><ele>683.93915</ele><time>2026-05-30T18:41:16.000Z</time></trkpt>
        <trkpt lat="28.242475" lon="105.213669"><ele>683.8595</ele><time>2026-05-30T18:41:19.000Z</time></trkpt>
        <trkpt lat="28.242432" lon="105.213648"><ele>683.4546</ele><time>2026-05-30T18:41:24.000Z</time></trkpt>
        <trkpt lat="28.242371" lon="105.213657"><ele>683.95355</ele><time>2026-05-30T18:41:30.000Z</time></trkpt>
        <trkpt lat="28.242328" lon="105.213686"><ele>686.68866</ele><time>2026-05-30T18:41:36.000Z</time></trkpt>
        <trkpt lat="28.242281" lon="105.213714"><ele>689.3147</ele><time>2026-05-30T18:41:42.000Z</time></trkpt>
        <trkpt lat="28.242238" lon="105.213742"><ele>691.6848</ele><time>2026-05-30T18:41:50.000Z</time></trkpt>
        <trkpt lat="28.242195" lon="105.213765"><ele>693.4082</ele><time>2026-05-30T18:41:54.000Z</time></trkpt>
        <trkpt lat="28.242151" lon="105.213794"><ele>693.82153</ele><time>2026-05-30T18:42:00.000Z</time></trkpt>
        <trkpt lat="28.242119" lon="105.213836"><ele>694.97723</ele><time>2026-05-30T18:42:05.000Z</time></trkpt>
        <trkpt lat="28.242076" lon="105.21386"><ele>695.8673</ele><time>2026-05-30T18:42:10.000Z</time></trkpt>
        <trkpt lat="28.242019" lon="105.213892"><ele>696.12115</ele><time>2026-05-30T18:42:16.000Z</time></trkpt>
        <trkpt lat="28.241979" lon="105.213931"><ele>695.81903</ele><time>2026-05-30T18:42:20.000Z</time></trkpt>
        <trkpt lat="28.241924" lon="105.213952"><ele>695.25574</ele><time>2026-05-30T18:42:23.000Z</time></trkpt>
        <trkpt lat="28.241869" lon="105.21393"><ele>696.9244</ele><time>2026-05-30T18:42:27.000Z</time></trkpt>
        <trkpt lat="28.241833" lon="105.213884"><ele>698.1503</ele><time>2026-05-30T18:42:32.000Z</time></trkpt>
        <trkpt lat="28.241801" lon="105.213829"><ele>697.2711</ele><time>2026-05-30T18:42:36.000Z</time></trkpt>
        <trkpt lat="28.24177" lon="105.213779"><ele>696.5183</ele><time>2026-05-30T18:42:41.000Z</time></trkpt>
        <trkpt lat="28.241716" lon="105.213748"><ele>694.6114</ele><time>2026-05-30T18:42:48.000Z</time></trkpt>
        <trkpt lat="28.241665" lon="105.21377"><ele>695.8654</ele><time>2026-05-30T18:42:53.000Z</time></trkpt>
        <trkpt lat="28.241623" lon="105.213799"><ele>697.09045</ele><time>2026-05-30T18:43:00.000Z</time></trkpt>
        <trkpt lat="28.24158" lon="105.21382"><ele>699.1257</ele><time>2026-05-30T18:43:05.000Z</time></trkpt>
        <trkpt lat="28.241532" lon="105.213833"><ele>700.21466</ele><time>2026-05-30T18:43:11.000Z</time></trkpt>
        <trkpt lat="28.241482" lon="105.213855"><ele>701.20105</ele><time>2026-05-30T18:43:18.000Z</time></trkpt>
        <trkpt lat="28.241436" lon="105.213856"><ele>701.5653</ele><time>2026-05-30T18:43:23.000Z</time></trkpt>
        <trkpt lat="28.241381" lon="105.213875"><ele>702.52167</ele><time>2026-05-30T18:43:28.000Z</time></trkpt>
        <trkpt lat="28.241326" lon="105.213869"><ele>703.2615</ele><time>2026-05-30T18:43:34.000Z</time></trkpt>
        <trkpt lat="28.241273" lon="105.213865"><ele>704.318</ele><time>2026-05-30T18:43:40.000Z</time></trkpt>
        <trkpt lat="28.241227" lon="105.213858"><ele>704.49347</ele><time>2026-05-30T18:43:45.000Z</time></trkpt>
        <trkpt lat="28.241186" lon="105.213887"><ele>704.4906</ele><time>2026-05-30T18:43:51.000Z</time></trkpt>
        <trkpt lat="28.241141" lon="105.213881"><ele>704.6479</ele><time>2026-05-30T18:43:56.000Z</time></trkpt>
        <trkpt lat="28.241099" lon="105.213903"><ele>706.2117</ele><time>2026-05-30T18:44:00.000Z</time></trkpt>
        <trkpt lat="28.241042" lon="105.213911"><ele>707.7697</ele><time>2026-05-30T18:44:08.000Z</time></trkpt>
        <trkpt lat="28.240998" lon="105.213928"><ele>710.0841</ele><time>2026-05-30T18:44:14.000Z</time></trkpt>
        <trkpt lat="28.24094" lon="105.213937"><ele>711.15045</ele><time>2026-05-30T18:44:19.000Z</time></trkpt>
        <trkpt lat="28.240891" lon="105.213941"><ele>710.87537</ele><time>2026-05-30T18:44:25.000Z</time></trkpt>
        <trkpt lat="28.240833" lon="105.213922"><ele>712.14813</ele><time>2026-05-30T18:44:31.000Z</time></trkpt>
        <trkpt lat="28.240804" lon="105.213882"><ele>714.864</ele><time>2026-05-30T18:44:36.000Z</time></trkpt>
        <trkpt lat="28.240777" lon="105.213833"><ele>716.05115</ele><time>2026-05-30T18:44:42.000Z</time></trkpt>
        <trkpt lat="28.240777" lon="105.213776"><ele>717.9693</ele><time>2026-05-30T18:44:49.000Z</time></trkpt>
        <trkpt lat="28.240789" lon="105.213722"><ele>718.3769</ele><time>2026-05-30T18:44:55.000Z</time></trkpt>
        <trkpt lat="28.240798" lon="105.213665"><ele>717.50525</ele><time>2026-05-30T18:45:02.000Z</time></trkpt>
        <trkpt lat="28.240822" lon="105.213621"><ele>718.7765</ele><time>2026-05-30T18:45:08.000Z</time></trkpt>
        <trkpt lat="28.240845" lon="105.213567"><ele>717.94745</ele><time>2026-05-30T18:45:16.000Z</time></trkpt>
        <trkpt lat="28.240868" lon="105.213522"><ele>717.6</ele><time>2026-05-30T18:45:20.000Z</time></trkpt>
        <trkpt lat="28.240891" lon="105.213478"><ele>717.8654</ele><time>2026-05-30T18:45:25.000Z</time></trkpt>
        <trkpt lat="28.240905" lon="105.213424"><ele>717.0357</ele><time>2026-05-30T18:45:30.000Z</time></trkpt>
        <trkpt lat="28.240928" lon="105.213374"><ele>716.59656</ele><time>2026-05-30T18:45:36.000Z</time></trkpt>
        <trkpt lat="28.240946" lon="105.213321"><ele>716.3764</ele><time>2026-05-30T18:45:41.000Z</time></trkpt>
        <trkpt lat="28.240954" lon="105.213263"><ele>715.26953</ele><time>2026-05-30T18:45:46.000Z</time></trkpt>
        <trkpt lat="28.240938" lon="105.21321"><ele>714.8426</ele><time>2026-05-30T18:45:51.000Z</time></trkpt>
        <trkpt lat="28.240911" lon="105.213166"><ele>714.61163</ele><time>2026-05-30T18:45:56.000Z</time></trkpt>
        <trkpt lat="28.240867" lon="105.213133"><ele>715.5076</ele><time>2026-05-30T18:46:01.000Z</time></trkpt>
        <trkpt lat="28.240833" lon="105.213095"><ele>717.22943</ele><time>2026-05-30T18:46:05.000Z</time></trkpt>
        <trkpt lat="28.240804" lon="105.213054"><ele>717.24554</ele><time>2026-05-30T18:46:09.000Z</time></trkpt>
        <trkpt lat="28.240766" lon="105.213022"><ele>718.31824</ele><time>2026-05-30T18:46:13.000Z</time></trkpt>
        <trkpt lat="28.240732" lon="105.212971"><ele>720.341</ele><time>2026-05-30T18:46:18.000Z</time></trkpt>
        <trkpt lat="28.240695" lon="105.212936"><ele>720.608</ele><time>2026-05-30T18:46:23.000Z</time></trkpt>
        <trkpt lat="28.240666" lon="105.212882"><ele>721.58606</ele><time>2026-05-30T18:46:28.000Z</time></trkpt>
        <trkpt lat="28.240616" lon="105.212854"><ele>722.0614</ele><time>2026-05-30T18:46:33.000Z</time></trkpt>
        <trkpt lat="28.240567" lon="105.212834"><ele>723.88135</ele><time>2026-05-30T18:46:38.000Z</time></trkpt>
        <trkpt lat="28.240521" lon="105.212801"><ele>725.71735</ele><time>2026-05-30T18:46:44.000Z</time></trkpt>
        <trkpt lat="28.240473" lon="105.2128"><ele>727.0794</ele><time>2026-05-30T18:46:49.000Z</time></trkpt>
        <trkpt lat="28.240443" lon="105.212754"><ele>729.2013</ele><time>2026-05-30T18:46:53.000Z</time></trkpt>
        <trkpt lat="28.240413" lon="105.212711"><ele>729.4495</ele><time>2026-05-30T18:46:58.000Z</time></trkpt>
        <trkpt lat="28.240402" lon="105.21266"><ele>730.8399</ele><time>2026-05-30T18:47:02.000Z</time></trkpt>
        <trkpt lat="28.240413" lon="105.21261"><ele>730.1029</ele><time>2026-05-30T18:47:06.000Z</time></trkpt>
        <trkpt lat="28.240455" lon="105.212576"><ele>730.871</ele><time>2026-05-30T18:47:10.000Z</time></trkpt>
        <trkpt lat="28.240507" lon="105.212541"><ele>729.12036</ele><time>2026-05-30T18:47:16.000Z</time></trkpt>
        <trkpt lat="28.24054" lon="105.212506"><ele>727.3419</ele><time>2026-05-30T18:47:21.000Z</time></trkpt>
        <trkpt lat="28.240587" lon="105.212461"><ele>725.73694</ele><time>2026-05-30T18:47:27.000Z</time></trkpt>
        <trkpt lat="28.240624" lon="105.212412"><ele>724.32855</ele><time>2026-05-30T18:47:32.000Z</time></trkpt>
        <trkpt lat="28.240667" lon="105.212371"><ele>723.3072</ele><time>2026-05-30T18:47:37.000Z</time></trkpt>
        <trkpt lat="28.240708" lon="105.212327"><ele>722.6615</ele><time>2026-05-30T18:47:42.000Z</time></trkpt>
        <trkpt lat="28.240735" lon="105.21228"><ele>722.27386</ele><time>2026-05-30T18:47:47.000Z</time></trkpt>
        <trkpt lat="28.240764" lon="105.212238"><ele>722.56396</ele><time>2026-05-30T18:47:52.000Z</time></trkpt>
        <trkpt lat="28.240809" lon="105.212198"><ele>722.6151</ele><time>2026-05-30T18:47:58.000Z</time></trkpt>
        <trkpt lat="28.240834" lon="105.212149"><ele>722.71875</ele><time>2026-05-30T18:48:04.000Z</time></trkpt>
        <trkpt lat="28.240876" lon="105.212118"><ele>722.85864</ele><time>2026-05-30T18:48:09.000Z</time></trkpt>
        <trkpt lat="28.240919" lon="105.212082"><ele>722.8354</ele><time>2026-05-30T18:48:15.000Z</time></trkpt>
        <trkpt lat="28.240951" lon="105.212046"><ele>722.9379</ele><time>2026-05-30T18:48:22.000Z</time></trkpt>
        <trkpt lat="28.240968" lon="105.211999"><ele>723.3808</ele><time>2026-05-30T18:48:32.000Z</time></trkpt>
        <trkpt lat="28.240986" lon="105.21195"><ele>723.7115</ele><time>2026-05-30T18:48:37.000Z</time></trkpt>
        <trkpt lat="28.240993" lon="105.211897"><ele>724.9921</ele><time>2026-05-30T18:48:42.000Z</time></trkpt>
        <trkpt lat="28.240993" lon="105.211838"><ele>726.73474</ele><time>2026-05-30T18:48:49.000Z</time></trkpt>
        <trkpt lat="28.240994" lon="105.211786"><ele>728.4114</ele><time>2026-05-30T18:48:54.000Z</time></trkpt>
        <trkpt lat="28.240989" lon="105.211725"><ele>729.9803</ele><time>2026-05-30T18:49:01.000Z</time></trkpt>
        <trkpt lat="28.240992" lon="105.211674"><ele>731.70715</ele><time>2026-05-30T18:49:07.000Z</time></trkpt>
        <trkpt lat="28.240989" lon="105.211619"><ele>732.5173</ele><time>2026-05-30T18:49:13.000Z</time></trkpt>
        <trkpt lat="28.240995" lon="105.211565"><ele>732.7963</ele><time>2026-05-30T18:49:17.000Z</time></trkpt>
        <trkpt lat="28.240991" lon="105.211513"><ele>732.9474</ele><time>2026-05-30T18:49:21.000Z</time></trkpt>
        <trkpt lat="28.240985" lon="105.211454"><ele>733.36316</ele><time>2026-05-30T18:49:26.000Z</time></trkpt>
        <trkpt lat="28.240971" lon="105.211402"><ele>733.87</ele><time>2026-05-30T18:49:32.000Z</time></trkpt>
        <trkpt lat="28.240948" lon="105.211353"><ele>733.5733</ele><time>2026-05-30T18:49:37.000Z</time></trkpt>
        <trkpt lat="28.240919" lon="105.211299"><ele>733.7604</ele><time>2026-05-30T18:49:43.000Z</time></trkpt>
        <trkpt lat="28.240893" lon="105.211246"><ele>733.9384</ele><time>2026-05-30T18:49:48.000Z</time></trkpt>
        <trkpt lat="28.240862" lon="105.211199"><ele>733.40765</ele><time>2026-05-30T18:49:53.000Z</time></trkpt>
        <trkpt lat="28.240825" lon="105.211166"><ele>733.7312</ele><time>2026-05-30T18:49:57.000Z</time></trkpt>
        <trkpt lat="28.240779" lon="105.211124"><ele>734.00256</ele><time>2026-05-30T18:50:02.000Z</time></trkpt>
        <trkpt lat="28.240745" lon="105.211086"><ele>734.55194</ele><time>2026-05-30T18:50:06.000Z</time></trkpt>
        <trkpt lat="28.240698" lon="105.211048"><ele>733.90594</ele><time>2026-05-30T18:50:11.000Z</time></trkpt>
        <trkpt lat="28.240656" lon="105.211017"><ele>733.40125</ele><time>2026-05-30T18:50:17.000Z</time></trkpt>
        <trkpt lat="28.240609" lon="105.210989"><ele>733.5643</ele><time>2026-05-30T18:50:22.000Z</time></trkpt>
        <trkpt lat="28.240568" lon="105.210965"><ele>733.46326</ele><time>2026-05-30T18:50:27.000Z</time></trkpt>
        <trkpt lat="28.240519" lon="105.210966"><ele>734.0373</ele><time>2026-05-30T18:50:32.000Z</time></trkpt>
        <trkpt lat="28.240472" lon="105.21097"><ele>735.55273</ele><time>2026-05-30T18:50:37.000Z</time></trkpt>
        <trkpt lat="28.240427" lon="105.21098"><ele>735.7277</ele><time>2026-05-30T18:50:41.000Z</time></trkpt>
        <trkpt lat="28.240375" lon="105.210986"><ele>736.0862</ele><time>2026-05-30T18:50:46.000Z</time></trkpt>
        <trkpt lat="28.240322" lon="105.210999"><ele>736.27136</ele><time>2026-05-30T18:50:51.000Z</time></trkpt>
        <trkpt lat="28.24028" lon="105.211031"><ele>738.221</ele><time>2026-05-30T18:50:56.000Z</time></trkpt>
        <trkpt lat="28.240234" lon="105.211045"><ele>740.5557</ele><time>2026-05-30T18:51:01.000Z</time></trkpt>
        <trkpt lat="28.240186" lon="105.211038"><ele>741.0343</ele><time>2026-05-30T18:51:10.000Z</time></trkpt>
        <trkpt lat="28.240133" lon="105.211055"><ele>741.3412</ele><time>2026-05-30T18:51:14.000Z</time></trkpt>
        <trkpt lat="28.240073" lon="105.211071"><ele>743.7362</ele><time>2026-05-30T18:51:20.000Z</time></trkpt>
        <trkpt lat="28.240027" lon="105.211096"><ele>743.4319</ele><time>2026-05-30T18:51:23.000Z</time></trkpt>
        <trkpt lat="28.239979" lon="105.211101"><ele>743.77924</ele><time>2026-05-30T18:51:27.000Z</time></trkpt>
        <trkpt lat="28.239932" lon="105.211107"><ele>744.4309</ele><time>2026-05-30T18:51:32.000Z</time></trkpt>
        <trkpt lat="28.239878" lon="105.211124"><ele>744.59454</ele><time>2026-05-30T18:51:37.000Z</time></trkpt>
        <trkpt lat="28.23983" lon="105.211136"><ele>745.23047</ele><time>2026-05-30T18:51:41.000Z</time></trkpt>
        <trkpt lat="28.239779" lon="105.211154"><ele>746.2991</ele><time>2026-05-30T18:51:45.000Z</time></trkpt>
        <trkpt lat="28.239734" lon="105.211167"><ele>746.8992</ele><time>2026-05-30T18:51:49.000Z</time></trkpt>
        <trkpt lat="28.23968" lon="105.211166"><ele>747.8257</ele><time>2026-05-30T18:51:53.000Z</time></trkpt>
        <trkpt lat="28.239626" lon="105.211143"><ele>748.7822</ele><time>2026-05-30T18:51:58.000Z</time></trkpt>
        <trkpt lat="28.239587" lon="105.211108"><ele>748.46387</ele><time>2026-05-30T18:52:02.000Z</time></trkpt>
        <trkpt lat="28.239557" lon="105.211069"><ele>748.06213</ele><time>2026-05-30T18:52:06.000Z</time></trkpt>
        <trkpt lat="28.239524" lon="105.211025"><ele>747.42633</ele><time>2026-05-30T18:52:11.000Z</time></trkpt>
        <trkpt lat="28.239506" lon="105.210975"><ele>745.92175</ele><time>2026-05-30T18:52:17.000Z</time></trkpt>
        <trkpt lat="28.239492" lon="105.21092"><ele>743.8709</ele><time>2026-05-30T18:52:23.000Z</time></trkpt>
        <trkpt lat="28.239481" lon="105.210869"><ele>741.85535</ele><time>2026-05-30T18:52:28.000Z</time></trkpt>
        <trkpt lat="28.239459" lon="105.210825"><ele>739.28876</ele><time>2026-05-30T18:52:34.000Z</time></trkpt>
        <trkpt lat="28.239415" lon="105.210783"><ele>737.9592</ele><time>2026-05-30T18:52:40.000Z</time></trkpt>
        <trkpt lat="28.239371" lon="105.210753"><ele>737.8431</ele><time>2026-05-30T18:52:45.000Z</time></trkpt>
        <trkpt lat="28.239323" lon="105.210737"><ele>737.90533</ele><time>2026-05-30T18:52:50.000Z</time></trkpt>
        <trkpt lat="28.23927" lon="105.210728"><ele>739.0634</ele><time>2026-05-30T18:52:56.000Z</time></trkpt>
        <trkpt lat="28.239224" lon="105.210724"><ele>740.0084</ele><time>2026-05-30T18:53:01.000Z</time></trkpt>
        <trkpt lat="28.239169" lon="105.210723"><ele>741.1351</ele><time>2026-05-30T18:53:06.000Z</time></trkpt>
        <trkpt lat="28.239121" lon="105.210705"><ele>740.79803</ele><time>2026-05-30T18:53:11.000Z</time></trkpt>
        <trkpt lat="28.239087" lon="105.210665"><ele>743.4361</ele><time>2026-05-30T18:53:16.000Z</time></trkpt>
        <trkpt lat="28.239061" lon="105.210621"><ele>744.5787</ele><time>2026-05-30T18:53:19.000Z</time></trkpt>
        <trkpt lat="28.239044" lon="105.210563"><ele>745.0621</ele><time>2026-05-30T18:53:24.000Z</time></trkpt>
        <trkpt lat="28.239041" lon="105.210512"><ele>745.3275</ele><time>2026-05-30T18:53:28.000Z</time></trkpt>
        <trkpt lat="28.239043" lon="105.210452"><ele>744.68176</ele><time>2026-05-30T18:53:33.000Z</time></trkpt>
        <trkpt lat="28.239063" lon="105.210395"><ele>743.7834</ele><time>2026-05-30T18:53:38.000Z</time></trkpt>
        <trkpt lat="28.239066" lon="105.21033"><ele>741.6888</ele><time>2026-05-30T18:53:43.000Z</time></trkpt>
        <trkpt lat="28.239059" lon="105.210272"><ele>740.7483</ele><time>2026-05-30T18:53:48.000Z</time></trkpt>
        <trkpt lat="28.239057" lon="105.210216"><ele>740.3314</ele><time>2026-05-30T18:53:52.000Z</time></trkpt>
        <trkpt lat="28.239041" lon="105.210168"><ele>739.9054</ele><time>2026-05-30T18:53:57.000Z</time></trkpt>
        <trkpt lat="28.23905" lon="105.210116"><ele>738.909</ele><time>2026-05-30T18:54:04.000Z</time></trkpt>
        <trkpt lat="28.239003" lon="105.210077"><ele>737.6946</ele><time>2026-05-30T18:54:10.000Z</time></trkpt>
        <trkpt lat="28.238942" lon="105.210074"><ele>739.2119</ele><time>2026-05-30T18:54:14.000Z</time></trkpt>
        <trkpt lat="28.238891" lon="105.210061"><ele>742.1333</ele><time>2026-05-30T18:54:19.000Z</time></trkpt>
        <trkpt lat="28.238855" lon="105.210024"><ele>744.43756</ele><time>2026-05-30T18:54:25.000Z</time></trkpt>
        <trkpt lat="28.238826" lon="105.209981"><ele>747.0839</ele><time>2026-05-30T18:54:30.000Z</time></trkpt>
        <trkpt lat="28.238806" lon="105.209931"><ele>747.3921</ele><time>2026-05-30T18:54:35.000Z</time></trkpt>
        <trkpt lat="28.238813" lon="105.209876"><ele>748.03687</ele><time>2026-05-30T18:54:40.000Z</time></trkpt>
        <trkpt lat="28.238818" lon="105.209823"><ele>747.41797</ele><time>2026-05-30T18:54:45.000Z</time></trkpt>
        <trkpt lat="28.238818" lon="105.209764"><ele>747.7666</ele><time>2026-05-30T18:54:50.000Z</time></trkpt>
        <trkpt lat="28.238836" lon="105.20971"><ele>744.2929</ele><time>2026-05-30T18:54:56.000Z</time></trkpt>
        <trkpt lat="28.23885" lon="105.209642"><ele>742.33344</ele><time>2026-05-30T18:55:01.000Z</time></trkpt>
        <trkpt lat="28.23885" lon="105.209584"><ele>743.56976</ele><time>2026-05-30T18:55:05.000Z</time></trkpt>
        <trkpt lat="28.238858" lon="105.209531"><ele>741.5863</ele><time>2026-05-30T18:55:09.000Z</time></trkpt>
        <trkpt lat="28.23886" lon="105.209465"><ele>742.2197</ele><time>2026-05-30T18:55:13.000Z</time></trkpt>
        <trkpt lat="28.238862" lon="105.209414"><ele>741.2688</ele><time>2026-05-30T18:55:18.000Z</time></trkpt>
        <trkpt lat="28.238863" lon="105.209351"><ele>742.1744</ele><time>2026-05-30T18:55:22.000Z</time></trkpt>
        <trkpt lat="28.238878" lon="105.2093"><ele>743.20135</ele><time>2026-05-30T18:55:26.000Z</time></trkpt>
        <trkpt lat="28.238909" lon="105.209254"><ele>744.2577</ele><time>2026-05-30T18:55:30.000Z</time></trkpt>
        <trkpt lat="28.238926" lon="105.209205"><ele>745.4268</ele><time>2026-05-30T18:55:34.000Z</time></trkpt>
        <trkpt lat="28.238954" lon="105.209151"><ele>744.85034</ele><time>2026-05-30T18:55:39.000Z</time></trkpt>
        <trkpt lat="28.238974" lon="105.209094"><ele>745.5131</ele><time>2026-05-30T18:55:44.000Z</time></trkpt>
        <trkpt lat="28.239003" lon="105.209041"><ele>746.66156</ele><time>2026-05-30T18:55:49.000Z</time></trkpt>
        <trkpt lat="28.239044" lon="105.209"><ele>746.85876</ele><time>2026-05-30T18:55:54.000Z</time></trkpt>
        <trkpt lat="28.239097" lon="105.208972"><ele>746.4438</ele><time>2026-05-30T18:55:59.000Z</time></trkpt>
        <trkpt lat="28.239144" lon="105.208957"><ele>745.53516</ele><time>2026-05-30T18:56:03.000Z</time></trkpt>
        <trkpt lat="28.239191" lon="105.208955"><ele>744.3646</ele><time>2026-05-30T18:56:07.000Z</time></trkpt>
        <trkpt lat="28.239238" lon="105.208966"><ele>743.3185</ele><time>2026-05-30T18:56:11.000Z</time></trkpt>
        <trkpt lat="28.239286" lon="105.208983"><ele>741.3844</ele><time>2026-05-30T18:56:19.000Z</time></trkpt>
        <trkpt lat="28.239337" lon="105.208991"><ele>740.248</ele><time>2026-05-30T18:56:29.000Z</time></trkpt>
        <trkpt lat="28.239386" lon="105.209004"><ele>739.6409</ele><time>2026-05-30T18:56:34.000Z</time></trkpt>
        <trkpt lat="28.239432" lon="105.208992"><ele>739.1941</ele><time>2026-05-30T18:56:38.000Z</time></trkpt>
        <trkpt lat="28.239476" lon="105.208955"><ele>738.7971</ele><time>2026-05-30T18:56:43.000Z</time></trkpt>
        <trkpt lat="28.239495" lon="105.208908"><ele>738.28314</ele><time>2026-05-30T18:56:47.000Z</time></trkpt>
        <trkpt lat="28.239502" lon="105.208853"><ele>739.56555</ele><time>2026-05-30T18:56:52.000Z</time></trkpt>
        <trkpt lat="28.239496" lon="105.208802"><ele>739.6683</ele><time>2026-05-30T18:57:00.000Z</time></trkpt>
        <trkpt lat="28.239515" lon="105.208749"><ele>740.5487</ele><time>2026-05-30T18:57:03.000Z</time></trkpt>
        <trkpt lat="28.239539" lon="105.208698"><ele>740.6372</ele><time>2026-05-30T18:57:06.000Z</time></trkpt>
        <trkpt lat="28.239566" lon="105.208647"><ele>740.65234</ele><time>2026-05-30T18:57:10.000Z</time></trkpt>
        <trkpt lat="28.239585" lon="105.20859"><ele>740.96124</ele><time>2026-05-30T18:57:16.000Z</time></trkpt>
        <trkpt lat="28.239607" lon="105.208538"><ele>739.7416</ele><time>2026-05-30T18:57:20.000Z</time></trkpt>
        <trkpt lat="28.239644" lon="105.208497"><ele>739.18243</ele><time>2026-05-30T18:57:24.000Z</time></trkpt>
        <trkpt lat="28.239672" lon="105.208443"><ele>738.02954</ele><time>2026-05-30T18:57:29.000Z</time></trkpt>
        <trkpt lat="28.239722" lon="105.208406"><ele>737.4946</ele><time>2026-05-30T18:57:33.000Z</time></trkpt>
        <trkpt lat="28.239753" lon="105.208367"><ele>736.72595</ele><time>2026-05-30T18:57:37.000Z</time></trkpt>
        <trkpt lat="28.239785" lon="105.208329"><ele>736.24426</ele><time>2026-05-30T18:57:41.000Z</time></trkpt>
        <trkpt lat="28.239813" lon="105.208282"><ele>736.0676</ele><time>2026-05-30T18:57:45.000Z</time></trkpt>
        <trkpt lat="28.239843" lon="105.208239"><ele>734.7087</ele><time>2026-05-30T18:57:49.000Z</time></trkpt>
        <trkpt lat="28.239855" lon="105.20817"><ele>733.377</ele><time>2026-05-30T18:57:54.000Z</time></trkpt>
        <trkpt lat="28.239873" lon="105.208109"><ele>732.13947</ele><time>2026-05-30T18:57:58.000Z</time></trkpt>
        <trkpt lat="28.239893" lon="105.208052"><ele>731.3908</ele><time>2026-05-30T18:58:02.000Z</time></trkpt>
        <trkpt lat="28.239887" lon="105.20799"><ele>732.84625</ele><time>2026-05-30T18:58:06.000Z</time></trkpt>
        <trkpt lat="28.239862" lon="105.207946"><ele>733.5611</ele><time>2026-05-30T18:58:10.000Z</time></trkpt>
        <trkpt lat="28.239823" lon="105.207911"><ele>728.90894</ele><time>2026-05-30T18:58:16.000Z</time></trkpt>
        <trkpt lat="28.239772" lon="105.207895"><ele>726.1862</ele><time>2026-05-30T18:58:21.000Z</time></trkpt>
        <trkpt lat="28.239729" lon="105.207877"><ele>731.1494</ele><time>2026-05-30T18:59:39.000Z</time></trkpt>
        <trkpt lat="28.239682" lon="105.207893"><ele>732.5435</ele><time>2026-05-30T19:02:54.000Z</time></trkpt>
        <trkpt lat="28.239629" lon="105.207901"><ele>728.3903</ele><time>2026-05-30T19:03:00.000Z</time></trkpt>
        <trkpt lat="28.239582" lon="105.207902"><ele>726.49677</ele><time>2026-05-30T19:03:04.000Z</time></trkpt>
        <trkpt lat="28.239537" lon="105.207906"><ele>725.0121</ele><time>2026-05-30T19:03:08.000Z</time></trkpt>
        <trkpt lat="28.239489" lon="105.207923"><ele>724.49994</ele><time>2026-05-30T19:03:12.000Z</time></trkpt>
        <trkpt lat="28.23943" lon="105.207942"><ele>724.5747</ele><time>2026-05-30T19:03:17.000Z</time></trkpt>
        <trkpt lat="28.239383" lon="105.207946"><ele>724.5176</ele><time>2026-05-30T19:03:21.000Z</time></trkpt>
        <trkpt lat="28.239336" lon="105.207972"><ele>723.6721</ele><time>2026-05-30T19:03:26.000Z</time></trkpt>
        <trkpt lat="28.239291" lon="105.20798"><ele>723.8069</ele><time>2026-05-30T19:03:31.000Z</time></trkpt>
        <trkpt lat="28.239244" lon="105.207987"><ele>723.0349</ele><time>2026-05-30T19:03:36.000Z</time></trkpt>
        <trkpt lat="28.239197" lon="105.20799"><ele>722.722</ele><time>2026-05-30T19:03:41.000Z</time></trkpt>
        <trkpt lat="28.239148" lon="105.20799"><ele>722.0602</ele><time>2026-05-30T19:03:46.000Z</time></trkpt>
        <trkpt lat="28.239102" lon="105.20799"><ele>721.61237</ele><time>2026-05-30T19:03:51.000Z</time></trkpt>
        <trkpt lat="28.239052" lon="105.207998"><ele>720.6934</ele><time>2026-05-30T19:03:56.000Z</time></trkpt>
        <trkpt lat="28.239006" lon="105.207995"><ele>720.2325</ele><time>2026-05-30T19:04:00.000Z</time></trkpt>
        <trkpt lat="28.238957" lon="105.207983"><ele>719.42426</ele><time>2026-05-30T19:04:05.000Z</time></trkpt>
        <trkpt lat="28.238904" lon="105.207983"><ele>717.8813</ele><time>2026-05-30T19:04:10.000Z</time></trkpt>
        <trkpt lat="28.238844" lon="105.20798"><ele>717.01013</ele><time>2026-05-30T19:04:14.000Z</time></trkpt>
        <trkpt lat="28.2388" lon="105.207966"><ele>716.94293</ele><time>2026-05-30T19:04:17.000Z</time></trkpt>
        <trkpt lat="28.238746" lon="105.207959"><ele>716.312</ele><time>2026-05-30T19:04:21.000Z</time></trkpt>
        <trkpt lat="28.238696" lon="105.207963"><ele>716.0562</ele><time>2026-05-30T19:04:25.000Z</time></trkpt>
        <trkpt lat="28.238641" lon="105.207967"><ele>716.1674</ele><time>2026-05-30T19:04:29.000Z</time></trkpt>
        <trkpt lat="28.238592" lon="105.207969"><ele>715.8022</ele><time>2026-05-30T19:04:33.000Z</time></trkpt>
        <trkpt lat="28.238539" lon="105.207952"><ele>716.71643</ele><time>2026-05-30T19:04:37.000Z</time></trkpt>
        <trkpt lat="28.23849" lon="105.207945"><ele>716.7294</ele><time>2026-05-30T19:04:41.000Z</time></trkpt>
        <trkpt lat="28.238452" lon="105.207918"><ele>717.9906</ele><time>2026-05-30T19:04:45.000Z</time></trkpt>
        <trkpt lat="28.238436" lon="105.207862"><ele>719.3899</ele><time>2026-05-30T19:04:50.000Z</time></trkpt>
        <trkpt lat="28.238453" lon="105.207804"><ele>718.3496</ele><time>2026-05-30T19:04:56.000Z</time></trkpt>
        <trkpt lat="28.238456" lon="105.207751"><ele>717.0815</ele><time>2026-05-30T19:05:01.000Z</time></trkpt>
        <trkpt lat="28.238466" lon="105.207699"><ele>716.417</ele><time>2026-05-30T19:05:06.000Z</time></trkpt>
        <trkpt lat="28.238469" lon="105.207636"><ele>715.93646</ele><time>2026-05-30T19:05:11.000Z</time></trkpt>
        <trkpt lat="28.238475" lon="105.207583"><ele>714.78986</ele><time>2026-05-30T19:05:16.000Z</time></trkpt>
        <trkpt lat="28.238478" lon="105.207528"><ele>714.4355</ele><time>2026-05-30T19:05:20.000Z</time></trkpt>
        <trkpt lat="28.238486" lon="105.207473"><ele>713.69904</ele><time>2026-05-30T19:05:24.000Z</time></trkpt>
        <trkpt lat="28.238487" lon="105.207406"><ele>712.6148</ele><time>2026-05-30T19:05:29.000Z</time></trkpt>
        <trkpt lat="28.238476" lon="105.207354"><ele>711.6889</ele><time>2026-05-30T19:05:34.000Z</time></trkpt>
        <trkpt lat="28.238468" lon="105.207295"><ele>711.6387</ele><time>2026-05-30T19:05:39.000Z</time></trkpt>
        <trkpt lat="28.238476" lon="105.207237"><ele>710.41296</ele><time>2026-05-30T19:05:43.000Z</time></trkpt>
        <trkpt lat="28.238487" lon="105.207185"><ele>710.51166</ele><time>2026-05-30T19:05:48.000Z</time></trkpt>
        <trkpt lat="28.238502" lon="105.207126"><ele>708.91895</ele><time>2026-05-30T19:05:53.000Z</time></trkpt>
        <trkpt lat="28.238508" lon="105.207075"><ele>707.8907</ele><time>2026-05-30T19:05:58.000Z</time></trkpt>
        <trkpt lat="28.238528" lon="105.207028"><ele>707.96014</ele><time>2026-05-30T19:06:03.000Z</time></trkpt>
        <trkpt lat="28.238536" lon="105.206977"><ele>706.33826</ele><time>2026-05-30T19:06:07.000Z</time></trkpt>
        <trkpt lat="28.238549" lon="105.20692"><ele>705.179</ele><time>2026-05-30T19:06:12.000Z</time></trkpt>
        <trkpt lat="28.238571" lon="105.206872"><ele>703.63025</ele><time>2026-05-30T19:06:16.000Z</time></trkpt>
        <trkpt lat="28.238582" lon="105.206813"><ele>702.62683</ele><time>2026-05-30T19:06:22.000Z</time></trkpt>
        <trkpt lat="28.238602" lon="105.206766"><ele>701.50793</ele><time>2026-05-30T19:06:27.000Z</time></trkpt>
        <trkpt lat="28.238621" lon="105.206714"><ele>700.59814</ele><time>2026-05-30T19:06:31.000Z</time></trkpt>
        <trkpt lat="28.23863" lon="105.206652"><ele>699.50037</ele><time>2026-05-30T19:06:36.000Z</time></trkpt>
        <trkpt lat="28.238647" lon="105.206597"><ele>696.97253</ele><time>2026-05-30T19:06:40.000Z</time></trkpt>
        <trkpt lat="28.238658" lon="105.206541"><ele>695.31696</ele><time>2026-05-30T19:06:46.000Z</time></trkpt>
        <trkpt lat="28.23867" lon="105.206491"><ele>693.2315</ele><time>2026-05-30T19:06:51.000Z</time></trkpt>
        <trkpt lat="28.238677" lon="105.206434"><ele>689.5133</ele><time>2026-05-30T19:06:55.000Z</time></trkpt>
        <trkpt lat="28.238683" lon="105.206378"><ele>688.5101</ele><time>2026-05-30T19:07:00.000Z</time></trkpt>
        <trkpt lat="28.238687" lon="105.206326"><ele>686.8597</ele><time>2026-05-30T19:07:06.000Z</time></trkpt>
        <trkpt lat="28.238673" lon="105.20627"><ele>687.40393</ele><time>2026-05-30T19:07:10.000Z</time></trkpt>
        <trkpt lat="28.238652" lon="105.206221"><ele>683.0042</ele><time>2026-05-30T19:07:15.000Z</time></trkpt>
        <trkpt lat="28.238625" lon="105.206163"><ele>681.6198</ele><time>2026-05-30T19:07:21.000Z</time></trkpt>
        <trkpt lat="28.238599" lon="105.206114"><ele>680.64813</ele><time>2026-05-30T19:07:26.000Z</time></trkpt>
        <trkpt lat="28.238559" lon="105.206088"><ele>678.5531</ele><time>2026-05-30T19:07:30.000Z</time></trkpt>
        <trkpt lat="28.238512" lon="105.206065"><ele>678.18555</ele><time>2026-05-30T19:07:37.000Z</time></trkpt>
        <trkpt lat="28.238465" lon="105.206061"><ele>679.04626</ele><time>2026-05-30T19:07:42.000Z</time></trkpt>
        <trkpt lat="28.238415" lon="105.206057"><ele>679.4555</ele><time>2026-05-30T19:07:46.000Z</time></trkpt>
        <trkpt lat="28.238366" lon="105.206058"><ele>680.55237</ele><time>2026-05-30T19:07:52.000Z</time></trkpt>
        <trkpt lat="28.238318" lon="105.206045"><ele>681.50214</ele><time>2026-05-30T19:07:59.000Z</time></trkpt>
        <trkpt lat="28.23827" lon="105.206051"><ele>681.45294</ele><time>2026-05-30T19:08:07.000Z</time></trkpt>
        <trkpt lat="28.238236" lon="105.206016"><ele>681.59344</ele><time>2026-05-30T19:08:28.000Z</time></trkpt>
        <trkpt lat="28.238196" lon="105.205992"><ele>681.44556</ele><time>2026-05-30T19:08:38.000Z</time></trkpt>
        <trkpt lat="28.238148" lon="105.205977"><ele>681.2675</ele><time>2026-05-30T19:08:47.000Z</time></trkpt>
        <trkpt lat="28.238084" lon="105.205981"><ele>680.9546</ele><time>2026-05-30T19:08:51.000Z</time></trkpt>
        <trkpt lat="28.238026" lon="105.205962"><ele>680.9426</ele><time>2026-05-30T19:08:53.000Z</time></trkpt>
        <trkpt lat="28.237977" lon="105.205965"><ele>681.70624</ele><time>2026-05-30T19:08:56.000Z</time></trkpt>
        <trkpt lat="28.237924" lon="105.205971"><ele>681.8791</ele><time>2026-05-30T19:08:59.000Z</time></trkpt>
        <trkpt lat="28.237872" lon="105.205979"><ele>680.56165</ele><time>2026-05-30T19:09:02.000Z</time></trkpt>
        <trkpt lat="28.237908" lon="105.205947"><ele>678.52655</ele><time>2026-05-30T19:09:58.000Z</time></trkpt>
        <trkpt lat="28.237952" lon="105.205935"><ele>679.6297</ele><time>2026-05-30T19:10:01.000Z</time></trkpt>
        <trkpt lat="28.238005" lon="105.205939"><ele>678.93634</ele><time>2026-05-30T19:10:08.000Z</time></trkpt>
        <trkpt lat="28.23805" lon="105.205941"><ele>680.4503</ele><time>2026-05-30T19:10:20.000Z</time></trkpt>
        <trkpt lat="28.238098" lon="105.205946"><ele>680.2173</ele><time>2026-05-30T19:10:29.000Z</time></trkpt>
        <trkpt lat="28.238142" lon="105.205958"><ele>679.6393</ele><time>2026-05-30T19:11:51.000Z</time></trkpt>
        <trkpt lat="28.238096" lon="105.205952"><ele>681.00336</ele><time>2026-05-30T19:17:37.000Z</time></trkpt>
        <trkpt lat="28.238044" lon="105.205959"><ele>680.95886</ele><time>2026-05-30T19:17:46.000Z</time></trkpt>
        <trkpt lat="28.237991" lon="105.205949"><ele>679.6942</ele><time>2026-05-30T19:17:52.000Z</time></trkpt>
        <trkpt lat="28.23794" lon="105.205953"><ele>678.6188</ele><time>2026-05-30T19:17:58.000Z</time></trkpt>
        <trkpt lat="28.237887" lon="105.205963"><ele>677.70105</ele><time>2026-05-30T19:18:04.000Z</time></trkpt>
        <trkpt lat="28.237838" lon="105.205986"><ele>675.5809</ele><time>2026-05-30T19:18:09.000Z</time></trkpt>
        <trkpt lat="28.237792" lon="105.206012"><ele>675.93304</ele><time>2026-05-30T19:18:13.000Z</time></trkpt>
        <trkpt lat="28.237742" lon="105.206042"><ele>675.09595</ele><time>2026-05-30T19:18:18.000Z</time></trkpt>
        <trkpt lat="28.237695" lon="105.206061"><ele>675.1501</ele><time>2026-05-30T19:18:23.000Z</time></trkpt>
        <trkpt lat="28.237655" lon="105.206087"><ele>674.7412</ele><time>2026-05-30T19:18:28.000Z</time></trkpt>
        <trkpt lat="28.237609" lon="105.206115"><ele>673.92487</ele><time>2026-05-30T19:18:33.000Z</time></trkpt>
        <trkpt lat="28.237559" lon="105.206123"><ele>671.6819</ele><time>2026-05-30T19:18:38.000Z</time></trkpt>
        <trkpt lat="28.237514" lon="105.206131"><ele>668.9911</ele><time>2026-05-30T19:18:42.000Z</time></trkpt>
        <trkpt lat="28.237462" lon="105.206133"><ele>668.1242</ele><time>2026-05-30T19:18:48.000Z</time></trkpt>
        <trkpt lat="28.237408" lon="105.206143"><ele>667.2428</ele><time>2026-05-30T19:18:53.000Z</time></trkpt>
        <trkpt lat="28.237357" lon="105.206139"><ele>667.1808</ele><time>2026-05-30T19:18:59.000Z</time></trkpt>
        <trkpt lat="28.237305" lon="105.20613"><ele>666.6699</ele><time>2026-05-30T19:19:04.000Z</time></trkpt>
        <trkpt lat="28.237257" lon="105.206108"><ele>666.6549</ele><time>2026-05-30T19:19:08.000Z</time></trkpt>
        <trkpt lat="28.237215" lon="105.206069"><ele>665.7701</ele><time>2026-05-30T19:19:12.000Z</time></trkpt>
        <trkpt lat="28.23718" lon="105.20603"><ele>665.6196</ele><time>2026-05-30T19:19:16.000Z</time></trkpt>
        <trkpt lat="28.237158" lon="105.205979"><ele>664.8692</ele><time>2026-05-30T19:19:20.000Z</time></trkpt>
        <trkpt lat="28.237143" lon="105.205922"><ele>664.8862</ele><time>2026-05-30T19:19:24.000Z</time></trkpt>
        <trkpt lat="28.237131" lon="105.205867"><ele>664.69336</ele><time>2026-05-30T19:19:28.000Z</time></trkpt>
        <trkpt lat="28.237163" lon="105.205822"><ele>662.75134</ele><time>2026-05-30T19:19:33.000Z</time></trkpt>
        <trkpt lat="28.23719" lon="105.205778"><ele>660.73883</ele><time>2026-05-30T19:19:38.000Z</time></trkpt>
        <trkpt lat="28.237212" lon="105.205721"><ele>657.89087</ele><time>2026-05-30T19:19:45.000Z</time></trkpt>
        <trkpt lat="28.237241" lon="105.205671"><ele>656.79236</ele><time>2026-05-30T19:19:50.000Z</time></trkpt>
        <trkpt lat="28.237261" lon="105.20562"><ele>656.88745</ele><time>2026-05-30T19:19:53.000Z</time></trkpt>
        <trkpt lat="28.237275" lon="105.205561"><ele>656.10333</ele><time>2026-05-30T19:19:57.000Z</time></trkpt>
        <trkpt lat="28.237264" lon="105.205507"><ele>654.09235</ele><time>2026-05-30T19:20:03.000Z</time></trkpt>
        <trkpt lat="28.237274" lon="105.205444"><ele>652.60126</ele><time>2026-05-30T19:20:08.000Z</time></trkpt>
        <trkpt lat="28.237275" lon="105.205389"><ele>651.77985</ele><time>2026-05-30T19:20:13.000Z</time></trkpt>
        <trkpt lat="28.237286" lon="105.205325"><ele>650.82886</ele><time>2026-05-30T19:20:18.000Z</time></trkpt>
        <trkpt lat="28.237309" lon="105.20527"><ele>649.4542</ele><time>2026-05-30T19:20:23.000Z</time></trkpt>
        <trkpt lat="28.23729" lon="105.205211"><ele>648.2806</ele><time>2026-05-30T19:20:28.000Z</time></trkpt>
        <trkpt lat="28.237287" lon="105.20515"><ele>646.85254</ele><time>2026-05-30T19:20:32.000Z</time></trkpt>
        <trkpt lat="28.237294" lon="105.205094"><ele>644.5809</ele><time>2026-05-30T19:20:37.000Z</time></trkpt>
        <trkpt lat="28.237286" lon="105.205039"><ele>642.16907</ele><time>2026-05-30T19:20:42.000Z</time></trkpt>
        <trkpt lat="28.237268" lon="105.204987"><ele>641.62384</ele><time>2026-05-30T19:20:47.000Z</time></trkpt>
        <trkpt lat="28.237241" lon="105.20494"><ele>641.24524</ele><time>2026-05-30T19:20:51.000Z</time></trkpt>
        <trkpt lat="28.237199" lon="105.204915"><ele>641.53644</ele><time>2026-05-30T19:20:55.000Z</time></trkpt>
        <trkpt lat="28.237159" lon="105.204886"><ele>642.0562</ele><time>2026-05-30T19:21:00.000Z</time></trkpt>
        <trkpt lat="28.237118" lon="105.204855"><ele>642.4501</ele><time>2026-05-30T19:21:05.000Z</time></trkpt>
        <trkpt lat="28.237092" lon="105.204812"><ele>642.851</ele><time>2026-05-30T19:21:08.000Z</time></trkpt>
        <trkpt lat="28.237057" lon="105.204765"><ele>642.48694</ele><time>2026-05-30T19:21:14.000Z</time></trkpt>
        <trkpt lat="28.237062" lon="105.204708"><ele>642.12787</ele><time>2026-05-30T19:21:19.000Z</time></trkpt>
        <trkpt lat="28.23708" lon="105.204649"><ele>641.4913</ele><time>2026-05-30T19:21:24.000Z</time></trkpt>
        <trkpt lat="28.237086" lon="105.204585"><ele>641.974</ele><time>2026-05-30T19:21:30.000Z</time></trkpt>
        <trkpt lat="28.237096" lon="105.204536"><ele>642.0053</ele><time>2026-05-30T19:21:34.000Z</time></trkpt>
        <trkpt lat="28.237097" lon="105.204476"><ele>641.67645</ele><time>2026-05-30T19:21:39.000Z</time></trkpt>
        <trkpt lat="28.237087" lon="105.204418"><ele>641.923</ele><time>2026-05-30T19:21:44.000Z</time></trkpt>
        <trkpt lat="28.237089" lon="105.204357"><ele>641.85767</ele><time>2026-05-30T19:21:49.000Z</time></trkpt>
        <trkpt lat="28.237083" lon="105.204302"><ele>641.08826</ele><time>2026-05-30T19:21:53.000Z</time></trkpt>
        <trkpt lat="28.237083" lon="105.204243"><ele>640.0254</ele><time>2026-05-30T19:21:58.000Z</time></trkpt>
        <trkpt lat="28.237077" lon="105.204188"><ele>639.02124</ele><time>2026-05-30T19:22:02.000Z</time></trkpt>
        <trkpt lat="28.237075" lon="105.20413"><ele>638.47534</ele><time>2026-05-30T19:22:07.000Z</time></trkpt>
        <trkpt lat="28.237048" lon="105.204077"><ele>637.98145</ele><time>2026-05-30T19:22:12.000Z</time></trkpt>
        <trkpt lat="28.237002" lon="105.204052"><ele>638.3935</ele><time>2026-05-30T19:22:16.000Z</time></trkpt>
        <trkpt lat="28.236951" lon="105.204055"><ele>638.43994</ele><time>2026-05-30T19:22:20.000Z</time></trkpt>
        <trkpt lat="28.236897" lon="105.20408"><ele>639.3926</ele><time>2026-05-30T19:22:26.000Z</time></trkpt>
        <trkpt lat="28.236843" lon="105.204096"><ele>639.7856</ele><time>2026-05-30T19:22:31.000Z</time></trkpt>
        <trkpt lat="28.236791" lon="105.204096"><ele>641.0375</ele><time>2026-05-30T19:22:35.000Z</time></trkpt>
        <trkpt lat="28.236739" lon="105.204085"><ele>642.0303</ele><time>2026-05-30T19:22:38.000Z</time></trkpt>
        <trkpt lat="28.236685" lon="105.204102"><ele>643.1188</ele><time>2026-05-30T19:22:43.000Z</time></trkpt>
        <trkpt lat="28.236629" lon="105.204098"><ele>643.8254</ele><time>2026-05-30T19:22:47.000Z</time></trkpt>
        <trkpt lat="28.236595" lon="105.20406"><ele>644.4164</ele><time>2026-05-30T19:22:51.000Z</time></trkpt>
        <trkpt lat="28.23658" lon="105.204008"><ele>641.6132</ele><time>2026-05-30T19:22:55.000Z</time></trkpt>
        <trkpt lat="28.236565" lon="105.20395"><ele>640.4069</ele><time>2026-05-30T19:22:59.000Z</time></trkpt>
        <trkpt lat="28.236577" lon="105.20389"><ele>638.5915</ele><time>2026-05-30T19:23:03.000Z</time></trkpt>
        <trkpt lat="28.236577" lon="105.203831"><ele>637.26855</ele><time>2026-05-30T19:23:07.000Z</time></trkpt>
        <trkpt lat="28.236569" lon="105.20378"><ele>636.4516</ele><time>2026-05-30T19:23:10.000Z</time></trkpt>
        <trkpt lat="28.236569" lon="105.203728"><ele>635.0064</ele><time>2026-05-30T19:23:13.000Z</time></trkpt>
        <trkpt lat="28.236574" lon="105.203669"><ele>633.9675</ele><time>2026-05-30T19:23:17.000Z</time></trkpt>
        <trkpt lat="28.236563" lon="105.203603"><ele>632.6711</ele><time>2026-05-30T19:23:22.000Z</time></trkpt>
        <trkpt lat="28.236577" lon="105.203554"><ele>632.48157</ele><time>2026-05-30T19:23:25.000Z</time></trkpt>
        <trkpt lat="28.236599" lon="105.203498"><ele>631.30255</ele><time>2026-05-30T19:23:29.000Z</time></trkpt>
        <trkpt lat="28.236607" lon="105.203445"><ele>629.4356</ele><time>2026-05-30T19:23:33.000Z</time></trkpt>
        <trkpt lat="28.236614" lon="105.203392"><ele>627.40137</ele><time>2026-05-30T19:23:37.000Z</time></trkpt>
        <trkpt lat="28.236616" lon="105.203336"><ele>625.50354</ele><time>2026-05-30T19:23:41.000Z</time></trkpt>
        <trkpt lat="28.236631" lon="105.203288"><ele>624.40985</ele><time>2026-05-30T19:23:45.000Z</time></trkpt>
        <trkpt lat="28.236598" lon="105.203241"><ele>623.5453</ele><time>2026-05-30T19:23:49.000Z</time></trkpt>
        <trkpt lat="28.236579" lon="105.203186"><ele>622.9417</ele><time>2026-05-30T19:23:53.000Z</time></trkpt>
        <trkpt lat="28.236552" lon="105.203143"><ele>622.2603</ele><time>2026-05-30T19:23:57.000Z</time></trkpt>
        <trkpt lat="28.236516" lon="105.2031"><ele>621.0169</ele><time>2026-05-30T19:24:02.000Z</time></trkpt>
        <trkpt lat="28.236473" lon="105.203063"><ele>620.52405</ele><time>2026-05-30T19:24:06.000Z</time></trkpt>
        <trkpt lat="28.236435" lon="105.203022"><ele>620.6027</ele><time>2026-05-30T19:24:10.000Z</time></trkpt>
        <trkpt lat="28.236402" lon="105.202984"><ele>620.484</ele><time>2026-05-30T19:24:14.000Z</time></trkpt>
        <trkpt lat="28.236366" lon="105.202946"><ele>620.29236</ele><time>2026-05-30T19:24:18.000Z</time></trkpt>
        <trkpt lat="28.236329" lon="105.202905"><ele>620.6468</ele><time>2026-05-30T19:24:22.000Z</time></trkpt>
        <trkpt lat="28.236295" lon="105.202853"><ele>619.8651</ele><time>2026-05-30T19:24:27.000Z</time></trkpt>
        <trkpt lat="28.23627" lon="105.202797"><ele>619.654</ele><time>2026-05-30T19:24:31.000Z</time></trkpt>
        <trkpt lat="28.23625" lon="105.202743"><ele>619.0831</ele><time>2026-05-30T19:24:35.000Z</time></trkpt>
        <trkpt lat="28.236235" lon="105.202687"><ele>618.9036</ele><time>2026-05-30T19:24:39.000Z</time></trkpt>
        <trkpt lat="28.23621" lon="105.202629"><ele>617.8349</ele><time>2026-05-30T19:24:43.000Z</time></trkpt>
        <trkpt lat="28.236236" lon="105.202581"><ele>619.08655</ele><time>2026-05-30T19:24:58.000Z</time></trkpt>
        <trkpt lat="28.236239" lon="105.202525"><ele>621.4585</ele><time>2026-05-30T19:25:04.000Z</time></trkpt>
        <trkpt lat="28.236209" lon="105.202475"><ele>622.54974</ele><time>2026-05-30T19:25:08.000Z</time></trkpt>
        <trkpt lat="28.236163" lon="105.202461"><ele>623.29047</ele><time>2026-05-30T19:25:13.000Z</time></trkpt>
        <trkpt lat="28.236116" lon="105.202485"><ele>623.59625</ele><time>2026-05-30T19:25:18.000Z</time></trkpt>
        <trkpt lat="28.236078" lon="105.202517"><ele>623.91614</ele><time>2026-05-30T19:25:22.000Z</time></trkpt>
        <trkpt lat="28.236035" lon="105.202558"><ele>623.8716</ele><time>2026-05-30T19:25:26.000Z</time></trkpt>
        <trkpt lat="28.235994" lon="105.202591"><ele>621.4332</ele><time>2026-05-30T19:25:30.000Z</time></trkpt>
        <trkpt lat="28.235943" lon="105.202615"><ele>618.6809</ele><time>2026-05-30T19:25:34.000Z</time></trkpt>
        <trkpt lat="28.235886" lon="105.202628"><ele>618.1757</ele><time>2026-05-30T19:25:38.000Z</time></trkpt>
        <trkpt lat="28.23583" lon="105.202652"><ele>617.9053</ele><time>2026-05-30T19:25:42.000Z</time></trkpt>
        <trkpt lat="28.23578" lon="105.202679"><ele>618.07025</ele><time>2026-05-30T19:25:46.000Z</time></trkpt>
        <trkpt lat="28.235724" lon="105.202682"><ele>618.5633</ele><time>2026-05-30T19:25:50.000Z</time></trkpt>
        <trkpt lat="28.235668" lon="105.202678"><ele>618.1565</ele><time>2026-05-30T19:25:55.000Z</time></trkpt>
        <trkpt lat="28.235625" lon="105.20271"><ele>616.7373</ele><time>2026-05-30T19:26:00.000Z</time></trkpt>
        <trkpt lat="28.235595" lon="105.202758"><ele>617.31934</ele><time>2026-05-30T19:26:04.000Z</time></trkpt>
        <trkpt lat="28.235584" lon="105.202815"><ele>616.2212</ele><time>2026-05-30T19:26:08.000Z</time></trkpt>
        <trkpt lat="28.235573" lon="105.202875"><ele>617.62445</ele><time>2026-05-30T19:26:12.000Z</time></trkpt>
        <trkpt lat="28.235573" lon="105.202929"><ele>615.22626</ele><time>2026-05-30T19:26:16.000Z</time></trkpt>
        <trkpt lat="28.235578" lon="105.20298"><ele>616.9117</ele><time>2026-05-30T19:26:19.000Z</time></trkpt>
        <trkpt lat="28.235586" lon="105.203035"><ele>615.07007</ele><time>2026-05-30T19:26:23.000Z</time></trkpt>
        <trkpt lat="28.235584" lon="105.203092"><ele>614.67474</ele><time>2026-05-30T19:26:27.000Z</time></trkpt>
        <trkpt lat="28.235588" lon="105.203155"><ele>614.7763</ele><time>2026-05-30T19:26:31.000Z</time></trkpt>
        <trkpt lat="28.235584" lon="105.203222"><ele>614.8165</ele><time>2026-05-30T19:26:35.000Z</time></trkpt>
        <trkpt lat="28.235596" lon="105.203286"><ele>613.76404</ele><time>2026-05-30T19:26:39.000Z</time></trkpt>
        <trkpt lat="28.235602" lon="105.203349"><ele>613.3091</ele><time>2026-05-30T19:26:43.000Z</time></trkpt>
        <trkpt lat="28.23561" lon="105.203405"><ele>612.96124</ele><time>2026-05-30T19:26:47.000Z</time></trkpt>
        <trkpt lat="28.235583" lon="105.203462"><ele>611.863</ele><time>2026-05-30T19:26:51.000Z</time></trkpt>
        <trkpt lat="28.235555" lon="105.203513"><ele>610.96466</ele><time>2026-05-30T19:26:55.000Z</time></trkpt>
        <trkpt lat="28.235532" lon="105.203564"><ele>610.98627</ele><time>2026-05-30T19:27:00.000Z</time></trkpt>
        <trkpt lat="28.235479" lon="105.203591"><ele>611.7438</ele><time>2026-05-30T19:27:04.000Z</time></trkpt>
        <trkpt lat="28.235433" lon="105.203609"><ele>612.61957</ele><time>2026-05-30T19:27:07.000Z</time></trkpt>
        <trkpt lat="28.235384" lon="105.203594"><ele>611.16345</ele><time>2026-05-30T19:27:10.000Z</time></trkpt>
        <trkpt lat="28.235363" lon="105.203542"><ele>615.6072</ele><time>2026-05-30T19:27:13.000Z</time></trkpt>
        <trkpt lat="28.235338" lon="105.203495"><ele>617.0064</ele><time>2026-05-30T19:27:17.000Z</time></trkpt>
        <trkpt lat="28.235312" lon="105.203452"><ele>615.4475</ele><time>2026-05-30T19:27:22.000Z</time></trkpt>
        <trkpt lat="28.235277" lon="105.203398"><ele>614.6747</ele><time>2026-05-30T19:27:27.000Z</time></trkpt>
        <trkpt lat="28.235255" lon="105.203346"><ele>613.16</ele><time>2026-05-30T19:27:31.000Z</time></trkpt>
        <trkpt lat="28.235194" lon="105.203331"><ele>612.5052</ele><time>2026-05-30T19:27:43.000Z</time></trkpt>
        <trkpt lat="28.23513" lon="105.203302"><ele>612.1271</ele><time>2026-05-30T19:27:46.000Z</time></trkpt>
        <trkpt lat="28.235095" lon="105.203269"><ele>613.66345</ele><time>2026-05-30T19:27:48.000Z</time></trkpt>
        <trkpt lat="28.235058" lon="105.203235"><ele>615.2011</ele><time>2026-05-30T19:27:50.000Z</time></trkpt>
        <trkpt lat="28.235013" lon="105.203199"><ele>616.06555</ele><time>2026-05-30T19:27:54.000Z</time></trkpt>
        <trkpt lat="28.234981" lon="105.203159"><ele>616.5474</ele><time>2026-05-30T19:27:57.000Z</time></trkpt>
        <trkpt lat="28.23495" lon="105.203115"><ele>615.1261</ele><time>2026-05-30T19:28:00.000Z</time></trkpt>
        <trkpt lat="28.234912" lon="105.203069"><ele>614.26874</ele><time>2026-05-30T19:28:04.000Z</time></trkpt>
        <trkpt lat="28.234858" lon="105.203064"><ele>614.02386</ele><time>2026-05-30T19:28:09.000Z</time></trkpt>
        <trkpt lat="28.234816" lon="105.203087"><ele>613.9217</ele><time>2026-05-30T19:28:14.000Z</time></trkpt>
        <trkpt lat="28.234766" lon="105.203104"><ele>615.01056</ele><time>2026-05-30T19:28:19.000Z</time></trkpt>
        <trkpt lat="28.234737" lon="105.203154"><ele>614.886</ele><time>2026-05-30T19:28:26.000Z</time></trkpt>
        <trkpt lat="28.234703" lon="105.203189"><ele>616.3149</ele><time>2026-05-30T19:28:31.000Z</time></trkpt>
        <trkpt lat="28.234689" lon="105.203243"><ele>615.287</ele><time>2026-05-30T19:28:38.000Z</time></trkpt>
        <trkpt lat="28.234652" lon="105.203276"><ele>616.9454</ele><time>2026-05-30T19:28:44.000Z</time></trkpt>
        <trkpt lat="28.234604" lon="105.203273"><ele>616.8065</ele><time>2026-05-30T19:28:50.000Z</time></trkpt>
        <trkpt lat="28.234561" lon="105.203307"><ele>617.33636</ele><time>2026-05-30T19:28:55.000Z</time></trkpt>
        <trkpt lat="28.234519" lon="105.203344"><ele>616.68524</ele><time>2026-05-30T19:29:11.000Z</time></trkpt>
        <trkpt lat="28.234496" lon="105.203389"><ele>616.2743</ele><time>2026-05-30T19:29:15.000Z</time></trkpt>
        <trkpt lat="28.234454" lon="105.203415"><ele>616.6534</ele><time>2026-05-30T19:29:24.000Z</time></trkpt>
        <trkpt lat="28.2344" lon="105.203434"><ele>615.13934</ele><time>2026-05-30T19:29:38.000Z</time></trkpt>
        <trkpt lat="28.234354" lon="105.203471"><ele>614.78827</ele><time>2026-05-30T19:29:42.000Z</time></trkpt>
        <trkpt lat="28.234304" lon="105.203499"><ele>615.6793</ele><time>2026-05-30T19:29:46.000Z</time></trkpt>
        <trkpt lat="28.234256" lon="105.203526"><ele>616.18524</ele><time>2026-05-30T19:29:51.000Z</time></trkpt>
        <trkpt lat="28.234234" lon="105.203576"><ele>614.3616</ele><time>2026-05-30T19:29:56.000Z</time></trkpt>
        <trkpt lat="28.234234" lon="105.20363"><ele>614.6154</ele><time>2026-05-30T19:30:00.000Z</time></trkpt>
        <trkpt lat="28.234214" lon="105.203693"><ele>613.3707</ele><time>2026-05-30T19:30:06.000Z</time></trkpt>
        <trkpt lat="28.234207" lon="105.203755"><ele>614.6013</ele><time>2026-05-30T19:30:11.000Z</time></trkpt>
        <trkpt lat="28.234206" lon="105.203814"><ele>614.2179</ele><time>2026-05-30T19:30:16.000Z</time></trkpt>
        <trkpt lat="28.234211" lon="105.203872"><ele>614.14026</ele><time>2026-05-30T19:30:21.000Z</time></trkpt>
        <trkpt lat="28.234208" lon="105.203932"><ele>615.17456</ele><time>2026-05-30T19:30:26.000Z</time></trkpt>
        <trkpt lat="28.234192" lon="105.203982"><ele>615.64087</ele><time>2026-05-30T19:30:31.000Z</time></trkpt>
        <trkpt lat="28.234178" lon="105.204042"><ele>615.9305</ele><time>2026-05-30T19:30:36.000Z</time></trkpt>
        <trkpt lat="28.234148" lon="105.204096"><ele>616.59985</ele><time>2026-05-30T19:30:42.000Z</time></trkpt>
        <trkpt lat="28.234121" lon="105.204142"><ele>616.48096</ele><time>2026-05-30T19:30:47.000Z</time></trkpt>
        <trkpt lat="28.23412" lon="105.204197"><ele>616.0282</ele><time>2026-05-30T19:30:53.000Z</time></trkpt>
        <trkpt lat="28.234086" lon="105.204235"><ele>615.35626</ele><time>2026-05-30T19:30:58.000Z</time></trkpt>
        <trkpt lat="28.234063" lon="105.20428"><ele>614.9517</ele><time>2026-05-30T19:31:03.000Z</time></trkpt>
        <trkpt lat="28.234059" lon="105.204338"><ele>615.37006</ele><time>2026-05-30T19:31:10.000Z</time></trkpt>
        <trkpt lat="28.234064" lon="105.20439"><ele>615.8945</ele><time>2026-05-30T19:31:16.000Z</time></trkpt>
        <trkpt lat="28.234068" lon="105.204448"><ele>616.625</ele><time>2026-05-30T19:31:21.000Z</time></trkpt>
        <trkpt lat="28.234088" lon="105.204497"><ele>616.9537</ele><time>2026-05-30T19:31:25.000Z</time></trkpt>
        <trkpt lat="28.234106" lon="105.204546"><ele>617.5399</ele><time>2026-05-30T19:31:30.000Z</time></trkpt>
        <trkpt lat="28.234135" lon="105.204587"><ele>618.78174</ele><time>2026-05-30T19:31:34.000Z</time></trkpt>
        <trkpt lat="28.234148" lon="105.204636"><ele>620.1278</ele><time>2026-05-30T19:31:38.000Z</time></trkpt>
        <trkpt lat="28.234148" lon="105.204689"><ele>620.2003</ele><time>2026-05-30T19:31:43.000Z</time></trkpt>
        <trkpt lat="28.234133" lon="105.204743"><ele>621.07654</ele><time>2026-05-30T19:31:48.000Z</time></trkpt>
        <trkpt lat="28.234087" lon="105.204746"><ele>621.6472</ele><time>2026-05-30T19:31:52.000Z</time></trkpt>
        <trkpt lat="28.234036" lon="105.204747"><ele>621.94073</ele><time>2026-05-30T19:31:56.000Z</time></trkpt>
        <trkpt lat="28.233983" lon="105.204758"><ele>620.202</ele><time>2026-05-30T19:32:00.000Z</time></trkpt>
        <trkpt lat="28.233939" lon="105.20477"><ele>618.28534</ele><time>2026-05-30T19:32:04.000Z</time></trkpt>
        <trkpt lat="28.233892" lon="105.204781"><ele>618.4001</ele><time>2026-05-30T19:32:09.000Z</time></trkpt>
        <trkpt lat="28.233846" lon="105.204799"><ele>618.4798</ele><time>2026-05-30T19:32:15.000Z</time></trkpt>
        <trkpt lat="28.233811" lon="105.204833"><ele>619.029</ele><time>2026-05-30T19:32:19.000Z</time></trkpt>
        <trkpt lat="28.233766" lon="105.204872"><ele>620.20087</ele><time>2026-05-30T19:32:25.000Z</time></trkpt>
        <trkpt lat="28.233728" lon="105.204914"><ele>622.1198</ele><time>2026-05-30T19:32:31.000Z</time></trkpt>
        <trkpt lat="28.233683" lon="105.204933"><ele>622.9425</ele><time>2026-05-30T19:32:35.000Z</time></trkpt>
        <trkpt lat="28.233638" lon="105.20495"><ele>624.1884</ele><time>2026-05-30T19:32:40.000Z</time></trkpt>
        <trkpt lat="28.233595" lon="105.204978"><ele>624.4711</ele><time>2026-05-30T19:32:45.000Z</time></trkpt>
        <trkpt lat="28.233545" lon="105.204979"><ele>625.6622</ele><time>2026-05-30T19:32:49.000Z</time></trkpt>
        <trkpt lat="28.233499" lon="105.205009"><ele>626.4674</ele><time>2026-05-30T19:32:54.000Z</time></trkpt>
        <trkpt lat="28.23345" lon="105.205012"><ele>627.2548</ele><time>2026-05-30T19:33:03.000Z</time></trkpt>
        <trkpt lat="28.233405" lon="105.204993"><ele>626.8864</ele><time>2026-05-30T19:33:10.000Z</time></trkpt>
        <trkpt lat="28.233358" lon="105.204996"><ele>628.0492</ele><time>2026-05-30T19:33:22.000Z</time></trkpt>
        <trkpt lat="28.233364" lon="105.204943"><ele>626.84033</ele><time>2026-05-30T19:33:46.000Z</time></trkpt>
        <trkpt lat="28.233361" lon="105.20489"><ele>627.5409</ele><time>2026-05-30T19:33:53.000Z</time></trkpt>
        <trkpt lat="28.233354" lon="105.20483"><ele>626.13605</ele><time>2026-05-30T19:33:58.000Z</time></trkpt>
        <trkpt lat="28.233343" lon="105.204779"><ele>625.75226</ele><time>2026-05-30T19:34:02.000Z</time></trkpt>
        <trkpt lat="28.233338" lon="105.204718"><ele>624.05</ele><time>2026-05-30T19:34:10.000Z</time></trkpt>
        <trkpt lat="28.233333" lon="105.204663"><ele>623.5356</ele><time>2026-05-30T19:34:15.000Z</time></trkpt>
        <trkpt lat="28.233334" lon="105.204604"><ele>622.8793</ele><time>2026-05-30T19:34:20.000Z</time></trkpt>
        <trkpt lat="28.23333" lon="105.204543"><ele>622.09784</ele><time>2026-05-30T19:34:24.000Z</time></trkpt>
        <trkpt lat="28.233328" lon="105.20449"><ele>621.4388</ele><time>2026-05-30T19:34:28.000Z</time></trkpt>
        <trkpt lat="28.233316" lon="105.204437"><ele>620.5308</ele><time>2026-05-30T19:34:32.000Z</time></trkpt>
        <trkpt lat="28.233283" lon="105.204391"><ele>622.2217</ele><time>2026-05-30T19:34:35.000Z</time></trkpt>
        <trkpt lat="28.233261" lon="105.204333"><ele>623.4272</ele><time>2026-05-30T19:34:39.000Z</time></trkpt>
        <trkpt lat="28.233219" lon="105.204288"><ele>624.34534</ele><time>2026-05-30T19:34:43.000Z</time></trkpt>
        <trkpt lat="28.233177" lon="105.204243"><ele>625.9998</ele><time>2026-05-30T19:34:47.000Z</time></trkpt>
        <trkpt lat="28.233145" lon="105.204206"><ele>625.2328</ele><time>2026-05-30T19:34:51.000Z</time></trkpt>
        <trkpt lat="28.233117" lon="105.204161"><ele>627.17975</ele><time>2026-05-30T19:34:56.000Z</time></trkpt>
        <trkpt lat="28.233093" lon="105.204117"><ele>627.9101</ele><time>2026-05-30T19:35:00.000Z</time></trkpt>
        <trkpt lat="28.23308" lon="105.204059"><ele>628.39874</ele><time>2026-05-30T19:35:07.000Z</time></trkpt>
        <trkpt lat="28.233067" lon="105.204005"><ele>627.1611</ele><time>2026-05-30T19:35:13.000Z</time></trkpt>
        <trkpt lat="28.23306" lon="105.203945"><ele>627.08777</ele><time>2026-05-30T19:35:18.000Z</time></trkpt>
        <trkpt lat="28.233076" lon="105.203896"><ele>626.3284</ele><time>2026-05-30T19:35:21.000Z</time></trkpt>
        <trkpt lat="28.233046" lon="105.203846"><ele>625.1329</ele><time>2026-05-30T19:35:26.000Z</time></trkpt>
        <trkpt lat="28.232999" lon="105.203802"><ele>625.0807</ele><time>2026-05-30T19:35:30.000Z</time></trkpt>
        <trkpt lat="28.232958" lon="105.203772"><ele>625.31525</ele><time>2026-05-30T19:35:35.000Z</time></trkpt>
        <trkpt lat="28.232922" lon="105.203723"><ele>625.06195</ele><time>2026-05-30T19:35:39.000Z</time></trkpt>
        <trkpt lat="28.232877" lon="105.20373"><ele>626.46173</ele><time>2026-05-30T19:35:51.000Z</time></trkpt>
        <trkpt lat="28.232825" lon="105.203749"><ele>628.2979</ele><time>2026-05-30T19:36:01.000Z</time></trkpt>
        <trkpt lat="28.232833" lon="105.20381"><ele>631.7365</ele><time>2026-05-30T19:36:07.000Z</time></trkpt>
        <trkpt lat="28.232791" lon="105.203791"><ele>632.64667</ele><time>2026-05-30T19:36:21.000Z</time></trkpt>
        <trkpt lat="28.232752" lon="105.203764"><ele>632.2459</ele><time>2026-05-30T19:36:29.000Z</time></trkpt>
        <trkpt lat="28.232723" lon="105.20382"><ele>632.3182</ele><time>2026-05-30T19:36:39.000Z</time></trkpt>
        <trkpt lat="28.232719" lon="105.203881"><ele>633.454</ele><time>2026-05-30T19:36:43.000Z</time></trkpt>
        <trkpt lat="28.232731" lon="105.203931"><ele>634.1808</ele><time>2026-05-30T19:36:46.000Z</time></trkpt>
        <trkpt lat="28.232753" lon="105.203991"><ele>636.351</ele><time>2026-05-30T19:36:50.000Z</time></trkpt>
        <trkpt lat="28.232763" lon="105.204051"><ele>638.52386</ele><time>2026-05-30T19:36:54.000Z</time></trkpt>
        <trkpt lat="28.232766" lon="105.204106"><ele>642.44727</ele><time>2026-05-30T19:36:58.000Z</time></trkpt>
        <trkpt lat="28.232774" lon="105.204169"><ele>644.0441</ele><time>2026-05-30T19:37:03.000Z</time></trkpt>
        <trkpt lat="28.232744" lon="105.204211"><ele>646.5705</ele><time>2026-05-30T19:37:19.000Z</time></trkpt>
        <trkpt lat="28.232695" lon="105.20423"><ele>644.8108</ele><time>2026-05-30T19:37:25.000Z</time></trkpt>
        <trkpt lat="28.232651" lon="105.204249"><ele>647.4234</ele><time>2026-05-30T19:37:31.000Z</time></trkpt>
        <trkpt lat="28.232609" lon="105.204282"><ele>648.6558</ele><time>2026-05-30T19:37:40.000Z</time></trkpt>
        <trkpt lat="28.232578" lon="105.204325"><ele>648.6005</ele><time>2026-05-30T19:37:46.000Z</time></trkpt>
        <trkpt lat="28.232553" lon="105.204374"><ele>650.9361</ele><time>2026-05-30T19:37:50.000Z</time></trkpt>
        <trkpt lat="28.232534" lon="105.204424"><ele>651.59937</ele><time>2026-05-30T19:37:58.000Z</time></trkpt>
        <trkpt lat="28.232495" lon="105.204461"><ele>652.7778</ele><time>2026-05-30T19:38:06.000Z</time></trkpt>
        <trkpt lat="28.232477" lon="105.204516"><ele>653.8797</ele><time>2026-05-30T19:38:10.000Z</time></trkpt>
        <trkpt lat="28.232425" lon="105.204548"><ele>655.01215</ele><time>2026-05-30T19:38:16.000Z</time></trkpt>
        <trkpt lat="28.232409" lon="105.204597"><ele>657.8274</ele><time>2026-05-30T19:38:29.000Z</time></trkpt>
        <trkpt lat="28.232357" lon="105.204617"><ele>659.1857</ele><time>2026-05-30T19:38:36.000Z</time></trkpt>
        <trkpt lat="28.232315" lon="105.204654"><ele>660.1688</ele><time>2026-05-30T19:38:40.000Z</time></trkpt>
        <trkpt lat="28.23227" lon="105.204674"><ele>660.7858</ele><time>2026-05-30T19:38:43.000Z</time></trkpt>
        <trkpt lat="28.232225" lon="105.20469"><ele>662.3706</ele><time>2026-05-30T19:38:47.000Z</time></trkpt>
        <trkpt lat="28.232178" lon="105.204703"><ele>662.7487</ele><time>2026-05-30T19:38:50.000Z</time></trkpt>
        <trkpt lat="28.23213" lon="105.204725"><ele>665.6764</ele><time>2026-05-30T19:38:55.000Z</time></trkpt>
        <trkpt lat="28.232091" lon="105.204754"><ele>665.6391</ele><time>2026-05-30T19:38:59.000Z</time></trkpt>
        <trkpt lat="28.232044" lon="105.204765"><ele>666.036</ele><time>2026-05-30T19:39:02.000Z</time></trkpt>
        <trkpt lat="28.232017" lon="105.204806"><ele>666.2577</ele><time>2026-05-30T19:39:08.000Z</time></trkpt>
        <trkpt lat="28.231979" lon="105.20484"><ele>667.32086</ele><time>2026-05-30T19:39:14.000Z</time></trkpt>
        <trkpt lat="28.231946" lon="105.204881"><ele>668.9348</ele><time>2026-05-30T19:39:23.000Z</time></trkpt>
        <trkpt lat="28.231972" lon="105.204924"><ele>668.97455</ele><time>2026-05-30T19:39:28.000Z</time></trkpt>
        <trkpt lat="28.232023" lon="105.204922"><ele>670.0604</ele><time>2026-05-30T19:39:33.000Z</time></trkpt>
        <trkpt lat="28.232064" lon="105.2049"><ele>671.2054</ele><time>2026-05-30T19:39:39.000Z</time></trkpt>
        <trkpt lat="28.23211" lon="105.204887"><ele>671.58636</ele><time>2026-05-30T19:39:44.000Z</time></trkpt>
        <trkpt lat="28.232154" lon="105.204865"><ele>671.1109</ele><time>2026-05-30T19:40:02.000Z</time></trkpt>
        <trkpt lat="28.232212" lon="105.204866"><ele>671.8155</ele><time>2026-05-30T19:40:07.000Z</time></trkpt>
        <trkpt lat="28.232258" lon="105.204868"><ele>673.1737</ele><time>2026-05-30T19:40:11.000Z</time></trkpt>
        <trkpt lat="28.232303" lon="105.204885"><ele>672.93945</ele><time>2026-05-30T19:40:17.000Z</time></trkpt>
        <trkpt lat="28.232347" lon="105.204907"><ele>673.46</ele><time>2026-05-30T19:40:23.000Z</time></trkpt>
        <trkpt lat="28.232395" lon="105.204931"><ele>674.13165</ele><time>2026-05-30T19:40:29.000Z</time></trkpt>
        <trkpt lat="28.232432" lon="105.204963"><ele>674.2472</ele><time>2026-05-30T19:40:33.000Z</time></trkpt>
        <trkpt lat="28.232443" lon="105.205019"><ele>674.18933</ele><time>2026-05-30T19:40:42.000Z</time></trkpt>
        <trkpt lat="28.232414" lon="105.205071"><ele>677.83936</ele><time>2026-05-30T19:41:34.000Z</time></trkpt>
        <trkpt lat="28.23237" lon="105.205047"><ele>677.71967</ele><time>2026-05-30T19:41:40.000Z</time></trkpt>
        <trkpt lat="28.232322" lon="105.205068"><ele>679.4555</ele><time>2026-05-30T19:41:47.000Z</time></trkpt>
        <trkpt lat="28.232263" lon="105.20511"><ele>682.7743</ele><time>2026-05-30T19:41:56.000Z</time></trkpt>
        <trkpt lat="28.232223" lon="105.20514"><ele>684.95264</ele><time>2026-05-30T19:42:03.000Z</time></trkpt>
        <trkpt lat="28.232191" lon="105.205179"><ele>686.2862</ele><time>2026-05-30T19:42:13.000Z</time></trkpt>
        <trkpt lat="28.232156" lon="105.205224"><ele>688.1135</ele><time>2026-05-30T19:42:23.000Z</time></trkpt>
        <trkpt lat="28.232133" lon="105.20527"><ele>688.7076</ele><time>2026-05-30T19:42:27.000Z</time></trkpt>
        <trkpt lat="28.232104" lon="105.205321"><ele>690.1771</ele><time>2026-05-30T19:42:34.000Z</time></trkpt>
        <trkpt lat="28.232073" lon="105.205364"><ele>691.0375</ele><time>2026-05-30T19:42:39.000Z</time></trkpt>
        <trkpt lat="28.232033" lon="105.205391"><ele>691.46014</ele><time>2026-05-30T19:42:45.000Z</time></trkpt>
        <trkpt lat="28.231983" lon="105.205421"><ele>692.34906</ele><time>2026-05-30T19:42:51.000Z</time></trkpt>
        <trkpt lat="28.231939" lon="105.205461"><ele>693.7859</ele><time>2026-05-30T19:42:59.000Z</time></trkpt>
        <trkpt lat="28.231924" lon="105.20551"><ele>697.19324</ele><time>2026-05-30T19:43:14.000Z</time></trkpt>
        <trkpt lat="28.231881" lon="105.205534"><ele>699.1103</ele><time>2026-05-30T19:43:23.000Z</time></trkpt>
        <trkpt lat="28.231838" lon="105.205514"><ele>700.89984</ele><time>2026-05-30T19:43:32.000Z</time></trkpt>
        <trkpt lat="28.231812" lon="105.205561"><ele>703.82056</ele><time>2026-05-30T19:43:46.000Z</time></trkpt>
        <trkpt lat="28.231764" lon="105.205541"><ele>705.557</ele><time>2026-05-30T19:44:04.000Z</time></trkpt>
        <trkpt lat="28.231722" lon="105.205519"><ele>706.0647</ele><time>2026-05-30T19:44:11.000Z</time></trkpt>
        <trkpt lat="28.231664" lon="105.205504"><ele>708.21844</ele><time>2026-05-30T19:44:21.000Z</time></trkpt>
        <trkpt lat="28.231664" lon="105.205562"><ele>709.2612</ele><time>2026-05-30T19:44:54.000Z</time></trkpt>
        <trkpt lat="28.231696" lon="105.205603"><ele>710.9783</ele><time>2026-05-30T19:45:00.000Z</time></trkpt>
        <trkpt lat="28.231699" lon="105.205657"><ele>710.6549</ele><time>2026-05-30T19:45:07.000Z</time></trkpt>
        <trkpt lat="28.231697" lon="105.205708"><ele>712.6751</ele><time>2026-05-30T19:45:14.000Z</time></trkpt>
        <trkpt lat="28.23166" lon="105.205738"><ele>716.00116</ele><time>2026-05-30T19:45:29.000Z</time></trkpt>
        <trkpt lat="28.231641" lon="105.205793"><ele>717.5713</ele><time>2026-05-30T19:45:36.000Z</time></trkpt>
        <trkpt lat="28.2316" lon="105.205821"><ele>719.265</ele><time>2026-05-30T19:45:54.000Z</time></trkpt>
        <trkpt lat="28.231549" lon="105.205839"><ele>720.6824</ele><time>2026-05-30T19:46:02.000Z</time></trkpt>
        <trkpt lat="28.231507" lon="105.205863"><ele>721.46375</ele><time>2026-05-30T19:46:08.000Z</time></trkpt>
        <trkpt lat="28.23148" lon="105.205909"><ele>723.26685</ele><time>2026-05-30T19:46:15.000Z</time></trkpt>
        <trkpt lat="28.231516" lon="105.205947"><ele>725.80945</ele><time>2026-05-30T19:46:25.000Z</time></trkpt>
        <trkpt lat="28.231517" lon="105.206001"><ele>727.45715</ele><time>2026-05-30T19:46:34.000Z</time></trkpt>
        <trkpt lat="28.231517" lon="105.206052"><ele>728.3914</ele><time>2026-05-30T19:46:43.000Z</time></trkpt>
        <trkpt lat="28.23152" lon="105.206106"><ele>729.73425</ele><time>2026-05-30T19:46:54.000Z</time></trkpt>
        <trkpt lat="28.23151" lon="105.206156"><ele>731.6903</ele><time>2026-05-30T19:47:03.000Z</time></trkpt>
        <trkpt lat="28.231497" lon="105.20621"><ele>732.76105</ele><time>2026-05-30T19:47:23.000Z</time></trkpt>
        <trkpt lat="28.231481" lon="105.206263"><ele>733.92</ele><time>2026-05-30T19:47:29.000Z</time></trkpt>
        <trkpt lat="28.231476" lon="105.206321"><ele>735.1027</ele><time>2026-05-30T19:47:35.000Z</time></trkpt>
        <trkpt lat="28.231458" lon="105.206374"><ele>737.633</ele><time>2026-05-30T19:47:44.000Z</time></trkpt>
        <trkpt lat="28.231465" lon="105.206438"><ele>739.6033</ele><time>2026-05-30T19:47:50.000Z</time></trkpt>
        <trkpt lat="28.231493" lon="105.206493"><ele>740.31104</ele><time>2026-05-30T19:47:59.000Z</time></trkpt>
        <trkpt lat="28.231513" lon="105.206542"><ele>739.59344</ele><time>2026-05-30T19:48:10.000Z</time></trkpt>
        <trkpt lat="28.231551" lon="105.206573"><ele>741.4674</ele><time>2026-05-30T19:48:35.000Z</time></trkpt>
        <trkpt lat="28.231561" lon="105.206622"><ele>741.6128</ele><time>2026-05-30T19:48:49.000Z</time></trkpt>
        <trkpt lat="28.231507" lon="105.206641"><ele>746.0646</ele><time>2026-05-30T19:49:14.000Z</time></trkpt>
        <trkpt lat="28.231464" lon="105.20666"><ele>747.54877</ele><time>2026-05-30T19:49:22.000Z</time></trkpt>
        <trkpt lat="28.231438" lon="105.206706"><ele>749.69214</ele><time>2026-05-30T19:49:34.000Z</time></trkpt>
        <trkpt lat="28.231427" lon="105.206756"><ele>754.71234</ele><time>2026-05-30T19:50:59.000Z</time></trkpt>
        <trkpt lat="28.231472" lon="105.206752"><ele>751.56714</ele><time>2026-05-30T19:51:10.000Z</time></trkpt>
        <trkpt lat="28.231443" lon="105.206795"><ele>756.8923</ele><time>2026-05-30T19:51:25.000Z</time></trkpt>
        <trkpt lat="28.231422" lon="105.206846"><ele>757.9739</ele><time>2026-05-30T19:51:47.000Z</time></trkpt>
        <trkpt lat="28.231419" lon="105.206903"><ele>761.76514</ele><time>2026-05-30T19:51:57.000Z</time></trkpt>
        <trkpt lat="28.231367" lon="105.206909"><ele>765.2225</ele><time>2026-05-30T19:52:11.000Z</time></trkpt>
        <trkpt lat="28.231319" lon="105.206928"><ele>767.3569</ele><time>2026-05-30T19:52:20.000Z</time></trkpt>
        <trkpt lat="28.231298" lon="105.206973"><ele>768.3314</ele><time>2026-05-30T19:52:26.000Z</time></trkpt>
        <trkpt lat="28.231272" lon="105.207015"><ele>772.38367</ele><time>2026-05-30T19:52:42.000Z</time></trkpt>
        <trkpt lat="28.23126" lon="105.207067"><ele>774.19434</ele><time>2026-05-30T19:52:57.000Z</time></trkpt>
        <trkpt lat="28.231235" lon="105.207112"><ele>776.55914</ele><time>2026-05-30T19:53:10.000Z</time></trkpt>
        <trkpt lat="28.231204" lon="105.207155"><ele>778.7267</ele><time>2026-05-30T19:53:30.000Z</time></trkpt>
        <trkpt lat="28.23123" lon="105.207202"><ele>780.1705</ele><time>2026-05-30T19:53:44.000Z</time></trkpt>
        <trkpt lat="28.231252" lon="105.207247"><ele>780.5536</ele><time>2026-05-30T19:53:52.000Z</time></trkpt>
        <trkpt lat="28.231233" lon="105.207293"><ele>781.6534</ele><time>2026-05-30T19:54:01.000Z</time></trkpt>
        <trkpt lat="28.231259" lon="105.207335"><ele>784.19293</ele><time>2026-05-30T19:54:08.000Z</time></trkpt>
        <trkpt lat="28.231281" lon="105.20738"><ele>785.485</ele><time>2026-05-30T19:54:16.000Z</time></trkpt>
        <trkpt lat="28.23126" lon="105.207428"><ele>788.8005</ele><time>2026-05-30T19:54:26.000Z</time></trkpt>
        <trkpt lat="28.231252" lon="105.207486"><ele>789.77673</ele><time>2026-05-30T19:54:38.000Z</time></trkpt>
        <trkpt lat="28.231262" lon="105.207542"><ele>792.30054</ele><time>2026-05-30T19:54:49.000Z</time></trkpt>
        <trkpt lat="28.231218" lon="105.207567"><ele>793.0552</ele><time>2026-05-30T19:55:03.000Z</time></trkpt>
        <trkpt lat="28.231177" lon="105.207593"><ele>793.86633</ele><time>2026-05-30T19:55:10.000Z</time></trkpt>
        <trkpt lat="28.231199" lon="105.207644"><ele>795.9011</ele><time>2026-05-30T19:55:15.000Z</time></trkpt>
        <trkpt lat="28.231223" lon="105.207687"><ele>796.2106</ele><time>2026-05-30T19:55:23.000Z</time></trkpt>
        <trkpt lat="28.231236" lon="105.20775"><ele>796.2839</ele><time>2026-05-30T19:55:30.000Z</time></trkpt>
        <trkpt lat="28.231211" lon="105.207795"><ele>797.9112</ele><time>2026-05-30T19:55:49.000Z</time></trkpt>
        <trkpt lat="28.231209" lon="105.20785"><ele>797.7377</ele><time>2026-05-30T19:55:59.000Z</time></trkpt>
        <trkpt lat="28.231202" lon="105.207905"><ele>797.82855</ele><time>2026-05-30T19:56:05.000Z</time></trkpt>
        <trkpt lat="28.231187" lon="105.207953"><ele>798.7159</ele><time>2026-05-30T19:56:12.000Z</time></trkpt>
        <trkpt lat="28.231168" lon="105.208009"><ele>798.9623</ele><time>2026-05-30T19:56:18.000Z</time></trkpt>
        <trkpt lat="28.231155" lon="105.208067"><ele>800.6347</ele><time>2026-05-30T19:56:25.000Z</time></trkpt>
        <trkpt lat="28.231154" lon="105.208126"><ele>804.0743</ele><time>2026-05-30T19:56:31.000Z</time></trkpt>
        <trkpt lat="28.231143" lon="105.208181"><ele>806.3681</ele><time>2026-05-30T19:56:38.000Z</time></trkpt>
        <trkpt lat="28.231147" lon="105.208239"><ele>809.1584</ele><time>2026-05-30T19:56:45.000Z</time></trkpt>
        <trkpt lat="28.231156" lon="105.208305"><ele>810.40546</ele><time>2026-05-30T19:56:54.000Z</time></trkpt>
        <trkpt lat="28.231157" lon="105.208364"><ele>812.5885</ele><time>2026-05-30T19:57:02.000Z</time></trkpt>
        <trkpt lat="28.231159" lon="105.208415"><ele>814.0425</ele><time>2026-05-30T19:57:13.000Z</time></trkpt>
        <trkpt lat="28.231125" lon="105.208462"><ele>817.34143</ele><time>2026-05-30T19:57:21.000Z</time></trkpt>
        <trkpt lat="28.2311" lon="105.208511"><ele>819.5132</ele><time>2026-05-30T19:57:30.000Z</time></trkpt>
        <trkpt lat="28.231074" lon="105.208557"><ele>821.2132</ele><time>2026-05-30T19:57:41.000Z</time></trkpt>
        <trkpt lat="28.231028" lon="105.20856"><ele>826.484</ele><time>2026-05-30T19:57:50.000Z</time></trkpt>
        <trkpt lat="28.230995" lon="105.208601"><ele>829.4511</ele><time>2026-05-30T19:58:10.000Z</time></trkpt>
        <trkpt lat="28.230951" lon="105.20863"><ele>831.1863</ele><time>2026-05-30T19:58:20.000Z</time></trkpt>
        <trkpt lat="28.230982" lon="105.208672"><ele>835.0286</ele><time>2026-05-30T19:58:38.000Z</time></trkpt>
        <trkpt lat="28.230988" lon="105.20862"><ele>834.2879</ele><time>2026-05-30T19:58:48.000Z</time></trkpt>
        <trkpt lat="28.230941" lon="105.208633"><ele>831.7339</ele><time>2026-05-30T20:00:09.000Z</time></trkpt>
        <trkpt lat="28.230974" lon="105.20867"><ele>834.27374</ele><time>2026-05-30T20:04:00.000Z</time></trkpt>
        <trkpt lat="28.230981" lon="105.20862"><ele>836.46594</ele><time>2026-05-30T20:05:04.000Z</time></trkpt>
        <trkpt lat="28.230959" lon="105.208573"><ele>837.85364</ele><time>2026-05-30T20:06:12.000Z</time></trkpt>
        <trkpt lat="28.230932" lon="105.208529"><ele>835.5629</ele><time>2026-05-30T20:06:24.000Z</time></trkpt>
        <trkpt lat="28.23095" lon="105.208582"><ele>835.66473</ele><time>2026-05-30T20:06:37.000Z</time></trkpt>
        <trkpt lat="28.230972" lon="105.208632"><ele>836.15515</ele><time>2026-05-30T20:06:46.000Z</time></trkpt>
        <trkpt lat="28.230968" lon="105.208687"><ele>833.83386</ele><time>2026-05-30T20:06:52.000Z</time></trkpt>
        <trkpt lat="28.230919" lon="105.208698"><ele>836.1233</ele><time>2026-05-30T20:07:02.000Z</time></trkpt>
        <trkpt lat="28.230866" lon="105.208705"><ele>839.8802</ele><time>2026-05-30T20:07:17.000Z</time></trkpt>
        <trkpt lat="28.230846" lon="105.208756"><ele>841.8884</ele><time>2026-05-30T20:07:30.000Z</time></trkpt>
        <trkpt lat="28.230798" lon="105.208743"><ele>845.8192</ele><time>2026-05-30T20:07:51.000Z</time></trkpt>
        <trkpt lat="28.230755" lon="105.208768"><ele>846.4733</ele><time>2026-05-30T20:08:08.000Z</time></trkpt>
        <trkpt lat="28.230711" lon="105.208757"><ele>848.7338</ele><time>2026-05-30T20:08:21.000Z</time></trkpt>
        <trkpt lat="28.230662" lon="105.208769"><ele>847.5949</ele><time>2026-05-30T20:08:46.000Z</time></trkpt>
        <trkpt lat="28.230618" lon="105.20873"><ele>849.3906</ele><time>2026-05-30T20:09:04.000Z</time></trkpt>
        <trkpt lat="28.230575" lon="105.208672"><ele>854.1545</ele><time>2026-05-30T20:09:08.000Z</time></trkpt>
        <trkpt lat="28.230544" lon="105.208714"><ele>849.482</ele><time>2026-05-30T20:09:14.000Z</time></trkpt>
        <trkpt lat="28.230497" lon="105.208714"><ele>849.99615</ele><time>2026-05-30T20:09:27.000Z</time></trkpt>
        <trkpt lat="28.230448" lon="105.20871"><ele>849.2804</ele><time>2026-05-30T20:09:42.000Z</time></trkpt>
        <trkpt lat="28.230418" lon="105.20875"><ele>853.40283</ele><time>2026-05-30T20:09:58.000Z</time></trkpt>
        <trkpt lat="28.23038" lon="105.20878"><ele>857.43304</ele><time>2026-05-30T20:10:12.000Z</time></trkpt>
        <trkpt lat="28.230365" lon="105.208829"><ele>859.2862</ele><time>2026-05-30T20:10:23.000Z</time></trkpt>
        <trkpt lat="28.230411" lon="105.208822"><ele>859.687</ele><time>2026-05-30T20:10:32.000Z</time></trkpt>
        <trkpt lat="28.230454" lon="105.208842"><ele>860.53955</ele><time>2026-05-30T20:10:38.000Z</time></trkpt>
        <trkpt lat="28.230496" lon="105.208863"><ele>860.0921</ele><time>2026-05-30T20:10:43.000Z</time></trkpt>
        <trkpt lat="28.230526" lon="105.208906"><ele>861.4559</ele><time>2026-05-30T20:10:52.000Z</time></trkpt>
        <trkpt lat="28.230579" lon="105.208925"><ele>863.45984</ele><time>2026-05-30T20:10:58.000Z</time></trkpt>
        <trkpt lat="28.230532" lon="105.208917"><ele>866.78107</ele><time>2026-05-30T20:11:10.000Z</time></trkpt>
        <trkpt lat="28.230485" lon="105.208925"><ele>868.4521</ele><time>2026-05-30T20:11:18.000Z</time></trkpt>
        <trkpt lat="28.230439" lon="105.208944"><ele>869.4008</ele><time>2026-05-30T20:11:29.000Z</time></trkpt>
        <trkpt lat="28.230401" lon="105.208972"><ele>870.32294</ele><time>2026-05-30T20:11:36.000Z</time></trkpt>
        <trkpt lat="28.230449" lon="105.208994"><ele>872.7835</ele><time>2026-05-30T20:11:45.000Z</time></trkpt>
        <trkpt lat="28.230489" lon="105.209032"><ele>872.2025</ele><time>2026-05-30T20:11:52.000Z</time></trkpt>
        <trkpt lat="28.230516" lon="105.209078"><ele>874.70605</ele><time>2026-05-30T20:11:59.000Z</time></trkpt>
        <trkpt lat="28.230469" lon="105.209059"><ele>877.3839</ele><time>2026-05-30T20:12:10.000Z</time></trkpt>
        <trkpt lat="28.230428" lon="105.209096"><ele>878.9804</ele><time>2026-05-30T20:12:20.000Z</time></trkpt>
        <trkpt lat="28.230394" lon="105.209141"><ele>881.50116</ele><time>2026-05-30T20:12:33.000Z</time></trkpt>
        <trkpt lat="28.230429" lon="105.209174"><ele>884.2446</ele><time>2026-05-30T20:12:50.000Z</time></trkpt>
        <trkpt lat="28.230471" lon="105.209195"><ele>886.9117</ele><time>2026-05-30T20:13:02.000Z</time></trkpt>
        <trkpt lat="28.230494" lon="105.20924"><ele>888.0463</ele><time>2026-05-30T20:13:11.000Z</time></trkpt>
        <trkpt lat="28.230513" lon="105.20929"><ele>889.92505</ele><time>2026-05-30T20:13:20.000Z</time></trkpt>
        <trkpt lat="28.230463" lon="105.209303"><ele>893.7083</ele><time>2026-05-30T20:13:35.000Z</time></trkpt>
        <trkpt lat="28.23043" lon="105.209342"><ele>894.4721</ele><time>2026-05-30T20:13:44.000Z</time></trkpt>
        <trkpt lat="28.230405" lon="105.209386"><ele>897.5541</ele><time>2026-05-30T20:13:56.000Z</time></trkpt>
        <trkpt lat="28.230385" lon="105.209432"><ele>899.2447</ele><time>2026-05-30T20:14:02.000Z</time></trkpt>
        <trkpt lat="28.230346" lon="105.209457"><ele>902.62744</ele><time>2026-05-30T20:14:10.000Z</time></trkpt>
        <trkpt lat="28.230303" lon="105.209487"><ele>903.21173</ele><time>2026-05-30T20:14:16.000Z</time></trkpt>
        <trkpt lat="28.230254" lon="105.209514"><ele>903.947</ele><time>2026-05-30T20:14:20.000Z</time></trkpt>
        <trkpt lat="28.230209" lon="105.209531"><ele>906.7024</ele><time>2026-05-30T20:14:28.000Z</time></trkpt>
        <trkpt lat="28.230176" lon="105.209582"><ele>908.29175</ele><time>2026-05-30T20:14:35.000Z</time></trkpt>
        <trkpt lat="28.230125" lon="105.209613"><ele>910.34357</ele><time>2026-05-30T20:14:43.000Z</time></trkpt>
        <trkpt lat="28.230081" lon="105.209661"><ele>910.6218</ele><time>2026-05-30T20:14:50.000Z</time></trkpt>
        <trkpt lat="28.230035" lon="105.209656"><ele>912.1874</ele><time>2026-05-30T20:14:59.000Z</time></trkpt>
        <trkpt lat="28.230012" lon="105.209704"><ele>911.4623</ele><time>2026-05-30T20:15:05.000Z</time></trkpt>
        <trkpt lat="28.230014" lon="105.209755"><ele>912.15985</ele><time>2026-05-30T20:15:12.000Z</time></trkpt>
        <trkpt lat="28.230023" lon="105.209811"><ele>913.6537</ele><time>2026-05-30T20:15:21.000Z</time></trkpt>
        <trkpt lat="28.230059" lon="105.20986"><ele>914.98724</ele><time>2026-05-30T20:15:32.000Z</time></trkpt>
        <trkpt lat="28.230092" lon="105.2099"><ele>914.93335</ele><time>2026-05-30T20:15:41.000Z</time></trkpt>
        <trkpt lat="28.230093" lon="105.209953"><ele>918.33374</ele><time>2026-05-30T20:15:52.000Z</time></trkpt>
        <trkpt lat="28.230086" lon="105.210005"><ele>918.70905</ele><time>2026-05-30T20:16:00.000Z</time></trkpt>
        <trkpt lat="28.230078" lon="105.210063"><ele>920.14185</ele><time>2026-05-30T20:16:10.000Z</time></trkpt>
        <trkpt lat="28.230106" lon="105.210113"><ele>921.8732</ele><time>2026-05-30T20:16:18.000Z</time></trkpt>
        <trkpt lat="28.230119" lon="105.210163"><ele>922.54645</ele><time>2026-05-30T20:16:26.000Z</time></trkpt>
        <trkpt lat="28.230135" lon="105.210223"><ele>924.75934</ele><time>2026-05-30T20:16:35.000Z</time></trkpt>
        <trkpt lat="28.230154" lon="105.210279"><ele>925.9654</ele><time>2026-05-30T20:16:44.000Z</time></trkpt>
        <trkpt lat="28.230165" lon="105.210331"><ele>928.2053</ele><time>2026-05-30T20:16:51.000Z</time></trkpt>
        <trkpt lat="28.230186" lon="105.210377"><ele>927.9071</ele><time>2026-05-30T20:16:58.000Z</time></trkpt>
        <trkpt lat="28.230196" lon="105.21043"><ele>928.96796</ele><time>2026-05-30T20:17:06.000Z</time></trkpt>
        <trkpt lat="28.230199" lon="105.210492"><ele>930.8044</ele><time>2026-05-30T20:17:15.000Z</time></trkpt>
        <trkpt lat="28.230188" lon="105.210543"><ele>931.6852</ele><time>2026-05-30T20:17:26.000Z</time></trkpt>
        <trkpt lat="28.230185" lon="105.210605"><ele>933.37854</ele><time>2026-05-30T20:17:56.000Z</time></trkpt>
        <trkpt lat="28.230192" lon="105.210659"><ele>935.77106</ele><time>2026-05-30T20:18:05.000Z</time></trkpt>
        <trkpt lat="28.230184" lon="105.210715"><ele>937.3358</ele><time>2026-05-30T20:18:12.000Z</time></trkpt>
        <trkpt lat="28.230177" lon="105.210776"><ele>939.73</ele><time>2026-05-30T20:18:19.000Z</time></trkpt>
        <trkpt lat="28.230191" lon="105.210837"><ele>939.83234</ele><time>2026-05-30T20:18:24.000Z</time></trkpt>
        <trkpt lat="28.230224" lon="105.210889"><ele>942.40076</ele><time>2026-05-30T20:18:29.000Z</time></trkpt>
        <trkpt lat="28.230239" lon="105.21094"><ele>943.0021</ele><time>2026-05-30T20:18:35.000Z</time></trkpt>
        <trkpt lat="28.230224" lon="105.210989"><ele>944.05396</ele><time>2026-05-30T20:18:41.000Z</time></trkpt>
        <trkpt lat="28.230266" lon="105.211013"><ele>944.65656</ele><time>2026-05-30T20:18:49.000Z</time></trkpt>
        <trkpt lat="28.230308" lon="105.211037"><ele>945.00555</ele><time>2026-05-30T20:18:55.000Z</time></trkpt>
        <trkpt lat="28.230351" lon="105.211073"><ele>944.31793</ele><time>2026-05-30T20:19:02.000Z</time></trkpt>
        <trkpt lat="28.230381" lon="105.211112"><ele>944.7799</ele><time>2026-05-30T20:19:07.000Z</time></trkpt>
        <trkpt lat="28.230417" lon="105.211143"><ele>944.1938</ele><time>2026-05-30T20:19:11.000Z</time></trkpt>
        <trkpt lat="28.230445" lon="105.21119"><ele>944.77856</ele><time>2026-05-30T20:19:14.000Z</time></trkpt>
        <trkpt lat="28.230485" lon="105.211222"><ele>943.2636</ele><time>2026-05-30T20:19:18.000Z</time></trkpt>
        <trkpt lat="28.230524" lon="105.211263"><ele>943.8234</ele><time>2026-05-30T20:19:22.000Z</time></trkpt>
        <trkpt lat="28.230533" lon="105.211208"><ele>943.46643</ele><time>2026-05-30T20:19:28.000Z</time></trkpt>
        <trkpt lat="28.23055" lon="105.211161"><ele>944.35486</ele><time>2026-05-30T20:19:33.000Z</time></trkpt>
        <trkpt lat="28.230598" lon="105.211171"><ele>944.48505</ele><time>2026-05-30T20:19:38.000Z</time></trkpt>
        <trkpt lat="28.230634" lon="105.211215"><ele>944.4452</ele><time>2026-05-30T20:19:42.000Z</time></trkpt>
        <trkpt lat="28.230687" lon="105.211237"><ele>945.0252</ele><time>2026-05-30T20:19:46.000Z</time></trkpt>
        <trkpt lat="28.230741" lon="105.211244"><ele>945.65936</ele><time>2026-05-30T20:19:50.000Z</time></trkpt>
        <trkpt lat="28.230786" lon="105.211256"><ele>946.44</ele><time>2026-05-30T20:19:54.000Z</time></trkpt>
        <trkpt lat="28.230834" lon="105.211281"><ele>947.1191</ele><time>2026-05-30T20:20:08.000Z</time></trkpt>
        <trkpt lat="28.23088" lon="105.211297"><ele>946.8793</ele><time>2026-05-30T20:20:12.000Z</time></trkpt>
        <trkpt lat="28.230927" lon="105.211324"><ele>946.9544</ele><time>2026-05-30T20:20:17.000Z</time></trkpt>
        <trkpt lat="28.230972" lon="105.211356"><ele>947.5389</ele><time>2026-05-30T20:20:21.000Z</time></trkpt>
        <trkpt lat="28.231022" lon="105.211365"><ele>948.0115</ele><time>2026-05-30T20:20:25.000Z</time></trkpt>
        <trkpt lat="28.231071" lon="105.211369"><ele>949.3198</ele><time>2026-05-30T20:20:30.000Z</time></trkpt>
        <trkpt lat="28.231127" lon="105.211369"><ele>950.2933</ele><time>2026-05-30T20:20:35.000Z</time></trkpt>
        <trkpt lat="28.231181" lon="105.211389"><ele>951.21094</ele><time>2026-05-30T20:20:39.000Z</time></trkpt>
        <trkpt lat="28.231219" lon="105.211417"><ele>951.0292</ele><time>2026-05-30T20:20:44.000Z</time></trkpt>
        <trkpt lat="28.231266" lon="105.211444"><ele>951.23047</ele><time>2026-05-30T20:20:49.000Z</time></trkpt>
        <trkpt lat="28.231316" lon="105.21146"><ele>950.8544</ele><time>2026-05-30T20:20:54.000Z</time></trkpt>
        <trkpt lat="28.231368" lon="105.211485"><ele>951.65533</ele><time>2026-05-30T20:21:00.000Z</time></trkpt>
        <trkpt lat="28.231411" lon="105.211505"><ele>952.2892</ele><time>2026-05-30T20:21:04.000Z</time></trkpt>
        <trkpt lat="28.231458" lon="105.211522"><ele>951.85077</ele><time>2026-05-30T20:21:09.000Z</time></trkpt>
        <trkpt lat="28.231502" lon="105.21155"><ele>952.25354</ele><time>2026-05-30T20:21:13.000Z</time></trkpt>
        <trkpt lat="28.23154" lon="105.211586"><ele>952.5062</ele><time>2026-05-30T20:21:17.000Z</time></trkpt>
        <trkpt lat="28.231586" lon="105.211612"><ele>952.7444</ele><time>2026-05-30T20:21:21.000Z</time></trkpt>
        <trkpt lat="28.231643" lon="105.211642"><ele>953.9369</ele><time>2026-05-30T20:21:26.000Z</time></trkpt>
        <trkpt lat="28.231693" lon="105.211666"><ele>955.18445</ele><time>2026-05-30T20:21:31.000Z</time></trkpt>
        <trkpt lat="28.231748" lon="105.211675"><ele>956.2567</ele><time>2026-05-30T20:21:37.000Z</time></trkpt>
        <trkpt lat="28.231797" lon="105.211696"><ele>956.39374</ele><time>2026-05-30T20:21:42.000Z</time></trkpt>
        <trkpt lat="28.231844" lon="105.211715"><ele>956.9084</ele><time>2026-05-30T20:21:47.000Z</time></trkpt>
        <trkpt lat="28.23189" lon="105.21173"><ele>956.92645</ele><time>2026-05-30T20:21:51.000Z</time></trkpt>
        <trkpt lat="28.231942" lon="105.211753"><ele>957.0503</ele><time>2026-05-30T20:21:56.000Z</time></trkpt>
        <trkpt lat="28.231987" lon="105.211756"><ele>957.8024</ele><time>2026-05-30T20:22:00.000Z</time></trkpt>
        <trkpt lat="28.232033" lon="105.21174"><ele>957.151</ele><time>2026-05-30T20:22:04.000Z</time></trkpt>
        <trkpt lat="28.232086" lon="105.211724"><ele>956.6959</ele><time>2026-05-30T20:22:09.000Z</time></trkpt>
        <trkpt lat="28.232137" lon="105.211704"><ele>955.95337</ele><time>2026-05-30T20:22:13.000Z</time></trkpt>
        <trkpt lat="28.232194" lon="105.211692"><ele>955.2761</ele><time>2026-05-30T20:22:17.000Z</time></trkpt>
        <trkpt lat="28.232242" lon="105.211704"><ele>955.15106</ele><time>2026-05-30T20:22:20.000Z</time></trkpt>
        <trkpt lat="28.232301" lon="105.211713"><ele>955.1141</ele><time>2026-05-30T20:22:25.000Z</time></trkpt>
        <trkpt lat="28.232348" lon="105.211728"><ele>955.39154</ele><time>2026-05-30T20:22:30.000Z</time></trkpt>
        <trkpt lat="28.232403" lon="105.211732"><ele>955.2631</ele><time>2026-05-30T20:22:34.000Z</time></trkpt>
        <trkpt lat="28.232447" lon="105.211756"><ele>956.02014</ele><time>2026-05-30T20:22:39.000Z</time></trkpt>
        <trkpt lat="28.232496" lon="105.211782"><ele>957.1483</ele><time>2026-05-30T20:22:44.000Z</time></trkpt>
        <trkpt lat="28.232546" lon="105.211808"><ele>957.6187</ele><time>2026-05-30T20:22:50.000Z</time></trkpt>
        <trkpt lat="28.232604" lon="105.21181"><ele>957.96704</ele><time>2026-05-30T20:22:56.000Z</time></trkpt>
        <trkpt lat="28.23266" lon="105.2118"><ele>957.8506</ele><time>2026-05-30T20:23:02.000Z</time></trkpt>
        <trkpt lat="28.232714" lon="105.211787"><ele>957.845</ele><time>2026-05-30T20:23:08.000Z</time></trkpt>
        <trkpt lat="28.232758" lon="105.211773"><ele>958.78564</ele><time>2026-05-30T20:23:12.000Z</time></trkpt>
        <trkpt lat="28.232814" lon="105.211758"><ele>958.0104</ele><time>2026-05-30T20:23:18.000Z</time></trkpt>
        <trkpt lat="28.23287" lon="105.21174"><ele>957.5402</ele><time>2026-05-30T20:23:23.000Z</time></trkpt>
        <trkpt lat="28.232912" lon="105.211717"><ele>958.19794</ele><time>2026-05-30T20:23:26.000Z</time></trkpt>
        <trkpt lat="28.232965" lon="105.21169"><ele>958.57654</ele><time>2026-05-30T20:23:31.000Z</time></trkpt>
        <trkpt lat="28.23302" lon="105.211662"><ele>958.681</ele><time>2026-05-30T20:23:37.000Z</time></trkpt>
        <trkpt lat="28.233054" lon="105.211615"><ele>959.5995</ele><time>2026-05-30T20:23:42.000Z</time></trkpt>
        <trkpt lat="28.233084" lon="105.211569"><ele>959.5701</ele><time>2026-05-30T20:23:46.000Z</time></trkpt>
        <trkpt lat="28.233114" lon="105.21153"><ele>961.3358</ele><time>2026-05-30T20:23:52.000Z</time></trkpt>
        <trkpt lat="28.233155" lon="105.211505"><ele>961.80475</ele><time>2026-05-30T20:24:06.000Z</time></trkpt>
        <trkpt lat="28.233188" lon="105.211464"><ele>962.27185</ele><time>2026-05-30T20:24:11.000Z</time></trkpt>
        <trkpt lat="28.233231" lon="105.211427"><ele>962.1432</ele><time>2026-05-30T20:24:16.000Z</time></trkpt>
        <trkpt lat="28.233264" lon="105.211382"><ele>962.65125</ele><time>2026-05-30T20:24:21.000Z</time></trkpt>
        <trkpt lat="28.233302" lon="105.211343"><ele>962.033</ele><time>2026-05-30T20:24:27.000Z</time></trkpt>
        <trkpt lat="28.233348" lon="105.211316"><ele>961.5628</ele><time>2026-05-30T20:24:32.000Z</time></trkpt>
        <trkpt lat="28.233386" lon="105.21128"><ele>961.97595</ele><time>2026-05-30T20:24:36.000Z</time></trkpt>
        <trkpt lat="28.23342" lon="105.211235"><ele>962.08093</ele><time>2026-05-30T20:24:40.000Z</time></trkpt>
        <trkpt lat="28.233442" lon="105.211186"><ele>962.5839</ele><time>2026-05-30T20:24:44.000Z</time></trkpt>
        <trkpt lat="28.233468" lon="105.211136"><ele>962.1887</ele><time>2026-05-30T20:24:47.000Z</time></trkpt>
        <trkpt lat="28.233494" lon="105.211094"><ele>961.7637</ele><time>2026-05-30T20:24:51.000Z</time></trkpt>
        <trkpt lat="28.23352" lon="105.211047"><ele>962.8604</ele><time>2026-05-30T20:24:55.000Z</time></trkpt>
        <trkpt lat="28.233561" lon="105.211012"><ele>962.3425</ele><time>2026-05-30T20:25:01.000Z</time></trkpt>
        <trkpt lat="28.233617" lon="105.211003"><ele>963.48785</ele><time>2026-05-30T20:25:08.000Z</time></trkpt>
        <trkpt lat="28.233673" lon="105.210986"><ele>964.08636</ele><time>2026-05-30T20:25:13.000Z</time></trkpt>
        <trkpt lat="28.233715" lon="105.210966"><ele>965.64545</ele><time>2026-05-30T20:25:19.000Z</time></trkpt>
        <trkpt lat="28.233725" lon="105.210909"><ele>966.8939</ele><time>2026-05-30T20:25:25.000Z</time></trkpt>
        <trkpt lat="28.233718" lon="105.210856"><ele>965.5996</ele><time>2026-05-30T20:25:30.000Z</time></trkpt>
        <trkpt lat="28.233712" lon="105.210803"><ele>965.3117</ele><time>2026-05-30T20:25:36.000Z</time></trkpt>
        <trkpt lat="28.233716" lon="105.210742"><ele>964.2463</ele><time>2026-05-30T20:25:41.000Z</time></trkpt>
        <trkpt lat="28.233723" lon="105.210686"><ele>963.6008</ele><time>2026-05-30T20:25:45.000Z</time></trkpt>
        <trkpt lat="28.233739" lon="105.210624"><ele>963.3971</ele><time>2026-05-30T20:25:49.000Z</time></trkpt>
        <trkpt lat="28.233752" lon="105.210573"><ele>962.09485</ele><time>2026-05-30T20:25:53.000Z</time></trkpt>
        <trkpt lat="28.233778" lon="105.210526"><ele>960.78265</ele><time>2026-05-30T20:25:57.000Z</time></trkpt>
        <trkpt lat="28.233792" lon="105.210477"><ele>961.14374</ele><time>2026-05-30T20:26:02.000Z</time></trkpt>
        <trkpt lat="28.233807" lon="105.210428"><ele>960.0527</ele><time>2026-05-30T20:26:06.000Z</time></trkpt>
        <trkpt lat="28.233825" lon="105.21038"><ele>959.0541</ele><time>2026-05-30T20:26:09.000Z</time></trkpt>
        <trkpt lat="28.233842" lon="105.21033"><ele>958.4159</ele><time>2026-05-30T20:26:13.000Z</time></trkpt>
        <trkpt lat="28.23387" lon="105.210286"><ele>958.0309</ele><time>2026-05-30T20:26:17.000Z</time></trkpt>
        <trkpt lat="28.233889" lon="105.210232"><ele>958.10486</ele><time>2026-05-30T20:26:20.000Z</time></trkpt>
        <trkpt lat="28.233925" lon="105.210196"><ele>955.62787</ele><time>2026-05-30T20:26:24.000Z</time></trkpt>
        <trkpt lat="28.233974" lon="105.210162"><ele>954.2908</ele><time>2026-05-30T20:26:31.000Z</time></trkpt>
        <trkpt lat="28.234019" lon="105.21014"><ele>951.7273</ele><time>2026-05-30T20:26:36.000Z</time></trkpt>
        <trkpt lat="28.234067" lon="105.210145"><ele>952.02954</ele><time>2026-05-30T20:26:39.000Z</time></trkpt>
        <trkpt lat="28.234115" lon="105.210148"><ele>952.4924</ele><time>2026-05-30T20:26:42.000Z</time></trkpt>
        <trkpt lat="28.234161" lon="105.210162"><ele>953.5183</ele><time>2026-05-30T20:26:46.000Z</time></trkpt>
        <trkpt lat="28.234207" lon="105.210144"><ele>954.63434</ele><time>2026-05-30T20:26:51.000Z</time></trkpt>
        <trkpt lat="28.234236" lon="105.210101"><ele>956.386</ele><time>2026-05-30T20:27:14.000Z</time></trkpt>
        <trkpt lat="28.23427" lon="105.210065"><ele>957.20526</ele><time>2026-05-30T20:27:22.000Z</time></trkpt>
        <trkpt lat="28.2343" lon="105.210021"><ele>956.74805</ele><time>2026-05-30T20:27:30.000Z</time></trkpt>
        <trkpt lat="28.234324" lon="105.209977"><ele>956.04956</ele><time>2026-05-30T20:27:36.000Z</time></trkpt>
        <trkpt lat="28.234343" lon="105.209927"><ele>955.8008</ele><time>2026-05-30T20:27:41.000Z</time></trkpt>
        <trkpt lat="28.234358" lon="105.209876"><ele>957.6226</ele><time>2026-05-30T20:27:47.000Z</time></trkpt>
        <trkpt lat="28.23436" lon="105.209819"><ele>962.3751</ele><time>2026-05-30T20:27:53.000Z</time></trkpt>
        <trkpt lat="28.234374" lon="105.209758"><ele>966.86865</ele><time>2026-05-30T20:28:01.000Z</time></trkpt>
        <trkpt lat="28.234375" lon="105.209703"><ele>967.092</ele><time>2026-05-30T20:28:06.000Z</time></trkpt>
        <trkpt lat="28.234418" lon="105.209666"><ele>967.3627</ele><time>2026-05-30T20:28:13.000Z</time></trkpt>
        <trkpt lat="28.234411" lon="105.209611"><ele>965.023</ele><time>2026-05-30T20:29:54.000Z</time></trkpt>
        <trkpt lat="28.234375" lon="105.209573"><ele>967.68115</ele><time>2026-05-30T20:30:31.000Z</time></trkpt>
        <trkpt lat="28.23435" lon="105.209621"><ele>970.2293</ele><time>2026-05-30T20:32:15.000Z</time></trkpt>
        <trkpt lat="28.234338" lon="105.209686"><ele>967.8638</ele><time>2026-05-30T20:32:21.000Z</time></trkpt>
        <trkpt lat="28.234303" lon="105.209651"><ele>965.46356</ele><time>2026-05-30T20:32:28.000Z</time></trkpt>
        <trkpt lat="28.234268" lon="105.209617"><ele>961.99677</ele><time>2026-05-30T20:32:38.000Z</time></trkpt>
        <trkpt lat="28.234233" lon="105.20958"><ele>962.08417</ele><time>2026-05-30T20:33:38.000Z</time></trkpt>
        <trkpt lat="28.234257" lon="105.209624"><ele>959.05133</ele><time>2026-05-30T20:36:31.000Z</time></trkpt>
        <trkpt lat="28.23424" lon="105.209574"><ele>961.4636</ele><time>2026-05-30T20:37:01.000Z</time></trkpt>
        <trkpt lat="28.234252" lon="105.209629"><ele>962.0114</ele><time>2026-05-30T20:40:25.000Z</time></trkpt>
        <trkpt lat="28.234299" lon="105.209624"><ele>959.4861</ele><time>2026-05-30T20:42:39.000Z</time></trkpt>
        <trkpt lat="28.234292" lon="105.209682"><ele>965.3488</ele><time>2026-05-30T20:42:46.000Z</time></trkpt>
        <trkpt lat="28.234339" lon="105.209695"><ele>966.0123</ele><time>2026-05-30T20:42:52.000Z</time></trkpt>
        <trkpt lat="28.234364" lon="105.209646"><ele>965.14435</ele><time>2026-05-30T20:43:00.000Z</time></trkpt>
        <trkpt lat="28.23437" lon="105.209594"><ele>967.4524</ele><time>2026-05-30T20:43:34.000Z</time></trkpt>
        <trkpt lat="28.2344" lon="105.209639"><ele>965.58685</ele><time>2026-05-30T20:50:24.000Z</time></trkpt>
        <trkpt lat="28.234393" lon="105.209693"><ele>970.2812</ele><time>2026-05-30T20:50:53.000Z</time></trkpt>
        <trkpt lat="28.234388" lon="105.209744"><ele>969.9057</ele><time>2026-05-30T20:50:59.000Z</time></trkpt>
        <trkpt lat="28.234417" lon="105.209784"><ele>969.8121</ele><time>2026-05-30T20:51:24.000Z</time></trkpt>
        <trkpt lat="28.234447" lon="105.209736"><ele>973.52313</ele><time>2026-05-30T20:51:37.000Z</time></trkpt>
        <trkpt lat="28.234501" lon="105.209748"><ele>972.21234</ele><time>2026-05-30T20:51:53.000Z</time></trkpt>
        <trkpt lat="28.234544" lon="105.209778"><ele>973.5485</ele><time>2026-05-30T20:51:58.000Z</time></trkpt>
        <trkpt lat="28.234581" lon="105.209818"><ele>975.6017</ele><time>2026-05-30T20:52:07.000Z</time></trkpt>
        <trkpt lat="28.234624" lon="105.209844"><ele>976.9692</ele><time>2026-05-30T20:52:15.000Z</time></trkpt>
        <trkpt lat="28.234647" lon="105.209896"><ele>979.2881</ele><time>2026-05-30T20:52:22.000Z</time></trkpt>
        <trkpt lat="28.234679" lon="105.209935"><ele>980.4976</ele><time>2026-05-30T20:52:32.000Z</time></trkpt>
        <trkpt lat="28.234713" lon="105.209974"><ele>982.32666</ele><time>2026-05-30T20:52:43.000Z</time></trkpt>
        <trkpt lat="28.234745" lon="105.210018"><ele>982.1575</ele><time>2026-05-30T20:52:50.000Z</time></trkpt>
        <trkpt lat="28.234786" lon="105.210052"><ele>984.0425</ele><time>2026-05-30T20:53:02.000Z</time></trkpt>
        <trkpt lat="28.234817" lon="105.210092"><ele>985.2992</ele><time>2026-05-30T20:53:08.000Z</time></trkpt>
        <trkpt lat="28.234853" lon="105.210128"><ele>986.2442</ele><time>2026-05-30T20:53:14.000Z</time></trkpt>
        <trkpt lat="28.234891" lon="105.210161"><ele>985.8692</ele><time>2026-05-30T20:53:20.000Z</time></trkpt>
        <trkpt lat="28.234934" lon="105.210177"><ele>986.3691</ele><time>2026-05-30T20:53:27.000Z</time></trkpt>
        <trkpt lat="28.234973" lon="105.210211"><ele>986.2322</ele><time>2026-05-30T20:53:33.000Z</time></trkpt>
        <trkpt lat="28.235019" lon="105.210239"><ele>986.27856</ele><time>2026-05-30T20:53:41.000Z</time></trkpt>
        <trkpt lat="28.235057" lon="105.210267"><ele>986.4437</ele><time>2026-05-30T20:53:46.000Z</time></trkpt>
        <trkpt lat="28.235098" lon="105.210291"><ele>986.4237</ele><time>2026-05-30T20:53:51.000Z</time></trkpt>
        <trkpt lat="28.235147" lon="105.21031"><ele>986.3272</ele><time>2026-05-30T20:53:57.000Z</time></trkpt>
        <trkpt lat="28.23519" lon="105.210332"><ele>986.7307</ele><time>2026-05-30T20:54:04.000Z</time></trkpt>
        <trkpt lat="28.235227" lon="105.210387"><ele>985.9807</ele><time>2026-05-30T20:54:10.000Z</time></trkpt>
        <trkpt lat="28.235254" lon="105.210429"><ele>985.68225</ele><time>2026-05-30T20:54:16.000Z</time></trkpt>
        <trkpt lat="28.235296" lon="105.210465"><ele>985.4016</ele><time>2026-05-30T20:54:22.000Z</time></trkpt>
        <trkpt lat="28.235319" lon="105.210522"><ele>979.7709</ele><time>2026-05-30T20:55:58.000Z</time></trkpt>
        <trkpt lat="28.235343" lon="105.210576"><ele>978.54846</ele><time>2026-05-30T20:56:05.000Z</time></trkpt>
        <trkpt lat="28.235383" lon="105.210602"><ele>978.6021</ele><time>2026-05-30T20:56:09.000Z</time></trkpt>
        <trkpt lat="28.235431" lon="105.210632"><ele>978.7997</ele><time>2026-05-30T20:56:15.000Z</time></trkpt>
        <trkpt lat="28.235477" lon="105.210638"><ele>979.28235</ele><time>2026-05-30T20:56:20.000Z</time></trkpt>
        <trkpt lat="28.235534" lon="105.21066"><ele>980.32324</ele><time>2026-05-30T20:56:25.000Z</time></trkpt>
        <trkpt lat="28.235574" lon="105.21069"><ele>981.8049</ele><time>2026-05-30T20:56:29.000Z</time></trkpt>
        <trkpt lat="28.235622" lon="105.210703"><ele>982.0185</ele><time>2026-05-30T20:56:33.000Z</time></trkpt>
        <trkpt lat="28.235671" lon="105.210704"><ele>982.6139</ele><time>2026-05-30T20:56:40.000Z</time></trkpt>
        <trkpt lat="28.235717" lon="105.210702"><ele>982.0484</ele><time>2026-05-30T20:56:45.000Z</time></trkpt>
        <trkpt lat="28.235757" lon="105.210675"><ele>982.18884</ele><time>2026-05-30T20:56:52.000Z</time></trkpt>
        <trkpt lat="28.235812" lon="105.210666"><ele>981.8646</ele><time>2026-05-30T20:56:56.000Z</time></trkpt>
        <trkpt lat="28.235864" lon="105.210653"><ele>985.42377</ele><time>2026-05-30T20:57:00.000Z</time></trkpt>
        <trkpt lat="28.235912" lon="105.210645"><ele>988.9137</ele><time>2026-05-30T20:57:04.000Z</time></trkpt>
        <trkpt lat="28.235955" lon="105.210626"><ele>993.8213</ele><time>2026-05-30T20:57:09.000Z</time></trkpt>
        <trkpt lat="28.236" lon="105.210616"><ele>997.48914</ele><time>2026-05-30T20:57:14.000Z</time></trkpt>
        <trkpt lat="28.236048" lon="105.210627"><ele>999.1976</ele><time>2026-05-30T20:57:20.000Z</time></trkpt>
        <trkpt lat="28.236096" lon="105.210626"><ele>1002.4485</ele><time>2026-05-30T20:57:25.000Z</time></trkpt>
        <trkpt lat="28.236155" lon="105.210618"><ele>1005.39777</ele><time>2026-05-30T20:57:32.000Z</time></trkpt>
        <trkpt lat="28.236198" lon="105.210659"><ele>1005.89136</ele><time>2026-05-30T20:57:38.000Z</time></trkpt>
        <trkpt lat="28.236232" lon="105.210694"><ele>1005.61926</ele><time>2026-05-30T20:57:43.000Z</time></trkpt>
        <trkpt lat="28.236211" lon="105.210746"><ele>1003.9291</ele><time>2026-05-30T20:57:48.000Z</time></trkpt>
        <trkpt lat="28.236181" lon="105.210795"><ele>1003.53107</ele><time>2026-05-30T20:57:53.000Z</time></trkpt>
        <trkpt lat="28.236142" lon="105.21082"><ele>1003.0199</ele><time>2026-05-30T20:58:01.000Z</time></trkpt>
        <trkpt lat="28.236117" lon="105.210867"><ele>1001.0428</ele><time>2026-05-30T20:58:14.000Z</time></trkpt>
        <trkpt lat="28.236084" lon="105.210906"><ele>1000.07855</ele><time>2026-05-30T20:58:20.000Z</time></trkpt>
        <trkpt lat="28.23606" lon="105.210949"><ele>997.62695</ele><time>2026-05-30T20:58:24.000Z</time></trkpt>
        <trkpt lat="28.236043" lon="105.211004"><ele>997.8358</ele><time>2026-05-30T20:58:29.000Z</time></trkpt>
        <trkpt lat="28.236019" lon="105.211056"><ele>995.9093</ele><time>2026-05-30T20:58:34.000Z</time></trkpt>
        <trkpt lat="28.236" lon="105.211118"><ele>995.86414</ele><time>2026-05-30T20:58:40.000Z</time></trkpt>
        <trkpt lat="28.235968" lon="105.211173"><ele>997.66986</ele><time>2026-05-30T20:58:45.000Z</time></trkpt>
        <trkpt lat="28.235936" lon="105.211222"><ele>999.91064</ele><time>2026-05-30T20:58:52.000Z</time></trkpt>
        <trkpt lat="28.235915" lon="105.211267"><ele>1001.3266</ele><time>2026-05-30T20:58:56.000Z</time></trkpt>
        <trkpt lat="28.235904" lon="105.211318"><ele>1000.7274</ele><time>2026-05-30T20:59:02.000Z</time></trkpt>
        <trkpt lat="28.235938" lon="105.211357"><ele>1001.14087</ele><time>2026-05-30T20:59:06.000Z</time></trkpt>
        <trkpt lat="28.235965" lon="105.211411"><ele>1001.6648</ele><time>2026-05-30T20:59:15.000Z</time></trkpt>
        <trkpt lat="28.236001" lon="105.211445"><ele>1003.64954</ele><time>2026-05-30T20:59:19.000Z</time></trkpt>
        <trkpt lat="28.236034" lon="105.211482"><ele>1003.04425</ele><time>2026-05-30T20:59:25.000Z</time></trkpt>
        <trkpt lat="28.236041" lon="105.211535"><ele>1003.24243</ele><time>2026-05-30T20:59:32.000Z</time></trkpt>
        <trkpt lat="28.236033" lon="105.211586"><ele>1001.9356</ele><time>2026-05-30T20:59:39.000Z</time></trkpt>
        <trkpt lat="28.236016" lon="105.211635"><ele>1002.7513</ele><time>2026-05-30T20:59:46.000Z</time></trkpt>
        <trkpt lat="28.23601" lon="105.211686"><ele>1002.6349</ele><time>2026-05-30T20:59:50.000Z</time></trkpt>
        <trkpt lat="28.236019" lon="105.211742"><ele>996.0879</ele><time>2026-05-30T20:59:57.000Z</time></trkpt>
        <trkpt lat="28.236028" lon="105.211797"><ele>993.0803</ele><time>2026-05-30T21:00:02.000Z</time></trkpt>
        <trkpt lat="28.236042" lon="105.211856"><ele>990.795</ele><time>2026-05-30T21:00:07.000Z</time></trkpt>
        <trkpt lat="28.236092" lon="105.211897"><ele>991.16705</ele><time>2026-05-30T21:00:11.000Z</time></trkpt>
        <trkpt lat="28.236144" lon="105.211904"><ele>991.1168</ele><time>2026-05-30T21:00:19.000Z</time></trkpt>
        <trkpt lat="28.236186" lon="105.211923"><ele>990.203</ele><time>2026-05-30T21:00:20.000Z</time></trkpt>
        <trkpt lat="28.236238" lon="105.211942"><ele>991.85596</ele><time>2026-05-30T21:00:28.000Z</time></trkpt>
        <trkpt lat="28.236286" lon="105.211921"><ele>990.6216</ele><time>2026-05-30T21:00:31.000Z</time></trkpt>
        <trkpt lat="28.236336" lon="105.211925"><ele>991.069</ele><time>2026-05-30T21:00:36.000Z</time></trkpt>
        <trkpt lat="28.236391" lon="105.211916"><ele>991.8683</ele><time>2026-05-30T21:00:45.000Z</time></trkpt>
        <trkpt lat="28.236436" lon="105.211937"><ele>990.9158</ele><time>2026-05-30T21:00:52.000Z</time></trkpt>
        <trkpt lat="28.23648" lon="105.211957"><ele>990.4802</ele><time>2026-05-30T21:01:03.000Z</time></trkpt>
        <trkpt lat="28.236522" lon="105.211982"><ele>990.01624</ele><time>2026-05-30T21:01:10.000Z</time></trkpt>
        <trkpt lat="28.236565" lon="105.211997"><ele>991.0607</ele><time>2026-05-30T21:01:20.000Z</time></trkpt>
        <trkpt lat="28.236615" lon="105.211994"><ele>990.64056</ele><time>2026-05-30T21:01:28.000Z</time></trkpt>
        <trkpt lat="28.236663" lon="105.211991"><ele>991.4169</ele><time>2026-05-30T21:01:39.000Z</time></trkpt>
        <trkpt lat="28.236713" lon="105.211989"><ele>998.95404</ele><time>2026-05-30T21:01:46.000Z</time></trkpt>
        <trkpt lat="28.236763" lon="105.211985"><ele>1004.886</ele><time>2026-05-30T21:02:05.000Z</time></trkpt>
        <trkpt lat="28.236811" lon="105.212001"><ele>1005.50995</ele><time>2026-05-30T21:02:10.000Z</time></trkpt>
        <trkpt lat="28.236846" lon="105.212039"><ele>1006.9798</ele><time>2026-05-30T21:02:20.000Z</time></trkpt>
        <trkpt lat="28.236892" lon="105.21205"><ele>1008.72095</ele><time>2026-05-30T21:02:33.000Z</time></trkpt>
        <trkpt lat="28.236925" lon="105.212088"><ele>1010.5908</ele><time>2026-05-30T21:02:47.000Z</time></trkpt>
        <trkpt lat="28.236986" lon="105.212101"><ele>1009.28766</ele><time>2026-05-30T21:03:02.000Z</time></trkpt>
        <trkpt lat="28.236994" lon="105.212154"><ele>1008.67053</ele><time>2026-05-30T21:03:06.000Z</time></trkpt>
        <trkpt lat="28.236984" lon="105.212206"><ele>1008.3981</ele><time>2026-05-30T21:03:18.000Z</time></trkpt>
        <trkpt lat="28.236987" lon="105.212153"><ele>1010.25073</ele><time>2026-05-30T21:04:39.000Z</time></trkpt>
        <trkpt lat="28.236995" lon="105.212204"><ele>1008.16986</ele><time>2026-05-30T21:05:49.000Z</time></trkpt>
        <trkpt lat="28.236946" lon="105.212213"><ele>1011.6193</ele><time>2026-05-30T21:06:47.000Z</time></trkpt>
        <trkpt lat="28.236986" lon="105.212183"><ele>1008.9685</ele><time>2026-05-30T21:10:21.000Z</time></trkpt>
        <trkpt lat="28.236962" lon="105.212227"><ele>1000.38184</ele><time>2026-05-30T21:10:56.000Z</time></trkpt>
        <trkpt lat="28.236915" lon="105.212215"><ele>1009.55835</ele><time>2026-05-30T21:11:46.000Z</time></trkpt>
        <trkpt lat="28.236961" lon="105.212225"><ele>1008.238</ele><time>2026-05-30T21:11:52.000Z</time></trkpt>
        <trkpt lat="28.236949" lon="105.212176"><ele>1012.0542</ele><time>2026-05-30T21:13:06.000Z</time></trkpt>
        <trkpt lat="28.236912" lon="105.212206"><ele>1004.0385</ele><time>2026-05-30T21:13:36.000Z</time></trkpt>
        <trkpt lat="28.236978" lon="105.212196"><ele>1008.80835</ele><time>2026-05-30T21:16:53.000Z</time></trkpt>
        <trkpt lat="28.236924" lon="105.212184"><ele>1007.99207</ele><time>2026-05-30T21:17:15.000Z</time></trkpt>
        <trkpt lat="28.236973" lon="105.212175"><ele>1014.9758</ele><time>2026-05-30T21:18:23.000Z</time></trkpt>
        <trkpt lat="28.236946" lon="105.212218"><ele>1015.0842</ele><time>2026-05-30T21:30:40.000Z</time></trkpt>
        <trkpt lat="28.236961" lon="105.212269"><ele>1012.3538</ele><time>2026-05-30T21:31:57.000Z</time></trkpt>
        <trkpt lat="28.236937" lon="105.212316"><ele>1012.7223</ele><time>2026-05-30T21:32:00.000Z</time></trkpt>
        <trkpt lat="28.236898" lon="105.212351"><ele>1013.8818</ele><time>2026-05-30T21:32:07.000Z</time></trkpt>
        <trkpt lat="28.236887" lon="105.212425"><ele>1017.0741</ele><time>2026-05-30T21:32:13.000Z</time></trkpt>
        <trkpt lat="28.236882" lon="105.212484"><ele>1017.825</ele><time>2026-05-30T21:32:19.000Z</time></trkpt>
        <trkpt lat="28.236904" lon="105.21254"><ele>1017.6616</ele><time>2026-05-30T21:32:24.000Z</time></trkpt>
        <trkpt lat="28.2369" lon="105.212606"><ele>1014.5212</ele><time>2026-05-30T21:32:32.000Z</time></trkpt>
        <trkpt lat="28.236891" lon="105.212664"><ele>1011.6932</ele><time>2026-05-30T21:32:45.000Z</time></trkpt>
        <trkpt lat="28.236881" lon="105.212721"><ele>1011.26575</ele><time>2026-05-30T21:32:50.000Z</time></trkpt>
        <trkpt lat="28.23689" lon="105.212779"><ele>1008.3551</ele><time>2026-05-30T21:32:58.000Z</time></trkpt>
        <trkpt lat="28.236867" lon="105.212845"><ele>1006.3618</ele><time>2026-05-30T21:33:05.000Z</time></trkpt>
        <trkpt lat="28.23685" lon="105.212893"><ele>1005.393</ele><time>2026-05-30T21:33:12.000Z</time></trkpt>
        <trkpt lat="28.236825" lon="105.212951"><ele>1005.49994</ele><time>2026-05-30T21:33:17.000Z</time></trkpt>
        <trkpt lat="28.236801" lon="105.212998"><ele>1003.8326</ele><time>2026-05-30T21:33:25.000Z</time></trkpt>
        <trkpt lat="28.236812" lon="105.21305"><ele>1000.62787</ele><time>2026-05-30T21:33:32.000Z</time></trkpt>
        <trkpt lat="28.236784" lon="105.213107"><ele>999.7059</ele><time>2026-05-30T21:33:38.000Z</time></trkpt>
        <trkpt lat="28.236778" lon="105.213164"><ele>996.7035</ele><time>2026-05-30T21:33:43.000Z</time></trkpt>
        <trkpt lat="28.236777" lon="105.213217"><ele>992.5681</ele><time>2026-05-30T21:33:47.000Z</time></trkpt>
        <trkpt lat="28.236808" lon="105.213258"><ele>989.4491</ele><time>2026-05-30T21:33:55.000Z</time></trkpt>
        <trkpt lat="28.236805" lon="105.213313"><ele>988.6415</ele><time>2026-05-30T21:34:03.000Z</time></trkpt>
        <trkpt lat="28.236863" lon="105.213325"><ele>987.59924</ele><time>2026-05-30T21:34:10.000Z</time></trkpt>
        <trkpt lat="28.236912" lon="105.213315"><ele>987.8682</ele><time>2026-05-30T21:34:16.000Z</time></trkpt>
        <trkpt lat="28.236965" lon="105.213301"><ele>987.2477</ele><time>2026-05-30T21:34:24.000Z</time></trkpt>
        <trkpt lat="28.237009" lon="105.213286"><ele>987.492</ele><time>2026-05-30T21:34:31.000Z</time></trkpt>
        <trkpt lat="28.237059" lon="105.213253"><ele>985.9986</ele><time>2026-05-30T21:34:37.000Z</time></trkpt>
        <trkpt lat="28.237106" lon="105.213276"><ele>986.17035</ele><time>2026-05-30T21:34:45.000Z</time></trkpt>
        <trkpt lat="28.237158" lon="105.213282"><ele>984.6926</ele><time>2026-05-30T21:34:53.000Z</time></trkpt>
        <trkpt lat="28.237203" lon="105.213289"><ele>985.0082</ele><time>2026-05-30T21:34:59.000Z</time></trkpt>
        <trkpt lat="28.237241" lon="105.213323"><ele>985.8609</ele><time>2026-05-30T21:35:04.000Z</time></trkpt>
        <trkpt lat="28.237287" lon="105.21333"><ele>983.67194</ele><time>2026-05-30T21:35:17.000Z</time></trkpt>
        <trkpt lat="28.237331" lon="105.213337"><ele>983.98145</ele><time>2026-05-30T21:35:23.000Z</time></trkpt>
        <trkpt lat="28.237368" lon="105.21337"><ele>983.64233</ele><time>2026-05-30T21:35:27.000Z</time></trkpt>
        <trkpt lat="28.237411" lon="105.213397"><ele>983.2888</ele><time>2026-05-30T21:35:31.000Z</time></trkpt>
        <trkpt lat="28.237458" lon="105.213422"><ele>983.4275</ele><time>2026-05-30T21:35:34.000Z</time></trkpt>
        <trkpt lat="28.237513" lon="105.21341"><ele>981.3349</ele><time>2026-05-30T21:35:38.000Z</time></trkpt>
        <trkpt lat="28.237574" lon="105.21342"><ele>980.2308</ele><time>2026-05-30T21:35:41.000Z</time></trkpt>
        <trkpt lat="28.237617" lon="105.213453"><ele>977.5653</ele><time>2026-05-30T21:35:44.000Z</time></trkpt>
        <trkpt lat="28.237695" lon="105.213454"><ele>975.9013</ele><time>2026-05-30T21:35:49.000Z</time></trkpt>
        <trkpt lat="28.237741" lon="105.213467"><ele>975.24133</ele><time>2026-05-30T21:35:50.000Z</time></trkpt>
        <trkpt lat="28.237775" lon="105.213508"><ele>973.8562</ele><time>2026-05-30T21:35:53.000Z</time></trkpt>
        <trkpt lat="28.237826" lon="105.213506"><ele>973.7752</ele><time>2026-05-30T21:35:56.000Z</time></trkpt>
        <trkpt lat="28.237842" lon="105.213446"><ele>975.81744</ele><time>2026-05-30T21:35:59.000Z</time></trkpt>
        <trkpt lat="28.237885" lon="105.213484"><ele>1000.0709</ele><time>2026-05-30T21:36:23.000Z</time></trkpt>
        <trkpt lat="28.237899" lon="105.213547"><ele>1000.6046</ele><time>2026-05-30T21:36:26.000Z</time></trkpt>
        <trkpt lat="28.237929" lon="105.213591"><ele>1003.63245</ele><time>2026-05-30T21:36:32.000Z</time></trkpt>
        <trkpt lat="28.237923" lon="105.213642"><ele>1004.4256</ele><time>2026-05-30T21:36:38.000Z</time></trkpt>
        <trkpt lat="28.237969" lon="105.213688"><ele>1006.4849</ele><time>2026-05-30T21:36:41.000Z</time></trkpt>
        <trkpt lat="28.237969" lon="105.213748"><ele>1003.13684</ele><time>2026-05-30T21:36:45.000Z</time></trkpt>
        <trkpt lat="28.237976" lon="105.213807"><ele>1004.8337</ele><time>2026-05-30T21:36:50.000Z</time></trkpt>
        <trkpt lat="28.237995" lon="105.21387"><ele>1003.8291</ele><time>2026-05-30T21:36:58.000Z</time></trkpt>
        <trkpt lat="28.238005" lon="105.213927"><ele>1005.0625</ele><time>2026-05-30T21:37:02.000Z</time></trkpt>
        <trkpt lat="28.238036" lon="105.213974"><ele>1006.9221</ele><time>2026-05-30T21:37:07.000Z</time></trkpt>
        <trkpt lat="28.238063" lon="105.214015"><ele>1007.69037</ele><time>2026-05-30T21:37:09.000Z</time></trkpt>
        <trkpt lat="28.238084" lon="105.214075"><ele>1005.41614</ele><time>2026-05-30T21:37:21.000Z</time></trkpt>
        <trkpt lat="28.238113" lon="105.214116"><ele>1004.0597</ele><time>2026-05-30T21:37:26.000Z</time></trkpt>
        <trkpt lat="28.238126" lon="105.214179"><ele>1007.8389</ele><time>2026-05-30T21:37:29.000Z</time></trkpt>
        <trkpt lat="28.238167" lon="105.214216"><ele>1006.9638</ele><time>2026-05-30T21:37:36.000Z</time></trkpt>
        <trkpt lat="28.238212" lon="105.214234"><ele>1006.52747</ele><time>2026-05-30T21:37:41.000Z</time></trkpt>
        <trkpt lat="28.238197" lon="105.214305"><ele>1003.73895</ele><time>2026-05-30T21:37:46.000Z</time></trkpt>
        <trkpt lat="28.238237" lon="105.21436"><ele>1007.67834</ele><time>2026-05-30T21:37:49.000Z</time></trkpt>
        <trkpt lat="28.238287" lon="105.214362"><ele>1006.46765</ele><time>2026-05-30T21:37:55.000Z</time></trkpt>
        <trkpt lat="28.238336" lon="105.214344"><ele>1006.09753</ele><time>2026-05-30T21:37:58.000Z</time></trkpt>
        <trkpt lat="28.238381" lon="105.214328"><ele>1004.16266</ele><time>2026-05-30T21:38:03.000Z</time></trkpt>
        <trkpt lat="28.238434" lon="105.214339"><ele>1004.2421</ele><time>2026-05-30T21:38:10.000Z</time></trkpt>
        <trkpt lat="28.238459" lon="105.214387"><ele>1003.58386</ele><time>2026-05-30T21:38:14.000Z</time></trkpt>
        <trkpt lat="28.238456" lon="105.214441"><ele>1004.137</ele><time>2026-05-30T21:38:20.000Z</time></trkpt>
        <trkpt lat="28.238469" lon="105.214496"><ele>1004.2514</ele><time>2026-05-30T21:38:28.000Z</time></trkpt>
        <trkpt lat="28.238499" lon="105.214539"><ele>1003.94714</ele><time>2026-05-30T21:38:33.000Z</time></trkpt>
        <trkpt lat="28.238511" lon="105.214591"><ele>1003.08496</ele><time>2026-05-30T21:38:37.000Z</time></trkpt>
        <trkpt lat="28.238534" lon="105.214638"><ele>1003.0154</ele><time>2026-05-30T21:38:41.000Z</time></trkpt>
        <trkpt lat="28.238571" lon="105.214678"><ele>1001.1913</ele><time>2026-05-30T21:38:45.000Z</time></trkpt>
        <trkpt lat="28.23859" lon="105.214734"><ele>999.29047</ele><time>2026-05-30T21:38:50.000Z</time></trkpt>
        <trkpt lat="28.238614" lon="105.21479"><ele>998.09094</ele><time>2026-05-30T21:38:55.000Z</time></trkpt>
        <trkpt lat="28.238625" lon="105.214842"><ele>997.50256</ele><time>2026-05-30T21:38:59.000Z</time></trkpt>
        <trkpt lat="28.23863" lon="105.214907"><ele>995.7138</ele><time>2026-05-30T21:39:08.000Z</time></trkpt>
        <trkpt lat="28.238633" lon="105.214969"><ele>997.0484</ele><time>2026-05-30T21:39:15.000Z</time></trkpt>
        <trkpt lat="28.238641" lon="105.215027"><ele>996.913</ele><time>2026-05-30T21:39:24.000Z</time></trkpt>
        <trkpt lat="28.238663" lon="105.215072"><ele>994.131</ele><time>2026-05-30T21:39:41.000Z</time></trkpt>
        <trkpt lat="28.238637" lon="105.21512"><ele>990.7867</ele><time>2026-05-30T21:39:58.000Z</time></trkpt>
        <trkpt lat="28.238616" lon="105.215165"><ele>990.62225</ele><time>2026-05-30T21:40:08.000Z</time></trkpt>
        <trkpt lat="28.238598" lon="105.215221"><ele>987.23285</ele><time>2026-05-30T21:40:17.000Z</time></trkpt>
        <trkpt lat="28.238598" lon="105.215279"><ele>982.74677</ele><time>2026-05-30T21:40:43.000Z</time></trkpt>
        <trkpt lat="28.23864" lon="105.215298"><ele>981.94995</ele><time>2026-05-30T21:40:53.000Z</time></trkpt>
        <trkpt lat="28.238601" lon="105.215328"><ele>982.01984</ele><time>2026-05-30T21:41:06.000Z</time></trkpt>
        <trkpt lat="28.238613" lon="105.215377"><ele>981.4136</ele><time>2026-05-30T21:41:13.000Z</time></trkpt>
        <trkpt lat="28.238618" lon="105.215434"><ele>982.8775</ele><time>2026-05-30T21:41:19.000Z</time></trkpt>
        <trkpt lat="28.238612" lon="105.215502"><ele>980.19653</ele><time>2026-05-30T21:41:29.000Z</time></trkpt>
        <trkpt lat="28.238591" lon="105.215548"><ele>978.16815</ele><time>2026-05-30T21:41:34.000Z</time></trkpt>
        <trkpt lat="28.238543" lon="105.215586"><ele>975.0784</ele><time>2026-05-30T21:41:41.000Z</time></trkpt>
        <trkpt lat="28.238513" lon="105.215636"><ele>971.7947</ele><time>2026-05-30T21:41:46.000Z</time></trkpt>
        <trkpt lat="28.238517" lon="105.215701"><ele>971.3554</ele><time>2026-05-30T21:41:55.000Z</time></trkpt>
        <trkpt lat="28.238504" lon="105.215751"><ele>960.47797</ele><time>2026-05-30T21:42:34.000Z</time></trkpt>
        <trkpt lat="28.238487" lon="105.215801"><ele>960.6086</ele><time>2026-05-30T21:42:38.000Z</time></trkpt>
        <trkpt lat="28.238471" lon="105.215861"><ele>959.00323</ele><time>2026-05-30T21:42:42.000Z</time></trkpt>
        <trkpt lat="28.238463" lon="105.215916"><ele>958.1016</ele><time>2026-05-30T21:42:47.000Z</time></trkpt>
        <trkpt lat="28.238462" lon="105.215987"><ele>956.0095</ele><time>2026-05-30T21:42:52.000Z</time></trkpt>
        <trkpt lat="28.238411" lon="105.21606"><ele>955.18164</ele><time>2026-05-30T21:42:56.000Z</time></trkpt>
        <trkpt lat="28.238386" lon="105.216115"><ele>956.0184</ele><time>2026-05-30T21:42:58.000Z</time></trkpt>
        <trkpt lat="28.238369" lon="105.216167"><ele>957.3552</ele><time>2026-05-30T21:43:00.000Z</time></trkpt>
        <trkpt lat="28.238386" lon="105.216218"><ele>957.65814</ele><time>2026-05-30T21:43:02.000Z</time></trkpt>
        <trkpt lat="28.238348" lon="105.216264"><ele>957.4865</ele><time>2026-05-30T21:43:05.000Z</time></trkpt>
        <trkpt lat="28.23837" lon="105.216312"><ele>957.1517</ele><time>2026-05-30T21:43:10.000Z</time></trkpt>
        <trkpt lat="28.238369" lon="105.216365"><ele>957.3739</ele><time>2026-05-30T21:43:18.000Z</time></trkpt>
        <trkpt lat="28.238338" lon="105.216407"><ele>957.5443</ele><time>2026-05-30T21:43:21.000Z</time></trkpt>
        <trkpt lat="28.238387" lon="105.216422"><ele>957.0908</ele><time>2026-05-30T21:43:27.000Z</time></trkpt>
        <trkpt lat="28.238434" lon="105.216413"><ele>956.4317</ele><time>2026-05-30T21:43:34.000Z</time></trkpt>
        <trkpt lat="28.23848" lon="105.21642"><ele>955.72974</ele><time>2026-05-30T21:43:38.000Z</time></trkpt>
        <trkpt lat="28.238528" lon="105.216422"><ele>955.12537</ele><time>2026-05-30T21:43:44.000Z</time></trkpt>
        <trkpt lat="28.238567" lon="105.216396"><ele>954.0415</ele><time>2026-05-30T21:43:56.000Z</time></trkpt>
        <trkpt lat="28.238613" lon="105.216398"><ele>954.5948</ele><time>2026-05-30T21:44:02.000Z</time></trkpt>
        <trkpt lat="28.238662" lon="105.216387"><ele>954.6501</ele><time>2026-05-30T21:44:14.000Z</time></trkpt>
        <trkpt lat="28.238711" lon="105.216388"><ele>954.60236</ele><time>2026-05-30T21:44:24.000Z</time></trkpt>
        <trkpt lat="28.238703" lon="105.216332"><ele>953.6886</ele><time>2026-05-30T21:44:43.000Z</time></trkpt>
        <trkpt lat="28.238729" lon="105.216287"><ele>952.3472</ele><time>2026-05-30T21:44:48.000Z</time></trkpt>
        <trkpt lat="28.238782" lon="105.21627"><ele>949.76117</ele><time>2026-05-30T21:44:58.000Z</time></trkpt>
        <trkpt lat="28.23883" lon="105.216239"><ele>948.36096</ele><time>2026-05-30T21:45:05.000Z</time></trkpt>
        <trkpt lat="28.238779" lon="105.216275"><ele>948.48395</ele><time>2026-05-30T21:45:32.000Z</time></trkpt>
        <trkpt lat="28.238722" lon="105.216298"><ele>950.1497</ele><time>2026-05-30T21:45:36.000Z</time></trkpt>
        <trkpt lat="28.238717" lon="105.216354"><ele>952.44476</ele><time>2026-05-30T21:45:40.000Z</time></trkpt>
        <trkpt lat="28.238741" lon="105.216404"><ele>952.2465</ele><time>2026-05-30T21:45:45.000Z</time></trkpt>
        <trkpt lat="28.238781" lon="105.216435"><ele>954.1267</ele><time>2026-05-30T21:46:03.000Z</time></trkpt>
        <trkpt lat="28.238828" lon="105.216412"><ele>954.5929</ele><time>2026-05-30T21:46:07.000Z</time></trkpt>
        <trkpt lat="28.238875" lon="105.216407"><ele>953.1765</ele><time>2026-05-30T21:46:13.000Z</time></trkpt>
        <trkpt lat="28.238926" lon="105.216403"><ele>953.46344</ele><time>2026-05-30T21:46:19.000Z</time></trkpt>
        <trkpt lat="28.238971" lon="105.216389"><ele>953.6701</ele><time>2026-05-30T21:46:23.000Z</time></trkpt>
        <trkpt lat="28.239026" lon="105.2164"><ele>953.5345</ele><time>2026-05-30T21:46:29.000Z</time></trkpt>
        <trkpt lat="28.239074" lon="105.216395"><ele>953.5776</ele><time>2026-05-30T21:46:35.000Z</time></trkpt>
        <trkpt lat="28.239126" lon="105.216399"><ele>954.17596</ele><time>2026-05-30T21:46:40.000Z</time></trkpt>
        <trkpt lat="28.239178" lon="105.216396"><ele>954.9708</ele><time>2026-05-30T21:46:49.000Z</time></trkpt>
        <trkpt lat="28.23923" lon="105.216394"><ele>954.52264</ele><time>2026-05-30T21:46:57.000Z</time></trkpt>
        <trkpt lat="28.239278" lon="105.216395"><ele>954.1478</ele><time>2026-05-30T21:47:05.000Z</time></trkpt>
        <trkpt lat="28.239333" lon="105.216398"><ele>954.8136</ele><time>2026-05-30T21:47:08.000Z</time></trkpt>
        <trkpt lat="28.239379" lon="105.216396"><ele>955.5434</ele><time>2026-05-30T21:47:11.000Z</time></trkpt>
        <trkpt lat="28.239428" lon="105.216401"><ele>955.7008</ele><time>2026-05-30T21:47:16.000Z</time></trkpt>
        <trkpt lat="28.239473" lon="105.216391"><ele>955.8454</ele><time>2026-05-30T21:47:24.000Z</time></trkpt>
        <trkpt lat="28.239523" lon="105.216407"><ele>954.56445</ele><time>2026-05-30T21:47:38.000Z</time></trkpt>
        <trkpt lat="28.23958" lon="105.216418"><ele>955.08</ele><time>2026-05-30T21:47:43.000Z</time></trkpt>
        <trkpt lat="28.23963" lon="105.216419"><ele>955.4936</ele><time>2026-05-30T21:47:47.000Z</time></trkpt>
        <trkpt lat="28.239669" lon="105.21645"><ele>955.7262</ele><time>2026-05-30T21:47:53.000Z</time></trkpt>
        <trkpt lat="28.239719" lon="105.216475"><ele>957.21344</ele><time>2026-05-30T21:47:58.000Z</time></trkpt>
        <trkpt lat="28.23977" lon="105.216489"><ele>958.7157</ele><time>2026-05-30T21:48:02.000Z</time></trkpt>
        <trkpt lat="28.239812" lon="105.216516"><ele>960.1854</ele><time>2026-05-30T21:48:07.000Z</time></trkpt>
        <trkpt lat="28.239858" lon="105.216526"><ele>959.99915</ele><time>2026-05-30T21:48:11.000Z</time></trkpt>
        <trkpt lat="28.239914" lon="105.216539"><ele>960.7775</ele><time>2026-05-30T21:48:15.000Z</time></trkpt>
        <trkpt lat="28.239958" lon="105.216556"><ele>961.9926</ele><time>2026-05-30T21:48:18.000Z</time></trkpt>
        <trkpt lat="28.239997" lon="105.216583"><ele>963.1775</ele><time>2026-05-30T21:48:21.000Z</time></trkpt>
        <trkpt lat="28.24004" lon="105.216624"><ele>965.0952</ele><time>2026-05-30T21:48:25.000Z</time></trkpt>
        <trkpt lat="28.240092" lon="105.216651"><ele>966.6357</ele><time>2026-05-30T21:48:30.000Z</time></trkpt>
        <trkpt lat="28.240143" lon="105.216686"><ele>967.2226</ele><time>2026-05-30T21:48:35.000Z</time></trkpt>
        <trkpt lat="28.240195" lon="105.2167"><ele>966.34186</ele><time>2026-05-30T21:48:39.000Z</time></trkpt>
        <trkpt lat="28.240248" lon="105.216721"><ele>965.30426</ele><time>2026-05-30T21:48:43.000Z</time></trkpt>
        <trkpt lat="28.240296" lon="105.216724"><ele>964.5746</ele><time>2026-05-30T21:48:48.000Z</time></trkpt>
        <trkpt lat="28.240343" lon="105.216751"><ele>964.55835</ele><time>2026-05-30T21:48:53.000Z</time></trkpt>
        <trkpt lat="28.240393" lon="105.21677"><ele>964.1125</ele><time>2026-05-30T21:48:57.000Z</time></trkpt>
        <trkpt lat="28.240447" lon="105.216793"><ele>969.0936</ele><time>2026-05-30T21:49:03.000Z</time></trkpt>
        <trkpt lat="28.240488" lon="105.216821"><ele>972.6911</ele><time>2026-05-30T21:49:06.000Z</time></trkpt>
        <trkpt lat="28.240533" lon="105.216851"><ele>975.52405</ele><time>2026-05-30T21:49:10.000Z</time></trkpt>
        <trkpt lat="28.240572" lon="105.216885"><ele>978.63245</ele><time>2026-05-30T21:49:16.000Z</time></trkpt>
        <trkpt lat="28.240607" lon="105.216923"><ele>981.2234</ele><time>2026-05-30T21:49:21.000Z</time></trkpt>
        <trkpt lat="28.240637" lon="105.216965"><ele>980.97345</ele><time>2026-05-30T21:49:25.000Z</time></trkpt>
        <trkpt lat="28.240664" lon="105.217007"><ele>981.3909</ele><time>2026-05-30T21:49:28.000Z</time></trkpt>
        <trkpt lat="28.240685" lon="105.217057"><ele>981.4258</ele><time>2026-05-30T21:49:32.000Z</time></trkpt>
        <trkpt lat="28.240698" lon="105.217109"><ele>981.631</ele><time>2026-05-30T21:49:36.000Z</time></trkpt>
        <trkpt lat="28.240735" lon="105.217148"><ele>982.3568</ele><time>2026-05-30T21:49:42.000Z</time></trkpt>
        <trkpt lat="28.240773" lon="105.217192"><ele>983.2225</ele><time>2026-05-30T21:49:48.000Z</time></trkpt>
        <trkpt lat="28.240801" lon="105.217237"><ele>981.16235</ele><time>2026-05-30T21:49:55.000Z</time></trkpt>
        <trkpt lat="28.240839" lon="105.217269"><ele>980.47864</ele><time>2026-05-30T21:49:59.000Z</time></trkpt>
        <trkpt lat="28.240883" lon="105.217299"><ele>979.4052</ele><time>2026-05-30T21:50:03.000Z</time></trkpt>
        <trkpt lat="28.240924" lon="105.217332"><ele>978.8713</ele><time>2026-05-30T21:50:08.000Z</time></trkpt>
        <trkpt lat="28.240965" lon="105.217364"><ele>978.5396</ele><time>2026-05-30T21:50:13.000Z</time></trkpt>
        <trkpt lat="28.241008" lon="105.217387"><ele>978.8888</ele><time>2026-05-30T21:50:17.000Z</time></trkpt>
        <trkpt lat="28.241051" lon="105.217411"><ele>980.47626</ele><time>2026-05-30T21:50:21.000Z</time></trkpt>
        <trkpt lat="28.2411" lon="105.217433"><ele>979.2354</ele><time>2026-05-30T21:50:25.000Z</time></trkpt>
        <trkpt lat="28.241147" lon="105.217466"><ele>979.73425</ele><time>2026-05-30T21:50:30.000Z</time></trkpt>
        <trkpt lat="28.241194" lon="105.217483"><ele>979.99396</ele><time>2026-05-30T21:50:37.000Z</time></trkpt>
        <trkpt lat="28.241238" lon="105.217494"><ele>981.31525</ele><time>2026-05-30T21:50:44.000Z</time></trkpt>
        <trkpt lat="28.241278" lon="105.217453"><ele>980.2798</ele><time>2026-05-30T21:50:50.000Z</time></trkpt>
        <trkpt lat="28.241303" lon="105.217401"><ele>979.4893</ele><time>2026-05-30T21:50:56.000Z</time></trkpt>
        <trkpt lat="28.241332" lon="105.217349"><ele>980.2174</ele><time>2026-05-30T21:51:02.000Z</time></trkpt>
        <trkpt lat="28.24135" lon="105.217301"><ele>980.2712</ele><time>2026-05-30T21:51:12.000Z</time></trkpt>
        <trkpt lat="28.241402" lon="105.21731"><ele>982.2985</ele><time>2026-05-30T21:51:22.000Z</time></trkpt>
        <trkpt lat="28.241454" lon="105.217298"><ele>980.9647</ele><time>2026-05-30T21:51:27.000Z</time></trkpt>
        <trkpt lat="28.241415" lon="105.21727"><ele>981.4472</ele><time>2026-05-30T21:51:49.000Z</time></trkpt>
        <trkpt lat="28.24137" lon="105.217299"><ele>981.32025</ele><time>2026-05-30T21:55:39.000Z</time></trkpt>
        <trkpt lat="28.241322" lon="105.217321"><ele>982.36865</ele><time>2026-05-30T21:55:43.000Z</time></trkpt>
        <trkpt lat="28.241279" lon="105.217338"><ele>983.3853</ele><time>2026-05-30T21:55:47.000Z</time></trkpt>
        <trkpt lat="28.241247" lon="105.217381"><ele>982.23724</ele><time>2026-05-30T21:56:06.000Z</time></trkpt>
        <trkpt lat="28.241245" lon="105.217443"><ele>982.8493</ele><time>2026-05-30T21:56:11.000Z</time></trkpt>
        <trkpt lat="28.241269" lon="105.217491"><ele>985.194</ele><time>2026-05-30T21:56:37.000Z</time></trkpt>
        <trkpt lat="28.241297" lon="105.21753"><ele>984.376</ele><time>2026-05-30T21:56:41.000Z</time></trkpt>
        <trkpt lat="28.241333" lon="105.217578"><ele>987.69476</ele><time>2026-05-30T21:56:57.000Z</time></trkpt>
        <trkpt lat="28.241379" lon="105.21758"><ele>984.43317</ele><time>2026-05-30T21:57:03.000Z</time></trkpt>
        <trkpt lat="28.241425" lon="105.217568"><ele>983.5017</ele><time>2026-05-30T21:57:07.000Z</time></trkpt>
        <trkpt lat="28.241475" lon="105.217572"><ele>982.9965</ele><time>2026-05-30T21:57:18.000Z</time></trkpt>
        <trkpt lat="28.241522" lon="105.217592"><ele>983.2345</ele><time>2026-05-30T21:57:22.000Z</time></trkpt>
        <trkpt lat="28.241536" lon="105.217644"><ele>984.8727</ele><time>2026-05-30T21:57:27.000Z</time></trkpt>
        <trkpt lat="28.241583" lon="105.217679"><ele>984.252</ele><time>2026-05-30T21:57:33.000Z</time></trkpt>
        <trkpt lat="28.24163" lon="105.217708"><ele>984.21027</ele><time>2026-05-30T21:57:38.000Z</time></trkpt>
        <trkpt lat="28.241663" lon="105.217749"><ele>985.68036</ele><time>2026-05-30T21:57:44.000Z</time></trkpt>
        <trkpt lat="28.241709" lon="105.217749"><ele>985.3059</ele><time>2026-05-30T21:57:55.000Z</time></trkpt>
        <trkpt lat="28.241758" lon="105.217768"><ele>987.18536</ele><time>2026-05-30T21:58:06.000Z</time></trkpt>
        <trkpt lat="28.241804" lon="105.21778"><ele>985.60077</ele><time>2026-05-30T21:58:20.000Z</time></trkpt>
        <trkpt lat="28.241803" lon="105.217832"><ele>986.665</ele><time>2026-05-30T21:58:26.000Z</time></trkpt>
        <trkpt lat="28.241823" lon="105.217887"><ele>987.1241</ele><time>2026-05-30T21:58:32.000Z</time></trkpt>
        <trkpt lat="28.24185" lon="105.217936"><ele>988.651</ele><time>2026-05-30T21:58:39.000Z</time></trkpt>
        <trkpt lat="28.241845" lon="105.217989"><ele>989.0288</ele><time>2026-05-30T21:58:43.000Z</time></trkpt>
        <trkpt lat="28.241848" lon="105.218044"><ele>990.3981</ele><time>2026-05-30T21:58:47.000Z</time></trkpt>
        <trkpt lat="28.241852" lon="105.218102"><ele>988.7358</ele><time>2026-05-30T21:58:53.000Z</time></trkpt>
        <trkpt lat="28.241851" lon="105.218156"><ele>988.29456</ele><time>2026-05-30T21:59:00.000Z</time></trkpt>
        <trkpt lat="28.241863" lon="105.218211"><ele>987.76825</ele><time>2026-05-30T21:59:10.000Z</time></trkpt>
        <trkpt lat="28.241842" lon="105.218256"><ele>985.9804</ele><time>2026-05-30T21:59:18.000Z</time></trkpt>
        <trkpt lat="28.241809" lon="105.218303"><ele>985.5928</ele><time>2026-05-30T21:59:24.000Z</time></trkpt>
        <trkpt lat="28.241819" lon="105.218363"><ele>986.3202</ele><time>2026-05-30T21:59:28.000Z</time></trkpt>
        <trkpt lat="28.241807" lon="105.218421"><ele>988.5099</ele><time>2026-05-30T21:59:32.000Z</time></trkpt>
        <trkpt lat="28.241847" lon="105.218447"><ele>985.58545</ele><time>2026-05-30T21:59:38.000Z</time></trkpt>
        <trkpt lat="28.241889" lon="105.218471"><ele>987.27844</ele><time>2026-05-30T21:59:42.000Z</time></trkpt>
        <trkpt lat="28.241938" lon="105.218489"><ele>984.9139</ele><time>2026-05-30T21:59:46.000Z</time></trkpt>
        <trkpt lat="28.241985" lon="105.21847"><ele>982.6694</ele><time>2026-05-30T21:59:52.000Z</time></trkpt>
        <trkpt lat="28.242033" lon="105.218483"><ele>983.73737</ele><time>2026-05-30T21:59:56.000Z</time></trkpt>
        <trkpt lat="28.242079" lon="105.218488"><ele>983.0611</ele><time>2026-05-30T22:00:00.000Z</time></trkpt>
        <trkpt lat="28.242125" lon="105.218481"><ele>982.1058</ele><time>2026-05-30T22:00:04.000Z</time></trkpt>
        <trkpt lat="28.242181" lon="105.218481"><ele>979.85266</ele><time>2026-05-30T22:00:08.000Z</time></trkpt>
        <trkpt lat="28.24223" lon="105.218486"><ele>977.0997</ele><time>2026-05-30T22:00:12.000Z</time></trkpt>
        <trkpt lat="28.242275" lon="105.218514"><ele>977.3221</ele><time>2026-05-30T22:00:16.000Z</time></trkpt>
        <trkpt lat="28.242313" lon="105.218567"><ele>977.0781</ele><time>2026-05-30T22:00:20.000Z</time></trkpt>
        <trkpt lat="28.242354" lon="105.218591"><ele>975.9942</ele><time>2026-05-30T22:00:23.000Z</time></trkpt>
        <trkpt lat="28.2424" lon="105.218634"><ele>976.1618</ele><time>2026-05-30T22:00:27.000Z</time></trkpt>
        <trkpt lat="28.242449" lon="105.218668"><ele>975.4344</ele><time>2026-05-30T22:00:31.000Z</time></trkpt>
        <trkpt lat="28.242496" lon="105.218695"><ele>974.6718</ele><time>2026-05-30T22:00:35.000Z</time></trkpt>
        <trkpt lat="28.242553" lon="105.218726"><ele>974.0089</ele><time>2026-05-30T22:00:40.000Z</time></trkpt>
        <trkpt lat="28.242601" lon="105.218764"><ele>974.5637</ele><time>2026-05-30T22:00:44.000Z</time></trkpt>
        <trkpt lat="28.242639" lon="105.218799"><ele>975.87616</ele><time>2026-05-30T22:00:47.000Z</time></trkpt>
        <trkpt lat="28.242684" lon="105.218844"><ele>975.83044</ele><time>2026-05-30T22:00:52.000Z</time></trkpt>
        <trkpt lat="28.242717" lon="105.21888"><ele>974.8715</ele><time>2026-05-30T22:00:56.000Z</time></trkpt>
        <trkpt lat="28.242737" lon="105.218936"><ele>974.5386</ele><time>2026-05-30T22:01:01.000Z</time></trkpt>
        <trkpt lat="28.242756" lon="105.218991"><ele>973.7206</ele><time>2026-05-30T22:01:06.000Z</time></trkpt>
        <trkpt lat="28.242786" lon="105.219037"><ele>972.4355</ele><time>2026-05-30T22:01:10.000Z</time></trkpt>
        <trkpt lat="28.242814" lon="105.219092"><ele>971.6913</ele><time>2026-05-30T22:01:15.000Z</time></trkpt>
        <trkpt lat="28.242835" lon="105.219149"><ele>971.2098</ele><time>2026-05-30T22:01:20.000Z</time></trkpt>
        <trkpt lat="28.242855" lon="105.219202"><ele>970.8261</ele><time>2026-05-30T22:01:24.000Z</time></trkpt>
        <trkpt lat="28.242879" lon="105.219257"><ele>971.6566</ele><time>2026-05-30T22:01:28.000Z</time></trkpt>
        <trkpt lat="28.242906" lon="105.219302"><ele>970.4359</ele><time>2026-05-30T22:01:32.000Z</time></trkpt>
        <trkpt lat="28.242935" lon="105.219352"><ele>970.6618</ele><time>2026-05-30T22:01:37.000Z</time></trkpt>
        <trkpt lat="28.24297" lon="105.219393"><ele>969.1695</ele><time>2026-05-30T22:01:41.000Z</time></trkpt>
        <trkpt lat="28.243003" lon="105.219433"><ele>967.9998</ele><time>2026-05-30T22:01:45.000Z</time></trkpt>
        <trkpt lat="28.243039" lon="105.219485"><ele>968.4393</ele><time>2026-05-30T22:01:49.000Z</time></trkpt>
        <trkpt lat="28.243068" lon="105.219533"><ele>969.3782</ele><time>2026-05-30T22:01:52.000Z</time></trkpt>
        <trkpt lat="28.243093" lon="105.219582"><ele>969.29285</ele><time>2026-05-30T22:01:55.000Z</time></trkpt>
        <trkpt lat="28.243118" lon="105.219635"><ele>968.2122</ele><time>2026-05-30T22:01:59.000Z</time></trkpt>
        <trkpt lat="28.243144" lon="105.219687"><ele>966.5002</ele><time>2026-05-30T22:02:03.000Z</time></trkpt>
        <trkpt lat="28.243176" lon="105.21973"><ele>967.36005</ele><time>2026-05-30T22:02:06.000Z</time></trkpt>
        <trkpt lat="28.243218" lon="105.219766"><ele>966.15894</ele><time>2026-05-30T22:02:10.000Z</time></trkpt>
        <trkpt lat="28.243256" lon="105.2198"><ele>966.44403</ele><time>2026-05-30T22:02:13.000Z</time></trkpt>
        <trkpt lat="28.243293" lon="105.21983"><ele>964.12463</ele><time>2026-05-30T22:02:19.000Z</time></trkpt>
        <trkpt lat="28.243332" lon="105.219876"><ele>964.44135</ele><time>2026-05-30T22:02:23.000Z</time></trkpt>
        <trkpt lat="28.24337" lon="105.219906"><ele>963.41864</ele><time>2026-05-30T22:02:27.000Z</time></trkpt>
        <trkpt lat="28.243412" lon="105.219937"><ele>962.35736</ele><time>2026-05-30T22:02:31.000Z</time></trkpt>
        <trkpt lat="28.243449" lon="105.219969"><ele>962.186</ele><time>2026-05-30T22:02:35.000Z</time></trkpt>
        <trkpt lat="28.243504" lon="105.220004"><ele>961.0151</ele><time>2026-05-30T22:02:40.000Z</time></trkpt>
        <trkpt lat="28.243539" lon="105.220042"><ele>960.9103</ele><time>2026-05-30T22:02:45.000Z</time></trkpt>
        <trkpt lat="28.24358" lon="105.220068"><ele>960.0896</ele><time>2026-05-30T22:02:49.000Z</time></trkpt>
        <trkpt lat="28.243622" lon="105.220115"><ele>960.19464</ele><time>2026-05-30T22:02:54.000Z</time></trkpt>
        <trkpt lat="28.243665" lon="105.220154"><ele>960.74713</ele><time>2026-05-30T22:02:58.000Z</time></trkpt>
        <trkpt lat="28.243704" lon="105.220187"><ele>959.0719</ele><time>2026-05-30T22:03:03.000Z</time></trkpt>
        <trkpt lat="28.243754" lon="105.220221"><ele>958.56256</ele><time>2026-05-30T22:03:07.000Z</time></trkpt>
        <trkpt lat="28.243789" lon="105.220257"><ele>953.5252</ele><time>2026-05-30T22:03:20.000Z</time></trkpt>
        <trkpt lat="28.243824" lon="105.2203"><ele>955.0312</ele><time>2026-05-30T22:03:25.000Z</time></trkpt>
        <trkpt lat="28.243871" lon="105.220339"><ele>956.2391</ele><time>2026-05-30T22:03:29.000Z</time></trkpt>
        <trkpt lat="28.24391" lon="105.22037"><ele>955.685</ele><time>2026-05-30T22:03:32.000Z</time></trkpt>
        <trkpt lat="28.243946" lon="105.220407"><ele>955.23846</ele><time>2026-05-30T22:03:36.000Z</time></trkpt>
        <trkpt lat="28.243977" lon="105.220456"><ele>955.52124</ele><time>2026-05-30T22:03:40.000Z</time></trkpt>
        <trkpt lat="28.244026" lon="105.220495"><ele>955.1515</ele><time>2026-05-30T22:03:44.000Z</time></trkpt>
        <trkpt lat="28.244071" lon="105.220511"><ele>953.7275</ele><time>2026-05-30T22:03:48.000Z</time></trkpt>
        <trkpt lat="28.24412" lon="105.22055"><ele>954.8581</ele><time>2026-05-30T22:03:52.000Z</time></trkpt>
        <trkpt lat="28.244159" lon="105.220582"><ele>955.8348</ele><time>2026-05-30T22:03:56.000Z</time></trkpt>
        <trkpt lat="28.244206" lon="105.220601"><ele>955.82</ele><time>2026-05-30T22:04:00.000Z</time></trkpt>
        <trkpt lat="28.244262" lon="105.220596"><ele>954.3069</ele><time>2026-05-30T22:04:04.000Z</time></trkpt>
        <trkpt lat="28.244301" lon="105.220627"><ele>950.60803</ele><time>2026-05-30T22:04:09.000Z</time></trkpt>
        <trkpt lat="28.244348" lon="105.22065"><ele>949.82477</ele><time>2026-05-30T22:04:13.000Z</time></trkpt>
        <trkpt lat="28.244393" lon="105.220672"><ele>949.78625</ele><time>2026-05-30T22:04:18.000Z</time></trkpt>
        <trkpt lat="28.244431" lon="105.220708"><ele>949.2217</ele><time>2026-05-30T22:04:23.000Z</time></trkpt>
        <trkpt lat="28.244487" lon="105.220738"><ele>947.5392</ele><time>2026-05-30T22:04:28.000Z</time></trkpt>
        <trkpt lat="28.244532" lon="105.22076"><ele>946.1607</ele><time>2026-05-30T22:04:33.000Z</time></trkpt>
        <trkpt lat="28.244584" lon="105.220773"><ele>945.162</ele><time>2026-05-30T22:04:38.000Z</time></trkpt>
        <trkpt lat="28.244633" lon="105.220777"><ele>944.4571</ele><time>2026-05-30T22:04:42.000Z</time></trkpt>
        <trkpt lat="28.244683" lon="105.220772"><ele>944.2578</ele><time>2026-05-30T22:04:46.000Z</time></trkpt>
        <trkpt lat="28.244732" lon="105.220764"><ele>943.165</ele><time>2026-05-30T22:04:50.000Z</time></trkpt>
        <trkpt lat="28.244755" lon="105.220718"><ele>943.5952</ele><time>2026-05-30T22:05:04.000Z</time></trkpt>
        <trkpt lat="28.244801" lon="105.220673"><ele>938.76465</ele><time>2026-05-30T22:05:26.000Z</time></trkpt>
        <trkpt lat="28.244848" lon="105.220671"><ele>938.2715</ele><time>2026-05-30T22:05:35.000Z</time></trkpt>
        <trkpt lat="28.244869" lon="105.220625"><ele>934.77527</ele><time>2026-05-30T22:05:51.000Z</time></trkpt>
        <trkpt lat="28.244828" lon="105.2206"><ele>929.11035</ele><time>2026-05-30T22:06:16.000Z</time></trkpt>
        <trkpt lat="28.244799" lon="105.220554"><ele>938.27844</ele><time>2026-05-30T22:07:15.000Z</time></trkpt>
        <trkpt lat="28.244814" lon="105.220503"><ele>923.11536</ele><time>2026-05-30T22:07:44.000Z</time></trkpt>
        <trkpt lat="28.244777" lon="105.220533"><ele>919.15857</ele><time>2026-05-30T22:08:17.000Z</time></trkpt>
        <trkpt lat="28.244798" lon="105.220475"><ele>915.1813</ele><time>2026-05-30T22:08:27.000Z</time></trkpt>
        <trkpt lat="28.244815" lon="105.220424"><ele>915.91254</ele><time>2026-05-30T22:08:47.000Z</time></trkpt>
        <trkpt lat="28.244836" lon="105.220378"><ele>914.84326</ele><time>2026-05-30T22:09:52.000Z</time></trkpt>
        <trkpt lat="28.244831" lon="105.220429"><ele>905.9707</ele><time>2026-05-30T22:13:03.000Z</time></trkpt>
        <trkpt lat="28.244834" lon="105.220371"><ele>907.81464</ele><time>2026-05-30T22:13:38.000Z</time></trkpt>
        <trkpt lat="28.244807" lon="105.220321"><ele>902.23474</ele><time>2026-05-30T22:14:14.000Z</time></trkpt>
        <trkpt lat="28.244822" lon="105.220267"><ele>898.8784</ele><time>2026-05-30T22:14:23.000Z</time></trkpt>
        <trkpt lat="28.244783" lon="105.220232"><ele>895.0933</ele><time>2026-05-30T22:14:47.000Z</time></trkpt>
        <trkpt lat="28.244785" lon="105.220176"><ele>894.25415</ele><time>2026-05-30T22:15:22.000Z</time></trkpt>
        <trkpt lat="28.24476" lon="105.220229"><ele>888.11194</ele><time>2026-05-30T22:15:44.000Z</time></trkpt>
        <trkpt lat="28.244768" lon="105.220174"><ele>888.46014</ele><time>2026-05-30T22:16:10.000Z</time></trkpt>
        <trkpt lat="28.244804" lon="105.220137"><ele>886.5968</ele><time>2026-05-30T22:16:14.000Z</time></trkpt>
        <trkpt lat="28.244782" lon="105.220093"><ele>883.2102</ele><time>2026-05-30T22:16:33.000Z</time></trkpt>
        <trkpt lat="28.244806" lon="105.220047"><ele>886.90393</ele><time>2026-05-30T22:16:46.000Z</time></trkpt>
        <trkpt lat="28.244856" lon="105.220043"><ele>885.0794</ele><time>2026-05-30T22:16:59.000Z</time></trkpt>
        <trkpt lat="28.244817" lon="105.220008"><ele>884.2335</ele><time>2026-05-30T22:17:11.000Z</time></trkpt>
        <trkpt lat="28.244783" lon="105.220042"><ele>879.8465</ele><time>2026-05-30T22:17:20.000Z</time></trkpt>
        <trkpt lat="28.244784" lon="105.220025"><ele>879.83466</ele><time>2026-05-30T22:17:54.000Z</time></trkpt>
        <trkpt lat="28.244758" lon="105.219979"><ele>867.06793</ele><time>2026-05-30T22:19:16.000Z</time></trkpt>
        <trkpt lat="28.244739" lon="105.219881"><ele>863.3049</ele><time>2026-05-30T22:19:30.000Z</time></trkpt>
        <trkpt lat="28.244785" lon="105.219902"><ele>864.84717</ele><time>2026-05-30T22:19:35.000Z</time></trkpt>
        <trkpt lat="28.244816" lon="105.219864"><ele>868.97754</ele><time>2026-05-30T22:19:45.000Z</time></trkpt>
        <trkpt lat="28.24484" lon="105.219913"><ele>864.95416</ele><time>2026-05-30T22:20:14.000Z</time></trkpt>
        <trkpt lat="28.244794" lon="105.219891"><ele>864.1424</ele><time>2026-05-30T22:20:18.000Z</time></trkpt>
        <trkpt lat="28.24487" lon="105.219912"><ele>858.4072</ele><time>2026-05-30T22:20:52.000Z</time></trkpt>
        <trkpt lat="28.244908" lon="105.21988"><ele>862.1597</ele><time>2026-05-30T22:21:03.000Z</time></trkpt>
        <trkpt lat="28.244861" lon="105.219876"><ele>862.6478</ele><time>2026-05-30T22:21:16.000Z</time></trkpt>
        <trkpt lat="28.244814" lon="105.219876"><ele>861.98785</ele><time>2026-05-30T22:21:30.000Z</time></trkpt>
        <trkpt lat="28.244971" lon="105.219853"><ele>858.8533</ele><time>2026-05-30T22:22:16.000Z</time></trkpt>
        <trkpt lat="28.244863" lon="105.219892"><ele>858.74866</ele><time>2026-05-30T22:22:18.000Z</time></trkpt>
        <trkpt lat="28.244908" lon="105.219785"><ele>857.93823</ele><time>2026-05-30T22:24:15.000Z</time></trkpt>
        <trkpt lat="28.244852" lon="105.219791"><ele>853.9615</ele><time>2026-05-30T22:24:29.000Z</time></trkpt>
        <trkpt lat="28.244834" lon="105.219742"><ele>857.2048</ele><time>2026-05-30T22:25:21.000Z</time></trkpt>
        <trkpt lat="28.244782" lon="105.219729"><ele>852.4652</ele><time>2026-05-30T22:25:38.000Z</time></trkpt>
        <trkpt lat="28.24477" lon="105.219678"><ele>850.3911</ele><time>2026-05-30T22:25:59.000Z</time></trkpt>
        <trkpt lat="28.244787" lon="105.219622"><ele>849.79803</ele><time>2026-05-30T22:26:25.000Z</time></trkpt>
        <trkpt lat="28.244798" lon="105.219573"><ele>847.26215</ele><time>2026-05-30T22:26:51.000Z</time></trkpt>
        <trkpt lat="28.244846" lon="105.219557"><ele>844.2216</ele><time>2026-05-30T22:27:08.000Z</time></trkpt>
        <trkpt lat="28.244891" lon="105.219547"><ele>844.8408</ele><time>2026-05-30T22:27:48.000Z</time></trkpt>
        <trkpt lat="28.244877" lon="105.219493"><ele>845.54504</ele><time>2026-05-30T22:28:00.000Z</time></trkpt>
        <trkpt lat="28.244916" lon="105.219456"><ele>844.0275</ele><time>2026-05-30T22:28:06.000Z</time></trkpt>
        <trkpt lat="28.244885" lon="105.21941"><ele>837.80804</ele><time>2026-05-30T22:28:15.000Z</time></trkpt>
        <trkpt lat="28.244877" lon="105.219352"><ele>834.9937</ele><time>2026-05-30T22:28:26.000Z</time></trkpt>
        <trkpt lat="28.244867" lon="105.219294"><ele>830.66315</ele><time>2026-05-30T22:28:30.000Z</time></trkpt>
        <trkpt lat="28.244822" lon="105.219257"><ele>827.0596</ele><time>2026-05-30T22:28:42.000Z</time></trkpt>
        <trkpt lat="28.244842" lon="105.219207"><ele>823.4735</ele><time>2026-05-30T22:28:53.000Z</time></trkpt>
        <trkpt lat="28.244855" lon="105.219156"><ele>820.4068</ele><time>2026-05-30T22:29:06.000Z</time></trkpt>
        <trkpt lat="28.244879" lon="105.219102"><ele>823.354</ele><time>2026-05-30T22:29:40.000Z</time></trkpt>
        <trkpt lat="28.244925" lon="105.219089"><ele>821.4978</ele><time>2026-05-30T22:29:59.000Z</time></trkpt>
        <trkpt lat="28.2449" lon="105.219029"><ele>813.6675</ele><time>2026-05-30T22:30:14.000Z</time></trkpt>
        <trkpt lat="28.24491" lon="105.218978"><ele>808.23596</ele><time>2026-05-30T22:30:31.000Z</time></trkpt>
        <trkpt lat="28.244946" lon="105.218946"><ele>809.09625</ele><time>2026-05-30T22:30:52.000Z</time></trkpt>
        <trkpt lat="28.244992" lon="105.218957"><ele>809.82855</ele><time>2026-05-30T22:31:28.000Z</time></trkpt>
        <trkpt lat="28.244963" lon="105.218915"><ele>805.9527</ele><time>2026-05-30T22:31:37.000Z</time></trkpt>
        <trkpt lat="28.245015" lon="105.218918"><ele>807.5056</ele><time>2026-05-30T22:31:43.000Z</time></trkpt>
        <trkpt lat="28.245053" lon="105.218881"><ele>806.05835</ele><time>2026-05-30T22:31:55.000Z</time></trkpt>
        <trkpt lat="28.245047" lon="105.218819"><ele>797.9571</ele><time>2026-05-30T22:32:20.000Z</time></trkpt>
        <trkpt lat="28.245041" lon="105.218763"><ele>794.0405</ele><time>2026-05-30T22:32:29.000Z</time></trkpt>
        <trkpt lat="28.2451" lon="105.218718"><ele>792.0512</ele><time>2026-05-30T22:33:01.000Z</time></trkpt>
        <trkpt lat="28.245069" lon="105.218676"><ele>789.4942</ele><time>2026-05-30T22:33:08.000Z</time></trkpt>
        <trkpt lat="28.245114" lon="105.218684"><ele>786.77094</ele><time>2026-05-30T22:33:25.000Z</time></trkpt>
        <trkpt lat="28.245176" lon="105.218685"><ele>785.4608</ele><time>2026-05-30T22:33:31.000Z</time></trkpt>
        <trkpt lat="28.245213" lon="105.218731"><ele>785.911</ele><time>2026-05-30T22:33:35.000Z</time></trkpt>
        <trkpt lat="28.245234" lon="105.218797"><ele>783.7998</ele><time>2026-05-30T22:33:39.000Z</time></trkpt>
        <trkpt lat="28.245246" lon="105.218848"><ele>784.41675</ele><time>2026-05-30T22:33:41.000Z</time></trkpt>
        <trkpt lat="28.245273" lon="105.218894"><ele>784.0549</ele><time>2026-05-30T22:33:43.000Z</time></trkpt>
        <trkpt lat="28.245308" lon="105.218929"><ele>781.10034</ele><time>2026-05-30T22:33:49.000Z</time></trkpt>
        <trkpt lat="28.245356" lon="105.218971"><ele>779.4355</ele><time>2026-05-30T22:33:54.000Z</time></trkpt>
        <trkpt lat="28.245368" lon="105.219021"><ele>775.44543</ele><time>2026-05-30T22:34:03.000Z</time></trkpt>
        <trkpt lat="28.245414" lon="105.219048"><ele>775.93445</ele><time>2026-05-30T22:34:17.000Z</time></trkpt>
        <trkpt lat="28.245409" lon="105.219116"><ele>769.62396</ele><time>2026-05-30T22:34:45.000Z</time></trkpt>
        <trkpt lat="28.245412" lon="105.219173"><ele>769.16254</ele><time>2026-05-30T22:34:54.000Z</time></trkpt>
        <trkpt lat="28.245432" lon="105.219228"><ele>770.2914</ele><time>2026-05-30T22:35:00.000Z</time></trkpt>
        <trkpt lat="28.245475" lon="105.21925"><ele>766.92914</ele><time>2026-05-30T22:35:12.000Z</time></trkpt>
        <trkpt lat="28.245526" lon="105.219274"><ele>767.4806</ele><time>2026-05-30T22:35:18.000Z</time></trkpt>
        <trkpt lat="28.245495" lon="105.219335"><ele>757.2846</ele><time>2026-05-30T22:35:24.000Z</time></trkpt>
        <trkpt lat="28.245501" lon="105.219398"><ele>754.5493</ele><time>2026-05-30T22:35:29.000Z</time></trkpt>
        <trkpt lat="28.245531" lon="105.219452"><ele>757.79535</ele><time>2026-05-30T22:35:33.000Z</time></trkpt>
        <trkpt lat="28.245572" lon="105.219475"><ele>769.039</ele><time>2026-05-30T22:35:40.000Z</time></trkpt>
        <trkpt lat="28.245615" lon="105.219497"><ele>772.089</ele><time>2026-05-30T22:35:50.000Z</time></trkpt>
        <trkpt lat="28.24564" lon="105.21955"><ele>773.5854</ele><time>2026-05-30T22:36:03.000Z</time></trkpt>
        <trkpt lat="28.245661" lon="105.219595"><ele>775.506</ele><time>2026-05-30T22:36:35.000Z</time></trkpt>
        <trkpt lat="28.245702" lon="105.219621"><ele>775.7239</ele><time>2026-05-30T22:36:44.000Z</time></trkpt>
        <trkpt lat="28.245749" lon="105.219628"><ele>775.2582</ele><time>2026-05-30T22:36:51.000Z</time></trkpt>
        <trkpt lat="28.245802" lon="105.219633"><ele>775.4223</ele><time>2026-05-30T22:36:57.000Z</time></trkpt>
        <trkpt lat="28.245852" lon="105.219616"><ele>774.52997</ele><time>2026-05-30T22:37:02.000Z</time></trkpt>
        <trkpt lat="28.245905" lon="105.219633"><ele>774.081</ele><time>2026-05-30T22:37:06.000Z</time></trkpt>
        <trkpt lat="28.245954" lon="105.219635"><ele>773.61884</ele><time>2026-05-30T22:37:19.000Z</time></trkpt>
        <trkpt lat="28.246001" lon="105.21964"><ele>773.33887</ele><time>2026-05-30T22:37:23.000Z</time></trkpt>
        <trkpt lat="28.246031" lon="105.21968"><ele>773.38495</ele><time>2026-05-30T22:37:32.000Z</time></trkpt>
        <trkpt lat="28.246058" lon="105.219727"><ele>774.5952</ele><time>2026-05-30T22:37:48.000Z</time></trkpt>
        <trkpt lat="28.246106" lon="105.219716"><ele>775.3234</ele><time>2026-05-30T22:38:11.000Z</time></trkpt>
        <trkpt lat="28.246147" lon="105.219684"><ele>775.1904</ele><time>2026-05-30T22:38:20.000Z</time></trkpt>
        <trkpt lat="28.2462" lon="105.219669"><ele>773.93195</ele><time>2026-05-30T22:38:26.000Z</time></trkpt>
        <trkpt lat="28.24624" lon="105.219639"><ele>772.17017</ele><time>2026-05-30T22:38:30.000Z</time></trkpt>
        <trkpt lat="28.246295" lon="105.219638"><ele>772.9366</ele><time>2026-05-30T22:38:32.000Z</time></trkpt>
        <trkpt lat="28.246314" lon="105.219591"><ele>771.44055</ele><time>2026-05-30T22:38:37.000Z</time></trkpt>
        <trkpt lat="28.246369" lon="105.219553"><ele>770.7279</ele><time>2026-05-30T22:38:46.000Z</time></trkpt>
        <trkpt lat="28.246404" lon="105.219502"><ele>770.78723</ele><time>2026-05-30T22:38:50.000Z</time></trkpt>
        <trkpt lat="28.24643" lon="105.219459"><ele>769.79926</ele><time>2026-05-30T22:38:55.000Z</time></trkpt>
        <trkpt lat="28.246433" lon="105.219407"><ele>767.37756</ele><time>2026-05-30T22:39:05.000Z</time></trkpt>
        <trkpt lat="28.246424" lon="105.219461"><ele>768.0765</ele><time>2026-05-30T22:39:20.000Z</time></trkpt>
        <trkpt lat="28.246476" lon="105.219449"><ele>767.18317</ele><time>2026-05-30T22:39:27.000Z</time></trkpt>
        <trkpt lat="28.246517" lon="105.219483"><ele>767.145</ele><time>2026-05-30T22:40:13.000Z</time></trkpt>
        <trkpt lat="28.246522" lon="105.219534"><ele>769.4936</ele><time>2026-05-30T22:40:31.000Z</time></trkpt>
        <trkpt lat="28.246512" lon="105.219593"><ele>767.4685</ele><time>2026-05-30T22:40:39.000Z</time></trkpt>
        <trkpt lat="28.246512" lon="105.219653"><ele>769.4326</ele><time>2026-05-30T22:40:44.000Z</time></trkpt>
        <trkpt lat="28.24651" lon="105.219706"><ele>768.47534</ele><time>2026-05-30T22:40:48.000Z</time></trkpt>
        <trkpt lat="28.246541" lon="105.219753"><ele>769.18195</ele><time>2026-05-30T22:40:53.000Z</time></trkpt>
        <trkpt lat="28.246538" lon="105.219815"><ele>770.12476</ele><time>2026-05-30T22:41:01.000Z</time></trkpt>
        <trkpt lat="28.246533" lon="105.219881"><ele>771.0036</ele><time>2026-05-30T22:41:05.000Z</time></trkpt>
        <trkpt lat="28.246525" lon="105.219946"><ele>773.4365</ele><time>2026-05-30T22:41:09.000Z</time></trkpt>
        <trkpt lat="28.246543" lon="105.22001"><ele>777.1982</ele><time>2026-05-30T22:41:15.000Z</time></trkpt>
        <trkpt lat="28.246568" lon="105.220053"><ele>778.2089</ele><time>2026-05-30T22:41:19.000Z</time></trkpt>
        <trkpt lat="28.246606" lon="105.220085"><ele>777.4524</ele><time>2026-05-30T22:41:27.000Z</time></trkpt>
        <trkpt lat="28.246678" lon="105.220079"><ele>773.09045</ele><time>2026-05-30T22:41:30.000Z</time></trkpt>
        <trkpt lat="28.246719" lon="105.220044"><ele>770.58154</ele><time>2026-05-30T22:41:35.000Z</time></trkpt>
        <trkpt lat="28.246768" lon="105.220094"><ele>771.96173</ele><time>2026-05-30T22:41:42.000Z</time></trkpt>
        <trkpt lat="28.246791" lon="105.220144"><ele>773.1036</ele><time>2026-05-30T22:41:43.000Z</time></trkpt>
        <trkpt lat="28.246829" lon="105.220187"><ele>776.32477</ele><time>2026-05-30T22:41:48.000Z</time></trkpt>
        <trkpt lat="28.246877" lon="105.220216"><ele>776.54175</ele><time>2026-05-30T22:41:54.000Z</time></trkpt>
        <trkpt lat="28.246918" lon="105.22019"><ele>776.5572</ele><time>2026-05-30T22:41:57.000Z</time></trkpt>
        <trkpt lat="28.246964" lon="105.22018"><ele>775.6733</ele><time>2026-05-30T22:42:04.000Z</time></trkpt>
        <trkpt lat="28.247012" lon="105.220153"><ele>774.0742</ele><time>2026-05-30T22:42:10.000Z</time></trkpt>
        <trkpt lat="28.247069" lon="105.220137"><ele>773.04535</ele><time>2026-05-30T22:42:15.000Z</time></trkpt>
        <trkpt lat="28.247123" lon="105.220138"><ele>771.83057</ele><time>2026-05-30T22:42:20.000Z</time></trkpt>
        <trkpt lat="28.247168" lon="105.220124"><ele>771.33624</ele><time>2026-05-30T22:42:24.000Z</time></trkpt>
        <trkpt lat="28.247225" lon="105.220139"><ele>770.1735</ele><time>2026-05-30T22:42:30.000Z</time></trkpt>
        <trkpt lat="28.247265" lon="105.220109"><ele>769.4091</ele><time>2026-05-30T22:42:34.000Z</time></trkpt>
        <trkpt lat="28.247313" lon="105.22009"><ele>766.9019</ele><time>2026-05-30T22:42:53.000Z</time></trkpt>
        <trkpt lat="28.247356" lon="105.220058"><ele>766.8222</ele><time>2026-05-30T22:42:56.000Z</time></trkpt>
        <trkpt lat="28.247402" lon="105.220099"><ele>766.38</ele><time>2026-05-30T22:43:00.000Z</time></trkpt>
        <trkpt lat="28.247447" lon="105.220112"><ele>766.79047</ele><time>2026-05-30T22:43:06.000Z</time></trkpt>
        <trkpt lat="28.247494" lon="105.220129"><ele>766.9296</ele><time>2026-05-30T22:43:10.000Z</time></trkpt>
        <trkpt lat="28.24754" lon="105.22012"><ele>766.3773</ele><time>2026-05-30T22:43:19.000Z</time></trkpt>
        <trkpt lat="28.247584" lon="105.220107"><ele>765.3089</ele><time>2026-05-30T22:43:25.000Z</time></trkpt>
        <trkpt lat="28.247635" lon="105.220101"><ele>765.2736</ele><time>2026-05-30T22:43:30.000Z</time></trkpt>
        <trkpt lat="28.24763" lon="105.220159"><ele>763.2379</ele><time>2026-05-30T22:43:38.000Z</time></trkpt>
        <trkpt lat="28.247613" lon="105.220224"><ele>764.85175</ele><time>2026-05-30T22:43:46.000Z</time></trkpt>
        <trkpt lat="28.247624" lon="105.220286"><ele>767.2855</ele><time>2026-05-30T22:43:51.000Z</time></trkpt>
        <trkpt lat="28.247624" lon="105.220337"><ele>766.8667</ele><time>2026-05-30T22:44:01.000Z</time></trkpt>
        <trkpt lat="28.247637" lon="105.220388"><ele>767.4022</ele><time>2026-05-30T22:44:04.000Z</time></trkpt>
        <trkpt lat="28.24762" lon="105.220455"><ele>765.6011</ele><time>2026-05-30T22:44:07.000Z</time></trkpt>
        <trkpt lat="28.247611" lon="105.220507"><ele>760.6483</ele><time>2026-05-30T22:44:11.000Z</time></trkpt>
        <trkpt lat="28.247607" lon="105.220561"><ele>755.8117</ele><time>2026-05-30T22:44:14.000Z</time></trkpt>
        <trkpt lat="28.247646" lon="105.220596"><ele>755.93835</ele><time>2026-05-30T22:44:18.000Z</time></trkpt>
        <trkpt lat="28.247639" lon="105.220652"><ele>754.78754</ele><time>2026-05-30T22:44:24.000Z</time></trkpt>
        <trkpt lat="28.247606" lon="105.220691"><ele>751.1315</ele><time>2026-05-30T22:44:31.000Z</time></trkpt>
        <trkpt lat="28.247649" lon="105.220711"><ele>751.8213</ele><time>2026-05-30T22:44:33.000Z</time></trkpt>
        <trkpt lat="28.247699" lon="105.220748"><ele>752.15784</ele><time>2026-05-30T22:44:39.000Z</time></trkpt>
        <trkpt lat="28.247742" lon="105.220726"><ele>751.1939</ele><time>2026-05-30T22:44:45.000Z</time></trkpt>
        <trkpt lat="28.24781" lon="105.220757"><ele>750.2037</ele><time>2026-05-30T22:44:48.000Z</time></trkpt>
        <trkpt lat="28.247859" lon="105.220753"><ele>747.4954</ele><time>2026-05-30T22:44:52.000Z</time></trkpt>
        <trkpt lat="28.247897" lon="105.220714"><ele>748.1175</ele><time>2026-05-30T22:44:59.000Z</time></trkpt>
        <trkpt lat="28.247941" lon="105.220704"><ele>747.63293</ele><time>2026-05-30T22:45:03.000Z</time></trkpt>
        <trkpt lat="28.248001" lon="105.220691"><ele>750.4846</ele><time>2026-05-30T22:45:06.000Z</time></trkpt>
        <trkpt lat="28.248051" lon="105.2207"><ele>751.29175</ele><time>2026-05-30T22:45:12.000Z</time></trkpt>
        <trkpt lat="28.248099" lon="105.220697"><ele>752.8311</ele><time>2026-05-30T22:45:18.000Z</time></trkpt>
        <trkpt lat="28.248148" lon="105.22069"><ele>752.40424</ele><time>2026-05-30T22:45:25.000Z</time></trkpt>
        <trkpt lat="28.248205" lon="105.220693"><ele>755.6818</ele><time>2026-05-30T22:45:30.000Z</time></trkpt>
        <trkpt lat="28.24826" lon="105.220703"><ele>757.691</ele><time>2026-05-30T22:45:36.000Z</time></trkpt>
        <trkpt lat="28.248304" lon="105.220686"><ele>759.86273</ele><time>2026-05-30T22:45:40.000Z</time></trkpt>
        <trkpt lat="28.248317" lon="105.220628"><ele>766.7616</ele><time>2026-05-30T22:45:44.000Z</time></trkpt>
        <trkpt lat="28.248385" lon="105.220614"><ele>771.64746</ele><time>2026-05-30T22:45:52.000Z</time></trkpt>
        <trkpt lat="28.248438" lon="105.220617"><ele>769.92596</ele><time>2026-05-30T22:45:58.000Z</time></trkpt>
        <trkpt lat="28.24849" lon="105.220637"><ele>769.0297</ele><time>2026-05-30T22:46:06.000Z</time></trkpt>
        <trkpt lat="28.248589" lon="105.220629"><ele>768.0158</ele><time>2026-05-30T22:46:12.000Z</time></trkpt>
        <trkpt lat="28.248641" lon="105.220626"><ele>765.6931</ele><time>2026-05-30T22:46:21.000Z</time></trkpt>
        <trkpt lat="28.248686" lon="105.22065"><ele>764.41394</ele><time>2026-05-30T22:46:26.000Z</time></trkpt>
        <trkpt lat="28.248717" lon="105.220691"><ele>763.4365</ele><time>2026-05-30T22:46:31.000Z</time></trkpt>
        <trkpt lat="28.248724" lon="105.220756"><ele>763.428</ele><time>2026-05-30T22:46:35.000Z</time></trkpt>
        <trkpt lat="28.248695" lon="105.220818"><ele>763.2224</ele><time>2026-05-30T22:46:39.000Z</time></trkpt>
        <trkpt lat="28.248661" lon="105.220867"><ele>764.85077</ele><time>2026-05-30T22:46:43.000Z</time></trkpt>
        <trkpt lat="28.248645" lon="105.220918"><ele>765.01373</ele><time>2026-05-30T22:46:50.000Z</time></trkpt>
        <trkpt lat="28.248638" lon="105.220973"><ele>767.1376</ele><time>2026-05-30T22:46:54.000Z</time></trkpt>
        <trkpt lat="28.248639" lon="105.221027"><ele>766.6052</ele><time>2026-05-30T22:46:59.000Z</time></trkpt>
        <trkpt lat="28.24862" lon="105.221077"><ele>767.9753</ele><time>2026-05-30T22:47:03.000Z</time></trkpt>
        <trkpt lat="28.248596" lon="105.221123"><ele>769.2313</ele><time>2026-05-30T22:47:09.000Z</time></trkpt>
        <trkpt lat="28.248582" lon="105.221178"><ele>770.4818</ele><time>2026-05-30T22:47:13.000Z</time></trkpt>
        <trkpt lat="28.248579" lon="105.221248"><ele>771.2952</ele><time>2026-05-30T22:47:19.000Z</time></trkpt>
        <trkpt lat="28.248598" lon="105.221301"><ele>770.1748</ele><time>2026-05-30T22:47:24.000Z</time></trkpt>
        <trkpt lat="28.248624" lon="105.221348"><ele>770.17053</ele><time>2026-05-30T22:47:29.000Z</time></trkpt>
        <trkpt lat="28.248648" lon="105.221406"><ele>768.3989</ele><time>2026-05-30T22:47:35.000Z</time></trkpt>
        <trkpt lat="28.248666" lon="105.221461"><ele>767.1038</ele><time>2026-05-30T22:47:40.000Z</time></trkpt>
        <trkpt lat="28.248703" lon="105.221503"><ele>766.37537</ele><time>2026-05-30T22:47:44.000Z</time></trkpt>
        <trkpt lat="28.248742" lon="105.221533"><ele>766.1286</ele><time>2026-05-30T22:47:47.000Z</time></trkpt>
        <trkpt lat="28.248786" lon="105.221568"><ele>765.7718</ele><time>2026-05-30T22:47:51.000Z</time></trkpt>
        <trkpt lat="28.248838" lon="105.22157"><ele>765.97943</ele><time>2026-05-30T22:47:55.000Z</time></trkpt>
        <trkpt lat="28.248883" lon="105.22158"><ele>764.2687</ele><time>2026-05-30T22:47:59.000Z</time></trkpt>
        <trkpt lat="28.248935" lon="105.221607"><ele>761.3332</ele><time>2026-05-30T22:48:11.000Z</time></trkpt>
        <trkpt lat="28.248984" lon="105.221618"><ele>760.33905</ele><time>2026-05-30T22:48:15.000Z</time></trkpt>
        <trkpt lat="28.249035" lon="105.221634"><ele>758.6835</ele><time>2026-05-30T22:48:19.000Z</time></trkpt>
        <trkpt lat="28.249084" lon="105.221645"><ele>756.90607</ele><time>2026-05-30T22:48:23.000Z</time></trkpt>
        <trkpt lat="28.249133" lon="105.221652"><ele>758.05975</ele><time>2026-05-30T22:48:28.000Z</time></trkpt>
        <trkpt lat="28.249178" lon="105.221627"><ele>755.463</ele><time>2026-05-30T22:48:32.000Z</time></trkpt>
        <trkpt lat="28.249226" lon="105.221602"><ele>752.5843</ele><time>2026-05-30T22:48:38.000Z</time></trkpt>
        <trkpt lat="28.249271" lon="105.221598"><ele>751.1672</ele><time>2026-05-30T22:48:43.000Z</time></trkpt>
        <trkpt lat="28.249319" lon="105.221588"><ele>749.33887</ele><time>2026-05-30T22:48:47.000Z</time></trkpt>
        <trkpt lat="28.249371" lon="105.221572"><ele>746.8679</ele><time>2026-05-30T22:48:52.000Z</time></trkpt>
        <trkpt lat="28.249427" lon="105.22155"><ele>745.21643</ele><time>2026-05-30T22:48:57.000Z</time></trkpt>
        <trkpt lat="28.249473" lon="105.221543"><ele>744.4823</ele><time>2026-05-30T22:49:01.000Z</time></trkpt>
        <trkpt lat="28.249519" lon="105.221532"><ele>743.89886</ele><time>2026-05-30T22:49:05.000Z</time></trkpt>
        <trkpt lat="28.249563" lon="105.221508"><ele>742.31647</ele><time>2026-05-30T22:49:09.000Z</time></trkpt>
        <trkpt lat="28.249609" lon="105.221484"><ele>740.43024</ele><time>2026-05-30T22:49:13.000Z</time></trkpt>
        <trkpt lat="28.249658" lon="105.22147"><ele>739.4684</ele><time>2026-05-30T22:49:17.000Z</time></trkpt>
        <trkpt lat="28.249698" lon="105.221445"><ele>738.0573</ele><time>2026-05-30T22:49:21.000Z</time></trkpt>
        <trkpt lat="28.249747" lon="105.221434"><ele>737.3384</ele><time>2026-05-30T22:49:24.000Z</time></trkpt>
        <trkpt lat="28.24979" lon="105.221394"><ele>735.0297</ele><time>2026-05-30T22:49:28.000Z</time></trkpt>
        <trkpt lat="28.249835" lon="105.221382"><ele>733.97766</ele><time>2026-05-30T22:49:31.000Z</time></trkpt>
        <trkpt lat="28.249883" lon="105.221358"><ele>732.1471</ele><time>2026-05-30T22:49:35.000Z</time></trkpt>
        <trkpt lat="28.249934" lon="105.221355"><ele>731.13446</ele><time>2026-05-30T22:49:39.000Z</time></trkpt>
        <trkpt lat="28.249985" lon="105.221337"><ele>729.46545</ele><time>2026-05-30T22:49:44.000Z</time></trkpt>
        <trkpt lat="28.250038" lon="105.221369"><ele>729.7952</ele><time>2026-05-30T22:49:49.000Z</time></trkpt>
        <trkpt lat="28.250074" lon="105.221416"><ele>731.22424</ele><time>2026-05-30T22:49:52.000Z</time></trkpt>
        <trkpt lat="28.250082" lon="105.221477"><ele>731.1223</ele><time>2026-05-30T22:49:56.000Z</time></trkpt>
        <trkpt lat="28.250042" lon="105.221546"><ele>728.1408</ele><time>2026-05-30T22:50:06.000Z</time></trkpt>
        <trkpt lat="28.249987" lon="105.221562"><ele>730.178</ele><time>2026-05-30T22:50:10.000Z</time></trkpt>
        <trkpt lat="28.249944" lon="105.221601"><ele>730.8103</ele><time>2026-05-30T22:50:14.000Z</time></trkpt>
        <trkpt lat="28.249907" lon="105.221642"><ele>731.9861</ele><time>2026-05-30T22:50:19.000Z</time></trkpt>
        <trkpt lat="28.249865" lon="105.221671"><ele>732.5926</ele><time>2026-05-30T22:50:24.000Z</time></trkpt>
        <trkpt lat="28.249833" lon="105.22171"><ele>733.1217</ele><time>2026-05-30T22:50:29.000Z</time></trkpt>
        <trkpt lat="28.249797" lon="105.221752"><ele>732.49255</ele><time>2026-05-30T22:50:33.000Z</time></trkpt>
        <trkpt lat="28.249766" lon="105.221809"><ele>732.2438</ele><time>2026-05-30T22:50:38.000Z</time></trkpt>
        <trkpt lat="28.249727" lon="105.221839"><ele>731.30597</ele><time>2026-05-30T22:50:41.000Z</time></trkpt>
        <trkpt lat="28.249689" lon="105.221877"><ele>729.83307</ele><time>2026-05-30T22:50:45.000Z</time></trkpt>
        <trkpt lat="28.249652" lon="105.221922"><ele>730.0872</ele><time>2026-05-30T22:50:50.000Z</time></trkpt>
        <trkpt lat="28.249613" lon="105.221966"><ele>730.4675</ele><time>2026-05-30T22:50:53.000Z</time></trkpt>
        <trkpt lat="28.249591" lon="105.222031"><ele>729.6107</ele><time>2026-05-30T22:50:56.000Z</time></trkpt>
        <trkpt lat="28.24958" lon="105.222087"><ele>732.5275</ele><time>2026-05-30T22:50:59.000Z</time></trkpt>
        <trkpt lat="28.249576" lon="105.222144"><ele>731.52313</ele><time>2026-05-30T22:51:02.000Z</time></trkpt>
        <trkpt lat="28.249582" lon="105.222203"><ele>731.25446</ele><time>2026-05-30T22:51:06.000Z</time></trkpt>
        <trkpt lat="28.249594" lon="105.222261"><ele>731.7181</ele><time>2026-05-30T22:51:09.000Z</time></trkpt>
        <trkpt lat="28.249606" lon="105.222313"><ele>731.66815</ele><time>2026-05-30T22:51:12.000Z</time></trkpt>
        <trkpt lat="28.249641" lon="105.222364"><ele>731.4004</ele><time>2026-05-30T22:51:16.000Z</time></trkpt>
        <trkpt lat="28.24968" lon="105.222393"><ele>730.27856</ele><time>2026-05-30T22:51:22.000Z</time></trkpt>
        <trkpt lat="28.249705" lon="105.222441"><ele>728.1275</ele><time>2026-05-30T22:51:28.000Z</time></trkpt>
        <trkpt lat="28.249733" lon="105.222491"><ele>728.61896</ele><time>2026-05-30T22:51:34.000Z</time></trkpt>
        <trkpt lat="28.249764" lon="105.222534"><ele>725.6878</ele><time>2026-05-30T22:51:42.000Z</time></trkpt>
        <trkpt lat="28.249776" lon="105.222597"><ele>726.2125</ele><time>2026-05-30T22:51:51.000Z</time></trkpt>
        <trkpt lat="28.249771" lon="105.222654"><ele>726.307</ele><time>2026-05-30T22:51:56.000Z</time></trkpt>
        <trkpt lat="28.249755" lon="105.222722"><ele>727.92523</ele><time>2026-05-30T22:52:07.000Z</time></trkpt>
        <trkpt lat="28.249718" lon="105.222752"><ele>730.374</ele><time>2026-05-30T22:52:10.000Z</time></trkpt>
        <trkpt lat="28.249706" lon="105.22282"><ele>732.9597</ele><time>2026-05-30T22:52:14.000Z</time></trkpt>
        <trkpt lat="28.249675" lon="105.222863"><ele>733.47974</ele><time>2026-05-30T22:52:19.000Z</time></trkpt>
        <trkpt lat="28.249646" lon="105.222909"><ele>736.0253</ele><time>2026-05-30T22:52:23.000Z</time></trkpt>
        <trkpt lat="28.24966" lon="105.222964"><ele>735.55884</ele><time>2026-05-30T22:52:26.000Z</time></trkpt>
        <trkpt lat="28.249672" lon="105.223026"><ele>734.4052</ele><time>2026-05-30T22:52:31.000Z</time></trkpt>
        <trkpt lat="28.249678" lon="105.223084"><ele>733.3897</ele><time>2026-05-30T22:52:35.000Z</time></trkpt>
        <trkpt lat="28.249708" lon="105.223139"><ele>732.6736</ele><time>2026-05-30T22:52:39.000Z</time></trkpt>
        <trkpt lat="28.249725" lon="105.223189"><ele>730.9225</ele><time>2026-05-30T22:52:43.000Z</time></trkpt>
        <trkpt lat="28.249751" lon="105.223234"><ele>728.60016</ele><time>2026-05-30T22:52:47.000Z</time></trkpt>
        <trkpt lat="28.249785" lon="105.223288"><ele>725.7628</ele><time>2026-05-30T22:52:51.000Z</time></trkpt>
        <trkpt lat="28.249804" lon="105.223335"><ele>724.198</ele><time>2026-05-30T22:52:54.000Z</time></trkpt>
        <trkpt lat="28.249829" lon="105.223393"><ele>722.4723</ele><time>2026-05-30T22:52:59.000Z</time></trkpt>
        <trkpt lat="28.249833" lon="105.223454"><ele>721.3831</ele><time>2026-05-30T22:53:03.000Z</time></trkpt>
        <trkpt lat="28.249811" lon="105.22351"><ele>721.47925</ele><time>2026-05-30T22:53:07.000Z</time></trkpt>
        <trkpt lat="28.249798" lon="105.223565"><ele>721.67584</ele><time>2026-05-30T22:53:11.000Z</time></trkpt>
        <trkpt lat="28.24978" lon="105.223612"><ele>721.2663</ele><time>2026-05-30T22:53:18.000Z</time></trkpt>
        <trkpt lat="28.249782" lon="105.223676"><ele>720.79944</ele><time>2026-05-30T22:53:23.000Z</time></trkpt>
        <trkpt lat="28.249765" lon="105.223734"><ele>720.2274</ele><time>2026-05-30T22:53:28.000Z</time></trkpt>
        <trkpt lat="28.249752" lon="105.223788"><ele>721.09064</ele><time>2026-05-30T22:53:32.000Z</time></trkpt>
        <trkpt lat="28.249721" lon="105.223828"><ele>721.74194</ele><time>2026-05-30T22:53:37.000Z</time></trkpt>
        <trkpt lat="28.249679" lon="105.22385"><ele>721.9535</ele><time>2026-05-30T22:53:41.000Z</time></trkpt>
        <trkpt lat="28.249653" lon="105.223899"><ele>721.97876</ele><time>2026-05-30T22:53:46.000Z</time></trkpt>
        <trkpt lat="28.249644" lon="105.223956"><ele>721.87634</ele><time>2026-05-30T22:53:51.000Z</time></trkpt>
        <trkpt lat="28.249632" lon="105.224017"><ele>721.37683</ele><time>2026-05-30T22:53:55.000Z</time></trkpt>
        <trkpt lat="28.249642" lon="105.224069"><ele>720.82855</ele><time>2026-05-30T22:53:59.000Z</time></trkpt>
        <trkpt lat="28.24965" lon="105.224142"><ele>719.3631</ele><time>2026-05-30T22:54:02.000Z</time></trkpt>
        <trkpt lat="28.249692" lon="105.22418"><ele>717.9139</ele><time>2026-05-30T22:54:08.000Z</time></trkpt>
        <trkpt lat="28.249718" lon="105.224228"><ele>717.8915</ele><time>2026-05-30T22:54:11.000Z</time></trkpt>
        <trkpt lat="28.249758" lon="105.224261"><ele>716.39014</ele><time>2026-05-30T22:54:23.000Z</time></trkpt>
        <trkpt lat="28.249811" lon="105.224284"><ele>715.663</ele><time>2026-05-30T22:54:27.000Z</time></trkpt>
        <trkpt lat="28.24986" lon="105.224288"><ele>714.82526</ele><time>2026-05-30T22:54:30.000Z</time></trkpt>
        <trkpt lat="28.249905" lon="105.224329"><ele>714.9973</ele><time>2026-05-30T22:54:33.000Z</time></trkpt>
        <trkpt lat="28.249944" lon="105.224356"><ele>713.98883</ele><time>2026-05-30T22:54:35.000Z</time></trkpt>
        <trkpt lat="28.249988" lon="105.224392"><ele>714.0016</ele><time>2026-05-30T22:54:38.000Z</time></trkpt>
        <trkpt lat="28.250028" lon="105.224431"><ele>711.44073</ele><time>2026-05-30T22:54:41.000Z</time></trkpt>
        <trkpt lat="28.250074" lon="105.224451"><ele>709.82764</ele><time>2026-05-30T22:54:44.000Z</time></trkpt>
        <trkpt lat="28.250119" lon="105.224488"><ele>707.1927</ele><time>2026-05-30T22:54:49.000Z</time></trkpt>
        <trkpt lat="28.25017" lon="105.224509"><ele>703.75397</ele><time>2026-05-30T22:54:58.000Z</time></trkpt>
        <trkpt lat="28.250208" lon="105.224538"><ele>702.06635</ele><time>2026-05-30T22:55:05.000Z</time></trkpt>
        <trkpt lat="28.250239" lon="105.22459"><ele>699.6694</ele><time>2026-05-30T22:55:13.000Z</time></trkpt>
        <trkpt lat="28.250283" lon="105.224621"><ele>696.384</ele><time>2026-05-30T22:55:21.000Z</time></trkpt>
        <trkpt lat="28.250259" lon="105.224668"><ele>695.78986</ele><time>2026-05-30T22:55:25.000Z</time></trkpt>
        <trkpt lat="28.250226" lon="105.224705"><ele>696.1272</ele><time>2026-05-30T22:55:32.000Z</time></trkpt>
        <trkpt lat="28.250253" lon="105.224751"><ele>694.81934</ele><time>2026-05-30T22:55:38.000Z</time></trkpt>
        <trkpt lat="28.2503" lon="105.224787"><ele>693.4219</ele><time>2026-05-30T22:55:44.000Z</time></trkpt>
        <trkpt lat="28.250336" lon="105.224821"><ele>691.8316</ele><time>2026-05-30T22:55:50.000Z</time></trkpt>
        <trkpt lat="28.250391" lon="105.224791"><ele>689.9671</ele><time>2026-05-30T22:55:54.000Z</time></trkpt>
        <trkpt lat="28.250437" lon="105.224763"><ele>687.32434</ele><time>2026-05-30T22:55:57.000Z</time></trkpt>
        <trkpt lat="28.250491" lon="105.22474"><ele>686.6207</ele><time>2026-05-30T22:56:04.000Z</time></trkpt>
        <trkpt lat="28.250533" lon="105.224716"><ele>684.74036</ele><time>2026-05-30T22:56:10.000Z</time></trkpt>
        <trkpt lat="28.250571" lon="105.22468"><ele>684.9464</ele><time>2026-05-30T22:56:13.000Z</time></trkpt>
        <trkpt lat="28.250609" lon="105.224651"><ele>683.65796</ele><time>2026-05-30T22:56:19.000Z</time></trkpt>
        <trkpt lat="28.250653" lon="105.224674"><ele>681.70337</ele><time>2026-05-30T22:56:26.000Z</time></trkpt>
        <trkpt lat="28.250698" lon="105.224663"><ele>681.05725</ele><time>2026-05-30T22:56:43.000Z</time></trkpt>
        <trkpt lat="28.250756" lon="105.2247"><ele>678.9783</ele><time>2026-05-30T22:56:48.000Z</time></trkpt>
        <trkpt lat="28.25081" lon="105.224709"><ele>679.1569</ele><time>2026-05-30T22:56:51.000Z</time></trkpt>
        <trkpt lat="28.25086" lon="105.224694"><ele>678.56964</ele><time>2026-05-30T22:56:56.000Z</time></trkpt>
        <trkpt lat="28.250909" lon="105.224665"><ele>677.91864</ele><time>2026-05-30T22:57:02.000Z</time></trkpt>
        <trkpt lat="28.250956" lon="105.224637"><ele>678.16974</ele><time>2026-05-30T22:57:07.000Z</time></trkpt>
        <trkpt lat="28.250997" lon="105.224612"><ele>677.9827</ele><time>2026-05-30T22:57:11.000Z</time></trkpt>
        <trkpt lat="28.251043" lon="105.224584"><ele>677.48016</ele><time>2026-05-30T22:57:16.000Z</time></trkpt>
        <trkpt lat="28.251084" lon="105.224546"><ele>676.8323</ele><time>2026-05-30T22:57:21.000Z</time></trkpt>
        <trkpt lat="28.251108" lon="105.2245"><ele>676.7783</ele><time>2026-05-30T22:57:25.000Z</time></trkpt>
        <trkpt lat="28.251124" lon="105.224441"><ele>676.3538</ele><time>2026-05-30T22:57:30.000Z</time></trkpt>
        <trkpt lat="28.251125" lon="105.224384"><ele>675.8272</ele><time>2026-05-30T22:57:34.000Z</time></trkpt>
        <trkpt lat="28.251114" lon="105.224332"><ele>675.1939</ele><time>2026-05-30T22:57:38.000Z</time></trkpt>
        <trkpt lat="28.251094" lon="105.224285"><ele>674.052</ele><time>2026-05-30T22:57:42.000Z</time></trkpt>
        <trkpt lat="28.251061" lon="105.224245"><ele>674.3137</ele><time>2026-05-30T22:57:46.000Z</time></trkpt>
        <trkpt lat="28.251033" lon="105.224199"><ele>673.021</ele><time>2026-05-30T22:57:50.000Z</time></trkpt>
        <trkpt lat="28.250999" lon="105.224145"><ele>673.2896</ele><time>2026-05-30T22:57:54.000Z</time></trkpt>
        <trkpt lat="28.250979" lon="105.224095"><ele>673.9096</ele><time>2026-05-30T22:57:57.000Z</time></trkpt>
        <trkpt lat="28.250969" lon="105.224044"><ele>674.0174</ele><time>2026-05-30T22:58:10.000Z</time></trkpt>
        <trkpt lat="28.250957" lon="105.223992"><ele>674.58435</ele><time>2026-05-30T22:58:56.000Z</time></trkpt>
        <trkpt lat="28.250943" lon="105.223942"><ele>673.1484</ele><time>2026-05-30T22:59:02.000Z</time></trkpt>
        <trkpt lat="28.250925" lon="105.223892"><ele>672.89166</ele><time>2026-05-30T22:59:07.000Z</time></trkpt>
        <trkpt lat="28.250909" lon="105.223839"><ele>671.4861</ele><time>2026-05-30T22:59:12.000Z</time></trkpt>
        <trkpt lat="28.250886" lon="105.223791"><ele>670.51324</ele><time>2026-05-30T22:59:16.000Z</time></trkpt>
        <trkpt lat="28.250905" lon="105.223843"><ele>670.01904</ele><time>2026-05-30T22:59:37.000Z</time></trkpt>
        <trkpt lat="28.250909" lon="105.223894"><ele>671.76526</ele><time>2026-05-30T22:59:40.000Z</time></trkpt>
        <trkpt lat="28.250935" lon="105.223956"><ele>672.58887</ele><time>2026-05-30T22:59:42.000Z</time></trkpt>
      </trkseg>
      <trkseg>
        <trkpt lat="28.250835" lon="105.223986"><ele>675.2182</ele><time>2026-05-30T23:00:07.000Z</time></trkpt>
        <trkpt lat="28.250817" lon="105.22393"><ele>674.3573</ele><time>2026-05-30T23:00:09.000Z</time></trkpt>
        <trkpt lat="28.250803" lon="105.223878"><ele>674.2304</ele><time>2026-05-30T23:00:14.000Z</time></trkpt>
        <trkpt lat="28.250785" lon="105.223816"><ele>672.072</ele><time>2026-05-30T23:00:18.000Z</time></trkpt>
        <trkpt lat="28.25077" lon="105.223751"><ele>671.72345</ele><time>2026-05-30T23:00:20.000Z</time></trkpt>
        <trkpt lat="28.250744" lon="105.223693"><ele>670.5507</ele><time>2026-05-30T23:00:22.000Z</time></trkpt>
        <trkpt lat="28.250714" lon="105.223651"><ele>671.0778</ele><time>2026-05-30T23:00:26.000Z</time></trkpt>
        <trkpt lat="28.250685" lon="105.223608"><ele>670.6667</ele><time>2026-05-30T23:00:31.000Z</time></trkpt>
        <trkpt lat="28.250666" lon="105.223551"><ele>670.206</ele><time>2026-05-30T23:00:35.000Z</time></trkpt>
        <trkpt lat="28.250648" lon="105.22349"><ele>670.3047</ele><time>2026-05-30T23:00:39.000Z</time></trkpt>
        <trkpt lat="28.250653" lon="105.223439"><ele>669.4327</ele><time>2026-05-30T23:00:43.000Z</time></trkpt>
        <trkpt lat="28.250654" lon="105.223386"><ele>669.3684</ele><time>2026-05-30T23:00:46.000Z</time></trkpt>
        <trkpt lat="28.250648" lon="105.223332"><ele>668.03265</ele><time>2026-05-30T23:00:50.000Z</time></trkpt>
        <trkpt lat="28.250629" lon="105.223278"><ele>666.8368</ele><time>2026-05-30T23:00:54.000Z</time></trkpt>
        <trkpt lat="28.250623" lon="105.223221"><ele>666.80597</ele><time>2026-05-30T23:00:58.000Z</time></trkpt>
        <trkpt lat="28.250617" lon="105.223168"><ele>666.8066</ele><time>2026-05-30T23:01:08.000Z</time></trkpt>
        <trkpt lat="28.250625" lon="105.223109"><ele>666.7101</ele><time>2026-05-30T23:01:12.000Z</time></trkpt>
        <trkpt lat="28.250638" lon="105.22306"><ele>664.0308</ele><time>2026-05-30T23:01:17.000Z</time></trkpt>
        <trkpt lat="28.25064" lon="105.223004"><ele>664.9295</ele><time>2026-05-30T23:01:21.000Z</time></trkpt>
        <trkpt lat="28.250636" lon="105.222949"><ele>664.38666</ele><time>2026-05-30T23:01:24.000Z</time></trkpt>
        <trkpt lat="28.250685" lon="105.222904"><ele>665.3667</ele><time>2026-05-30T23:01:26.000Z</time></trkpt>
        <trkpt lat="28.250732" lon="105.222883"><ele>665.6145</ele><time>2026-05-30T23:01:29.000Z</time></trkpt>
        <trkpt lat="28.25078" lon="105.22288"><ele>665.3566</ele><time>2026-05-30T23:01:32.000Z</time></trkpt>
        <trkpt lat="28.250829" lon="105.222913"><ele>663.6895</ele><time>2026-05-30T23:01:36.000Z</time></trkpt>
        <trkpt lat="28.250873" lon="105.222932"><ele>663.13</ele><time>2026-05-30T23:01:40.000Z</time></trkpt>
        <trkpt lat="28.250918" lon="105.222922"><ele>658.2982</ele><time>2026-05-30T23:01:46.000Z</time></trkpt>
        <trkpt lat="28.250959" lon="105.222894"><ele>659.05585</ele><time>2026-05-30T23:01:50.000Z</time></trkpt>
        <trkpt lat="28.251005" lon="105.222862"><ele>657.33936</ele><time>2026-05-30T23:01:55.000Z</time></trkpt>
        <trkpt lat="28.251049" lon="105.222838"><ele>657.62494</ele><time>2026-05-30T23:01:59.000Z</time></trkpt>
        <trkpt lat="28.251098" lon="105.222816"><ele>655.65356</ele><time>2026-05-30T23:02:03.000Z</time></trkpt>
        <trkpt lat="28.251149" lon="105.222782"><ele>655.8748</ele><time>2026-05-30T23:02:08.000Z</time></trkpt>
        <trkpt lat="28.251182" lon="105.222747"><ele>654.2353</ele><time>2026-05-30T23:02:11.000Z</time></trkpt>
        <trkpt lat="28.251231" lon="105.22272"><ele>655.4609</ele><time>2026-05-30T23:02:16.000Z</time></trkpt>
        <trkpt lat="28.251276" lon="105.222698"><ele>655.1775</ele><time>2026-05-30T23:02:20.000Z</time></trkpt>
        <trkpt lat="28.251321" lon="105.222684"><ele>654.2693</ele><time>2026-05-30T23:02:24.000Z</time></trkpt>
        <trkpt lat="28.251364" lon="105.222669"><ele>654.64044</ele><time>2026-05-30T23:02:28.000Z</time></trkpt>
        <trkpt lat="28.251395" lon="105.222625"><ele>654.56915</ele><time>2026-05-30T23:02:33.000Z</time></trkpt>
        <trkpt lat="28.251419" lon="105.222579"><ele>655.5436</ele><time>2026-05-30T23:02:37.000Z</time></trkpt>
        <trkpt lat="28.251453" lon="105.222533"><ele>656.33136</ele><time>2026-05-30T23:02:44.000Z</time></trkpt>
        <trkpt lat="28.251446" lon="105.222469"><ele>655.511</ele><time>2026-05-30T23:02:49.000Z</time></trkpt>
        <trkpt lat="28.251451" lon="105.222408"><ele>655.3926</ele><time>2026-05-30T23:02:53.000Z</time></trkpt>
        <trkpt lat="28.25146" lon="105.222348"><ele>655.36975</ele><time>2026-05-30T23:02:58.000Z</time></trkpt>
        <trkpt lat="28.251457" lon="105.222278"><ele>655.6875</ele><time>2026-05-30T23:03:02.000Z</time></trkpt>
        <trkpt lat="28.251474" lon="105.222224"><ele>655.7011</ele><time>2026-05-30T23:03:06.000Z</time></trkpt>
        <trkpt lat="28.251499" lon="105.222176"><ele>655.1409</ele><time>2026-05-30T23:03:10.000Z</time></trkpt>
        <trkpt lat="28.251529" lon="105.22213"><ele>653.27594</ele><time>2026-05-30T23:03:14.000Z</time></trkpt>
        <trkpt lat="28.251552" lon="105.222081"><ele>652.4764</ele><time>2026-05-30T23:03:18.000Z</time></trkpt>
        <trkpt lat="28.251572" lon="105.222032"><ele>651.23505</ele><time>2026-05-30T23:03:22.000Z</time></trkpt>
        <trkpt lat="28.251587" lon="105.221976"><ele>650.77606</ele><time>2026-05-30T23:03:26.000Z</time></trkpt>
        <trkpt lat="28.251601" lon="105.221915"><ele>649.08514</ele><time>2026-05-30T23:03:31.000Z</time></trkpt>
        <trkpt lat="28.251656" lon="105.221912"><ele>647.2582</ele><time>2026-05-30T23:03:37.000Z</time></trkpt>
        <trkpt lat="28.251717" lon="105.221903"><ele>645.50635</ele><time>2026-05-30T23:03:41.000Z</time></trkpt>
        <trkpt lat="28.251764" lon="105.221894"><ele>644.107</ele><time>2026-05-30T23:03:44.000Z</time></trkpt>
        <trkpt lat="28.251816" lon="105.221895"><ele>643.0248</ele><time>2026-05-30T23:03:47.000Z</time></trkpt>
        <trkpt lat="28.251861" lon="105.221895"><ele>641.98987</ele><time>2026-05-30T23:03:51.000Z</time></trkpt>
        <trkpt lat="28.25191" lon="105.221872"><ele>639.9115</ele><time>2026-05-30T23:03:58.000Z</time></trkpt>
        <trkpt lat="28.251958" lon="105.221867"><ele>638.6382</ele><time>2026-05-30T23:04:03.000Z</time></trkpt>
        <trkpt lat="28.252013" lon="105.221872"><ele>637.7257</ele><time>2026-05-30T23:04:08.000Z</time></trkpt>
        <trkpt lat="28.252062" lon="105.221885"><ele>636.2679</ele><time>2026-05-30T23:04:12.000Z</time></trkpt>
        <trkpt lat="28.252114" lon="105.221914"><ele>635.4819</ele><time>2026-05-30T23:04:16.000Z</time></trkpt>
        <trkpt lat="28.252157" lon="105.22195"><ele>635.7578</ele><time>2026-05-30T23:04:20.000Z</time></trkpt>
        <trkpt lat="28.252189" lon="105.221994"><ele>634.89294</ele><time>2026-05-30T23:04:25.000Z</time></trkpt>
        <trkpt lat="28.25221" lon="105.222049"><ele>633.0272</ele><time>2026-05-30T23:04:31.000Z</time></trkpt>
        <trkpt lat="28.252204" lon="105.222105"><ele>633.5241</ele><time>2026-05-30T23:04:37.000Z</time></trkpt>
        <trkpt lat="28.252202" lon="105.222161"><ele>632.59503</ele><time>2026-05-30T23:04:44.000Z</time></trkpt>
        <trkpt lat="28.25225" lon="105.22215"><ele>630.861</ele><time>2026-05-30T23:04:55.000Z</time></trkpt>
        <trkpt lat="28.252284" lon="105.222111"><ele>629.97626</ele><time>2026-05-30T23:05:00.000Z</time></trkpt>
        <trkpt lat="28.252319" lon="105.222056"><ele>629.4288</ele><time>2026-05-30T23:05:03.000Z</time></trkpt>
        <trkpt lat="28.252358" lon="105.222015"><ele>628.4977</ele><time>2026-05-30T23:05:06.000Z</time></trkpt>
        <trkpt lat="28.252404" lon="105.221967"><ele>627.94696</ele><time>2026-05-30T23:05:09.000Z</time></trkpt>
        <trkpt lat="28.252451" lon="105.221966"><ele>627.7644</ele><time>2026-05-30T23:05:14.000Z</time></trkpt>
        <trkpt lat="28.252493" lon="105.221994"><ele>626.6315</ele><time>2026-05-30T23:05:18.000Z</time></trkpt>
        <trkpt lat="28.252539" lon="105.222018"><ele>625.6651</ele><time>2026-05-30T23:05:21.000Z</time></trkpt>
        <trkpt lat="28.252585" lon="105.222037"><ele>626.05676</ele><time>2026-05-30T23:05:25.000Z</time></trkpt>
        <trkpt lat="28.252635" lon="105.222051"><ele>625.2511</ele><time>2026-05-30T23:05:31.000Z</time></trkpt>
        <trkpt lat="28.252678" lon="105.222074"><ele>624.34894</ele><time>2026-05-30T23:05:37.000Z</time></trkpt>
        <trkpt lat="28.252732" lon="105.222081"><ele>623.9287</ele><time>2026-05-30T23:06:08.000Z</time></trkpt>
        <trkpt lat="28.252782" lon="105.222072"><ele>623.83246</ele><time>2026-05-30T23:06:13.000Z</time></trkpt>
        <trkpt lat="28.252813" lon="105.222036"><ele>623.5074</ele><time>2026-05-30T23:06:17.000Z</time></trkpt>
        <trkpt lat="28.25286" lon="105.222053"><ele>621.88727</ele><time>2026-05-30T23:06:26.000Z</time></trkpt>
        <trkpt lat="28.252902" lon="105.222027"><ele>620.7238</ele><time>2026-05-30T23:06:32.000Z</time></trkpt>
        <trkpt lat="28.252928" lon="105.221982"><ele>619.2823</ele><time>2026-05-30T23:06:37.000Z</time></trkpt>
        <trkpt lat="28.252973" lon="105.221998"><ele>618.425</ele><time>2026-05-30T23:06:39.000Z</time></trkpt>
        <trkpt lat="28.25303" lon="105.222002"><ele>616.76697</ele><time>2026-05-30T23:06:42.000Z</time></trkpt>
        <trkpt lat="28.253083" lon="105.222001"><ele>615.95197</ele><time>2026-05-30T23:07:00.000Z</time></trkpt>
        <trkpt lat="28.253123" lon="105.222052"><ele>615.4372</ele><time>2026-05-30T23:07:07.000Z</time></trkpt>
        <trkpt lat="28.253148" lon="105.222114"><ele>613.8925</ele><time>2026-05-30T23:07:10.000Z</time></trkpt>
        <trkpt lat="28.253129" lon="105.222161"><ele>614.9723</ele><time>2026-05-30T23:07:13.000Z</time></trkpt>
        <trkpt lat="28.253186" lon="105.22218"><ele>612.2494</ele><time>2026-05-30T23:07:18.000Z</time></trkpt>
        <trkpt lat="28.253235" lon="105.22222"><ele>610.92664</ele><time>2026-05-30T23:07:21.000Z</time></trkpt>
        <trkpt lat="28.253266" lon="105.222262"><ele>610.414</ele><time>2026-05-30T23:07:24.000Z</time></trkpt>
        <trkpt lat="28.253284" lon="105.222311"><ele>610.31726</ele><time>2026-05-30T23:07:27.000Z</time></trkpt>
        <trkpt lat="28.253265" lon="105.22237"><ele>609.80853</ele><time>2026-05-30T23:07:31.000Z</time></trkpt>
        <trkpt lat="28.253234" lon="105.222413"><ele>609.4879</ele><time>2026-05-30T23:07:35.000Z</time></trkpt>
        <trkpt lat="28.253191" lon="105.222447"><ele>608.8557</ele><time>2026-05-30T23:07:39.000Z</time></trkpt>
        <trkpt lat="28.253154" lon="105.22248"><ele>608.52924</ele><time>2026-05-30T23:07:43.000Z</time></trkpt>
        <trkpt lat="28.253107" lon="105.222516"><ele>609.59784</ele><time>2026-05-30T23:07:49.000Z</time></trkpt>
        <trkpt lat="28.253063" lon="105.222535"><ele>611.43243</ele><time>2026-05-30T23:07:57.000Z</time></trkpt>
        <trkpt lat="28.253112" lon="105.222516"><ele>609.5949</ele><time>2026-05-30T23:08:18.000Z</time></trkpt>
        <trkpt lat="28.253157" lon="105.222495"><ele>608.36017</ele><time>2026-05-30T23:08:25.000Z</time></trkpt>
        <trkpt lat="28.253201" lon="105.222462"><ele>607.40967</ele><time>2026-05-30T23:08:29.000Z</time></trkpt>
        <trkpt lat="28.253251" lon="105.222436"><ele>606.9093</ele><time>2026-05-30T23:08:36.000Z</time></trkpt>
        <trkpt lat="28.253284" lon="105.222398"><ele>606.4262</ele><time>2026-05-30T23:08:39.000Z</time></trkpt>
        <trkpt lat="28.253329" lon="105.22236"><ele>604.15405</ele><time>2026-05-30T23:08:43.000Z</time></trkpt>
        <trkpt lat="28.253379" lon="105.222341"><ele>603.2305</ele><time>2026-05-30T23:08:46.000Z</time></trkpt>
        <trkpt lat="28.253377" lon="105.222273"><ele>601.33344</ele><time>2026-05-30T23:08:50.000Z</time></trkpt>
        <trkpt lat="28.253369" lon="105.2222"><ele>602.817</ele><time>2026-05-30T23:08:53.000Z</time></trkpt>
        <trkpt lat="28.253389" lon="105.222136"><ele>603.6201</ele><time>2026-05-30T23:08:58.000Z</time></trkpt>
        <trkpt lat="28.253432" lon="105.222097"><ele>603.3023</ele><time>2026-05-30T23:09:02.000Z</time></trkpt>
        <trkpt lat="28.253478" lon="105.222097"><ele>601.4672</ele><time>2026-05-30T23:09:15.000Z</time></trkpt>
        <trkpt lat="28.253503" lon="105.222147"><ele>597.76685</ele><time>2026-05-30T23:09:24.000Z</time></trkpt>
        <trkpt lat="28.253526" lon="105.222194"><ele>596.0986</ele><time>2026-05-30T23:09:30.000Z</time></trkpt>
        <trkpt lat="28.253572" lon="105.222229"><ele>595.23956</ele><time>2026-05-30T23:09:37.000Z</time></trkpt>
        <trkpt lat="28.253613" lon="105.222257"><ele>593.1304</ele><time>2026-05-30T23:09:42.000Z</time></trkpt>
        <trkpt lat="28.253645" lon="105.222296"><ele>591.81036</ele><time>2026-05-30T23:09:46.000Z</time></trkpt>
        <trkpt lat="28.253668" lon="105.222341"><ele>591.4342</ele><time>2026-05-30T23:09:50.000Z</time></trkpt>
        <trkpt lat="28.253706" lon="105.222374"><ele>592.8298</ele><time>2026-05-30T23:09:55.000Z</time></trkpt>
        <trkpt lat="28.253705" lon="105.222426"><ele>589.76337</ele><time>2026-05-30T23:10:00.000Z</time></trkpt>
        <trkpt lat="28.253751" lon="105.222437"><ele>589.06433</ele><time>2026-05-30T23:10:04.000Z</time></trkpt>
        <trkpt lat="28.253784" lon="105.222391"><ele>588.6357</ele><time>2026-05-30T23:10:08.000Z</time></trkpt>
        <trkpt lat="28.253835" lon="105.222395"><ele>588.4628</ele><time>2026-05-30T23:10:13.000Z</time></trkpt>
        <trkpt lat="28.253876" lon="105.222415"><ele>586.9766</ele><time>2026-05-30T23:10:56.000Z</time></trkpt>
        <trkpt lat="28.253908" lon="105.222378"><ele>586.1511</ele><time>2026-05-30T23:11:40.000Z</time></trkpt>
        <trkpt lat="28.253956" lon="105.22236"><ele>584.08905</ele><time>2026-05-30T23:11:56.000Z</time></trkpt>
        <trkpt lat="28.253992" lon="105.222393"><ele>582.9501</ele><time>2026-05-30T23:11:59.000Z</time></trkpt>
        <trkpt lat="28.254039" lon="105.222407"><ele>582.00836</ele><time>2026-05-30T23:12:02.000Z</time></trkpt>
        <trkpt lat="28.254089" lon="105.222404"><ele>579.0285</ele><time>2026-05-30T23:12:11.000Z</time></trkpt>
        <trkpt lat="28.254147" lon="105.222375"><ele>579.00165</ele><time>2026-05-30T23:12:29.000Z</time></trkpt>
        <trkpt lat="28.254161" lon="105.222321"><ele>579.446</ele><time>2026-05-30T23:12:31.000Z</time></trkpt>
        <trkpt lat="28.254194" lon="105.222286"><ele>578.6941</ele><time>2026-05-30T23:12:34.000Z</time></trkpt>
        <trkpt lat="28.254215" lon="105.222223"><ele>579.07263</ele><time>2026-05-30T23:12:38.000Z</time></trkpt>
        <trkpt lat="28.25425" lon="105.222177"><ele>578.4484</ele><time>2026-05-30T23:12:41.000Z</time></trkpt>
        <trkpt lat="28.254286" lon="105.22214"><ele>578.16516</ele><time>2026-05-30T23:12:44.000Z</time></trkpt>
        <trkpt lat="28.254331" lon="105.222103"><ele>577.9122</ele><time>2026-05-30T23:12:46.000Z</time></trkpt>
        <trkpt lat="28.254369" lon="105.222057"><ele>577.22327</ele><time>2026-05-30T23:12:48.000Z</time></trkpt>
        <trkpt lat="28.254407" lon="105.222012"><ele>575.9723</ele><time>2026-05-30T23:12:50.000Z</time></trkpt>
        <trkpt lat="28.25446" lon="105.221968"><ele>576.2859</ele><time>2026-05-30T23:12:52.000Z</time></trkpt>
        <trkpt lat="28.254492" lon="105.221929"><ele>575.39294</ele><time>2026-05-30T23:12:54.000Z</time></trkpt>
        <trkpt lat="28.25455" lon="105.22191"><ele>575.64453</ele><time>2026-05-30T23:12:57.000Z</time></trkpt>
        <trkpt lat="28.25458" lon="105.221863"><ele>574.38654</ele><time>2026-05-30T23:13:00.000Z</time></trkpt>
        <trkpt lat="28.254621" lon="105.221827"><ele>572.15906</ele><time>2026-05-30T23:13:04.000Z</time></trkpt>
        <trkpt lat="28.254678" lon="105.221791"><ele>571.56946</ele><time>2026-05-30T23:13:07.000Z</time></trkpt>
        <trkpt lat="28.254735" lon="105.221767"><ele>570.74774</ele><time>2026-05-30T23:13:11.000Z</time></trkpt>
        <trkpt lat="28.254786" lon="105.221774"><ele>568.74457</ele><time>2026-05-30T23:13:15.000Z</time></trkpt>
        <trkpt lat="28.254832" lon="105.221793"><ele>568.18384</ele><time>2026-05-30T23:13:18.000Z</time></trkpt>
        <trkpt lat="28.254883" lon="105.221813"><ele>566.83655</ele><time>2026-05-30T23:13:22.000Z</time></trkpt>
        <trkpt lat="28.254903" lon="105.22186"><ele>563.994</ele><time>2026-05-30T23:13:28.000Z</time></trkpt>
        <trkpt lat="28.25491" lon="105.221911"><ele>562.1144</ele><time>2026-05-30T23:13:33.000Z</time></trkpt>
        <trkpt lat="28.254957" lon="105.221919"><ele>560.2841</ele><time>2026-05-30T23:13:39.000Z</time></trkpt>
        <trkpt lat="28.255004" lon="105.221926"><ele>559.095</ele><time>2026-05-30T23:13:44.000Z</time></trkpt>
        <trkpt lat="28.255032" lon="105.221969"><ele>558.14514</ele><time>2026-05-30T23:13:57.000Z</time></trkpt>
        <trkpt lat="28.255074" lon="105.222011"><ele>556.6861</ele><time>2026-05-30T23:14:03.000Z</time></trkpt>
        <trkpt lat="28.255104" lon="105.22205"><ele>555.67816</ele><time>2026-05-30T23:14:10.000Z</time></trkpt>
        <trkpt lat="28.255122" lon="105.222105"><ele>554.2657</ele><time>2026-05-30T23:14:15.000Z</time></trkpt>
        <trkpt lat="28.255153" lon="105.222152"><ele>552.50885</ele><time>2026-05-30T23:14:21.000Z</time></trkpt>
        <trkpt lat="28.255179" lon="105.222201"><ele>551.1498</ele><time>2026-05-30T23:14:24.000Z</time></trkpt>
        <trkpt lat="28.255197" lon="105.222251"><ele>549.66656</ele><time>2026-05-30T23:14:27.000Z</time></trkpt>
        <trkpt lat="28.255218" lon="105.222299"><ele>548.7764</ele><time>2026-05-30T23:14:31.000Z</time></trkpt>
        <trkpt lat="28.255258" lon="105.222343"><ele>547.5732</ele><time>2026-05-30T23:14:36.000Z</time></trkpt>
        <trkpt lat="28.255282" lon="105.222386"><ele>546.9258</ele><time>2026-05-30T23:14:40.000Z</time></trkpt>
        <trkpt lat="28.255284" lon="105.222444"><ele>546.56793</ele><time>2026-05-30T23:14:46.000Z</time></trkpt>
        <trkpt lat="28.255283" lon="105.222392"><ele>546.82227</ele><time>2026-05-30T23:14:54.000Z</time></trkpt>
        <trkpt lat="28.255292" lon="105.222332"><ele>547.213</ele><time>2026-05-30T23:15:04.000Z</time></trkpt>
        <trkpt lat="28.2553" lon="105.222274"><ele>546.6228</ele><time>2026-05-30T23:15:39.000Z</time></trkpt>
        <trkpt lat="28.255299" lon="105.222222"><ele>546.9272</ele><time>2026-05-30T23:15:47.000Z</time></trkpt>
        <trkpt lat="28.25535" lon="105.222235"><ele>545.74207</ele><time>2026-05-30T23:16:08.000Z</time></trkpt>
        <trkpt lat="28.255403" lon="105.222229"><ele>544.0047</ele><time>2026-05-30T23:16:20.000Z</time></trkpt>
        <trkpt lat="28.255397" lon="105.222175"><ele>543.4742</ele><time>2026-05-30T23:16:24.000Z</time></trkpt>
        <trkpt lat="28.2554" lon="105.222115"><ele>543.4444</ele><time>2026-05-30T23:16:30.000Z</time></trkpt>
        <trkpt lat="28.255377" lon="105.222063"><ele>542.40436</ele><time>2026-05-30T23:16:35.000Z</time></trkpt>
        <trkpt lat="28.255363" lon="105.22201"><ele>542.0811</ele><time>2026-05-30T23:16:43.000Z</time></trkpt>
        <trkpt lat="28.255374" lon="105.221955"><ele>541.7352</ele><time>2026-05-30T23:16:54.000Z</time></trkpt>
        <trkpt lat="28.255376" lon="105.221891"><ele>541.105</ele><time>2026-05-30T23:16:59.000Z</time></trkpt>
        <trkpt lat="28.255416" lon="105.221917"><ele>539.7312</ele><time>2026-05-30T23:17:33.000Z</time></trkpt>
        <trkpt lat="28.255386" lon="105.221877"><ele>540.7501</ele><time>2026-05-30T23:17:54.000Z</time></trkpt>
        <trkpt lat="28.255383" lon="105.22182"><ele>540.7081</ele><time>2026-05-30T23:17:59.000Z</time></trkpt>
        <trkpt lat="28.255399" lon="105.221771"><ele>539.81433</ele><time>2026-05-30T23:18:07.000Z</time></trkpt>
        <trkpt lat="28.255439" lon="105.221746"><ele>537.2279</ele><time>2026-05-30T23:18:17.000Z</time></trkpt>
        <trkpt lat="28.255487" lon="105.221727"><ele>535.8746</ele><time>2026-05-30T23:18:40.000Z</time></trkpt>
        <trkpt lat="28.255543" lon="105.221727"><ele>534.5166</ele><time>2026-05-30T23:18:48.000Z</time></trkpt>
        <trkpt lat="28.255585" lon="105.221766"><ele>532.28827</ele><time>2026-05-30T23:18:54.000Z</time></trkpt>
        <trkpt lat="28.255616" lon="105.221807"><ele>532.69934</ele><time>2026-05-30T23:19:02.000Z</time></trkpt>
        <trkpt lat="28.255641" lon="105.22185"><ele>530.7276</ele><time>2026-05-30T23:19:10.000Z</time></trkpt>
        <trkpt lat="28.255676" lon="105.22189"><ele>531.76544</ele><time>2026-05-30T23:19:18.000Z</time></trkpt>
        <trkpt lat="28.255718" lon="105.22192"><ele>532.1218</ele><time>2026-05-30T23:19:24.000Z</time></trkpt>
        <trkpt lat="28.255766" lon="105.221947"><ele>530.96844</ele><time>2026-05-30T23:19:31.000Z</time></trkpt>
        <trkpt lat="28.255818" lon="105.221937"><ele>530.1299</ele><time>2026-05-30T23:19:44.000Z</time></trkpt>
        <trkpt lat="28.255861" lon="105.221959"><ele>528.61005</ele><time>2026-05-30T23:20:01.000Z</time></trkpt>
        <trkpt lat="28.255906" lon="105.221967"><ele>528.57117</ele><time>2026-05-30T23:21:04.000Z</time></trkpt>
        <trkpt lat="28.255928" lon="105.221917"><ele>528.0806</ele><time>2026-05-30T23:23:38.000Z</time></trkpt>
        <trkpt lat="28.255974" lon="105.221906"><ele>524.3009</ele><time>2026-05-30T23:24:00.000Z</time></trkpt>
        <trkpt lat="28.255946" lon="105.221857"><ele>523.0221</ele><time>2026-05-30T23:25:05.000Z</time></trkpt>
        <trkpt lat="28.255983" lon="105.221825"><ele>522.88916</ele><time>2026-05-30T23:25:15.000Z</time></trkpt>
        <trkpt lat="28.256006" lon="105.221875"><ele>521.21826</ele><time>2026-05-30T23:25:37.000Z</time></trkpt>
        <trkpt lat="28.255981" lon="105.221828"><ele>521.11017</ele><time>2026-05-30T23:25:50.000Z</time></trkpt>
        <trkpt lat="28.256003" lon="105.221779"><ele>520.94354</ele><time>2026-05-30T23:26:46.000Z</time></trkpt>
        <trkpt lat="28.256048" lon="105.221775"><ele>516.35144</ele><time>2026-05-30T23:27:36.000Z</time></trkpt>
        <trkpt lat="28.256102" lon="105.221788"><ele>513.8228</ele><time>2026-05-30T23:29:08.000Z</time></trkpt>
        <trkpt lat="28.256093" lon="105.221729"><ele>513.2392</ele><time>2026-05-30T23:29:38.000Z</time></trkpt>
        <trkpt lat="28.256088" lon="105.221675"><ele>509.80447</ele><time>2026-05-30T23:30:20.000Z</time></trkpt>
        <trkpt lat="28.256057" lon="105.221626"><ele>506.26004</ele><time>2026-05-30T23:30:49.000Z</time></trkpt>
        <trkpt lat="28.256063" lon="105.221569"><ele>505.3706</ele><time>2026-05-30T23:30:58.000Z</time></trkpt>
        <trkpt lat="28.256046" lon="105.221498"><ele>503.33295</ele><time>2026-05-30T23:31:07.000Z</time></trkpt>
        <trkpt lat="28.256075" lon="105.22155"><ele>502.46448</ele><time>2026-05-30T23:31:14.000Z</time></trkpt>
        <trkpt lat="28.256133" lon="105.221585"><ele>501.29187</ele><time>2026-05-30T23:31:21.000Z</time></trkpt>
        <trkpt lat="28.256181" lon="105.221583"><ele>501.42426</ele><time>2026-05-30T23:31:24.000Z</time></trkpt>
        <trkpt lat="28.256216" lon="105.221621"><ele>501.35403</ele><time>2026-05-30T23:31:29.000Z</time></trkpt>
        <trkpt lat="28.256253" lon="105.221671"><ele>500.77625</ele><time>2026-05-30T23:31:34.000Z</time></trkpt>
        <trkpt lat="28.256297" lon="105.221697"><ele>500.8915</ele><time>2026-05-30T23:31:39.000Z</time></trkpt>
        <trkpt lat="28.25634" lon="105.221723"><ele>498.76205</ele><time>2026-05-30T23:31:48.000Z</time></trkpt>
        <trkpt lat="28.256385" lon="105.221726"><ele>498.06226</ele><time>2026-05-30T23:32:00.000Z</time></trkpt>
        <trkpt lat="28.256422" lon="105.221764"><ele>496.6184</ele><time>2026-05-30T23:32:15.000Z</time></trkpt>
        <trkpt lat="28.256445" lon="105.221808"><ele>496.7395</ele><time>2026-05-30T23:32:20.000Z</time></trkpt>
        <trkpt lat="28.2565" lon="105.221834"><ele>495.902</ele><time>2026-05-30T23:32:26.000Z</time></trkpt>
        <trkpt lat="28.256531" lon="105.221887"><ele>495.8315</ele><time>2026-05-30T23:32:30.000Z</time></trkpt>
        <trkpt lat="28.256565" lon="105.221924"><ele>495.21167</ele><time>2026-05-30T23:32:33.000Z</time></trkpt>
        <trkpt lat="28.256603" lon="105.221985"><ele>495.20502</ele><time>2026-05-30T23:32:38.000Z</time></trkpt>
        <trkpt lat="28.256639" lon="105.222032"><ele>493.84955</ele><time>2026-05-30T23:32:44.000Z</time></trkpt>
        <trkpt lat="28.256667" lon="105.22208"><ele>493.36438</ele><time>2026-05-30T23:32:49.000Z</time></trkpt>
        <trkpt lat="28.256701" lon="105.222116"><ele>494.25986</ele><time>2026-05-30T23:32:56.000Z</time></trkpt>
        <trkpt lat="28.256734" lon="105.222152"><ele>495.10498</ele><time>2026-05-30T23:33:04.000Z</time></trkpt>
        <trkpt lat="28.256779" lon="105.222179"><ele>494.4837</ele><time>2026-05-30T23:33:11.000Z</time></trkpt>
        <trkpt lat="28.256825" lon="105.222195"><ele>494.01315</ele><time>2026-05-30T23:33:24.000Z</time></trkpt>
        <trkpt lat="28.25683" lon="105.22225"><ele>494.71744</ele><time>2026-05-30T23:33:30.000Z</time></trkpt>
        <trkpt lat="28.256824" lon="105.222306"><ele>494.78162</ele><time>2026-05-30T23:33:37.000Z</time></trkpt>
        <trkpt lat="28.256867" lon="105.222262"><ele>493.7891</ele><time>2026-05-30T23:33:58.000Z</time></trkpt>
        <trkpt lat="28.256854" lon="105.222312"><ele>493.27515</ele><time>2026-05-30T23:35:35.000Z</time></trkpt>
        <trkpt lat="28.256815" lon="105.222347"><ele>496.0667</ele><time>2026-05-30T23:35:46.000Z</time></trkpt>
        <trkpt lat="28.25685" lon="105.222401"><ele>496.30502</ele><time>2026-05-30T23:35:53.000Z</time></trkpt>
        <trkpt lat="28.256829" lon="105.222459"><ele>496.77197</ele><time>2026-05-30T23:36:03.000Z</time></trkpt>
        <trkpt lat="28.25682" lon="105.222509"><ele>496.33975</ele><time>2026-05-30T23:36:12.000Z</time></trkpt>
        <trkpt lat="28.256819" lon="105.222563"><ele>496.33643</ele><time>2026-05-30T23:36:18.000Z</time></trkpt>
        <trkpt lat="28.256788" lon="105.22261"><ele>496.6593</ele><time>2026-05-30T23:36:24.000Z</time></trkpt>
        <trkpt lat="28.256771" lon="105.222659"><ele>498.81314</ele><time>2026-05-30T23:36:32.000Z</time></trkpt>
        <trkpt lat="28.256817" lon="105.222636"><ele>496.66373</ele><time>2026-05-30T23:37:27.000Z</time></trkpt>
        <trkpt lat="28.256868" lon="105.222628"><ele>494.75418</ele><time>2026-05-30T23:37:32.000Z</time></trkpt>
        <trkpt lat="28.256921" lon="105.222606"><ele>492.98505</ele><time>2026-05-30T23:37:38.000Z</time></trkpt>
        <trkpt lat="28.25697" lon="105.222615"><ele>492.19412</ele><time>2026-05-30T23:37:45.000Z</time></trkpt>
        <trkpt lat="28.257017" lon="105.222637"><ele>489.45737</ele><time>2026-05-30T23:37:53.000Z</time></trkpt>
        <trkpt lat="28.257058" lon="105.222663"><ele>488.52814</ele><time>2026-05-30T23:37:58.000Z</time></trkpt>
        <trkpt lat="28.257106" lon="105.222669"><ele>488.40842</ele><time>2026-05-30T23:38:18.000Z</time></trkpt>
        <trkpt lat="28.257157" lon="105.222654"><ele>485.7601</ele><time>2026-05-30T23:38:28.000Z</time></trkpt>
        <trkpt lat="28.257209" lon="105.222662"><ele>486.28085</ele><time>2026-05-30T23:38:42.000Z</time></trkpt>
        <trkpt lat="28.257225" lon="105.222712"><ele>483.82306</ele><time>2026-05-30T23:38:52.000Z</time></trkpt>
        <trkpt lat="28.257234" lon="105.22277"><ele>483.62125</ele><time>2026-05-30T23:38:58.000Z</time></trkpt>
        <trkpt lat="28.257192" lon="105.2228"><ele>483.3791</ele><time>2026-05-30T23:39:04.000Z</time></trkpt>
        <trkpt lat="28.257182" lon="105.22285"><ele>484.3134</ele><time>2026-05-30T23:39:07.000Z</time></trkpt>
        <trkpt lat="28.25716" lon="105.222898"><ele>483.73215</ele><time>2026-05-30T23:39:13.000Z</time></trkpt>
        <trkpt lat="28.257126" lon="105.222936"><ele>484.95367</ele><time>2026-05-30T23:39:19.000Z</time></trkpt>
        <trkpt lat="28.257114" lon="105.222992"><ele>486.16156</ele><time>2026-05-30T23:39:24.000Z</time></trkpt>
        <trkpt lat="28.257092" lon="105.223046"><ele>486.09955</ele><time>2026-05-30T23:39:29.000Z</time></trkpt>
        <trkpt lat="28.257072" lon="105.223101"><ele>485.58224</ele><time>2026-05-30T23:39:33.000Z</time></trkpt>
        <trkpt lat="28.257038" lon="105.223144"><ele>485.48743</ele><time>2026-05-30T23:39:38.000Z</time></trkpt>
        <trkpt lat="28.257012" lon="105.223193"><ele>486.23193</ele><time>2026-05-30T23:39:43.000Z</time></trkpt>
        <trkpt lat="28.256986" lon="105.223238"><ele>485.22916</ele><time>2026-05-30T23:39:47.000Z</time></trkpt>
        <trkpt lat="28.256974" lon="105.223292"><ele>486.25217</ele><time>2026-05-30T23:39:52.000Z</time></trkpt>
        <trkpt lat="28.256925" lon="105.223334"><ele>486.09613</ele><time>2026-05-30T23:39:58.000Z</time></trkpt>
        <trkpt lat="28.256901" lon="105.223388"><ele>485.09116</ele><time>2026-05-30T23:40:03.000Z</time></trkpt>
        <trkpt lat="28.256912" lon="105.223446"><ele>487.80527</ele><time>2026-05-30T23:40:17.000Z</time></trkpt>
        <trkpt lat="28.256875" lon="105.223496"><ele>487.33087</ele><time>2026-05-30T23:40:28.000Z</time></trkpt>
        <trkpt lat="28.25683" lon="105.223529"><ele>488.54892</ele><time>2026-05-30T23:40:37.000Z</time></trkpt>
        <trkpt lat="28.25679" lon="105.223569"><ele>488.3654</ele><time>2026-05-30T23:40:46.000Z</time></trkpt>
        <trkpt lat="28.256752" lon="105.223606"><ele>487.69983</ele><time>2026-05-30T23:40:53.000Z</time></trkpt>
        <trkpt lat="28.256797" lon="105.223632"><ele>487.4813</ele><time>2026-05-30T23:41:19.000Z</time></trkpt>
        <trkpt lat="28.256843" lon="105.223599"><ele>488.281</ele><time>2026-05-30T23:41:24.000Z</time></trkpt>
        <trkpt lat="28.256886" lon="105.223581"><ele>489.31436</ele><time>2026-05-30T23:41:28.000Z</time></trkpt>
        <trkpt lat="28.256938" lon="105.223574"><ele>489.91824</ele><time>2026-05-30T23:41:34.000Z</time></trkpt>
        <trkpt lat="28.256888" lon="105.223573"><ele>490.02682</ele><time>2026-05-30T23:41:53.000Z</time></trkpt>
        <trkpt lat="28.256841" lon="105.223588"><ele>488.93646</ele><time>2026-05-30T23:42:03.000Z</time></trkpt>
        <trkpt lat="28.25679" lon="105.223596"><ele>488.86288</ele><time>2026-05-30T23:42:07.000Z</time></trkpt>
        <trkpt lat="28.256743" lon="105.223617"><ele>487.68457</ele><time>2026-05-30T23:42:11.000Z</time></trkpt>
        <trkpt lat="28.256781" lon="105.223571"><ele>485.24292</ele><time>2026-05-30T23:42:20.000Z</time></trkpt>
        <trkpt lat="28.256817" lon="105.223532"><ele>485.68723</ele><time>2026-05-30T23:42:24.000Z</time></trkpt>
        <trkpt lat="28.256854" lon="105.223494"><ele>487.04913</ele><time>2026-05-30T23:42:34.000Z</time></trkpt>
        <trkpt lat="28.25689" lon="105.223459"><ele>488.40872</ele><time>2026-05-30T23:43:01.000Z</time></trkpt>
        <trkpt lat="28.256934" lon="105.223442"><ele>487.71066</ele><time>2026-05-30T23:44:20.000Z</time></trkpt>
        <trkpt lat="28.256977" lon="105.223421"><ele>487.0317</ele><time>2026-05-30T23:44:28.000Z</time></trkpt>
        <trkpt lat="28.257017" lon="105.22339"><ele>485.61594</ele><time>2026-05-30T23:44:33.000Z</time></trkpt>
        <trkpt lat="28.257061" lon="105.223357"><ele>483.98944</ele><time>2026-05-30T23:44:39.000Z</time></trkpt>
        <trkpt lat="28.257104" lon="105.223333"><ele>483.659</ele><time>2026-05-30T23:44:43.000Z</time></trkpt>
        <trkpt lat="28.25714" lon="105.2233"><ele>482.7998</ele><time>2026-05-30T23:44:48.000Z</time></trkpt>
        <trkpt lat="28.257178" lon="105.223265"><ele>483.0302</ele><time>2026-05-30T23:44:52.000Z</time></trkpt>
        <trkpt lat="28.257212" lon="105.223223"><ele>482.06903</ele><time>2026-05-30T23:45:01.000Z</time></trkpt>
        <trkpt lat="28.257263" lon="105.223203"><ele>480.43408</ele><time>2026-05-30T23:45:08.000Z</time></trkpt>
        <trkpt lat="28.257298" lon="105.223166"><ele>478.0817</ele><time>2026-05-30T23:45:12.000Z</time></trkpt>
        <trkpt lat="28.257354" lon="105.223146"><ele>476.22668</ele><time>2026-05-30T23:45:17.000Z</time></trkpt>
        <trkpt lat="28.257397" lon="105.223184"><ele>475.74414</ele><time>2026-05-30T23:45:21.000Z</time></trkpt>
        <trkpt lat="28.25745" lon="105.223199"><ele>475.9459</ele><time>2026-05-30T23:45:25.000Z</time></trkpt>
        <trkpt lat="28.257502" lon="105.223211"><ele>474.5593</ele><time>2026-05-30T23:45:30.000Z</time></trkpt>
        <trkpt lat="28.257557" lon="105.223203"><ele>474.21964</ele><time>2026-05-30T23:45:35.000Z</time></trkpt>
        <trkpt lat="28.257602" lon="105.223219"><ele>473.3192</ele><time>2026-05-30T23:45:43.000Z</time></trkpt>
        <trkpt lat="28.257651" lon="105.223224"><ele>470.09048</ele><time>2026-05-30T23:45:49.000Z</time></trkpt>
        <trkpt lat="28.257695" lon="105.223242"><ele>470.5939</ele><time>2026-05-30T23:45:52.000Z</time></trkpt>
        <trkpt lat="28.257742" lon="105.223266"><ele>470.1321</ele><time>2026-05-30T23:45:56.000Z</time></trkpt>
        <trkpt lat="28.257797" lon="105.223285"><ele>469.92673</ele><time>2026-05-30T23:46:04.000Z</time></trkpt>
        <trkpt lat="28.257853" lon="105.223297"><ele>468.79813</ele><time>2026-05-30T23:46:07.000Z</time></trkpt>
        <trkpt lat="28.2579" lon="105.223297"><ele>467.8905</ele><time>2026-05-30T23:46:13.000Z</time></trkpt>
        <trkpt lat="28.257946" lon="105.22331"><ele>466.35672</ele><time>2026-05-30T23:46:18.000Z</time></trkpt>
        <trkpt lat="28.257991" lon="105.223337"><ele>466.30078</ele><time>2026-05-30T23:46:21.000Z</time></trkpt>
        <trkpt lat="28.258007" lon="105.223384"><ele>467.31653</ele><time>2026-05-30T23:46:25.000Z</time></trkpt>
        <trkpt lat="28.258059" lon="105.223409"><ele>467.48032</ele><time>2026-05-30T23:46:28.000Z</time></trkpt>
        <trkpt lat="28.258098" lon="105.223444"><ele>468.28122</ele><time>2026-05-30T23:46:31.000Z</time></trkpt>
        <trkpt lat="28.258143" lon="105.223472"><ele>469.75906</ele><time>2026-05-30T23:46:34.000Z</time></trkpt>
        <trkpt lat="28.258196" lon="105.223497"><ele>470.03775</ele><time>2026-05-30T23:46:38.000Z</time></trkpt>
        <trkpt lat="28.258245" lon="105.223514"><ele>467.50735</ele><time>2026-05-30T23:46:42.000Z</time></trkpt>
        <trkpt lat="28.258287" lon="105.223554"><ele>466.8832</ele><time>2026-05-30T23:46:47.000Z</time></trkpt>
        <trkpt lat="28.258326" lon="105.223581"><ele>463.96295</ele><time>2026-05-30T23:46:55.000Z</time></trkpt>
        <trkpt lat="28.258373" lon="105.22359"><ele>464.69485</ele><time>2026-05-30T23:47:01.000Z</time></trkpt>
        <trkpt lat="28.258407" lon="105.223553"><ele>463.0963</ele><time>2026-05-30T23:47:04.000Z</time></trkpt>
        <trkpt lat="28.258414" lon="105.223497"><ele>462.19516</ele><time>2026-05-30T23:47:07.000Z</time></trkpt>
        <trkpt lat="28.258416" lon="105.223437"><ele>462.42404</ele><time>2026-05-30T23:47:11.000Z</time></trkpt>
        <trkpt lat="28.258407" lon="105.223375"><ele>463.48038</ele><time>2026-05-30T23:47:15.000Z</time></trkpt>
        <trkpt lat="28.258392" lon="105.22332"><ele>463.19266</ele><time>2026-05-30T23:47:22.000Z</time></trkpt>
        <trkpt lat="28.258418" lon="105.223275"><ele>459.2806</ele><time>2026-05-30T23:47:26.000Z</time></trkpt>
        <trkpt lat="28.258377" lon="105.223256"><ele>460.06488</ele><time>2026-05-30T23:47:27.000Z</time></trkpt>
        <trkpt lat="28.258377" lon="105.2232"><ele>459.5377</ele><time>2026-05-30T23:47:34.000Z</time></trkpt>
        <trkpt lat="28.258387" lon="105.223142"><ele>457.34595</ele><time>2026-05-30T23:47:40.000Z</time></trkpt>
        <trkpt lat="28.258377" lon="105.223086"><ele>455.47543</ele><time>2026-05-30T23:47:48.000Z</time></trkpt>
        <trkpt lat="28.258346" lon="105.223037"><ele>454.58728</ele><time>2026-05-30T23:47:53.000Z</time></trkpt>
        <trkpt lat="28.258304" lon="105.223002"><ele>453.04974</ele><time>2026-05-30T23:47:58.000Z</time></trkpt>
        <trkpt lat="28.258264" lon="105.222968"><ele>451.89987</ele><time>2026-05-30T23:48:04.000Z</time></trkpt>
        <trkpt lat="28.258223" lon="105.222937"><ele>451.31744</ele><time>2026-05-30T23:48:09.000Z</time></trkpt>
        <trkpt lat="28.258178" lon="105.222898"><ele>451.33115</ele><time>2026-05-30T23:48:14.000Z</time></trkpt>
        <trkpt lat="28.258213" lon="105.222859"><ele>449.3972</ele><time>2026-05-30T23:48:23.000Z</time></trkpt>
        <trkpt lat="28.258254" lon="105.222835"><ele>447.67273</ele><time>2026-05-30T23:48:32.000Z</time></trkpt>
        <trkpt lat="28.258303" lon="105.222811"><ele>446.67667</ele><time>2026-05-30T23:48:39.000Z</time></trkpt>
        <trkpt lat="28.258341" lon="105.222767"><ele>444.8265</ele><time>2026-05-30T23:48:45.000Z</time></trkpt>
        <trkpt lat="28.258385" lon="105.222746"><ele>442.91827</ele><time>2026-05-30T23:48:51.000Z</time></trkpt>
        <trkpt lat="28.258432" lon="105.222744"><ele>440.8808</ele><time>2026-05-30T23:48:58.000Z</time></trkpt>
        <trkpt lat="28.258478" lon="105.222719"><ele>439.79614</ele><time>2026-05-30T23:49:04.000Z</time></trkpt>
        <trkpt lat="28.258516" lon="105.222678"><ele>437.88647</ele><time>2026-05-30T23:49:11.000Z</time></trkpt>
        <trkpt lat="28.258535" lon="105.222631"><ele>435.7412</ele><time>2026-05-30T23:49:18.000Z</time></trkpt>
        <trkpt lat="28.258555" lon="105.222579"><ele>435.73608</ele><time>2026-05-30T23:49:23.000Z</time></trkpt>
        <trkpt lat="28.258582" lon="105.222531"><ele>434.36008</ele><time>2026-05-30T23:49:27.000Z</time></trkpt>
        <trkpt lat="28.258609" lon="105.22248"><ele>433.8519</ele><time>2026-05-30T23:49:36.000Z</time></trkpt>
        <trkpt lat="28.258613" lon="105.222419"><ele>432.54672</ele><time>2026-05-30T23:49:40.000Z</time></trkpt>
        <trkpt lat="28.258629" lon="105.222363"><ele>431.24988</ele><time>2026-05-30T23:49:44.000Z</time></trkpt>
        <trkpt lat="28.258636" lon="105.222309"><ele>430.90753</ele><time>2026-05-30T23:49:47.000Z</time></trkpt>
        <trkpt lat="28.258633" lon="105.222249"><ele>429.6041</ele><time>2026-05-30T23:49:51.000Z</time></trkpt>
        <trkpt lat="28.258626" lon="105.222191"><ele>429.35938</ele><time>2026-05-30T23:49:55.000Z</time></trkpt>
        <trkpt lat="28.258627" lon="105.222135"><ele>429.0807</ele><time>2026-05-30T23:49:58.000Z</time></trkpt>
        <trkpt lat="28.258611" lon="105.222078"><ele>428.31882</ele><time>2026-05-30T23:50:02.000Z</time></trkpt>
        <trkpt lat="28.2586" lon="105.222022"><ele>428.1705</ele><time>2026-05-30T23:50:05.000Z</time></trkpt>
        <trkpt lat="28.258587" lon="105.221966"><ele>427.46848</ele><time>2026-05-30T23:50:09.000Z</time></trkpt>
        <trkpt lat="28.258575" lon="105.221903"><ele>426.2633</ele><time>2026-05-30T23:50:13.000Z</time></trkpt>
        <trkpt lat="28.258574" lon="105.221836"><ele>425.8433</ele><time>2026-05-30T23:50:17.000Z</time></trkpt>
        <trkpt lat="28.25857" lon="105.221773"><ele>425.69577</ele><time>2026-05-30T23:50:20.000Z</time></trkpt>
        <trkpt lat="28.258582" lon="105.22172"><ele>424.7075</ele><time>2026-05-30T23:50:23.000Z</time></trkpt>
        <trkpt lat="28.258604" lon="105.221673"><ele>423.96442</ele><time>2026-05-30T23:50:26.000Z</time></trkpt>
        <trkpt lat="28.258639" lon="105.22162"><ele>421.82925</ele><time>2026-05-30T23:50:30.000Z</time></trkpt>
        <trkpt lat="28.258675" lon="105.221573"><ele>420.01526</ele><time>2026-05-30T23:50:33.000Z</time></trkpt>
        <trkpt lat="28.258729" lon="105.221551"><ele>418.45044</ele><time>2026-05-30T23:50:37.000Z</time></trkpt>
        <trkpt lat="28.258772" lon="105.221509"><ele>416.31348</ele><time>2026-05-30T23:50:41.000Z</time></trkpt>
        <trkpt lat="28.258791" lon="105.221463"><ele>414.04123</ele><time>2026-05-30T23:50:45.000Z</time></trkpt>
        <trkpt lat="28.258797" lon="105.221411"><ele>413.67212</ele><time>2026-05-30T23:50:48.000Z</time></trkpt>
        <trkpt lat="28.258792" lon="105.221334"><ele>412.0985</ele><time>2026-05-30T23:50:53.000Z</time></trkpt>
        <trkpt lat="28.258785" lon="105.22128"><ele>412.27246</ele><time>2026-05-30T23:50:59.000Z</time></trkpt>
        <trkpt lat="28.258764" lon="105.221219"><ele>410.9544</ele><time>2026-05-30T23:51:04.000Z</time></trkpt>
        <trkpt lat="28.258744" lon="105.22117"><ele>409.94275</ele><time>2026-05-30T23:51:07.000Z</time></trkpt>
        <trkpt lat="28.258723" lon="105.221125"><ele>410.01758</ele><time>2026-05-30T23:51:10.000Z</time></trkpt>
        <trkpt lat="28.25869" lon="105.221074"><ele>408.4511</ele><time>2026-05-30T23:51:16.000Z</time></trkpt>
        <trkpt lat="28.258668" lon="105.221023"><ele>408.29596</ele><time>2026-05-30T23:51:19.000Z</time></trkpt>
        <trkpt lat="28.258637" lon="105.220962"><ele>407.90454</ele><time>2026-05-30T23:51:22.000Z</time></trkpt>
        <trkpt lat="28.258617" lon="105.220902"><ele>408.0883</ele><time>2026-05-30T23:51:26.000Z</time></trkpt>
        <trkpt lat="28.258598" lon="105.220853"><ele>406.90753</ele><time>2026-05-30T23:51:30.000Z</time></trkpt>
        <trkpt lat="28.258567" lon="105.220799"><ele>406.59677</ele><time>2026-05-30T23:51:33.000Z</time></trkpt>
        <trkpt lat="28.258545" lon="105.220733"><ele>405.32114</ele><time>2026-05-30T23:51:37.000Z</time></trkpt>
        <trkpt lat="28.258517" lon="105.22068"><ele>404.80875</ele><time>2026-05-30T23:51:40.000Z</time></trkpt>
        <trkpt lat="28.258488" lon="105.220623"><ele>403.7485</ele><time>2026-05-30T23:51:44.000Z</time></trkpt>
        <trkpt lat="28.258464" lon="105.220572"><ele>404.9386</ele><time>2026-05-30T23:51:48.000Z</time></trkpt>
        <trkpt lat="28.258417" lon="105.220564"><ele>405.79642</ele><time>2026-05-30T23:53:03.000Z</time></trkpt>
        <trkpt lat="28.258439" lon="105.220612"><ele>405.0671</ele><time>2026-05-30T23:53:46.000Z</time></trkpt>
        <trkpt lat="28.258472" lon="105.220572"><ele>406.20367</ele><time>2026-05-30T23:54:07.000Z</time></trkpt>
        <trkpt lat="28.258483" lon="105.220522"><ele>407.59064</ele><time>2026-05-30T23:56:56.000Z</time></trkpt>
        <trkpt lat="28.258436" lon="105.220516"><ele>409.60202</ele><time>2026-05-30T23:57:23.000Z</time></trkpt>
        <trkpt lat="28.258401" lon="105.220477"><ele>407.65884</ele><time>2026-05-30T23:57:54.000Z</time></trkpt>
        <trkpt lat="28.25838" lon="105.220428"><ele>406.88083</ele><time>2026-05-30T23:57:58.000Z</time></trkpt>
        <trkpt lat="28.25837" lon="105.220369"><ele>404.79285</ele><time>2026-05-30T23:58:03.000Z</time></trkpt>
        <trkpt lat="28.258349" lon="105.220317"><ele>402.80502</ele><time>2026-05-30T23:58:09.000Z</time></trkpt>
        <trkpt lat="28.258332" lon="105.220259"><ele>400.64285</ele><time>2026-05-30T23:58:16.000Z</time></trkpt>
        <trkpt lat="28.25833" lon="105.220201"><ele>399.4693</ele><time>2026-05-30T23:58:21.000Z</time></trkpt>
        <trkpt lat="28.258374" lon="105.220185"><ele>399.73184</ele><time>2026-05-30T23:58:22.000Z</time></trkpt>
        <trkpt lat="28.258327" lon="105.220177"><ele>399.9345</ele><time>2026-05-30T23:58:23.000Z</time></trkpt>
        <trkpt lat="28.258326" lon="105.220122"><ele>399.0099</ele><time>2026-05-30T23:58:27.000Z</time></trkpt>
        <trkpt lat="28.25834" lon="105.220066"><ele>398.0797</ele><time>2026-05-30T23:58:31.000Z</time></trkpt>
        <trkpt lat="28.258333" lon="105.220013"><ele>396.57443</ele><time>2026-05-30T23:58:36.000Z</time></trkpt>
        <trkpt lat="28.258335" lon="105.219961"><ele>396.2773</ele><time>2026-05-30T23:58:40.000Z</time></trkpt>
        <trkpt lat="28.258324" lon="105.219902"><ele>393.54056</ele><time>2026-05-30T23:58:45.000Z</time></trkpt>
        <trkpt lat="28.258293" lon="105.219858"><ele>392.99744</ele><time>2026-05-30T23:58:49.000Z</time></trkpt>
        <trkpt lat="28.258259" lon="105.219811"><ele>390.02032</ele><time>2026-05-30T23:58:53.000Z</time></trkpt>
        <trkpt lat="28.258218" lon="105.21978"><ele>388.93387</ele><time>2026-05-30T23:58:57.000Z</time></trkpt>
        <trkpt lat="28.258168" lon="105.219759"><ele>387.97366</ele><time>2026-05-30T23:59:03.000Z</time></trkpt>
        <trkpt lat="28.258116" lon="105.21976"><ele>387.71545</ele><time>2026-05-30T23:59:08.000Z</time></trkpt>
        <trkpt lat="28.258071" lon="105.219783"><ele>386.06982</ele><time>2026-05-30T23:59:13.000Z</time></trkpt>
        <trkpt lat="28.258035" lon="105.219815"><ele>385.80966</ele><time>2026-05-30T23:59:17.000Z</time></trkpt>
        <trkpt lat="28.257991" lon="105.219852"><ele>385.37366</ele><time>2026-05-30T23:59:22.000Z</time></trkpt>
        <trkpt lat="28.257952" lon="105.21988"><ele>385.1323</ele><time>2026-05-30T23:59:26.000Z</time></trkpt>
        <trkpt lat="28.257909" lon="105.219914"><ele>385.0839</ele><time>2026-05-30T23:59:30.000Z</time></trkpt>
        <trkpt lat="28.257866" lon="105.219936"><ele>384.86447</ele><time>2026-05-30T23:59:34.000Z</time></trkpt>
        <trkpt lat="28.257815" lon="105.21996"><ele>384.13654</ele><time>2026-05-30T23:59:39.000Z</time></trkpt>
        <trkpt lat="28.257769" lon="105.219981"><ele>383.5947</ele><time>2026-05-30T23:59:44.000Z</time></trkpt>
        <trkpt lat="28.257724" lon="105.219969"><ele>383.27487</ele><time>2026-05-30T23:59:49.000Z</time></trkpt>
        <trkpt lat="28.257787" lon="105.219966"><ele>385.9508</ele><time>2026-05-31T00:00:02.000Z</time></trkpt>
        <trkpt lat="28.257833" lon="105.219942"><ele>385.25983</ele><time>2026-05-31T00:00:05.000Z</time></trkpt>
        <trkpt lat="28.257881" lon="105.219916"><ele>384.22992</ele><time>2026-05-31T00:00:08.000Z</time></trkpt>
        <trkpt lat="28.257922" lon="105.219892"><ele>385.44296</ele><time>2026-05-31T00:00:12.000Z</time></trkpt>
        <trkpt lat="28.25797" lon="105.219856"><ele>385.65756</ele><time>2026-05-31T00:00:19.000Z</time></trkpt>
        <trkpt lat="28.25801" lon="105.219823"><ele>387.36234</ele><time>2026-05-31T00:00:23.000Z</time></trkpt>
        <trkpt lat="28.258057" lon="105.219793"><ele>389.47742</ele><time>2026-05-31T00:00:28.000Z</time></trkpt>
        <trkpt lat="28.258113" lon="105.219784"><ele>388.8104</ele><time>2026-05-31T00:00:38.000Z</time></trkpt>
        <trkpt lat="28.25816" lon="105.219781"><ele>389.74863</ele><time>2026-05-31T00:00:43.000Z</time></trkpt>
        <trkpt lat="28.258201" lon="105.219754"><ele>390.04968</ele><time>2026-05-31T00:00:50.000Z</time></trkpt>
        <trkpt lat="28.258252" lon="105.219752"><ele>388.9398</ele><time>2026-05-31T00:00:57.000Z</time></trkpt>
        <trkpt lat="28.258307" lon="105.219751"><ele>387.39224</ele><time>2026-05-31T00:01:02.000Z</time></trkpt>
        <trkpt lat="28.258358" lon="105.219758"><ele>387.11423</ele><time>2026-05-31T00:01:06.000Z</time></trkpt>
        <trkpt lat="28.258417" lon="105.21977"><ele>385.6549</ele><time>2026-05-31T00:01:09.000Z</time></trkpt>
        <trkpt lat="28.258464" lon="105.219784"><ele>385.78052</ele><time>2026-05-31T00:01:12.000Z</time></trkpt>
        <trkpt lat="28.258516" lon="105.219792"><ele>384.23755</ele><time>2026-05-31T00:02:03.000Z</time></trkpt>
        <trkpt lat="28.258553" lon="105.219824"><ele>384.27216</ele><time>2026-05-31T00:02:05.000Z</time></trkpt>
        <trkpt lat="28.258589" lon="105.219863"><ele>384.806</ele><time>2026-05-31T00:02:08.000Z</time></trkpt>
        <trkpt lat="28.258618" lon="105.219904"><ele>385.40314</ele><time>2026-05-31T00:02:11.000Z</time></trkpt>
        <trkpt lat="28.25866" lon="105.219931"><ele>383.6691</ele><time>2026-05-31T00:02:16.000Z</time></trkpt>
        <trkpt lat="28.258706" lon="105.219948"><ele>381.43442</ele><time>2026-05-31T00:02:20.000Z</time></trkpt>
        <trkpt lat="28.258745" lon="105.219975"><ele>382.161</ele><time>2026-05-31T00:02:23.000Z</time></trkpt>
        <trkpt lat="28.258776" lon="105.220016"><ele>381.54187</ele><time>2026-05-31T00:02:26.000Z</time></trkpt>
        <trkpt lat="28.25879" lon="105.220067"><ele>379.86728</ele><time>2026-05-31T00:02:30.000Z</time></trkpt>
        <trkpt lat="28.25883" lon="105.220041"><ele>378.94577</ele><time>2026-05-31T00:02:39.000Z</time></trkpt>
        <trkpt lat="28.258855" lon="105.219988"><ele>377.5847</ele><time>2026-05-31T00:02:45.000Z</time></trkpt>
        <trkpt lat="28.258893" lon="105.219954"><ele>374.84158</ele><time>2026-05-31T00:02:52.000Z</time></trkpt>
        <trkpt lat="28.258908" lon="105.2199"><ele>374.89758</ele><time>2026-05-31T00:03:06.000Z</time></trkpt>
        <trkpt lat="28.258934" lon="105.219855"><ele>372.51794</ele><time>2026-05-31T00:03:11.000Z</time></trkpt>
        <trkpt lat="28.258921" lon="105.219791"><ele>370.84888</ele><time>2026-05-31T00:03:15.000Z</time></trkpt>
        <trkpt lat="28.258903" lon="105.219742"><ele>369.59836</ele><time>2026-05-31T00:03:18.000Z</time></trkpt>
        <trkpt lat="28.258886" lon="105.219685"><ele>369.4601</ele><time>2026-05-31T00:03:22.000Z</time></trkpt>
        <trkpt lat="28.258879" lon="105.219634"><ele>368.27032</ele><time>2026-05-31T00:03:26.000Z</time></trkpt>
        <trkpt lat="28.258855" lon="105.219585"><ele>366.2469</ele><time>2026-05-31T00:03:34.000Z</time></trkpt>
        <trkpt lat="28.258827" lon="105.219534"><ele>365.70807</ele><time>2026-05-31T00:03:38.000Z</time></trkpt>
        <trkpt lat="28.258813" lon="105.219477"><ele>364.3352</ele><time>2026-05-31T00:03:43.000Z</time></trkpt>
        <trkpt lat="28.258781" lon="105.219423"><ele>364.0759</ele><time>2026-05-31T00:03:47.000Z</time></trkpt>
        <trkpt lat="28.258732" lon="105.219387"><ele>363.62384</ele><time>2026-05-31T00:03:51.000Z</time></trkpt>
        <trkpt lat="28.258686" lon="105.219369"><ele>362.70755</ele><time>2026-05-31T00:03:55.000Z</time></trkpt>
        <trkpt lat="28.258639" lon="105.219361"><ele>362.18326</ele><time>2026-05-31T00:03:59.000Z</time></trkpt>
        <trkpt lat="28.258585" lon="105.219359"><ele>362.4338</ele><time>2026-05-31T00:04:04.000Z</time></trkpt>
        <trkpt lat="28.258543" lon="105.219336"><ele>362.27252</ele><time>2026-05-31T00:04:08.000Z</time></trkpt>
        <trkpt lat="28.2585" lon="105.21931"><ele>361.26364</ele><time>2026-05-31T00:04:12.000Z</time></trkpt>
        <trkpt lat="28.258463" lon="105.219277"><ele>361.73087</ele><time>2026-05-31T00:04:15.000Z</time></trkpt>
        <trkpt lat="28.258412" lon="105.219266"><ele>361.3754</ele><time>2026-05-31T00:04:20.000Z</time></trkpt>
        <trkpt lat="28.258363" lon="105.219247"><ele>361.0463</ele><time>2026-05-31T00:04:24.000Z</time></trkpt>
        <trkpt lat="28.258318" lon="105.219219"><ele>360.6779</ele><time>2026-05-31T00:04:28.000Z</time></trkpt>
        <trkpt lat="28.258279" lon="105.219181"><ele>359.58554</ele><time>2026-05-31T00:04:33.000Z</time></trkpt>
        <trkpt lat="28.258243" lon="105.219127"><ele>358.80035</ele><time>2026-05-31T00:04:38.000Z</time></trkpt>
        <trkpt lat="28.258211" lon="105.219074"><ele>358.02542</ele><time>2026-05-31T00:04:42.000Z</time></trkpt>
        <trkpt lat="28.258188" lon="105.219016"><ele>357.6571</ele><time>2026-05-31T00:04:46.000Z</time></trkpt>
        <trkpt lat="28.258177" lon="105.218956"><ele>358.29642</ele><time>2026-05-31T00:04:50.000Z</time></trkpt>
        <trkpt lat="28.258159" lon="105.218903"><ele>358.66525</ele><time>2026-05-31T00:04:54.000Z</time></trkpt>
        <trkpt lat="28.258142" lon="105.218843"><ele>357.6325</ele><time>2026-05-31T00:04:58.000Z</time></trkpt>
        <trkpt lat="28.258142" lon="105.218789"><ele>357.7212</ele><time>2026-05-31T00:05:01.000Z</time></trkpt>
        <trkpt lat="28.258155" lon="105.218737"><ele>358.30667</ele><time>2026-05-31T00:05:04.000Z</time></trkpt>
        <trkpt lat="28.258162" lon="105.218684"><ele>359.66516</ele><time>2026-05-31T00:05:07.000Z</time></trkpt>
        <trkpt lat="28.25816" lon="105.218622"><ele>360.81055</ele><time>2026-05-31T00:05:10.000Z</time></trkpt>
        <trkpt lat="28.258175" lon="105.218571"><ele>362.60056</ele><time>2026-05-31T00:05:13.000Z</time></trkpt>
        <trkpt lat="28.258206" lon="105.218529"><ele>363.9072</ele><time>2026-05-31T00:05:17.000Z</time></trkpt>
        <trkpt lat="28.258261" lon="105.218542"><ele>363.74783</ele><time>2026-05-31T00:05:21.000Z</time></trkpt>
        <trkpt lat="28.258303" lon="105.218578"><ele>363.7874</ele><time>2026-05-31T00:05:24.000Z</time></trkpt>
        <trkpt lat="28.258346" lon="105.218608"><ele>363.20633</ele><time>2026-05-31T00:05:27.000Z</time></trkpt>
        <trkpt lat="28.258401" lon="105.218633"><ele>361.42758</ele><time>2026-05-31T00:05:31.000Z</time></trkpt>
        <trkpt lat="28.25845" lon="105.218634"><ele>361.18484</ele><time>2026-05-31T00:05:35.000Z</time></trkpt>
        <trkpt lat="28.258498" lon="105.218636"><ele>361.0956</ele><time>2026-05-31T00:05:38.000Z</time></trkpt>
        <trkpt lat="28.258537" lon="105.218603"><ele>361.14914</ele><time>2026-05-31T00:05:41.000Z</time></trkpt>
        <trkpt lat="28.258554" lon="105.218549"><ele>359.97827</ele><time>2026-05-31T00:05:44.000Z</time></trkpt>
        <trkpt lat="28.258561" lon="105.218499"><ele>358.79105</ele><time>2026-05-31T00:05:47.000Z</time></trkpt>
        <trkpt lat="28.258559" lon="105.218447"><ele>358.94827</ele><time>2026-05-31T00:05:50.000Z</time></trkpt>
        <trkpt lat="28.25854" lon="105.21839"><ele>358.18268</ele><time>2026-05-31T00:05:54.000Z</time></trkpt>
        <trkpt lat="28.258501" lon="105.218358"><ele>359.37515</ele><time>2026-05-31T00:05:57.000Z</time></trkpt>
        <trkpt lat="28.258478" lon="105.21831"><ele>361.14325</ele><time>2026-05-31T00:06:46.000Z</time></trkpt>
      </trkseg>
  </trk>
</gpx>